<?xml version="1.0" encoding="UTF-8" standalone="no" ?>
<gpx xmlns="http://www.topografix.com/GPX/1/1" xmlns:xsi="http://www.w3.org/2001/XMLSchema-instance" xsi:schemaLocation="http://www.topografix.com/GPX/1/1 http://www.topografix.com/GPX/1/1/gpx.xsd" version="1.1" creator="VisuGPX - https://www.visugpx.com">
  <metadata>
    <name>Ecrins 2021</name>
  </metadata>
  <wpt lat="44.8396" lon="6.47901">
    <ele>1191.4</ele>
    <name><![CDATA[Vallouise]]></name>
  </wpt>
  <wpt lat="44.83903" lon="6.47524">
    <ele>1196.1</ele>
    <name><![CDATA[Pont des Fontaines]]></name>
  </wpt>
  <wpt lat="44.83931" lon="6.45488">
    <ele>1245.7</ele>
    <name><![CDATA[Pont des Places]]></name>
  </wpt>
  <wpt lat="44.83632" lon="6.44255">
    <ele>1309.8</ele>
    <name><![CDATA[Eboulement]]></name>
  </wpt>
  <wpt lat="44.83869" lon="6.44564">
    <ele>1289.8</ele>
    <name><![CDATA[Les Grésourières]]></name>
  </wpt>
  <wpt lat="44.83597" lon="6.43037">
    <ele>1466.9</ele>
    <name><![CDATA[Béassac]]></name>
  </wpt>
  <wpt lat="44.83117" lon="6.40174">
    <ele>1622.1</ele>
    <name><![CDATA[Entre les Aygues]]></name>
  </wpt>
  <wpt lat="44.83049" lon="6.40124">
    <ele>1609.1</ele>
    <name><![CDATA[Passerelle sur le torrent des Bans]]></name>
  </wpt>
  <wpt lat="44.81358" lon="6.38864">
    <ele>1836.5</ele>
    <name><![CDATA[Panneau d'entrée dans le parc des Ecrins]]></name>
  </wpt>
  <wpt lat="44.80661" lon="6.37616">
    <ele>1939.8</ele>
    <name><![CDATA[Passerelle sur le ruisseau du Ravin du Blanc]]></name>
  </wpt>
  <wpt lat="44.8009" lon="6.36589">
    <ele>2016.2</ele>
    <name><![CDATA[Passerelle sur le ruisseau de Chanteloube]]></name>
  </wpt>
  <wpt lat="44.79287" lon="6.36504">
    <ele>2131</ele>
    <name><![CDATA[1er ressaut]]></name>
  </wpt>
  <wpt lat="44.79042" lon="6.36483">
    <ele>2165</ele>
    <name><![CDATA[2ème ressaut]]></name>
  </wpt>
  <wpt lat="44.78733" lon="6.36223">
    <ele>2279.1</ele>
    <name><![CDATA[Champ Rond]]></name>
  </wpt>
  <wpt lat="44.78227" lon="6.35819">
    <ele>2498.2</ele>
    <name><![CDATA[Torrent de la Saume]]></name>
  </wpt>
  <wpt lat="44.76133" lon="6.34075">
    <ele>2074.9</ele>
    <name><![CDATA[Cabanes de Rougnoux]]></name>
  </wpt>
  <wpt lat="44.7633" lon="6.33688">
    <ele>1969.9</ele>
    <name><![CDATA[Passerelle sur le torrent de Rougnoux]]></name>
  </wpt>
  <wpt lat="44.7672" lon="6.32888">
    <ele>1831.2</ele>
    <name><![CDATA[Bivouac du refuge du Pré de la Chaumette]]></name>
  </wpt>
  <wpt lat="44.7729" lon="6.31142">
    <ele>2512.9</ele>
    <name><![CDATA[Sous le Puy de la Chaumette]]></name>
  </wpt>
  <wpt lat="44.81151" lon="6.29603">
    <ele>1704.7</ele>
    <name><![CDATA[Passerelle sur le torrent de Vallonpierre]]></name>
  </wpt>
  <wpt lat="44.81485" lon="6.29576">
    <ele>1660.5</ele>
    <name><![CDATA[Torrent de Vallonpierre]]></name>
  </wpt>
  <wpt lat="44.82482" lon="6.29325">
    <ele>1569.6</ele>
    <name><![CDATA[Passerelle sur la Séveraisse]]></name>
  </wpt>
  <wpt lat="44.82779" lon="6.29194">
    <ele>1545.2</ele>
    <name><![CDATA[Passerelle sur le Torrent de Pis Baumette]]></name>
  </wpt>
  <wpt lat="44.83173" lon="6.28114">
    <ele>1439</ele>
    <name><![CDATA[Passerelle sur le Torrent du Gioberney]]></name>
  </wpt>
  <wpt lat="44.8266" lon="6.26079">
    <ele>1402.8</ele>
    <name><![CDATA[Rif du Sap]]></name>
  </wpt>
  <wpt lat="44.82438" lon="6.23313">
    <ele>1174.1</ele>
    <name><![CDATA[Pont du Hameau du Bourg]]></name>
  </wpt>
  <wpt lat="44.81982" lon="6.21913">
    <ele>1151.2</ele>
    <name><![CDATA[Passerelle du Casset]]></name>
  </wpt>
  <trk>
    <name><![CDATA[E1 : Bourg d'Oisans - Besse]]></name>
    <trkseg>
      <trkpt lat="45.05476" lon="6.03192">
        <ele>719</ele>
        <time>2020-10-27T09:14:36+01:00</time>
      </trkpt>
      <trkpt lat="45.05515" lon="6.03286">
        <ele>718</ele>
        <time>2020-10-27T09:14:41+01:00</time>
      </trkpt>
      <trkpt lat="45.05821" lon="6.03629">
        <ele>715</ele>
        <time>2020-10-27T09:14:46+01:00</time>
      </trkpt>
      <trkpt lat="45.05915" lon="6.03805">
        <ele>716</ele>
        <time>2020-10-27T09:14:51+01:00</time>
      </trkpt>
      <trkpt lat="45.06064" lon="6.03767">
        <ele>717</ele>
        <time>2020-10-27T09:14:56+01:00</time>
      </trkpt>
      <trkpt lat="45.062" lon="6.03719">
        <ele>717</ele>
        <time>2020-10-27T09:15:01+01:00</time>
      </trkpt>
      <trkpt lat="45.06264" lon="6.03698">
        <ele>718</ele>
        <time>2020-10-27T09:15:06+01:00</time>
      </trkpt>
      <trkpt lat="45.06297" lon="6.03724">
        <ele>718</ele>
        <time>2020-10-27T09:15:11+01:00</time>
      </trkpt>
      <trkpt lat="45.06428" lon="6.03895">
        <ele>721</ele>
        <time>2020-10-27T09:15:16+01:00</time>
      </trkpt>
      <trkpt lat="45.06394" lon="6.03994">
        <ele>723</ele>
        <time>2020-10-27T09:15:21+01:00</time>
      </trkpt>
      <trkpt lat="45.064" lon="6.0405">
        <ele>725</ele>
        <time>2020-10-27T09:15:26+01:00</time>
      </trkpt>
      <trkpt lat="45.06385" lon="6.04116">
        <ele>731</ele>
        <time>2020-10-27T09:15:31+01:00</time>
      </trkpt>
      <trkpt lat="45.06423" lon="6.04127">
        <ele>741</ele>
        <time>2020-10-27T09:15:36+01:00</time>
      </trkpt>
      <trkpt lat="45.06428" lon="6.04196">
        <ele>783</ele>
        <time>2020-10-27T09:15:41+01:00</time>
      </trkpt>
      <trkpt lat="45.06359" lon="6.04241">
        <ele>812</ele>
        <time>2020-10-27T09:15:46+01:00</time>
      </trkpt>
      <trkpt lat="45.06394" lon="6.04282">
        <ele>846</ele>
        <time>2020-10-27T09:15:51+01:00</time>
      </trkpt>
      <trkpt lat="45.0644" lon="6.04292">
        <ele>849</ele>
        <time>2020-10-27T09:15:56+01:00</time>
      </trkpt>
      <trkpt lat="45.06352" lon="6.04342">
        <ele>890</ele>
        <time>2020-10-27T09:16:01+01:00</time>
      </trkpt>
      <trkpt lat="45.06331" lon="6.0438">
        <ele>919</ele>
        <time>2020-10-27T09:16:06+01:00</time>
      </trkpt>
      <trkpt lat="45.06361" lon="6.04428">
        <ele>937</ele>
        <time>2020-10-27T09:16:11+01:00</time>
      </trkpt>
      <trkpt lat="45.06381" lon="6.04522">
        <ele>954</ele>
        <time>2020-10-27T09:16:16+01:00</time>
      </trkpt>
      <trkpt lat="45.064" lon="6.04614">
        <ele>970</ele>
        <time>2020-10-27T09:16:21+01:00</time>
      </trkpt>
      <trkpt lat="45.06447" lon="6.04666">
        <ele>974</ele>
        <time>2020-10-27T09:16:26+01:00</time>
      </trkpt>
      <trkpt lat="45.06519" lon="6.04691">
        <ele>982</ele>
        <time>2020-10-27T09:16:31+01:00</time>
      </trkpt>
      <trkpt lat="45.06566" lon="6.04698">
        <ele>987</ele>
        <time>2020-10-27T09:16:36+01:00</time>
      </trkpt>
      <trkpt lat="45.06638" lon="6.04764">
        <ele>993</ele>
        <time>2020-10-27T09:16:41+01:00</time>
      </trkpt>
      <trkpt lat="45.06656" lon="6.04807">
        <ele>996</ele>
        <time>2020-10-27T09:16:46+01:00</time>
      </trkpt>
      <trkpt lat="45.06691" lon="6.04848">
        <ele>997</ele>
        <time>2020-10-27T09:16:51+01:00</time>
      </trkpt>
      <trkpt lat="45.06661" lon="6.0488">
        <ele>1010</ele>
        <time>2020-10-27T09:16:56+01:00</time>
      </trkpt>
      <trkpt lat="45.06681" lon="6.04979">
        <ele>1027</ele>
        <time>2020-10-27T09:17:01+01:00</time>
      </trkpt>
      <trkpt lat="45.0671" lon="6.0511">
        <ele>1044</ele>
        <time>2020-10-27T09:17:06+01:00</time>
      </trkpt>
      <trkpt lat="45.06699" lon="6.05288">
        <ele>1087</ele>
        <time>2020-10-27T09:17:11+01:00</time>
      </trkpt>
      <trkpt lat="45.06675" lon="6.05305">
        <ele>1109</ele>
        <time>2020-10-27T09:17:16+01:00</time>
      </trkpt>
      <trkpt lat="45.06653" lon="6.05243">
        <ele>1112</ele>
        <time>2020-10-27T09:17:21+01:00</time>
      </trkpt>
      <trkpt lat="45.06596" lon="6.05166">
        <ele>1125</ele>
        <time>2020-10-27T09:17:26+01:00</time>
      </trkpt>
      <trkpt lat="45.06556" lon="6.0514">
        <ele>1136</ele>
        <time>2020-10-27T09:17:31+01:00</time>
      </trkpt>
      <trkpt lat="45.06532" lon="6.05097">
        <ele>1140</ele>
        <time>2020-10-27T09:17:36+01:00</time>
      </trkpt>
      <trkpt lat="45.06519" lon="6.05046">
        <ele>1137</ele>
        <time>2020-10-27T09:17:41+01:00</time>
      </trkpt>
      <trkpt lat="45.06462" lon="6.05028">
        <ele>1144</ele>
        <time>2020-10-27T09:17:46+01:00</time>
      </trkpt>
      <trkpt lat="45.06416" lon="6.05039">
        <ele>1156</ele>
        <time>2020-10-27T09:17:51+01:00</time>
      </trkpt>
      <trkpt lat="45.06372" lon="6.05003">
        <ele>1166</ele>
        <time>2020-10-27T09:17:56+01:00</time>
      </trkpt>
      <trkpt lat="45.06328" lon="6.04977">
        <ele>1176</ele>
        <time>2020-10-27T09:18:01+01:00</time>
      </trkpt>
      <trkpt lat="45.06273" lon="6.04994">
        <ele>1197</ele>
        <time>2020-10-27T09:18:06+01:00</time>
      </trkpt>
      <trkpt lat="45.06281" lon="6.0502">
        <ele>1207</ele>
        <time>2020-10-27T09:18:11+01:00</time>
      </trkpt>
      <trkpt lat="45.06267" lon="6.05043">
        <ele>1212</ele>
        <time>2020-10-27T09:18:16+01:00</time>
      </trkpt>
      <trkpt lat="45.06284" lon="6.05056">
        <ele>1220</ele>
        <time>2020-10-27T09:18:21+01:00</time>
      </trkpt>
      <trkpt lat="45.06311" lon="6.05052">
        <ele>1218</ele>
        <time>2020-10-27T09:18:26+01:00</time>
      </trkpt>
      <trkpt lat="45.06293" lon="6.05069">
        <ele>1226</ele>
        <time>2020-10-27T09:18:31+01:00</time>
      </trkpt>
      <trkpt lat="45.06311" lon="6.0511">
        <ele>1243</ele>
        <time>2020-10-27T09:18:36+01:00</time>
      </trkpt>
      <trkpt lat="45.06315" lon="6.05159">
        <ele>1259</ele>
        <time>2020-10-27T09:18:41+01:00</time>
      </trkpt>
      <trkpt lat="45.06328" lon="6.05217">
        <ele>1283</ele>
        <time>2020-10-27T09:18:46+01:00</time>
      </trkpt>
      <trkpt lat="45.06387" lon="6.05279">
        <ele>1296</ele>
        <time>2020-10-27T09:18:51+01:00</time>
      </trkpt>
      <trkpt lat="45.0642" lon="6.05292">
        <ele>1299</ele>
        <time>2020-10-27T09:18:56+01:00</time>
      </trkpt>
      <trkpt lat="45.06437" lon="6.05312">
        <ele>1303</ele>
        <time>2020-10-27T09:19:01+01:00</time>
      </trkpt>
      <trkpt lat="45.06399" lon="6.05466">
        <ele>1338</ele>
        <time>2020-10-27T09:19:06+01:00</time>
      </trkpt>
      <trkpt lat="45.06416" lon="6.05503">
        <ele>1335</ele>
        <time>2020-10-27T09:19:11+01:00</time>
      </trkpt>
      <trkpt lat="45.06438" lon="6.05554">
        <ele>1335</ele>
        <time>2020-10-27T09:19:16+01:00</time>
      </trkpt>
      <trkpt lat="45.06435" lon="6.05603">
        <ele>1340</ele>
        <time>2020-10-27T09:19:21+01:00</time>
      </trkpt>
      <trkpt lat="45.06412" lon="6.05644">
        <ele>1362</ele>
        <time>2020-10-27T09:19:26+01:00</time>
      </trkpt>
      <trkpt lat="45.06437" lon="6.05685">
        <ele>1363</ele>
        <time>2020-10-27T09:19:31+01:00</time>
      </trkpt>
      <trkpt lat="45.0647" lon="6.05709">
        <ele>1351</ele>
        <time>2020-10-27T09:19:36+01:00</time>
      </trkpt>
      <trkpt lat="45.06449" lon="6.05816">
        <ele>1388</ele>
        <time>2020-10-27T09:19:41+01:00</time>
      </trkpt>
      <trkpt lat="45.0647" lon="6.05951">
        <ele>1390</ele>
        <time>2020-10-27T09:19:46+01:00</time>
      </trkpt>
      <trkpt lat="45.06502" lon="6.0602">
        <ele>1384</ele>
        <time>2020-10-27T09:19:51+01:00</time>
      </trkpt>
      <trkpt lat="45.0649" lon="6.06039">
        <ele>1389</ele>
        <time>2020-10-27T09:19:56+01:00</time>
      </trkpt>
      <trkpt lat="45.06455" lon="6.05977">
        <ele>1399</ele>
        <time>2020-10-27T09:20:01+01:00</time>
      </trkpt>
      <trkpt lat="45.06473" lon="6.06065">
        <ele>1395</ele>
        <time>2020-10-27T09:20:06+01:00</time>
      </trkpt>
      <trkpt lat="45.06461" lon="6.06131">
        <ele>1408</ele>
        <time>2020-10-27T09:20:11+01:00</time>
      </trkpt>
      <trkpt lat="45.06508" lon="6.06125">
        <ele>1398</ele>
        <time>2020-10-27T09:20:16+01:00</time>
      </trkpt>
      <trkpt lat="45.06575" lon="6.06133">
        <ele>1406</ele>
        <time>2020-10-27T09:20:21+01:00</time>
      </trkpt>
      <trkpt lat="45.06647" lon="6.06121">
        <ele>1414</ele>
        <time>2020-10-27T09:20:26+01:00</time>
      </trkpt>
      <trkpt lat="45.06682" lon="6.06067">
        <ele>1414</ele>
        <time>2020-10-27T09:20:31+01:00</time>
      </trkpt>
      <trkpt lat="45.06796" lon="6.06005">
        <ele>1432</ele>
        <time>2020-10-27T09:20:36+01:00</time>
      </trkpt>
      <trkpt lat="45.06826" lon="6.06073">
        <ele>1429</ele>
        <time>2020-10-27T09:20:41+01:00</time>
      </trkpt>
      <trkpt lat="45.06779" lon="6.06131">
        <ele>1431</ele>
        <time>2020-10-27T09:20:46+01:00</time>
      </trkpt>
      <trkpt lat="45.06764" lon="6.06213">
        <ele>1438</ele>
        <time>2020-10-27T09:20:51+01:00</time>
      </trkpt>
      <trkpt lat="45.06781" lon="6.06262">
        <ele>1441</ele>
        <time>2020-10-27T09:20:56+01:00</time>
      </trkpt>
      <trkpt lat="45.06773" lon="6.06378">
        <ele>1452</ele>
        <time>2020-10-27T09:21:01+01:00</time>
      </trkpt>
      <trkpt lat="45.06807" lon="6.06389">
        <ele>1451</ele>
        <time>2020-10-27T09:21:06+01:00</time>
      </trkpt>
      <trkpt lat="45.06847" lon="6.06382">
        <ele>1455</ele>
        <time>2020-10-27T09:21:11+01:00</time>
      </trkpt>
      <trkpt lat="45.06908" lon="6.06361">
        <ele>1459</ele>
        <time>2020-10-27T09:21:16+01:00</time>
      </trkpt>
      <trkpt lat="45.06975" lon="6.06412">
        <ele>1466</ele>
        <time>2020-10-27T09:21:21+01:00</time>
      </trkpt>
      <trkpt lat="45.07137" lon="6.06445">
        <ele>1477</ele>
        <time>2020-10-27T09:21:26+01:00</time>
      </trkpt>
      <trkpt lat="45.07251" lon="6.06421">
        <ele>1476</ele>
        <time>2020-10-27T09:21:31+01:00</time>
      </trkpt>
      <trkpt lat="45.07301" lon="6.06442">
        <ele>1482</ele>
        <time>2020-10-27T09:21:36+01:00</time>
      </trkpt>
      <trkpt lat="45.07385" lon="6.06391">
        <ele>1480</ele>
        <time>2020-10-27T09:21:41+01:00</time>
      </trkpt>
      <trkpt lat="45.07432" lon="6.06432">
        <ele>1492</ele>
        <time>2020-10-27T09:21:46+01:00</time>
      </trkpt>
      <trkpt lat="45.07466" lon="6.06391">
        <ele>1496</ele>
        <time>2020-10-27T09:21:51+01:00</time>
      </trkpt>
      <trkpt lat="45.07485" lon="6.06354">
        <ele>1497</ele>
        <time>2020-10-27T09:21:56+01:00</time>
      </trkpt>
      <trkpt lat="45.07526" lon="6.06331">
        <ele>1502</ele>
        <time>2020-10-27T09:22:01+01:00</time>
      </trkpt>
      <trkpt lat="45.07582" lon="6.06277">
        <ele>1495</ele>
        <time>2020-10-27T09:22:06+01:00</time>
      </trkpt>
      <trkpt lat="45.07684" lon="6.06292">
        <ele>1505</ele>
        <time>2020-10-27T09:22:11+01:00</time>
      </trkpt>
      <trkpt lat="45.0777" lon="6.06344">
        <ele>1512</ele>
        <time>2020-10-27T09:22:16+01:00</time>
      </trkpt>
      <trkpt lat="45.07878" lon="6.06425">
        <ele>1518</ele>
        <time>2020-10-27T09:22:21+01:00</time>
      </trkpt>
      <trkpt lat="45.07919" lon="6.0643">
        <ele>1511</ele>
        <time>2020-10-27T09:22:26+01:00</time>
      </trkpt>
      <trkpt lat="45.07922" lon="6.06505">
        <ele>1519</ele>
        <time>2020-10-27T09:22:31+01:00</time>
      </trkpt>
      <trkpt lat="45.07958" lon="6.06575">
        <ele>1501</ele>
        <time>2020-10-27T09:22:36+01:00</time>
      </trkpt>
      <trkpt lat="45.07982" lon="6.06655">
        <ele>1504</ele>
        <time>2020-10-27T09:22:41+01:00</time>
      </trkpt>
      <trkpt lat="45.08025" lon="6.067">
        <ele>1463</ele>
        <time>2020-10-27T09:22:46+01:00</time>
      </trkpt>
      <trkpt lat="45.0801" lon="6.06724">
        <ele>1483</ele>
        <time>2020-10-27T09:22:51+01:00</time>
      </trkpt>
      <trkpt lat="45.08037" lon="6.06818">
        <ele>1462</ele>
        <time>2020-10-27T09:22:56+01:00</time>
      </trkpt>
      <trkpt lat="45.08066" lon="6.06846">
        <ele>1440</ele>
        <time>2020-10-27T09:23:01+01:00</time>
      </trkpt>
      <trkpt lat="45.08093" lon="6.06897">
        <ele>1428</ele>
        <time>2020-10-27T09:23:06+01:00</time>
      </trkpt>
      <trkpt lat="45.08129" lon="6.06934">
        <ele>1423</ele>
        <time>2020-10-27T09:23:11+01:00</time>
      </trkpt>
      <trkpt lat="45.08126" lon="6.0705">
        <ele>1430</ele>
        <time>2020-10-27T09:23:16+01:00</time>
      </trkpt>
      <trkpt lat="45.08151" lon="6.07144">
        <ele>1441</ele>
        <time>2020-10-27T09:23:21+01:00</time>
      </trkpt>
      <trkpt lat="45.08182" lon="6.07264">
        <ele>1452</ele>
        <time>2020-10-27T09:23:26+01:00</time>
      </trkpt>
      <trkpt lat="45.0821" lon="6.07311">
        <ele>1462</ele>
        <time>2020-10-27T09:23:31+01:00</time>
      </trkpt>
      <trkpt lat="45.08223" lon="6.07406">
        <ele>1468</ele>
        <time>2020-10-27T09:23:36+01:00</time>
      </trkpt>
      <trkpt lat="45.08198" lon="6.07547">
        <ele>1475</ele>
        <time>2020-10-27T09:23:41+01:00</time>
      </trkpt>
      <trkpt lat="45.08193" lon="6.07696">
        <ele>1486</ele>
        <time>2020-10-27T09:23:46+01:00</time>
      </trkpt>
      <trkpt lat="45.08195" lon="6.07762">
        <ele>1491</ele>
        <time>2020-10-27T09:23:51+01:00</time>
      </trkpt>
      <trkpt lat="45.08184" lon="6.07837">
        <ele>1494</ele>
        <time>2020-10-27T09:23:56+01:00</time>
      </trkpt>
      <trkpt lat="45.0819" lon="6.07983">
        <ele>1506</ele>
        <time>2020-10-27T09:24:01+01:00</time>
      </trkpt>
      <trkpt lat="45.08158" lon="6.08174">
        <ele>1513</ele>
        <time>2020-10-27T09:24:06+01:00</time>
      </trkpt>
      <trkpt lat="45.08152" lon="6.08303">
        <ele>1523</ele>
        <time>2020-10-27T09:24:11+01:00</time>
      </trkpt>
      <trkpt lat="45.08131" lon="6.08348">
        <ele>1522</ele>
        <time>2020-10-27T09:24:16+01:00</time>
      </trkpt>
      <trkpt lat="45.08152" lon="6.0841">
        <ele>1528</ele>
        <time>2020-10-27T09:24:21+01:00</time>
      </trkpt>
      <trkpt lat="45.08145" lon="6.08477">
        <ele>1530</ele>
        <time>2020-10-27T09:24:26+01:00</time>
      </trkpt>
      <trkpt lat="45.08128" lon="6.08582">
        <ele>1536</ele>
        <time>2020-10-27T09:24:31+01:00</time>
      </trkpt>
      <trkpt lat="45.08132" lon="6.087">
        <ele>1546</ele>
        <time>2020-10-27T09:24:36+01:00</time>
      </trkpt>
      <trkpt lat="45.08087" lon="6.08775">
        <ele>1549</ele>
        <time>2020-10-27T09:24:41+01:00</time>
      </trkpt>
      <trkpt lat="45.08061" lon="6.08869">
        <ele>1553</ele>
        <time>2020-10-27T09:24:46+01:00</time>
      </trkpt>
      <trkpt lat="45.08063" lon="6.09037">
        <ele>1559</ele>
        <time>2020-10-27T09:24:51+01:00</time>
      </trkpt>
      <trkpt lat="45.0809" lon="6.0915">
        <ele>1567</ele>
        <time>2020-10-27T09:24:56+01:00</time>
      </trkpt>
      <trkpt lat="45.08075" lon="6.09245">
        <ele>1566</ele>
        <time>2020-10-27T09:25:01+01:00</time>
      </trkpt>
      <trkpt lat="45.08073" lon="6.09333">
        <ele>1569</ele>
        <time>2020-10-27T09:25:06+01:00</time>
      </trkpt>
      <trkpt lat="45.08119" lon="6.09477">
        <ele>1581</ele>
        <time>2020-10-27T09:25:11+01:00</time>
      </trkpt>
      <trkpt lat="45.08135" lon="6.09629">
        <ele>1589</ele>
        <time>2020-10-27T09:25:16+01:00</time>
      </trkpt>
      <trkpt lat="45.08155" lon="6.09734">
        <ele>1595</ele>
        <time>2020-10-27T09:25:21+01:00</time>
      </trkpt>
      <trkpt lat="45.08135" lon="6.09861">
        <ele>1599</ele>
        <time>2020-10-27T09:25:26+01:00</time>
      </trkpt>
      <trkpt lat="45.08116" lon="6.09929">
        <ele>1604</ele>
        <time>2020-10-27T09:25:31+01:00</time>
      </trkpt>
      <trkpt lat="45.08123" lon="6.09972">
        <ele>1611</ele>
        <time>2020-10-27T09:25:36+01:00</time>
      </trkpt>
      <trkpt lat="45.08095" lon="6.10086">
        <ele>1617</ele>
        <time>2020-10-27T09:25:41+01:00</time>
      </trkpt>
      <trkpt lat="45.08072" lon="6.10129">
        <ele>1622</ele>
        <time>2020-10-27T09:25:46+01:00</time>
      </trkpt>
      <trkpt lat="45.08045" lon="6.10253">
        <ele>1634</ele>
        <time>2020-10-27T09:25:51+01:00</time>
      </trkpt>
      <trkpt lat="45.07982" lon="6.10331">
        <ele>1641</ele>
        <time>2020-10-27T09:25:56+01:00</time>
      </trkpt>
      <trkpt lat="45.07957" lon="6.10395">
        <ele>1642</ele>
        <time>2020-10-27T09:26:01+01:00</time>
      </trkpt>
      <trkpt lat="45.07896" lon="6.10479">
        <ele>1647</ele>
        <time>2020-10-27T09:26:06+01:00</time>
      </trkpt>
      <trkpt lat="45.0784" lon="6.10629">
        <ele>1658</ele>
        <time>2020-10-27T09:26:11+01:00</time>
      </trkpt>
      <trkpt lat="45.07829" lon="6.10736">
        <ele>1668</ele>
        <time>2020-10-27T09:26:16+01:00</time>
      </trkpt>
      <trkpt lat="45.07882" lon="6.10831">
        <ele>1678</ele>
        <time>2020-10-27T09:26:21+01:00</time>
      </trkpt>
      <trkpt lat="45.07919" lon="6.10946">
        <ele>1687</ele>
        <time>2020-10-27T09:26:26+01:00</time>
      </trkpt>
      <trkpt lat="45.07901" lon="6.1114">
        <ele>1695</ele>
        <time>2020-10-27T09:26:31+01:00</time>
      </trkpt>
      <trkpt lat="45.0787" lon="6.11298">
        <ele>1701</ele>
        <time>2020-10-27T09:26:36+01:00</time>
      </trkpt>
      <trkpt lat="45.07852" lon="6.11464">
        <ele>1708</ele>
        <time>2020-10-27T09:26:41+01:00</time>
      </trkpt>
      <trkpt lat="45.07848" lon="6.11609">
        <ele>1714</ele>
        <time>2020-10-27T09:26:46+01:00</time>
      </trkpt>
      <trkpt lat="45.07819" lon="6.11734">
        <ele>1721</ele>
        <time>2020-10-27T09:26:51+01:00</time>
      </trkpt>
      <trkpt lat="45.07822" lon="6.11773">
        <ele>1725</ele>
        <time>2020-10-27T09:26:56+01:00</time>
      </trkpt>
      <trkpt lat="45.07808" lon="6.11828">
        <ele>1724</ele>
        <time>2020-10-27T09:27:01+01:00</time>
      </trkpt>
      <trkpt lat="45.07805" lon="6.11903">
        <ele>1727</ele>
        <time>2020-10-27T09:27:06+01:00</time>
      </trkpt>
      <trkpt lat="45.07819" lon="6.12045">
        <ele>1741</ele>
        <time>2020-10-27T09:27:11+01:00</time>
      </trkpt>
      <trkpt lat="45.07834" lon="6.12079">
        <ele>1742</ele>
        <time>2020-10-27T09:27:16+01:00</time>
      </trkpt>
      <trkpt lat="45.07869" lon="6.12352">
        <ele>1758</ele>
        <time>2020-10-27T09:27:21+01:00</time>
      </trkpt>
      <trkpt lat="45.07914" lon="6.12416">
        <ele>1761</ele>
        <time>2020-10-27T09:27:26+01:00</time>
      </trkpt>
      <trkpt lat="45.0792" lon="6.12485">
        <ele>1768</ele>
        <time>2020-10-27T09:27:31+01:00</time>
      </trkpt>
      <trkpt lat="45.07946" lon="6.12539">
        <ele>1771</ele>
        <time>2020-10-27T09:27:36+01:00</time>
      </trkpt>
      <trkpt lat="45.0801" lon="6.12633">
        <ele>1778</ele>
        <time>2020-10-27T09:27:41+01:00</time>
      </trkpt>
      <trkpt lat="45.08079" lon="6.12753">
        <ele>1790</ele>
        <time>2020-10-27T09:27:46+01:00</time>
      </trkpt>
      <trkpt lat="45.08129" lon="6.12867">
        <ele>1798</ele>
        <time>2020-10-27T09:27:51+01:00</time>
      </trkpt>
      <trkpt lat="45.08134" lon="6.12985">
        <ele>1808</ele>
        <time>2020-10-27T09:27:56+01:00</time>
      </trkpt>
      <trkpt lat="45.08079" lon="6.13066">
        <ele>1818</ele>
        <time>2020-10-27T09:28:01+01:00</time>
      </trkpt>
      <trkpt lat="45.08084" lon="6.13111">
        <ele>1819</ele>
        <time>2020-10-27T09:28:06+01:00</time>
      </trkpt>
      <trkpt lat="45.08117" lon="6.13159">
        <ele>1821</ele>
        <time>2020-10-27T09:28:11+01:00</time>
      </trkpt>
      <trkpt lat="45.08145" lon="6.13178">
        <ele>1826</ele>
        <time>2020-10-27T09:28:16+01:00</time>
      </trkpt>
      <trkpt lat="45.08072" lon="6.13221">
        <ele>1832</ele>
        <time>2020-10-27T09:28:21+01:00</time>
      </trkpt>
      <trkpt lat="45.08025" lon="6.13167">
        <ele>1833</ele>
        <time>2020-10-27T09:28:26+01:00</time>
      </trkpt>
      <trkpt lat="45.08008" lon="6.13088">
        <ele>1842</ele>
        <time>2020-10-27T09:28:31+01:00</time>
      </trkpt>
      <trkpt lat="45.07978" lon="6.13116">
        <ele>1850</ele>
        <time>2020-10-27T09:28:36+01:00</time>
      </trkpt>
      <trkpt lat="45.07964" lon="6.13225">
        <ele>1852</ele>
        <time>2020-10-27T09:28:41+01:00</time>
      </trkpt>
      <trkpt lat="45.07991" lon="6.13307">
        <ele>1858</ele>
        <time>2020-10-27T09:28:46+01:00</time>
      </trkpt>
      <trkpt lat="45.08069" lon="6.13569">
        <ele>1878</ele>
        <time>2020-10-27T09:28:51+01:00</time>
      </trkpt>
      <trkpt lat="45.08076" lon="6.13725">
        <ele>1891</ele>
        <time>2020-10-27T09:28:56+01:00</time>
      </trkpt>
      <trkpt lat="45.08107" lon="6.13931">
        <ele>1909</ele>
        <time>2020-10-27T09:29:01+01:00</time>
      </trkpt>
      <trkpt lat="45.08178" lon="6.14122">
        <ele>1923</ele>
        <time>2020-10-27T09:29:06+01:00</time>
      </trkpt>
      <trkpt lat="45.08195" lon="6.14214">
        <ele>1934</ele>
        <time>2020-10-27T09:29:11+01:00</time>
      </trkpt>
      <trkpt lat="45.08272" lon="6.14345">
        <ele>1947</ele>
        <time>2020-10-27T09:29:16+01:00</time>
      </trkpt>
      <trkpt lat="45.0836" lon="6.14476">
        <ele>1961</ele>
        <time>2020-10-27T09:29:21+01:00</time>
      </trkpt>
      <trkpt lat="45.0846" lon="6.14635">
        <ele>1974</ele>
        <time>2020-10-27T09:29:26+01:00</time>
      </trkpt>
      <trkpt lat="45.08523" lon="6.14725">
        <ele>1979</ele>
        <time>2020-10-27T09:29:31+01:00</time>
      </trkpt>
      <trkpt lat="45.08584" lon="6.14774">
        <ele>1984</ele>
        <time>2020-10-27T09:29:36+01:00</time>
      </trkpt>
      <trkpt lat="45.08651" lon="6.14869">
        <ele>1992</ele>
        <time>2020-10-27T09:29:41+01:00</time>
      </trkpt>
      <trkpt lat="45.08705" lon="6.14899">
        <ele>1999</ele>
        <time>2020-10-27T09:29:46+01:00</time>
      </trkpt>
      <trkpt lat="45.08879" lon="6.1494">
        <ele>1990</ele>
        <time>2020-10-27T09:29:51+01:00</time>
      </trkpt>
      <trkpt lat="45.08914" lon="6.14914">
        <ele>1989</ele>
        <time>2020-10-27T09:29:56+01:00</time>
      </trkpt>
      <trkpt lat="45.08964" lon="6.14925">
        <ele>1980</ele>
        <time>2020-10-27T09:30:01+01:00</time>
      </trkpt>
      <trkpt lat="45.09043" lon="6.1486">
        <ele>1984</ele>
        <time>2020-10-27T09:30:06+01:00</time>
      </trkpt>
      <trkpt lat="45.08994" lon="6.1494">
        <ele>1968</ele>
        <time>2020-10-27T09:30:11+01:00</time>
      </trkpt>
      <trkpt lat="45.0901" lon="6.14953">
        <ele>1960</ele>
        <time>2020-10-27T09:30:16+01:00</time>
      </trkpt>
      <trkpt lat="45.09032" lon="6.14918">
        <ele>1962</ele>
        <time>2020-10-27T09:30:21+01:00</time>
      </trkpt>
      <trkpt lat="45.09099" lon="6.14895">
        <ele>1959</ele>
        <time>2020-10-27T09:30:26+01:00</time>
      </trkpt>
      <trkpt lat="45.09135" lon="6.14927">
        <ele>1954</ele>
        <time>2020-10-27T09:30:31+01:00</time>
      </trkpt>
      <trkpt lat="45.09179" lon="6.14983">
        <ele>1945</ele>
        <time>2020-10-27T09:30:36+01:00</time>
      </trkpt>
      <trkpt lat="45.09125" lon="6.14993">
        <ele>1919</ele>
        <time>2020-10-27T09:30:41+01:00</time>
      </trkpt>
      <trkpt lat="45.09149" lon="6.15041">
        <ele>1910</ele>
        <time>2020-10-27T09:30:46+01:00</time>
      </trkpt>
      <trkpt lat="45.09161" lon="6.15109">
        <ele>1892</ele>
        <time>2020-10-27T09:30:51+01:00</time>
      </trkpt>
      <trkpt lat="45.09214" lon="6.15126">
        <ele>1891</ele>
        <time>2020-10-27T09:30:56+01:00</time>
      </trkpt>
      <trkpt lat="45.09182" lon="6.15174">
        <ele>1866</ele>
        <time>2020-10-27T09:31:01+01:00</time>
      </trkpt>
      <trkpt lat="45.09234" lon="6.15195">
        <ele>1857</ele>
        <time>2020-10-27T09:31:06+01:00</time>
      </trkpt>
      <trkpt lat="45.09229" lon="6.15292">
        <ele>1802</ele>
        <time>2020-10-27T09:31:11+01:00</time>
      </trkpt>
      <trkpt lat="45.09196" lon="6.15289">
        <ele>1797</ele>
        <time>2020-10-27T09:31:16+01:00</time>
      </trkpt>
      <trkpt lat="45.09234" lon="6.15319">
        <ele>1789</ele>
        <time>2020-10-27T09:31:21+01:00</time>
      </trkpt>
      <trkpt lat="45.09207" lon="6.15322">
        <ele>1783</ele>
        <time>2020-10-27T09:31:26+01:00</time>
      </trkpt>
      <trkpt lat="45.09229" lon="6.15345">
        <ele>1776</ele>
        <time>2020-10-27T09:31:31+01:00</time>
      </trkpt>
      <trkpt lat="45.09131" lon="6.15362">
        <ele>1749</ele>
        <time>2020-10-27T09:31:36+01:00</time>
      </trkpt>
      <trkpt lat="45.09226" lon="6.15474">
        <ele>1723</ele>
        <time>2020-10-27T09:31:41+01:00</time>
      </trkpt>
      <trkpt lat="45.09182" lon="6.1548">
        <ele>1711</ele>
        <time>2020-10-27T09:31:46+01:00</time>
      </trkpt>
      <trkpt lat="45.09247" lon="6.1556">
        <ele>1693</ele>
        <time>2020-10-27T09:31:51+01:00</time>
      </trkpt>
      <trkpt lat="45.09217" lon="6.15631">
        <ele>1666</ele>
        <time>2020-10-27T09:31:56+01:00</time>
      </trkpt>
      <trkpt lat="45.09176" lon="6.15708">
        <ele>1641</ele>
        <time>2020-10-27T09:32:01+01:00</time>
      </trkpt>
      <trkpt lat="45.09144" lon="6.15731">
        <ele>1634</ele>
        <time>2020-10-27T09:32:06+01:00</time>
      </trkpt>
      <trkpt lat="45.09166" lon="6.1583">
        <ele>1613</ele>
        <time>2020-10-27T09:32:11+01:00</time>
      </trkpt>
      <trkpt lat="45.0912" lon="6.1588">
        <ele>1608</ele>
        <time>2020-10-27T09:32:16+01:00</time>
      </trkpt>
      <trkpt lat="45.09034" lon="6.15824">
        <ele>1601</ele>
        <time>2020-10-27T09:32:21+01:00</time>
      </trkpt>
      <trkpt lat="45.09016" lon="6.1577">
        <ele>1604</ele>
        <time>2020-10-27T09:32:26+01:00</time>
      </trkpt>
      <trkpt lat="45.08926" lon="6.1577">
        <ele>1601</ele>
        <time>2020-10-27T09:32:31+01:00</time>
      </trkpt>
      <trkpt lat="45.08873" lon="6.15807">
        <ele>1591</ele>
        <time>2020-10-27T09:32:36+01:00</time>
      </trkpt>
      <trkpt lat="45.08761" lon="6.15789">
        <ele>1581</ele>
        <time>2020-10-27T09:32:41+01:00</time>
      </trkpt>
      <trkpt lat="45.08667" lon="6.1574">
        <ele>1575</ele>
        <time>2020-10-27T09:32:46+01:00</time>
      </trkpt>
      <trkpt lat="45.08467" lon="6.15716">
        <ele>1550</ele>
        <time>2020-10-27T09:32:51+01:00</time>
      </trkpt>
      <trkpt lat="45.08402" lon="6.15725">
        <ele>1538</ele>
        <time>2020-10-27T09:32:56+01:00</time>
      </trkpt>
      <trkpt lat="45.0827" lon="6.15695">
        <ele>1530</ele>
        <time>2020-10-27T09:33:01+01:00</time>
      </trkpt>
      <trkpt lat="45.07981" lon="6.15538">
        <ele>1519</ele>
        <time>2020-10-27T09:33:06+01:00</time>
      </trkpt>
      <trkpt lat="45.07919" lon="6.15547">
        <ele>1505</ele>
        <time>2020-10-27T09:33:11+01:00</time>
      </trkpt>
      <trkpt lat="45.07841" lon="6.1553">
        <ele>1487</ele>
        <time>2020-10-27T09:33:16+01:00</time>
      </trkpt>
      <trkpt lat="45.07784" lon="6.15523">
        <ele>1469</ele>
        <time>2020-10-27T09:33:21+01:00</time>
      </trkpt>
      <trkpt lat="45.07696" lon="6.15519">
        <ele>1454</ele>
        <time>2020-10-27T09:33:26+01:00</time>
      </trkpt>
      <trkpt lat="45.0764" lon="6.15498">
        <ele>1447</ele>
        <time>2020-10-27T09:33:31+01:00</time>
      </trkpt>
      <trkpt lat="45.07576" lon="6.15596">
        <ele>1423</ele>
        <time>2020-10-27T09:33:36+01:00</time>
      </trkpt>
      <trkpt lat="45.07545" lon="6.15618">
        <ele>1422</ele>
        <time>2020-10-27T09:33:41+01:00</time>
      </trkpt>
      <trkpt lat="45.07511" lon="6.15674">
        <ele>1417</ele>
        <time>2020-10-27T09:33:46+01:00</time>
      </trkpt>
      <trkpt lat="45.07526" lon="6.15738">
        <ele>1404</ele>
        <time>2020-10-27T09:33:51+01:00</time>
      </trkpt>
      <trkpt lat="45.07496" lon="6.15751">
        <ele>1402</ele>
        <time>2020-10-27T09:33:56+01:00</time>
      </trkpt>
      <trkpt lat="45.07396" lon="6.15684">
        <ele>1392</ele>
        <time>2020-10-27T09:34:01+01:00</time>
      </trkpt>
      <trkpt lat="45.07319" lon="6.15667">
        <ele>1380</ele>
        <time>2020-10-27T09:34:06+01:00</time>
      </trkpt>
      <trkpt lat="45.07251" lon="6.15633">
        <ele>1374</ele>
        <time>2020-10-27T09:34:11+01:00</time>
      </trkpt>
      <trkpt lat="45.07184" lon="6.15575">
        <ele>1365</ele>
        <time>2020-10-27T09:34:16+01:00</time>
      </trkpt>
      <trkpt lat="45.07155" lon="6.15534">
        <ele>1363</ele>
        <time>2020-10-27T09:34:21+01:00</time>
      </trkpt>
      <trkpt lat="45.07132" lon="6.15483">
        <ele>1365</ele>
        <time>2020-10-27T09:34:26+01:00</time>
      </trkpt>
      <trkpt lat="45.07088" lon="6.15508">
        <ele>1357</ele>
        <time>2020-10-27T09:34:31+01:00</time>
      </trkpt>
      <trkpt lat="45.07117" lon="6.15586">
        <ele>1347</ele>
        <time>2020-10-27T09:34:36+01:00</time>
      </trkpt>
      <trkpt lat="45.07038" lon="6.15562">
        <ele>1339</ele>
        <time>2020-10-27T09:34:41+01:00</time>
      </trkpt>
      <trkpt lat="45.06987" lon="6.15543">
        <ele>1330</ele>
        <time>2020-10-27T09:34:46+01:00</time>
      </trkpt>
      <trkpt lat="45.06975" lon="6.15613">
        <ele>1311</ele>
        <time>2020-10-27T09:34:51+01:00</time>
      </trkpt>
      <trkpt lat="45.06911" lon="6.15641">
        <ele>1286</ele>
        <time>2020-10-27T09:34:56+01:00</time>
      </trkpt>
      <trkpt lat="45.06919" lon="6.15697">
        <ele>1272</ele>
        <time>2020-10-27T09:35:01+01:00</time>
      </trkpt>
      <trkpt lat="45.06944" lon="6.15764">
        <ele>1296</ele>
        <time>2020-10-27T09:35:06+01:00</time>
      </trkpt>
      <trkpt lat="45.06991" lon="6.158">
        <ele>1310</ele>
        <time>2020-10-27T09:35:11+01:00</time>
      </trkpt>
      <trkpt lat="45.07017" lon="6.15858">
        <ele>1341</ele>
        <time>2020-10-27T09:35:16+01:00</time>
      </trkpt>
      <trkpt lat="45.07078" lon="6.1591">
        <ele>1358</ele>
        <time>2020-10-27T09:35:21+01:00</time>
      </trkpt>
      <trkpt lat="45.07072" lon="6.16004">
        <ele>1407</ele>
        <time>2020-10-27T09:35:26+01:00</time>
      </trkpt>
      <trkpt lat="45.07081" lon="6.1609">
        <ele>1428</ele>
        <time>2020-10-27T09:35:31+01:00</time>
      </trkpt>
      <trkpt lat="45.07108" lon="6.16201">
        <ele>1452</ele>
        <time>2020-10-27T09:35:36+01:00</time>
      </trkpt>
      <trkpt lat="45.07101" lon="6.16294">
        <ele>1458</ele>
        <time>2020-10-27T09:35:41+01:00</time>
      </trkpt>
      <trkpt lat="45.0712" lon="6.16371">
        <ele>1471</ele>
        <time>2020-10-27T09:35:46+01:00</time>
      </trkpt>
      <trkpt lat="45.07107" lon="6.16463">
        <ele>1473</ele>
        <time>2020-10-27T09:35:51+01:00</time>
      </trkpt>
      <trkpt lat="45.07144" lon="6.16545">
        <ele>1484</ele>
        <time>2020-10-27T09:35:56+01:00</time>
      </trkpt>
      <trkpt lat="45.07137" lon="6.16682">
        <ele>1500</ele>
        <time>2020-10-27T09:36:01+01:00</time>
      </trkpt>
      <trkpt lat="45.07113" lon="6.16806">
        <ele>1518</ele>
        <time>2020-10-27T09:36:06+01:00</time>
      </trkpt>
      <trkpt lat="45.07099" lon="6.16888">
        <ele>1528</ele>
        <time>2020-10-27T09:36:11+01:00</time>
      </trkpt>
      <trkpt lat="45.07155" lon="6.16993">
        <ele>1550</ele>
        <time>2020-10-27T09:36:16+01:00</time>
      </trkpt>
      <trkpt lat="45.07176" lon="6.17092">
        <ele>1549</ele>
        <time>2020-10-27T09:36:21+01:00</time>
      </trkpt>
    </trkseg>
  </trk>
  <trk>
    <name><![CDATA[E2 Besse-La Grave]]></name>
    <trkseg>
      <trkpt lat="45.07215" lon="6.17273">
        <ele>1549</ele>
        <time>2020-10-27T09:15:28+01:00</time>
      </trkpt>
      <trkpt lat="45.07206" lon="6.17322">
        <ele>1543</ele>
        <time>2020-10-27T09:15:33+01:00</time>
      </trkpt>
      <trkpt lat="45.07217" lon="6.17443">
        <ele>1535</ele>
        <time>2020-10-27T09:15:38+01:00</time>
      </trkpt>
      <trkpt lat="45.07217" lon="6.17481">
        <ele>1532</ele>
        <time>2020-10-27T09:15:43+01:00</time>
      </trkpt>
      <trkpt lat="45.07256" lon="6.17569">
        <ele>1524</ele>
        <time>2020-10-27T09:15:48+01:00</time>
      </trkpt>
      <trkpt lat="45.07283" lon="6.17588">
        <ele>1528</ele>
        <time>2020-10-27T09:15:53+01:00</time>
      </trkpt>
      <trkpt lat="45.07353" lon="6.17694">
        <ele>1522</ele>
        <time>2020-10-27T09:15:58+01:00</time>
      </trkpt>
      <trkpt lat="45.07391" lon="6.17777">
        <ele>1521</ele>
        <time>2020-10-27T09:16:03+01:00</time>
      </trkpt>
      <trkpt lat="45.07456" lon="6.17852">
        <ele>1526</ele>
        <time>2020-10-27T09:16:08+01:00</time>
      </trkpt>
      <trkpt lat="45.07487" lon="6.1788">
        <ele>1531</ele>
        <time>2020-10-27T09:16:13+01:00</time>
      </trkpt>
      <trkpt lat="45.07542" lon="6.17878">
        <ele>1536</ele>
        <time>2020-10-27T09:16:18+01:00</time>
      </trkpt>
      <trkpt lat="45.0757" lon="6.17913">
        <ele>1541</ele>
        <time>2020-10-27T09:16:23+01:00</time>
      </trkpt>
      <trkpt lat="45.07617" lon="6.17936">
        <ele>1544</ele>
        <time>2020-10-27T09:16:28+01:00</time>
      </trkpt>
      <trkpt lat="45.07664" lon="6.1799">
        <ele>1548</ele>
        <time>2020-10-27T09:16:33+01:00</time>
      </trkpt>
      <trkpt lat="45.07717" lon="6.18028">
        <ele>1552</ele>
        <time>2020-10-27T09:16:38+01:00</time>
      </trkpt>
      <trkpt lat="45.07766" lon="6.18033">
        <ele>1552</ele>
        <time>2020-10-27T09:16:43+01:00</time>
      </trkpt>
      <trkpt lat="45.07825" lon="6.18003">
        <ele>1557</ele>
        <time>2020-10-27T09:16:48+01:00</time>
      </trkpt>
      <trkpt lat="45.07839" lon="6.18007">
        <ele>1560</ele>
        <time>2020-10-27T09:16:53+01:00</time>
      </trkpt>
      <trkpt lat="45.07861" lon="6.18069">
        <ele>1560</ele>
        <time>2020-10-27T09:16:58+01:00</time>
      </trkpt>
      <trkpt lat="45.07887" lon="6.18144">
        <ele>1564</ele>
        <time>2020-10-27T09:17:03+01:00</time>
      </trkpt>
      <trkpt lat="45.07923" lon="6.18198">
        <ele>1572</ele>
        <time>2020-10-27T09:17:08+01:00</time>
      </trkpt>
      <trkpt lat="45.07957" lon="6.18301">
        <ele>1587</ele>
        <time>2020-10-27T09:17:13+01:00</time>
      </trkpt>
      <trkpt lat="45.07951" lon="6.18322">
        <ele>1594</ele>
        <time>2020-10-27T09:17:18+01:00</time>
      </trkpt>
      <trkpt lat="45.07978" lon="6.18352">
        <ele>1591</ele>
        <time>2020-10-27T09:17:23+01:00</time>
      </trkpt>
      <trkpt lat="45.07955" lon="6.1835">
        <ele>1599</ele>
        <time>2020-10-27T09:17:28+01:00</time>
      </trkpt>
      <trkpt lat="45.07952" lon="6.18363">
        <ele>1603</ele>
        <time>2020-10-27T09:17:33+01:00</time>
      </trkpt>
      <trkpt lat="45.0794" lon="6.18352">
        <ele>1605</ele>
        <time>2020-10-27T09:17:38+01:00</time>
      </trkpt>
      <trkpt lat="45.07954" lon="6.18445">
        <ele>1625</ele>
        <time>2020-10-27T09:17:43+01:00</time>
      </trkpt>
      <trkpt lat="45.07969" lon="6.18556">
        <ele>1647</ele>
        <time>2020-10-27T09:17:48+01:00</time>
      </trkpt>
      <trkpt lat="45.07963" lon="6.18674">
        <ele>1673</ele>
        <time>2020-10-27T09:17:53+01:00</time>
      </trkpt>
      <trkpt lat="45.07949" lon="6.18807">
        <ele>1689</ele>
        <time>2020-10-27T09:17:58+01:00</time>
      </trkpt>
      <trkpt lat="45.07943" lon="6.18953">
        <ele>1701</ele>
        <time>2020-10-27T09:18:03+01:00</time>
      </trkpt>
      <trkpt lat="45.07943" lon="6.18981">
        <ele>1703</ele>
        <time>2020-10-27T09:18:08+01:00</time>
      </trkpt>
      <trkpt lat="45.07939" lon="6.19091">
        <ele>1714</ele>
        <time>2020-10-27T09:18:13+01:00</time>
      </trkpt>
      <trkpt lat="45.07902" lon="6.19241">
        <ele>1748</ele>
        <time>2020-10-27T09:18:18+01:00</time>
      </trkpt>
      <trkpt lat="45.07892" lon="6.19511">
        <ele>1783</ele>
        <time>2020-10-27T09:18:23+01:00</time>
      </trkpt>
      <trkpt lat="45.0788" lon="6.19539">
        <ele>1794</ele>
        <time>2020-10-27T09:18:28+01:00</time>
      </trkpt>
      <trkpt lat="45.07892" lon="6.19601">
        <ele>1798</ele>
        <time>2020-10-27T09:18:33+01:00</time>
      </trkpt>
      <trkpt lat="45.07828" lon="6.1958">
        <ele>1836</ele>
        <time>2020-10-27T09:18:38+01:00</time>
      </trkpt>
      <trkpt lat="45.07807" lon="6.19548">
        <ele>1847</ele>
        <time>2020-10-27T09:18:43+01:00</time>
      </trkpt>
      <trkpt lat="45.07802" lon="6.19513">
        <ele>1851</ele>
        <time>2020-10-27T09:18:48+01:00</time>
      </trkpt>
      <trkpt lat="45.07789" lon="6.19513">
        <ele>1860</ele>
        <time>2020-10-27T09:18:53+01:00</time>
      </trkpt>
      <trkpt lat="45.07783" lon="6.19466">
        <ele>1863</ele>
        <time>2020-10-27T09:18:58+01:00</time>
      </trkpt>
      <trkpt lat="45.07763" lon="6.19494">
        <ele>1878</ele>
        <time>2020-10-27T09:19:03+01:00</time>
      </trkpt>
      <trkpt lat="45.07745" lon="6.19466">
        <ele>1890</ele>
        <time>2020-10-27T09:19:08+01:00</time>
      </trkpt>
      <trkpt lat="45.07723" lon="6.19496">
        <ele>1899</ele>
        <time>2020-10-27T09:19:13+01:00</time>
      </trkpt>
      <trkpt lat="45.07658" lon="6.1955">
        <ele>1911</ele>
        <time>2020-10-27T09:19:18+01:00</time>
      </trkpt>
      <trkpt lat="45.07616" lon="6.19588">
        <ele>1926</ele>
        <time>2020-10-27T09:19:23+01:00</time>
      </trkpt>
      <trkpt lat="45.07546" lon="6.19713">
        <ele>1982</ele>
        <time>2020-10-27T09:19:28+01:00</time>
      </trkpt>
      <trkpt lat="45.07575" lon="6.19741">
        <ele>1991</ele>
        <time>2020-10-27T09:19:33+01:00</time>
      </trkpt>
      <trkpt lat="45.0752" lon="6.19764">
        <ele>2002</ele>
        <time>2020-10-27T09:19:38+01:00</time>
      </trkpt>
      <trkpt lat="45.07543" lon="6.19816">
        <ele>2021</ele>
        <time>2020-10-27T09:19:43+01:00</time>
      </trkpt>
      <trkpt lat="45.07545" lon="6.19893">
        <ele>2044</ele>
        <time>2020-10-27T09:19:48+01:00</time>
      </trkpt>
      <trkpt lat="45.07599" lon="6.20007">
        <ele>2072</ele>
        <time>2020-10-27T09:19:53+01:00</time>
      </trkpt>
      <trkpt lat="45.07633" lon="6.20086">
        <ele>2083</ele>
        <time>2020-10-27T09:19:58+01:00</time>
      </trkpt>
      <trkpt lat="45.07507" lon="6.2009">
        <ele>2130</ele>
        <time>2020-10-27T09:20:03+01:00</time>
      </trkpt>
      <trkpt lat="45.07486" lon="6.20103">
        <ele>2138</ele>
        <time>2020-10-27T09:20:08+01:00</time>
      </trkpt>
      <trkpt lat="45.07567" lon="6.20262">
        <ele>2167</ele>
        <time>2020-10-27T09:20:13+01:00</time>
      </trkpt>
      <trkpt lat="45.07463" lon="6.20234">
        <ele>2194</ele>
        <time>2020-10-27T09:20:18+01:00</time>
      </trkpt>
      <trkpt lat="45.0748" lon="6.20254">
        <ele>2199</ele>
        <time>2020-10-27T09:20:23+01:00</time>
      </trkpt>
      <trkpt lat="45.07405" lon="6.20258">
        <ele>2213</ele>
        <time>2020-10-27T09:20:28+01:00</time>
      </trkpt>
      <trkpt lat="45.07339" lon="6.20344">
        <ele>2233</ele>
        <time>2020-10-27T09:20:33+01:00</time>
      </trkpt>
      <trkpt lat="45.07352" lon="6.20487">
        <ele>2250</ele>
        <time>2020-10-27T09:20:38+01:00</time>
      </trkpt>
      <trkpt lat="45.07372" lon="6.20532">
        <ele>2254</ele>
        <time>2020-10-27T09:20:43+01:00</time>
      </trkpt>
      <trkpt lat="45.07163" lon="6.20586">
        <ele>2242</ele>
        <time>2020-10-27T09:20:48+01:00</time>
      </trkpt>
      <trkpt lat="45.07093" lon="6.20648">
        <ele>2233</ele>
        <time>2020-10-27T09:20:53+01:00</time>
      </trkpt>
      <trkpt lat="45.07066" lon="6.20831">
        <ele>2216</ele>
        <time>2020-10-27T09:20:58+01:00</time>
      </trkpt>
      <trkpt lat="45.0701" lon="6.21002">
        <ele>2214</ele>
        <time>2020-10-27T09:21:03+01:00</time>
      </trkpt>
      <trkpt lat="45.06934" lon="6.21129">
        <ele>2209</ele>
        <time>2020-10-27T09:21:08+01:00</time>
      </trkpt>
      <trkpt lat="45.06872" lon="6.21316">
        <ele>2210</ele>
        <time>2020-10-27T09:21:13+01:00</time>
      </trkpt>
      <trkpt lat="45.06717" lon="6.21565">
        <ele>2210</ele>
        <time>2020-10-27T09:21:18+01:00</time>
      </trkpt>
      <trkpt lat="45.06661" lon="6.21659">
        <ele>2209</ele>
        <time>2020-10-27T09:21:23+01:00</time>
      </trkpt>
      <trkpt lat="45.0659" lon="6.21783">
        <ele>2208</ele>
        <time>2020-10-27T09:21:28+01:00</time>
      </trkpt>
      <trkpt lat="45.0657" lon="6.21992">
        <ele>2191</ele>
        <time>2020-10-27T09:21:33+01:00</time>
      </trkpt>
      <trkpt lat="45.06513" lon="6.22125">
        <ele>2203</ele>
        <time>2020-10-27T09:21:38+01:00</time>
      </trkpt>
      <trkpt lat="45.06502" lon="6.22305">
        <ele>2225</ele>
        <time>2020-10-27T09:21:43+01:00</time>
      </trkpt>
      <trkpt lat="45.06467" lon="6.22367">
        <ele>2239</ele>
        <time>2020-10-27T09:21:48+01:00</time>
      </trkpt>
      <trkpt lat="45.06454" lon="6.22479">
        <ele>2250</ele>
        <time>2020-10-27T09:21:53+01:00</time>
      </trkpt>
      <trkpt lat="45.0641" lon="6.22575">
        <ele>2261</ele>
        <time>2020-10-27T09:21:58+01:00</time>
      </trkpt>
      <trkpt lat="45.06382" lon="6.22717">
        <ele>2268</ele>
        <time>2020-10-27T09:22:03+01:00</time>
      </trkpt>
      <trkpt lat="45.06319" lon="6.22824">
        <ele>2274</ele>
        <time>2020-10-27T09:22:08+01:00</time>
      </trkpt>
      <trkpt lat="45.06325" lon="6.23043">
        <ele>2292</ele>
        <time>2020-10-27T09:22:13+01:00</time>
      </trkpt>
      <trkpt lat="45.06287" lon="6.23234">
        <ele>2304</ele>
        <time>2020-10-27T09:22:18+01:00</time>
      </trkpt>
      <trkpt lat="45.06297" lon="6.23365">
        <ele>2307</ele>
        <time>2020-10-27T09:22:23+01:00</time>
      </trkpt>
      <trkpt lat="45.06279" lon="6.23436">
        <ele>2311</ele>
        <time>2020-10-27T09:22:28+01:00</time>
      </trkpt>
      <trkpt lat="45.0629" lon="6.23573">
        <ele>2316</ele>
        <time>2020-10-27T09:22:33+01:00</time>
      </trkpt>
      <trkpt lat="45.06237" lon="6.23693">
        <ele>2333</ele>
        <time>2020-10-27T09:22:38+01:00</time>
      </trkpt>
      <trkpt lat="45.0614" lon="6.23785">
        <ele>2353</ele>
        <time>2020-10-27T09:22:43+01:00</time>
      </trkpt>
      <trkpt lat="45.06023" lon="6.23852">
        <ele>2368</ele>
        <time>2020-10-27T09:22:48+01:00</time>
      </trkpt>
      <trkpt lat="45.0592" lon="6.23873">
        <ele>2353</ele>
        <time>2020-10-27T09:22:53+01:00</time>
      </trkpt>
      <trkpt lat="45.05799" lon="6.23912">
        <ele>2331</ele>
        <time>2020-10-27T09:22:58+01:00</time>
      </trkpt>
      <trkpt lat="45.05755" lon="6.23964">
        <ele>2318</ele>
        <time>2020-10-27T09:23:03+01:00</time>
      </trkpt>
      <trkpt lat="45.05721" lon="6.24094">
        <ele>2302</ele>
        <time>2020-10-27T09:23:08+01:00</time>
      </trkpt>
      <trkpt lat="45.05715" lon="6.24172">
        <ele>2296</ele>
        <time>2020-10-27T09:23:13+01:00</time>
      </trkpt>
      <trkpt lat="45.05709" lon="6.24311">
        <ele>2280</ele>
        <time>2020-10-27T09:23:18+01:00</time>
      </trkpt>
      <trkpt lat="45.05731" lon="6.24494">
        <ele>2262</ele>
        <time>2020-10-27T09:23:23+01:00</time>
      </trkpt>
      <trkpt lat="45.05705" lon="6.24661">
        <ele>2247</ele>
        <time>2020-10-27T09:23:28+01:00</time>
      </trkpt>
      <trkpt lat="45.05705" lon="6.24704">
        <ele>2244</ele>
        <time>2020-10-27T09:23:33+01:00</time>
      </trkpt>
      <trkpt lat="45.05679" lon="6.2488">
        <ele>2228</ele>
        <time>2020-10-27T09:23:38+01:00</time>
      </trkpt>
      <trkpt lat="45.05694" lon="6.24959">
        <ele>2221</ele>
        <time>2020-10-27T09:23:43+01:00</time>
      </trkpt>
      <trkpt lat="45.0569" lon="6.25006">
        <ele>2217</ele>
        <time>2020-10-27T09:23:48+01:00</time>
      </trkpt>
      <trkpt lat="45.0572" lon="6.25169">
        <ele>2204</ele>
        <time>2020-10-27T09:23:53+01:00</time>
      </trkpt>
      <trkpt lat="45.05737" lon="6.25242">
        <ele>2199</ele>
        <time>2020-10-27T09:23:58+01:00</time>
      </trkpt>
      <trkpt lat="45.0569" lon="6.25253">
        <ele>2199</ele>
        <time>2020-10-27T09:24:03+01:00</time>
      </trkpt>
      <trkpt lat="45.05532" lon="6.2538">
        <ele>2205</ele>
        <time>2020-10-27T09:24:08+01:00</time>
      </trkpt>
      <trkpt lat="45.05432" lon="6.25423">
        <ele>2211</ele>
        <time>2020-10-27T09:24:13+01:00</time>
      </trkpt>
      <trkpt lat="45.0533" lon="6.25483">
        <ele>2219</ele>
        <time>2020-10-27T09:24:18+01:00</time>
      </trkpt>
      <trkpt lat="45.05264" lon="6.2556">
        <ele>2225</ele>
        <time>2020-10-27T09:24:23+01:00</time>
      </trkpt>
      <trkpt lat="45.05197" lon="6.25689">
        <ele>2222</ele>
        <time>2020-10-27T09:24:28+01:00</time>
      </trkpt>
      <trkpt lat="45.05182" lon="6.25764">
        <ele>2219</ele>
        <time>2020-10-27T09:24:33+01:00</time>
      </trkpt>
      <trkpt lat="45.05202" lon="6.25899">
        <ele>2209</ele>
        <time>2020-10-27T09:24:38+01:00</time>
      </trkpt>
      <trkpt lat="45.05259" lon="6.26157">
        <ele>2184</ele>
        <time>2020-10-27T09:24:43+01:00</time>
      </trkpt>
      <trkpt lat="45.05255" lon="6.26206">
        <ele>2176</ele>
        <time>2020-10-27T09:24:48+01:00</time>
      </trkpt>
      <trkpt lat="45.05265" lon="6.2633">
        <ele>2168</ele>
        <time>2020-10-27T09:24:53+01:00</time>
      </trkpt>
      <trkpt lat="45.05296" lon="6.2636">
        <ele>2171</ele>
        <time>2020-10-27T09:24:58+01:00</time>
      </trkpt>
      <trkpt lat="45.05332" lon="6.26577">
        <ele>2161</ele>
        <time>2020-10-27T09:25:03+01:00</time>
      </trkpt>
      <trkpt lat="45.05308" lon="6.26717">
        <ele>2149</ele>
        <time>2020-10-27T09:25:08+01:00</time>
      </trkpt>
      <trkpt lat="45.05279" lon="6.26828">
        <ele>2129</ele>
        <time>2020-10-27T09:25:13+01:00</time>
      </trkpt>
      <trkpt lat="45.05285" lon="6.26886">
        <ele>2120</ele>
        <time>2020-10-27T09:25:18+01:00</time>
      </trkpt>
      <trkpt lat="45.05253" lon="6.26953">
        <ele>2113</ele>
        <time>2020-10-27T09:25:23+01:00</time>
      </trkpt>
      <trkpt lat="45.05205" lon="6.27071">
        <ele>2095</ele>
        <time>2020-10-27T09:25:28+01:00</time>
      </trkpt>
      <trkpt lat="45.05176" lon="6.27206">
        <ele>2081</ele>
        <time>2020-10-27T09:25:33+01:00</time>
      </trkpt>
      <trkpt lat="45.05133" lon="6.27309">
        <ele>2071</ele>
        <time>2020-10-27T09:25:38+01:00</time>
      </trkpt>
      <trkpt lat="45.05083" lon="6.27356">
        <ele>2060</ele>
        <time>2020-10-27T09:25:43+01:00</time>
      </trkpt>
      <trkpt lat="45.05089" lon="6.27375">
        <ele>2055</ele>
        <time>2020-10-27T09:25:48+01:00</time>
      </trkpt>
      <trkpt lat="45.05208" lon="6.27377">
        <ele>2032</ele>
        <time>2020-10-27T09:25:53+01:00</time>
      </trkpt>
      <trkpt lat="45.05186" lon="6.27438">
        <ele>2024</ele>
        <time>2020-10-27T09:25:58+01:00</time>
      </trkpt>
      <trkpt lat="45.05236" lon="6.27416">
        <ele>2009</ele>
        <time>2020-10-27T09:26:03+01:00</time>
      </trkpt>
      <trkpt lat="45.05267" lon="6.2738">
        <ele>2001</ele>
        <time>2020-10-27T09:26:08+01:00</time>
      </trkpt>
      <trkpt lat="45.05267" lon="6.27438">
        <ele>1995</ele>
        <time>2020-10-27T09:26:13+01:00</time>
      </trkpt>
      <trkpt lat="45.0528" lon="6.27463">
        <ele>1987</ele>
        <time>2020-10-27T09:26:18+01:00</time>
      </trkpt>
      <trkpt lat="45.05302" lon="6.27431">
        <ele>1979</ele>
        <time>2020-10-27T09:26:23+01:00</time>
      </trkpt>
      <trkpt lat="45.05349" lon="6.27412">
        <ele>1961</ele>
        <time>2020-10-27T09:26:28+01:00</time>
      </trkpt>
      <trkpt lat="45.05355" lon="6.27384">
        <ele>1962</ele>
        <time>2020-10-27T09:26:33+01:00</time>
      </trkpt>
      <trkpt lat="45.0537" lon="6.2742">
        <ele>1950</ele>
        <time>2020-10-27T09:26:38+01:00</time>
      </trkpt>
      <trkpt lat="45.05394" lon="6.2735">
        <ele>1947</ele>
        <time>2020-10-27T09:26:43+01:00</time>
      </trkpt>
      <trkpt lat="45.05447" lon="6.27311">
        <ele>1939</ele>
        <time>2020-10-27T09:26:48+01:00</time>
      </trkpt>
      <trkpt lat="45.05521" lon="6.273">
        <ele>1923</ele>
        <time>2020-10-27T09:26:53+01:00</time>
      </trkpt>
      <trkpt lat="45.05599" lon="6.27259">
        <ele>1915</ele>
        <time>2020-10-27T09:26:58+01:00</time>
      </trkpt>
      <trkpt lat="45.05656" lon="6.2733">
        <ele>1899</ele>
        <time>2020-10-27T09:27:03+01:00</time>
      </trkpt>
      <trkpt lat="45.05737" lon="6.27496">
        <ele>1864</ele>
        <time>2020-10-27T09:27:08+01:00</time>
      </trkpt>
      <trkpt lat="45.05778" lon="6.27631">
        <ele>1832</ele>
        <time>2020-10-27T09:27:13+01:00</time>
      </trkpt>
      <trkpt lat="45.05711" lon="6.27708">
        <ele>1806</ele>
        <time>2020-10-27T09:27:18+01:00</time>
      </trkpt>
      <trkpt lat="45.05728" lon="6.27736">
        <ele>1799</ele>
        <time>2020-10-27T09:27:23+01:00</time>
      </trkpt>
      <trkpt lat="45.05685" lon="6.27826">
        <ele>1771</ele>
        <time>2020-10-27T09:27:28+01:00</time>
      </trkpt>
      <trkpt lat="45.05694" lon="6.27837">
        <ele>1768</ele>
        <time>2020-10-27T09:27:33+01:00</time>
      </trkpt>
      <trkpt lat="45.05687" lon="6.27907">
        <ele>1754</ele>
        <time>2020-10-27T09:27:38+01:00</time>
      </trkpt>
      <trkpt lat="45.05711" lon="6.2795">
        <ele>1746</ele>
        <time>2020-10-27T09:27:43+01:00</time>
      </trkpt>
      <trkpt lat="45.057" lon="6.28008">
        <ele>1736</ele>
        <time>2020-10-27T09:27:48+01:00</time>
      </trkpt>
      <trkpt lat="45.05662" lon="6.28079">
        <ele>1734</ele>
        <time>2020-10-27T09:27:53+01:00</time>
      </trkpt>
      <trkpt lat="45.0562" lon="6.28174">
        <ele>1747</ele>
        <time>2020-10-27T09:27:58+01:00</time>
      </trkpt>
      <trkpt lat="45.05558" lon="6.28277">
        <ele>1752</ele>
        <time>2020-10-27T09:28:03+01:00</time>
      </trkpt>
      <trkpt lat="45.05485" lon="6.2838">
        <ele>1768</ele>
        <time>2020-10-27T09:28:08+01:00</time>
      </trkpt>
      <trkpt lat="45.05446" lon="6.28425">
        <ele>1777</ele>
        <time>2020-10-27T09:28:13+01:00</time>
      </trkpt>
      <trkpt lat="45.05415" lon="6.2847">
        <ele>1786</ele>
        <time>2020-10-27T09:28:18+01:00</time>
      </trkpt>
      <trkpt lat="45.05391" lon="6.28648">
        <ele>1797</ele>
        <time>2020-10-27T09:28:23+01:00</time>
      </trkpt>
      <trkpt lat="45.05294" lon="6.28749">
        <ele>1793</ele>
        <time>2020-10-27T09:28:28+01:00</time>
      </trkpt>
      <trkpt lat="45.05262" lon="6.28819">
        <ele>1803</ele>
        <time>2020-10-27T09:28:33+01:00</time>
      </trkpt>
      <trkpt lat="45.05199" lon="6.28869">
        <ele>1805</ele>
        <time>2020-10-27T09:28:38+01:00</time>
      </trkpt>
      <trkpt lat="45.05108" lon="6.28897">
        <ele>1810</ele>
        <time>2020-10-27T09:28:43+01:00</time>
      </trkpt>
      <trkpt lat="45.05067" lon="6.28903">
        <ele>1811</ele>
        <time>2020-10-27T09:28:48+01:00</time>
      </trkpt>
      <trkpt lat="45.04954" lon="6.28942">
        <ele>1825</ele>
        <time>2020-10-27T09:28:53+01:00</time>
      </trkpt>
      <trkpt lat="45.04876" lon="6.28993">
        <ele>1828</ele>
        <time>2020-10-27T09:28:58+01:00</time>
      </trkpt>
      <trkpt lat="45.04853" lon="6.29049">
        <ele>1826</ele>
        <time>2020-10-27T09:29:03+01:00</time>
      </trkpt>
      <trkpt lat="45.04841" lon="6.29137">
        <ele>1824</ele>
        <time>2020-10-27T09:29:08+01:00</time>
      </trkpt>
      <trkpt lat="45.04868" lon="6.29231">
        <ele>1810</ele>
        <time>2020-10-27T09:29:13+01:00</time>
      </trkpt>
      <trkpt lat="45.04912" lon="6.29347">
        <ele>1792</ele>
        <time>2020-10-27T09:29:18+01:00</time>
      </trkpt>
      <trkpt lat="45.04938" lon="6.29431">
        <ele>1784</ele>
        <time>2020-10-27T09:29:23+01:00</time>
      </trkpt>
      <trkpt lat="45.04965" lon="6.29517">
        <ele>1773</ele>
        <time>2020-10-27T09:29:28+01:00</time>
      </trkpt>
      <trkpt lat="45.04945" lon="6.29547">
        <ele>1766</ele>
        <time>2020-10-27T09:29:33+01:00</time>
      </trkpt>
      <trkpt lat="45.04895" lon="6.29519">
        <ele>1753</ele>
        <time>2020-10-27T09:29:38+01:00</time>
      </trkpt>
      <trkpt lat="45.04841" lon="6.29547">
        <ele>1730</ele>
        <time>2020-10-27T09:29:43+01:00</time>
      </trkpt>
      <trkpt lat="45.04827" lon="6.29673">
        <ele>1705</ele>
        <time>2020-10-27T09:29:48+01:00</time>
      </trkpt>
      <trkpt lat="45.04832" lon="6.29867">
        <ele>1673</ele>
        <time>2020-10-27T09:29:53+01:00</time>
      </trkpt>
      <trkpt lat="45.04863" lon="6.30045">
        <ele>1642</ele>
        <time>2020-10-27T09:29:58+01:00</time>
      </trkpt>
      <trkpt lat="45.0485" lon="6.30128">
        <ele>1618</ele>
        <time>2020-10-27T09:30:03+01:00</time>
      </trkpt>
      <trkpt lat="45.04815" lon="6.30178">
        <ele>1607</ele>
        <time>2020-10-27T09:30:08+01:00</time>
      </trkpt>
      <trkpt lat="45.0476" lon="6.30176">
        <ele>1601</ele>
        <time>2020-10-27T09:30:13+01:00</time>
      </trkpt>
      <trkpt lat="45.04726" lon="6.30216">
        <ele>1587</ele>
        <time>2020-10-27T09:30:18+01:00</time>
      </trkpt>
      <trkpt lat="45.04694" lon="6.30251">
        <ele>1574</ele>
        <time>2020-10-27T09:30:23+01:00</time>
      </trkpt>
      <trkpt lat="45.04683" lon="6.30311">
        <ele>1561</ele>
        <time>2020-10-27T09:30:28+01:00</time>
      </trkpt>
      <trkpt lat="45.04691" lon="6.3036">
        <ele>1544</ele>
        <time>2020-10-27T09:30:33+01:00</time>
      </trkpt>
      <trkpt lat="45.04733" lon="6.30373">
        <ele>1540</ele>
        <time>2020-10-27T09:30:38+01:00</time>
      </trkpt>
      <trkpt lat="45.04762" lon="6.30362">
        <ele>1546</ele>
        <time>2020-10-27T09:30:43+01:00</time>
      </trkpt>
      <trkpt lat="45.04736" lon="6.30412">
        <ele>1538</ele>
        <time>2020-10-27T09:30:48+01:00</time>
      </trkpt>
      <trkpt lat="45.047" lon="6.30502">
        <ele>1523</ele>
        <time>2020-10-27T09:30:53+01:00</time>
      </trkpt>
      <trkpt lat="45.04679" lon="6.30538">
        <ele>1520</ele>
        <time>2020-10-27T09:30:58+01:00</time>
      </trkpt>
      <trkpt lat="45.04648" lon="6.30527">
        <ele>1519</ele>
        <time>2020-10-27T09:31:03+01:00</time>
      </trkpt>
      <trkpt lat="45.04607" lon="6.30577">
        <ele>1515</ele>
        <time>2020-10-27T09:31:08+01:00</time>
      </trkpt>
      <trkpt lat="45.04575" lon="6.30558">
        <ele>1506</ele>
        <time>2020-10-27T09:31:13+01:00</time>
      </trkpt>
      <trkpt lat="45.04556" lon="6.30575">
        <ele>1496</ele>
        <time>2020-10-27T09:31:18+01:00</time>
      </trkpt>
    </trkseg>
  </trk>
  <trk>
    <name><![CDATA[E3 La Grave - Le Monêtier]]></name>
    <trkseg>
      <trkpt lat="45.04546" lon="6.30685">
        <ele>1476</ele>
        <time>2020-10-27T09:15:53+01:00</time>
      </trkpt>
      <trkpt lat="45.04531" lon="6.30708">
        <ele>1470</ele>
        <time>2020-10-27T09:15:58+01:00</time>
      </trkpt>
      <trkpt lat="45.04561" lon="6.3077">
        <ele>1463</ele>
        <time>2020-10-27T09:16:03+01:00</time>
      </trkpt>
      <trkpt lat="45.04508" lon="6.30747">
        <ele>1454</ele>
        <time>2020-10-27T09:16:08+01:00</time>
      </trkpt>
      <trkpt lat="45.04446" lon="6.30667">
        <ele>1452</ele>
        <time>2020-10-27T09:16:13+01:00</time>
      </trkpt>
      <trkpt lat="45.04411" lon="6.30732">
        <ele>1439</ele>
        <time>2020-10-27T09:16:18+01:00</time>
      </trkpt>
      <trkpt lat="45.04414" lon="6.30828">
        <ele>1445</ele>
        <time>2020-10-27T09:16:23+01:00</time>
      </trkpt>
      <trkpt lat="45.0447" lon="6.30985">
        <ele>1443</ele>
        <time>2020-10-27T09:16:28+01:00</time>
      </trkpt>
      <trkpt lat="45.0447" lon="6.31107">
        <ele>1445</ele>
        <time>2020-10-27T09:16:33+01:00</time>
      </trkpt>
      <trkpt lat="45.0444" lon="6.31213">
        <ele>1450</ele>
        <time>2020-10-27T09:16:38+01:00</time>
      </trkpt>
      <trkpt lat="45.04396" lon="6.31303">
        <ele>1463</ele>
        <time>2020-10-27T09:16:43+01:00</time>
      </trkpt>
      <trkpt lat="45.04404" lon="6.31363">
        <ele>1467</ele>
        <time>2020-10-27T09:16:48+01:00</time>
      </trkpt>
      <trkpt lat="45.04375" lon="6.31311">
        <ele>1470</ele>
        <time>2020-10-27T09:16:53+01:00</time>
      </trkpt>
      <trkpt lat="45.04401" lon="6.31419">
        <ele>1482</ele>
        <time>2020-10-27T09:16:58+01:00</time>
      </trkpt>
      <trkpt lat="45.04446" lon="6.31558">
        <ele>1497</ele>
        <time>2020-10-27T09:17:03+01:00</time>
      </trkpt>
      <trkpt lat="45.04473" lon="6.31564">
        <ele>1494</ele>
        <time>2020-10-27T09:17:08+01:00</time>
      </trkpt>
      <trkpt lat="45.04492" lon="6.31627">
        <ele>1500</ele>
        <time>2020-10-27T09:17:13+01:00</time>
      </trkpt>
      <trkpt lat="45.04522" lon="6.31702">
        <ele>1505</ele>
        <time>2020-10-27T09:17:18+01:00</time>
      </trkpt>
      <trkpt lat="45.04516" lon="6.31749">
        <ele>1513</ele>
        <time>2020-10-27T09:17:23+01:00</time>
      </trkpt>
      <trkpt lat="45.04549" lon="6.3183">
        <ele>1522</ele>
        <time>2020-10-27T09:17:28+01:00</time>
      </trkpt>
      <trkpt lat="45.0453" lon="6.31942">
        <ele>1536</ele>
        <time>2020-10-27T09:17:33+01:00</time>
      </trkpt>
      <trkpt lat="45.04517" lon="6.31994">
        <ele>1544</ele>
        <time>2020-10-27T09:17:38+01:00</time>
      </trkpt>
      <trkpt lat="45.04504" lon="6.32112">
        <ele>1561</ele>
        <time>2020-10-27T09:17:43+01:00</time>
      </trkpt>
      <trkpt lat="45.04457" lon="6.32236">
        <ele>1571</ele>
        <time>2020-10-27T09:17:48+01:00</time>
      </trkpt>
      <trkpt lat="45.04463" lon="6.32305">
        <ele>1575</ele>
        <time>2020-10-27T09:17:53+01:00</time>
      </trkpt>
      <trkpt lat="45.04384" lon="6.3232">
        <ele>1600</ele>
        <time>2020-10-27T09:17:58+01:00</time>
      </trkpt>
      <trkpt lat="45.04302" lon="6.32343">
        <ele>1624</ele>
        <time>2020-10-27T09:18:03+01:00</time>
      </trkpt>
      <trkpt lat="45.04266" lon="6.32315">
        <ele>1638</ele>
        <time>2020-10-27T09:18:08+01:00</time>
      </trkpt>
      <trkpt lat="45.04202" lon="6.32315">
        <ele>1661</ele>
        <time>2020-10-27T09:18:13+01:00</time>
      </trkpt>
      <trkpt lat="45.04201" lon="6.32258">
        <ele>1683</ele>
        <time>2020-10-27T09:18:18+01:00</time>
      </trkpt>
      <trkpt lat="45.04161" lon="6.32275">
        <ele>1692</ele>
        <time>2020-10-27T09:18:23+01:00</time>
      </trkpt>
      <trkpt lat="45.04102" lon="6.32352">
        <ele>1715</ele>
        <time>2020-10-27T09:18:28+01:00</time>
      </trkpt>
      <trkpt lat="45.04058" lon="6.32371">
        <ele>1734</ele>
        <time>2020-10-27T09:18:33+01:00</time>
      </trkpt>
      <trkpt lat="45.0404" lon="6.32399">
        <ele>1739</ele>
        <time>2020-10-27T09:18:38+01:00</time>
      </trkpt>
      <trkpt lat="45.04113" lon="6.3244">
        <ele>1729</ele>
        <time>2020-10-27T09:18:43+01:00</time>
      </trkpt>
      <trkpt lat="45.04113" lon="6.32496">
        <ele>1723</ele>
        <time>2020-10-27T09:18:48+01:00</time>
      </trkpt>
      <trkpt lat="45.0407" lon="6.32562">
        <ele>1715</ele>
        <time>2020-10-27T09:18:53+01:00</time>
      </trkpt>
      <trkpt lat="45.04063" lon="6.32633">
        <ele>1710</ele>
        <time>2020-10-27T09:18:58+01:00</time>
      </trkpt>
      <trkpt lat="45.04138" lon="6.32712">
        <ele>1697</ele>
        <time>2020-10-27T09:19:03+01:00</time>
      </trkpt>
      <trkpt lat="45.0416" lon="6.32809">
        <ele>1684</ele>
        <time>2020-10-27T09:19:08+01:00</time>
      </trkpt>
      <trkpt lat="45.04175" lon="6.32996">
        <ele>1659</ele>
        <time>2020-10-27T09:19:13+01:00</time>
      </trkpt>
      <trkpt lat="45.04131" lon="6.33045">
        <ele>1658</ele>
        <time>2020-10-27T09:19:18+01:00</time>
      </trkpt>
      <trkpt lat="45.04141" lon="6.3309">
        <ele>1643</ele>
        <time>2020-10-27T09:19:23+01:00</time>
      </trkpt>
      <trkpt lat="45.04135" lon="6.33174">
        <ele>1632</ele>
        <time>2020-10-27T09:19:28+01:00</time>
      </trkpt>
      <trkpt lat="45.04155" lon="6.33363">
        <ele>1611</ele>
        <time>2020-10-27T09:19:33+01:00</time>
      </trkpt>
      <trkpt lat="45.04134" lon="6.33451">
        <ele>1619</ele>
        <time>2020-10-27T09:19:38+01:00</time>
      </trkpt>
      <trkpt lat="45.04129" lon="6.33536">
        <ele>1621</ele>
        <time>2020-10-27T09:19:43+01:00</time>
      </trkpt>
      <trkpt lat="45.04055" lon="6.33631">
        <ele>1636</ele>
        <time>2020-10-27T09:19:48+01:00</time>
      </trkpt>
      <trkpt lat="45.03996" lon="6.3368">
        <ele>1658</ele>
        <time>2020-10-27T09:19:53+01:00</time>
      </trkpt>
      <trkpt lat="45.0399" lon="6.33781">
        <ele>1645</ele>
        <time>2020-10-27T09:19:58+01:00</time>
      </trkpt>
      <trkpt lat="45.03902" lon="6.34071">
        <ele>1649</ele>
        <time>2020-10-27T09:20:03+01:00</time>
      </trkpt>
      <trkpt lat="45.03908" lon="6.34118">
        <ele>1645</ele>
        <time>2020-10-27T09:20:08+01:00</time>
      </trkpt>
      <trkpt lat="45.03881" lon="6.34176">
        <ele>1652</ele>
        <time>2020-10-27T09:20:13+01:00</time>
      </trkpt>
      <trkpt lat="45.03865" lon="6.34251">
        <ele>1645</ele>
        <time>2020-10-27T09:20:18+01:00</time>
      </trkpt>
      <trkpt lat="45.03828" lon="6.34332">
        <ele>1647</ele>
        <time>2020-10-27T09:20:23+01:00</time>
      </trkpt>
      <trkpt lat="45.03815" lon="6.34468">
        <ele>1646</ele>
        <time>2020-10-27T09:20:28+01:00</time>
      </trkpt>
      <trkpt lat="45.03826" lon="6.34513">
        <ele>1643</ele>
        <time>2020-10-27T09:20:33+01:00</time>
      </trkpt>
      <trkpt lat="45.03788" lon="6.34663">
        <ele>1643</ele>
        <time>2020-10-27T09:20:38+01:00</time>
      </trkpt>
      <trkpt lat="45.03797" lon="6.34697">
        <ele>1641</ele>
        <time>2020-10-27T09:20:43+01:00</time>
      </trkpt>
      <trkpt lat="45.0379" lon="6.34738">
        <ele>1641</ele>
        <time>2020-10-27T09:20:48+01:00</time>
      </trkpt>
      <trkpt lat="45.03787" lon="6.34802">
        <ele>1643</ele>
        <time>2020-10-27T09:20:53+01:00</time>
      </trkpt>
      <trkpt lat="45.03762" lon="6.34824">
        <ele>1647</ele>
        <time>2020-10-27T09:20:58+01:00</time>
      </trkpt>
      <trkpt lat="45.037" lon="6.34835">
        <ele>1659</ele>
        <time>2020-10-27T09:21:03+01:00</time>
      </trkpt>
      <trkpt lat="45.03652" lon="6.3495">
        <ele>1664</ele>
        <time>2020-10-27T09:21:08+01:00</time>
      </trkpt>
      <trkpt lat="45.03627" lon="6.35053">
        <ele>1660</ele>
        <time>2020-10-27T09:21:13+01:00</time>
      </trkpt>
      <trkpt lat="45.03565" lon="6.35105">
        <ele>1659</ele>
        <time>2020-10-27T09:21:18+01:00</time>
      </trkpt>
      <trkpt lat="45.03561" lon="6.35141">
        <ele>1659</ele>
        <time>2020-10-27T09:21:23+01:00</time>
      </trkpt>
      <trkpt lat="45.035" lon="6.35227">
        <ele>1659</ele>
        <time>2020-10-27T09:21:28+01:00</time>
      </trkpt>
      <trkpt lat="45.03451" lon="6.3533">
        <ele>1660</ele>
        <time>2020-10-27T09:21:33+01:00</time>
      </trkpt>
      <trkpt lat="45.03412" lon="6.35433">
        <ele>1660</ele>
        <time>2020-10-27T09:21:38+01:00</time>
      </trkpt>
      <trkpt lat="45.03321" lon="6.35528">
        <ele>1660</ele>
        <time>2020-10-27T09:21:43+01:00</time>
      </trkpt>
      <trkpt lat="45.03262" lon="6.3562">
        <ele>1660</ele>
        <time>2020-10-27T09:21:48+01:00</time>
      </trkpt>
      <trkpt lat="45.03215" lon="6.35753">
        <ele>1661</ele>
        <time>2020-10-27T09:21:53+01:00</time>
      </trkpt>
      <trkpt lat="45.03194" lon="6.35822">
        <ele>1660</ele>
        <time>2020-10-27T09:21:58+01:00</time>
      </trkpt>
      <trkpt lat="45.03238" lon="6.35862">
        <ele>1662</ele>
        <time>2020-10-27T09:22:03+01:00</time>
      </trkpt>
      <trkpt lat="45.03219" lon="6.3591">
        <ele>1662</ele>
        <time>2020-10-27T09:22:08+01:00</time>
      </trkpt>
      <trkpt lat="45.03209" lon="6.35993">
        <ele>1663</ele>
        <time>2020-10-27T09:22:13+01:00</time>
      </trkpt>
      <trkpt lat="45.03138" lon="6.36171">
        <ele>1670</ele>
        <time>2020-10-27T09:22:18+01:00</time>
      </trkpt>
      <trkpt lat="45.03068" lon="6.36328">
        <ele>1670</ele>
        <time>2020-10-27T09:22:23+01:00</time>
      </trkpt>
      <trkpt lat="45.02965" lon="6.36442">
        <ele>1672</ele>
        <time>2020-10-27T09:22:28+01:00</time>
      </trkpt>
      <trkpt lat="45.0294" lon="6.36502">
        <ele>1686</ele>
        <time>2020-10-27T09:22:33+01:00</time>
      </trkpt>
      <trkpt lat="45.02813" lon="6.36607">
        <ele>1678</ele>
        <time>2020-10-27T09:22:38+01:00</time>
      </trkpt>
      <trkpt lat="45.02684" lon="6.36682">
        <ele>1687</ele>
        <time>2020-10-27T09:22:43+01:00</time>
      </trkpt>
      <trkpt lat="45.02575" lon="6.36695">
        <ele>1693</ele>
        <time>2020-10-27T09:22:48+01:00</time>
      </trkpt>
      <trkpt lat="45.0242" lon="6.36824">
        <ele>1705</ele>
        <time>2020-10-27T09:22:53+01:00</time>
      </trkpt>
      <trkpt lat="45.02316" lon="6.36918">
        <ele>1706</ele>
        <time>2020-10-27T09:22:58+01:00</time>
      </trkpt>
      <trkpt lat="45.02244" lon="6.37002">
        <ele>1712</ele>
        <time>2020-10-27T09:23:03+01:00</time>
      </trkpt>
      <trkpt lat="45.02175" lon="6.37017">
        <ele>1710</ele>
        <time>2020-10-27T09:23:08+01:00</time>
      </trkpt>
      <trkpt lat="45.02114" lon="6.37105">
        <ele>1721</ele>
        <time>2020-10-27T09:23:13+01:00</time>
      </trkpt>
      <trkpt lat="45.0207" lon="6.37109">
        <ele>1716</ele>
        <time>2020-10-27T09:23:18+01:00</time>
      </trkpt>
      <trkpt lat="45.0202" lon="6.3715">
        <ele>1717</ele>
        <time>2020-10-27T09:23:23+01:00</time>
      </trkpt>
      <trkpt lat="45.01967" lon="6.37146">
        <ele>1718</ele>
        <time>2020-10-27T09:23:28+01:00</time>
      </trkpt>
      <trkpt lat="45.01713" lon="6.37199">
        <ele>1729</ele>
        <time>2020-10-27T09:23:33+01:00</time>
      </trkpt>
      <trkpt lat="45.01682" lon="6.37216">
        <ele>1735</ele>
        <time>2020-10-27T09:23:38+01:00</time>
      </trkpt>
      <trkpt lat="45.01629" lon="6.3715">
        <ele>1738</ele>
        <time>2020-10-27T09:23:43+01:00</time>
      </trkpt>
      <trkpt lat="45.01525" lon="6.37109">
        <ele>1761</ele>
        <time>2020-10-27T09:23:48+01:00</time>
      </trkpt>
      <trkpt lat="45.01451" lon="6.37219">
        <ele>1779</ele>
        <time>2020-10-27T09:23:53+01:00</time>
      </trkpt>
      <trkpt lat="45.01404" lon="6.37332">
        <ele>1784</ele>
        <time>2020-10-27T09:23:58+01:00</time>
      </trkpt>
      <trkpt lat="45.0136" lon="6.37425">
        <ele>1791</ele>
        <time>2020-10-27T09:24:03+01:00</time>
      </trkpt>
      <trkpt lat="45.01328" lon="6.37431">
        <ele>1810</ele>
        <time>2020-10-27T09:24:08+01:00</time>
      </trkpt>
      <trkpt lat="45.01311" lon="6.37382">
        <ele>1817</ele>
        <time>2020-10-27T09:24:13+01:00</time>
      </trkpt>
      <trkpt lat="45.0128" lon="6.37452">
        <ele>1841</ele>
        <time>2020-10-27T09:24:18+01:00</time>
      </trkpt>
      <trkpt lat="45.01269" lon="6.37502">
        <ele>1861</ele>
        <time>2020-10-27T09:24:23+01:00</time>
      </trkpt>
      <trkpt lat="45.0129" lon="6.37519">
        <ele>1867</ele>
        <time>2020-10-27T09:24:28+01:00</time>
      </trkpt>
      <trkpt lat="45.01281" lon="6.37545">
        <ele>1877</ele>
        <time>2020-10-27T09:24:33+01:00</time>
      </trkpt>
      <trkpt lat="45.01307" lon="6.37551">
        <ele>1884</ele>
        <time>2020-10-27T09:24:38+01:00</time>
      </trkpt>
      <trkpt lat="45.01258" lon="6.37594">
        <ele>1896</ele>
        <time>2020-10-27T09:24:43+01:00</time>
      </trkpt>
      <trkpt lat="45.0128" lon="6.37615">
        <ele>1909</ele>
        <time>2020-10-27T09:24:48+01:00</time>
      </trkpt>
      <trkpt lat="45.0117" lon="6.37671">
        <ele>1942</ele>
        <time>2020-10-27T09:24:53+01:00</time>
      </trkpt>
      <trkpt lat="45.01137" lon="6.37656">
        <ele>1948</ele>
        <time>2020-10-27T09:24:58+01:00</time>
      </trkpt>
      <trkpt lat="45.01134" lon="6.37701">
        <ele>1960</ele>
        <time>2020-10-27T09:25:03+01:00</time>
      </trkpt>
      <trkpt lat="45.01105" lon="6.37686">
        <ele>1965</ele>
        <time>2020-10-27T09:25:08+01:00</time>
      </trkpt>
      <trkpt lat="45.01095" lon="6.37759">
        <ele>1991</ele>
        <time>2020-10-27T09:25:13+01:00</time>
      </trkpt>
      <trkpt lat="45.01004" lon="6.37791">
        <ele>2007</ele>
        <time>2020-10-27T09:25:18+01:00</time>
      </trkpt>
      <trkpt lat="45.00916" lon="6.37815">
        <ele>2020</ele>
        <time>2020-10-27T09:25:23+01:00</time>
      </trkpt>
      <trkpt lat="45.00737" lon="6.37946">
        <ele>2047</ele>
        <time>2020-10-27T09:25:28+01:00</time>
      </trkpt>
      <trkpt lat="45.00649" lon="6.38004">
        <ele>2059</ele>
        <time>2020-10-27T09:25:33+01:00</time>
      </trkpt>
      <trkpt lat="45.00585" lon="6.38042">
        <ele>2060</ele>
        <time>2020-10-27T09:25:38+01:00</time>
      </trkpt>
      <trkpt lat="45.00482" lon="6.38178">
        <ele>2059</ele>
        <time>2020-10-27T09:25:43+01:00</time>
      </trkpt>
      <trkpt lat="45.00356" lon="6.38236">
        <ele>2063</ele>
        <time>2020-10-27T09:25:48+01:00</time>
      </trkpt>
      <trkpt lat="45.00165" lon="6.38358">
        <ele>2087</ele>
        <time>2020-10-27T09:25:53+01:00</time>
      </trkpt>
      <trkpt lat="45.00004" lon="6.38469">
        <ele>2087</ele>
        <time>2020-10-27T09:25:58+01:00</time>
      </trkpt>
      <trkpt lat="44.99882" lon="6.38572">
        <ele>2084</ele>
        <time>2020-10-27T09:26:03+01:00</time>
      </trkpt>
      <trkpt lat="44.99743" lon="6.38678">
        <ele>2094</ele>
        <time>2020-10-27T09:26:08+01:00</time>
      </trkpt>
      <trkpt lat="44.9957" lon="6.38817">
        <ele>2126</ele>
        <time>2020-10-27T09:26:13+01:00</time>
      </trkpt>
      <trkpt lat="44.99417" lon="6.38856">
        <ele>2136</ele>
        <time>2020-10-27T09:26:18+01:00</time>
      </trkpt>
      <trkpt lat="44.99362" lon="6.38899">
        <ele>2145</ele>
        <time>2020-10-27T09:26:23+01:00</time>
      </trkpt>
      <trkpt lat="44.99306" lon="6.38912">
        <ele>2143</ele>
        <time>2020-10-27T09:26:28+01:00</time>
      </trkpt>
      <trkpt lat="44.99228" lon="6.39015">
        <ele>2156</ele>
        <time>2020-10-27T09:26:33+01:00</time>
      </trkpt>
      <trkpt lat="44.99148" lon="6.39077">
        <ele>2163</ele>
        <time>2020-10-27T09:26:38+01:00</time>
      </trkpt>
      <trkpt lat="44.9909" lon="6.39152">
        <ele>2170</ele>
        <time>2020-10-27T09:26:43+01:00</time>
      </trkpt>
      <trkpt lat="44.98881" lon="6.39381">
        <ele>2186</ele>
        <time>2020-10-27T09:26:48+01:00</time>
      </trkpt>
      <trkpt lat="44.98817" lon="6.39439">
        <ele>2190</ele>
        <time>2020-10-27T09:26:53+01:00</time>
      </trkpt>
      <trkpt lat="44.98761" lon="6.39519">
        <ele>2193</ele>
        <time>2020-10-27T09:26:58+01:00</time>
      </trkpt>
      <trkpt lat="44.98665" lon="6.39615">
        <ele>2199</ele>
        <time>2020-10-27T09:27:03+01:00</time>
      </trkpt>
      <trkpt lat="44.9858" lon="6.39746">
        <ele>2212</ele>
        <time>2020-10-27T09:27:08+01:00</time>
      </trkpt>
      <trkpt lat="44.98517" lon="6.39819">
        <ele>2217</ele>
        <time>2020-10-27T09:27:13+01:00</time>
      </trkpt>
      <trkpt lat="44.98451" lon="6.39926">
        <ele>2223</ele>
        <time>2020-10-27T09:27:18+01:00</time>
      </trkpt>
      <trkpt lat="44.98388" lon="6.40064">
        <ele>2232</ele>
        <time>2020-10-27T09:27:23+01:00</time>
      </trkpt>
      <trkpt lat="44.98301" lon="6.4018">
        <ele>2236</ele>
        <time>2020-10-27T09:27:28+01:00</time>
      </trkpt>
      <trkpt lat="44.98228" lon="6.40285">
        <ele>2245</ele>
        <time>2020-10-27T09:27:33+01:00</time>
      </trkpt>
      <trkpt lat="44.98136" lon="6.4036">
        <ele>2248</ele>
        <time>2020-10-27T09:27:38+01:00</time>
      </trkpt>
      <trkpt lat="44.98026" lon="6.40495">
        <ele>2260</ele>
        <time>2020-10-27T09:27:43+01:00</time>
      </trkpt>
      <trkpt lat="44.97837" lon="6.406">
        <ele>2302</ele>
        <time>2020-10-27T09:27:48+01:00</time>
      </trkpt>
      <trkpt lat="44.97799" lon="6.40652">
        <ele>2317</ele>
        <time>2020-10-27T09:27:53+01:00</time>
      </trkpt>
      <trkpt lat="44.97765" lon="6.40705">
        <ele>2328</ele>
        <time>2020-10-27T09:27:58+01:00</time>
      </trkpt>
      <trkpt lat="44.9778" lon="6.4075">
        <ele>2337</ele>
        <time>2020-10-27T09:28:03+01:00</time>
      </trkpt>
      <trkpt lat="44.97767" lon="6.40793">
        <ele>2343</ele>
        <time>2020-10-27T09:28:08+01:00</time>
      </trkpt>
      <trkpt lat="44.97796" lon="6.40967">
        <ele>2355</ele>
        <time>2020-10-27T09:28:13+01:00</time>
      </trkpt>
      <trkpt lat="44.97788" lon="6.41036">
        <ele>2352</ele>
        <time>2020-10-27T09:28:18+01:00</time>
      </trkpt>
      <trkpt lat="44.97814" lon="6.41081">
        <ele>2352</ele>
        <time>2020-10-27T09:28:23+01:00</time>
      </trkpt>
      <trkpt lat="44.97825" lon="6.41141">
        <ele>2350</ele>
        <time>2020-10-27T09:28:28+01:00</time>
      </trkpt>
      <trkpt lat="44.97846" lon="6.41171">
        <ele>2351</ele>
        <time>2020-10-27T09:28:33+01:00</time>
      </trkpt>
      <trkpt lat="44.9794" lon="6.41501">
        <ele>2332</ele>
        <time>2020-10-27T09:28:38+01:00</time>
      </trkpt>
      <trkpt lat="44.97937" lon="6.41542">
        <ele>2325</ele>
        <time>2020-10-27T09:28:43+01:00</time>
      </trkpt>
      <trkpt lat="44.97985" lon="6.4169">
        <ele>2302</ele>
        <time>2020-10-27T09:28:48+01:00</time>
      </trkpt>
      <trkpt lat="44.98005" lon="6.41821">
        <ele>2283</ele>
        <time>2020-10-27T09:28:53+01:00</time>
      </trkpt>
      <trkpt lat="44.98052" lon="6.41905">
        <ele>2272</ele>
        <time>2020-10-27T09:28:58+01:00</time>
      </trkpt>
      <trkpt lat="44.98079" lon="6.42012">
        <ele>2261</ele>
        <time>2020-10-27T09:29:03+01:00</time>
      </trkpt>
      <trkpt lat="44.98127" lon="6.421">
        <ele>2253</ele>
        <time>2020-10-27T09:29:08+01:00</time>
      </trkpt>
      <trkpt lat="44.98186" lon="6.42134">
        <ele>2254</ele>
        <time>2020-10-27T09:29:13+01:00</time>
      </trkpt>
      <trkpt lat="44.98196" lon="6.42173">
        <ele>2251</ele>
        <time>2020-10-27T09:29:18+01:00</time>
      </trkpt>
      <trkpt lat="44.98222" lon="6.4219">
        <ele>2253</ele>
        <time>2020-10-27T09:29:23+01:00</time>
      </trkpt>
      <trkpt lat="44.98218" lon="6.42235">
        <ele>2250</ele>
        <time>2020-10-27T09:29:28+01:00</time>
      </trkpt>
      <trkpt lat="44.98198" lon="6.4225">
        <ele>2250</ele>
        <time>2020-10-27T09:29:33+01:00</time>
      </trkpt>
      <trkpt lat="44.98224" lon="6.42317">
        <ele>2245</ele>
        <time>2020-10-27T09:29:38+01:00</time>
      </trkpt>
      <trkpt lat="44.98239" lon="6.42422">
        <ele>2235</ele>
        <time>2020-10-27T09:29:43+01:00</time>
      </trkpt>
      <trkpt lat="44.98249" lon="6.42589">
        <ele>2226</ele>
        <time>2020-10-27T09:29:48+01:00</time>
      </trkpt>
      <trkpt lat="44.98213" lon="6.42767">
        <ele>2219</ele>
        <time>2020-10-27T09:29:53+01:00</time>
      </trkpt>
      <trkpt lat="44.98154" lon="6.4298">
        <ele>2197</ele>
        <time>2020-10-27T09:29:58+01:00</time>
      </trkpt>
      <trkpt lat="44.98122" lon="6.43205">
        <ele>2173</ele>
        <time>2020-10-27T09:30:03+01:00</time>
      </trkpt>
      <trkpt lat="44.98073" lon="6.43471">
        <ele>2163</ele>
        <time>2020-10-27T09:30:08+01:00</time>
      </trkpt>
      <trkpt lat="44.98079" lon="6.43546">
        <ele>2163</ele>
        <time>2020-10-27T09:30:13+01:00</time>
      </trkpt>
      <trkpt lat="44.98069" lon="6.43583">
        <ele>2160</ele>
        <time>2020-10-27T09:30:18+01:00</time>
      </trkpt>
      <trkpt lat="44.9807" lon="6.43765">
        <ele>2154</ele>
        <time>2020-10-27T09:30:23+01:00</time>
      </trkpt>
      <trkpt lat="44.98032" lon="6.43877">
        <ele>2150</ele>
        <time>2020-10-27T09:30:28+01:00</time>
      </trkpt>
      <trkpt lat="44.97981" lon="6.44003">
        <ele>2134</ele>
        <time>2020-10-27T09:30:33+01:00</time>
      </trkpt>
      <trkpt lat="44.97916" lon="6.44244">
        <ele>2081</ele>
        <time>2020-10-27T09:30:38+01:00</time>
      </trkpt>
      <trkpt lat="44.97899" lon="6.44227">
        <ele>2069</ele>
        <time>2020-10-27T09:30:43+01:00</time>
      </trkpt>
      <trkpt lat="44.97875" lon="6.44306">
        <ele>2052</ele>
        <time>2020-10-27T09:30:48+01:00</time>
      </trkpt>
      <trkpt lat="44.97811" lon="6.44411">
        <ele>2007</ele>
        <time>2020-10-27T09:30:53+01:00</time>
      </trkpt>
      <trkpt lat="44.97741" lon="6.44617">
        <ele>1957</ele>
        <time>2020-10-27T09:30:58+01:00</time>
      </trkpt>
      <trkpt lat="44.97656" lon="6.44804">
        <ele>1909</ele>
        <time>2020-10-27T09:31:03+01:00</time>
      </trkpt>
      <trkpt lat="44.97618" lon="6.44821">
        <ele>1903</ele>
        <time>2020-10-27T09:31:08+01:00</time>
      </trkpt>
      <trkpt lat="44.97594" lon="6.44978">
        <ele>1894</ele>
        <time>2020-10-27T09:31:13+01:00</time>
      </trkpt>
      <trkpt lat="44.97547" lon="6.45181">
        <ele>1870</ele>
        <time>2020-10-27T09:31:18+01:00</time>
      </trkpt>
      <trkpt lat="44.97554" lon="6.45336">
        <ele>1844</ele>
        <time>2020-10-27T09:31:23+01:00</time>
      </trkpt>
      <trkpt lat="44.97579" lon="6.4542">
        <ele>1828</ele>
        <time>2020-10-27T09:31:28+01:00</time>
      </trkpt>
      <trkpt lat="44.97635" lon="6.45583">
        <ele>1793</ele>
        <time>2020-10-27T09:31:33+01:00</time>
      </trkpt>
      <trkpt lat="44.9768" lon="6.45726">
        <ele>1768</ele>
        <time>2020-10-27T09:31:38+01:00</time>
      </trkpt>
      <trkpt lat="44.97667" lon="6.45845">
        <ele>1754</ele>
        <time>2020-10-27T09:31:43+01:00</time>
      </trkpt>
      <trkpt lat="44.97683" lon="6.45894">
        <ele>1745</ele>
        <time>2020-10-27T09:31:48+01:00</time>
      </trkpt>
      <trkpt lat="44.97682" lon="6.45956">
        <ele>1738</ele>
        <time>2020-10-27T09:31:53+01:00</time>
      </trkpt>
      <trkpt lat="44.97715" lon="6.46096">
        <ele>1719</ele>
        <time>2020-10-27T09:31:58+01:00</time>
      </trkpt>
      <trkpt lat="44.97741" lon="6.46141">
        <ele>1713</ele>
        <time>2020-10-27T09:32:03+01:00</time>
      </trkpt>
      <trkpt lat="44.97784" lon="6.46265">
        <ele>1700</ele>
        <time>2020-10-27T09:32:08+01:00</time>
      </trkpt>
      <trkpt lat="44.97873" lon="6.46323">
        <ele>1685</ele>
        <time>2020-10-27T09:32:13+01:00</time>
      </trkpt>
      <trkpt lat="44.97872" lon="6.46362">
        <ele>1690</ele>
        <time>2020-10-27T09:32:18+01:00</time>
      </trkpt>
      <trkpt lat="44.97899" lon="6.46368">
        <ele>1683</ele>
        <time>2020-10-27T09:32:23+01:00</time>
      </trkpt>
      <trkpt lat="44.97923" lon="6.46445">
        <ele>1679</ele>
        <time>2020-10-27T09:32:28+01:00</time>
      </trkpt>
      <trkpt lat="44.97981" lon="6.4652">
        <ele>1669</ele>
        <time>2020-10-27T09:32:33+01:00</time>
      </trkpt>
      <trkpt lat="44.98019" lon="6.46621">
        <ele>1661</ele>
        <time>2020-10-27T09:32:38+01:00</time>
      </trkpt>
      <trkpt lat="44.98072" lon="6.46677">
        <ele>1642</ele>
        <time>2020-10-27T09:32:43+01:00</time>
      </trkpt>
      <trkpt lat="44.98122" lon="6.46767">
        <ele>1628</ele>
        <time>2020-10-27T09:32:48+01:00</time>
      </trkpt>
      <trkpt lat="44.9812" lon="6.46832">
        <ele>1635</ele>
        <time>2020-10-27T09:32:53+01:00</time>
      </trkpt>
      <trkpt lat="44.98171" lon="6.46789">
        <ele>1618</ele>
        <time>2020-10-27T09:32:58+01:00</time>
      </trkpt>
      <trkpt lat="44.98172" lon="6.46849">
        <ele>1616</ele>
        <time>2020-10-27T09:33:03+01:00</time>
      </trkpt>
      <trkpt lat="44.98246" lon="6.46913">
        <ele>1600</ele>
        <time>2020-10-27T09:33:08+01:00</time>
      </trkpt>
      <trkpt lat="44.98268" lon="6.46962">
        <ele>1595</ele>
        <time>2020-10-27T09:33:13+01:00</time>
      </trkpt>
      <trkpt lat="44.98353" lon="6.47031">
        <ele>1579</ele>
        <time>2020-10-27T09:33:18+01:00</time>
      </trkpt>
      <trkpt lat="44.98301" lon="6.47083">
        <ele>1587</ele>
        <time>2020-10-27T09:33:23+01:00</time>
      </trkpt>
      <trkpt lat="44.98324" lon="6.47108">
        <ele>1583</ele>
        <time>2020-10-27T09:33:28+01:00</time>
      </trkpt>
      <trkpt lat="44.98348" lon="6.47078">
        <ele>1578</ele>
        <time>2020-10-27T09:33:33+01:00</time>
      </trkpt>
      <trkpt lat="44.98345" lon="6.47126">
        <ele>1578</ele>
        <time>2020-10-27T09:33:38+01:00</time>
      </trkpt>
      <trkpt lat="44.98383" lon="6.47162">
        <ele>1563</ele>
        <time>2020-10-27T09:33:43+01:00</time>
      </trkpt>
      <trkpt lat="44.98418" lon="6.47261">
        <ele>1560</ele>
        <time>2020-10-27T09:33:48+01:00</time>
      </trkpt>
      <trkpt lat="44.98456" lon="6.47428">
        <ele>1554</ele>
        <time>2020-10-27T09:33:53+01:00</time>
      </trkpt>
      <trkpt lat="44.98497" lon="6.4757">
        <ele>1540</ele>
        <time>2020-10-27T09:33:58+01:00</time>
      </trkpt>
      <trkpt lat="44.98544" lon="6.47698">
        <ele>1536</ele>
        <time>2020-10-27T09:34:03+01:00</time>
      </trkpt>
      <trkpt lat="44.98562" lon="6.47819">
        <ele>1531</ele>
        <time>2020-10-27T09:34:08+01:00</time>
      </trkpt>
      <trkpt lat="44.98606" lon="6.47915">
        <ele>1528</ele>
        <time>2020-10-27T09:34:13+01:00</time>
      </trkpt>
      <trkpt lat="44.98664" lon="6.48061">
        <ele>1519</ele>
        <time>2020-10-27T09:34:18+01:00</time>
      </trkpt>
      <trkpt lat="44.98723" lon="6.48087">
        <ele>1517</ele>
        <time>2020-10-27T09:34:23+01:00</time>
      </trkpt>
      <trkpt lat="44.98732" lon="6.48179">
        <ele>1516</ele>
        <time>2020-10-27T09:34:28+01:00</time>
      </trkpt>
      <trkpt lat="44.98624" lon="6.48286">
        <ele>1511</ele>
        <time>2020-10-27T09:34:33+01:00</time>
      </trkpt>
      <trkpt lat="44.98579" lon="6.4828">
        <ele>1511</ele>
        <time>2020-10-27T09:34:38+01:00</time>
      </trkpt>
      <trkpt lat="44.98483" lon="6.48344">
        <ele>1510</ele>
        <time>2020-10-27T09:34:43+01:00</time>
      </trkpt>
      <trkpt lat="44.98389" lon="6.48387">
        <ele>1510</ele>
        <time>2020-10-27T09:34:48+01:00</time>
      </trkpt>
      <trkpt lat="44.98385" lon="6.48419">
        <ele>1509</ele>
        <time>2020-10-27T09:34:53+01:00</time>
      </trkpt>
      <trkpt lat="44.98347" lon="6.48456">
        <ele>1509</ele>
        <time>2020-10-27T09:34:58+01:00</time>
      </trkpt>
      <trkpt lat="44.98324" lon="6.48514">
        <ele>1508</ele>
        <time>2020-10-27T09:35:03+01:00</time>
      </trkpt>
      <trkpt lat="44.98284" lon="6.48567">
        <ele>1509</ele>
        <time>2020-10-27T09:35:08+01:00</time>
      </trkpt>
      <trkpt lat="44.98277" lon="6.48662">
        <ele>1502</ele>
        <time>2020-10-27T09:35:13+01:00</time>
      </trkpt>
      <trkpt lat="44.98201" lon="6.48825">
        <ele>1499</ele>
        <time>2020-10-27T09:35:18+01:00</time>
      </trkpt>
      <trkpt lat="44.98183" lon="6.48917">
        <ele>1498</ele>
        <time>2020-10-27T09:35:23+01:00</time>
      </trkpt>
      <trkpt lat="44.98057" lon="6.49033">
        <ele>1498</ele>
        <time>2020-10-27T09:35:28+01:00</time>
      </trkpt>
      <trkpt lat="44.98039" lon="6.49138">
        <ele>1495</ele>
        <time>2020-10-27T09:35:33+01:00</time>
      </trkpt>
      <trkpt lat="44.97979" lon="6.49269">
        <ele>1491</ele>
        <time>2020-10-27T09:35:38+01:00</time>
      </trkpt>
      <trkpt lat="44.97923" lon="6.49406">
        <ele>1488</ele>
        <time>2020-10-27T09:35:43+01:00</time>
      </trkpt>
      <trkpt lat="44.97841" lon="6.49632">
        <ele>1481</ele>
        <time>2020-10-27T09:35:48+01:00</time>
      </trkpt>
      <trkpt lat="44.97759" lon="6.49638">
        <ele>1481</ele>
        <time>2020-10-27T09:35:53+01:00</time>
      </trkpt>
      <trkpt lat="44.97689" lon="6.49685">
        <ele>1479</ele>
        <time>2020-10-27T09:35:58+01:00</time>
      </trkpt>
      <trkpt lat="44.97651" lon="6.49784">
        <ele>1476</ele>
        <time>2020-10-27T09:36:03+01:00</time>
      </trkpt>
      <trkpt lat="44.97609" lon="6.49855">
        <ele>1475</ele>
        <time>2020-10-27T09:36:08+01:00</time>
      </trkpt>
      <trkpt lat="44.97576" lon="6.50009">
        <ele>1479</ele>
        <time>2020-10-27T09:36:13+01:00</time>
      </trkpt>
      <trkpt lat="44.97486" lon="6.50076">
        <ele>1478</ele>
        <time>2020-10-27T09:36:18+01:00</time>
      </trkpt>
      <trkpt lat="44.97453" lon="6.50233">
        <ele>1473</ele>
        <time>2020-10-27T09:36:23+01:00</time>
      </trkpt>
      <trkpt lat="44.97445" lon="6.50284">
        <ele>1471</ele>
        <time>2020-10-27T09:36:28+01:00</time>
      </trkpt>
      <trkpt lat="44.97425" lon="6.50351">
        <ele>1470</ele>
        <time>2020-10-27T09:36:33+01:00</time>
      </trkpt>
      <trkpt lat="44.97372" lon="6.50524">
        <ele>1469</ele>
        <time>2020-10-27T09:36:38+01:00</time>
      </trkpt>
      <trkpt lat="44.97351" lon="6.50645">
        <ele>1467</ele>
        <time>2020-10-27T09:36:43+01:00</time>
      </trkpt>
      <trkpt lat="44.9733" lon="6.50765">
        <ele>1464</ele>
        <time>2020-10-27T09:36:48+01:00</time>
      </trkpt>
      <trkpt lat="44.97399" lon="6.50827">
        <ele>1469</ele>
        <time>2020-10-27T09:36:53+01:00</time>
      </trkpt>
      <trkpt lat="44.97399" lon="6.50827">
        <ele>1469</ele>
        <time>2020-10-27T09:36:58+01:00</time>
      </trkpt>
    </trkseg>
  </trk>
  <trk>
    <name><![CDATA[E4 - Le Monêtier - Vallouise]]></name>
    <trkseg>
      <trkpt lat="44.97384" lon="6.50865">
        <ele>1466</ele>
        <time>2020-10-27T09:16:19+01:00</time>
      </trkpt>
      <trkpt lat="44.97394" lon="6.50819">
        <ele>1468</ele>
        <time>2020-10-27T09:16:24+01:00</time>
      </trkpt>
      <trkpt lat="44.97329" lon="6.5077">
        <ele>1464</ele>
        <time>2020-10-27T09:16:29+01:00</time>
      </trkpt>
      <trkpt lat="44.9735" lon="6.50644">
        <ele>1467</ele>
        <time>2020-10-27T09:16:34+01:00</time>
      </trkpt>
      <trkpt lat="44.97314" lon="6.5059">
        <ele>1469</ele>
        <time>2020-10-27T09:16:39+01:00</time>
      </trkpt>
      <trkpt lat="44.97262" lon="6.50536">
        <ele>1472</ele>
        <time>2020-10-27T09:16:44+01:00</time>
      </trkpt>
      <trkpt lat="44.97232" lon="6.50446">
        <ele>1475</ele>
        <time>2020-10-27T09:16:49+01:00</time>
      </trkpt>
      <trkpt lat="44.972" lon="6.50356">
        <ele>1478</ele>
        <time>2020-10-27T09:16:54+01:00</time>
      </trkpt>
      <trkpt lat="44.97167" lon="6.50283">
        <ele>1483</ele>
        <time>2020-10-27T09:16:59+01:00</time>
      </trkpt>
      <trkpt lat="44.97158" lon="6.50244">
        <ele>1486</ele>
        <time>2020-10-27T09:17:04+01:00</time>
      </trkpt>
      <trkpt lat="44.97135" lon="6.50212">
        <ele>1488</ele>
        <time>2020-10-27T09:17:09+01:00</time>
      </trkpt>
      <trkpt lat="44.97121" lon="6.50139">
        <ele>1492</ele>
        <time>2020-10-27T09:17:14+01:00</time>
      </trkpt>
      <trkpt lat="44.97095" lon="6.5009">
        <ele>1496</ele>
        <time>2020-10-27T09:17:19+01:00</time>
      </trkpt>
      <trkpt lat="44.97088" lon="6.50049">
        <ele>1498</ele>
        <time>2020-10-27T09:17:24+01:00</time>
      </trkpt>
      <trkpt lat="44.97069" lon="6.50032">
        <ele>1501</ele>
        <time>2020-10-27T09:17:29+01:00</time>
      </trkpt>
      <trkpt lat="44.97057" lon="6.49933">
        <ele>1516</ele>
        <time>2020-10-27T09:17:34+01:00</time>
      </trkpt>
      <trkpt lat="44.97033" lon="6.49976">
        <ele>1518</ele>
        <time>2020-10-27T09:17:39+01:00</time>
      </trkpt>
      <trkpt lat="44.9701" lon="6.50101">
        <ele>1512</ele>
        <time>2020-10-27T09:17:44+01:00</time>
      </trkpt>
      <trkpt lat="44.96969" lon="6.50154">
        <ele>1517</ele>
        <time>2020-10-27T09:17:49+01:00</time>
      </trkpt>
      <trkpt lat="44.9696" lon="6.49935">
        <ele>1559</ele>
        <time>2020-10-27T09:17:54+01:00</time>
      </trkpt>
      <trkpt lat="44.96933" lon="6.49798">
        <ele>1580</ele>
        <time>2020-10-27T09:17:59+01:00</time>
      </trkpt>
      <trkpt lat="44.96878" lon="6.49785">
        <ele>1595</ele>
        <time>2020-10-27T09:18:04+01:00</time>
      </trkpt>
      <trkpt lat="44.96807" lon="6.49893">
        <ele>1607</ele>
        <time>2020-10-27T09:18:09+01:00</time>
      </trkpt>
      <trkpt lat="44.96784" lon="6.4986">
        <ele>1611</ele>
        <time>2020-10-27T09:18:14+01:00</time>
      </trkpt>
      <trkpt lat="44.96754" lon="6.49781">
        <ele>1622</ele>
        <time>2020-10-27T09:18:19+01:00</time>
      </trkpt>
      <trkpt lat="44.96711" lon="6.49757">
        <ele>1639</ele>
        <time>2020-10-27T09:18:24+01:00</time>
      </trkpt>
      <trkpt lat="44.96723" lon="6.49708">
        <ele>1641</ele>
        <time>2020-10-27T09:18:29+01:00</time>
      </trkpt>
      <trkpt lat="44.96793" lon="6.49656">
        <ele>1646</ele>
        <time>2020-10-27T09:18:34+01:00</time>
      </trkpt>
      <trkpt lat="44.96836" lon="6.49637">
        <ele>1643</ele>
        <time>2020-10-27T09:18:39+01:00</time>
      </trkpt>
      <trkpt lat="44.96834" lon="6.49577">
        <ele>1647</ele>
        <time>2020-10-27T09:18:44+01:00</time>
      </trkpt>
      <trkpt lat="44.96848" lon="6.49545">
        <ele>1641</ele>
        <time>2020-10-27T09:18:49+01:00</time>
      </trkpt>
      <trkpt lat="44.96831" lon="6.49487">
        <ele>1641</ele>
        <time>2020-10-27T09:18:54+01:00</time>
      </trkpt>
      <trkpt lat="44.96789" lon="6.49541">
        <ele>1659</ele>
        <time>2020-10-27T09:18:59+01:00</time>
      </trkpt>
      <trkpt lat="44.96693" lon="6.49569">
        <ele>1681</ele>
        <time>2020-10-27T09:19:04+01:00</time>
      </trkpt>
      <trkpt lat="44.96603" lon="6.49654">
        <ele>1699</ele>
        <time>2020-10-27T09:19:09+01:00</time>
      </trkpt>
      <trkpt lat="44.96594" lon="6.4962">
        <ele>1709</ele>
        <time>2020-10-27T09:19:14+01:00</time>
      </trkpt>
      <trkpt lat="44.96559" lon="6.49601">
        <ele>1724</ele>
        <time>2020-10-27T09:19:19+01:00</time>
      </trkpt>
      <trkpt lat="44.96543" lon="6.49573">
        <ele>1728</ele>
        <time>2020-10-27T09:19:24+01:00</time>
      </trkpt>
      <trkpt lat="44.96414" lon="6.49549">
        <ele>1773</ele>
        <time>2020-10-27T09:19:29+01:00</time>
      </trkpt>
      <trkpt lat="44.96347" lon="6.49526">
        <ele>1787</ele>
        <time>2020-10-27T09:19:34+01:00</time>
      </trkpt>
      <trkpt lat="44.96283" lon="6.49478">
        <ele>1794</ele>
        <time>2020-10-27T09:19:39+01:00</time>
      </trkpt>
      <trkpt lat="44.96235" lon="6.4945">
        <ele>1797</ele>
        <time>2020-10-27T09:19:44+01:00</time>
      </trkpt>
      <trkpt lat="44.96178" lon="6.4939">
        <ele>1793</ele>
        <time>2020-10-27T09:19:49+01:00</time>
      </trkpt>
      <trkpt lat="44.96102" lon="6.49378">
        <ele>1806</ele>
        <time>2020-10-27T09:19:54+01:00</time>
      </trkpt>
      <trkpt lat="44.96042" lon="6.49408">
        <ele>1832</ele>
        <time>2020-10-27T09:19:59+01:00</time>
      </trkpt>
      <trkpt lat="44.95897" lon="6.49444">
        <ele>1880</ele>
        <time>2020-10-27T09:20:04+01:00</time>
      </trkpt>
      <trkpt lat="44.95723" lon="6.49581">
        <ele>1957</ele>
        <time>2020-10-27T09:20:09+01:00</time>
      </trkpt>
      <trkpt lat="44.95688" lon="6.49584">
        <ele>1971</ele>
        <time>2020-10-27T09:20:14+01:00</time>
      </trkpt>
      <trkpt lat="44.9565" lon="6.49626">
        <ele>1980</ele>
        <time>2020-10-27T09:20:19+01:00</time>
      </trkpt>
      <trkpt lat="44.95626" lon="6.49611">
        <ele>1982</ele>
        <time>2020-10-27T09:20:24+01:00</time>
      </trkpt>
      <trkpt lat="44.95601" lon="6.49586">
        <ele>1983</ele>
        <time>2020-10-27T09:20:29+01:00</time>
      </trkpt>
      <trkpt lat="44.95557" lon="6.49596">
        <ele>1986</ele>
        <time>2020-10-27T09:20:34+01:00</time>
      </trkpt>
      <trkpt lat="44.9553" lon="6.49562">
        <ele>1991</ele>
        <time>2020-10-27T09:20:39+01:00</time>
      </trkpt>
      <trkpt lat="44.95501" lon="6.49534">
        <ele>2002</ele>
        <time>2020-10-27T09:20:44+01:00</time>
      </trkpt>
      <trkpt lat="44.95468" lon="6.49538">
        <ele>2017</ele>
        <time>2020-10-27T09:20:49+01:00</time>
      </trkpt>
      <trkpt lat="44.95366" lon="6.49601">
        <ele>2040</ele>
        <time>2020-10-27T09:20:54+01:00</time>
      </trkpt>
      <trkpt lat="44.95248" lon="6.49652">
        <ele>2058</ele>
        <time>2020-10-27T09:20:59+01:00</time>
      </trkpt>
      <trkpt lat="44.95135" lon="6.49706">
        <ele>2079</ele>
        <time>2020-10-27T09:21:04+01:00</time>
      </trkpt>
      <trkpt lat="44.95067" lon="6.49764">
        <ele>2090</ele>
        <time>2020-10-27T09:21:09+01:00</time>
      </trkpt>
      <trkpt lat="44.94973" lon="6.49813">
        <ele>2111</ele>
        <time>2020-10-27T09:21:14+01:00</time>
      </trkpt>
      <trkpt lat="44.94912" lon="6.49869">
        <ele>2128</ele>
        <time>2020-10-27T09:21:19+01:00</time>
      </trkpt>
      <trkpt lat="44.94924" lon="6.49895">
        <ele>2133</ele>
        <time>2020-10-27T09:21:24+01:00</time>
      </trkpt>
      <trkpt lat="44.9486" lon="6.50002">
        <ele>2159</ele>
        <time>2020-10-27T09:21:29+01:00</time>
      </trkpt>
      <trkpt lat="44.94926" lon="6.50036">
        <ele>2172</ele>
        <time>2020-10-27T09:21:34+01:00</time>
      </trkpt>
      <trkpt lat="44.94804" lon="6.50077">
        <ele>2181</ele>
        <time>2020-10-27T09:21:39+01:00</time>
      </trkpt>
      <trkpt lat="44.94771" lon="6.50141">
        <ele>2197</ele>
        <time>2020-10-27T09:21:44+01:00</time>
      </trkpt>
      <trkpt lat="44.94696" lon="6.50163">
        <ele>2213</ele>
        <time>2020-10-27T09:21:49+01:00</time>
      </trkpt>
      <trkpt lat="44.94661" lon="6.50154">
        <ele>2220</ele>
        <time>2020-10-27T09:21:54+01:00</time>
      </trkpt>
      <trkpt lat="44.9459" lon="6.50214">
        <ele>2234</ele>
        <time>2020-10-27T09:21:59+01:00</time>
      </trkpt>
      <trkpt lat="44.94484" lon="6.50182">
        <ele>2248</ele>
        <time>2020-10-27T09:22:04+01:00</time>
      </trkpt>
      <trkpt lat="44.94345" lon="6.50137">
        <ele>2273</ele>
        <time>2020-10-27T09:22:09+01:00</time>
      </trkpt>
      <trkpt lat="44.94145" lon="6.50199">
        <ele>2311</ele>
        <time>2020-10-27T09:22:14+01:00</time>
      </trkpt>
      <trkpt lat="44.94137" lon="6.50244">
        <ele>2316</ele>
        <time>2020-10-27T09:22:19+01:00</time>
      </trkpt>
      <trkpt lat="44.94198" lon="6.50337">
        <ele>2322</ele>
        <time>2020-10-27T09:22:24+01:00</time>
      </trkpt>
      <trkpt lat="44.9408" lon="6.5033">
        <ele>2340</ele>
        <time>2020-10-27T09:22:29+01:00</time>
      </trkpt>
      <trkpt lat="44.93993" lon="6.50279">
        <ele>2354</ele>
        <time>2020-10-27T09:22:34+01:00</time>
      </trkpt>
      <trkpt lat="44.93847" lon="6.50313">
        <ele>2382</ele>
        <time>2020-10-27T09:22:39+01:00</time>
      </trkpt>
      <trkpt lat="44.93767" lon="6.50371">
        <ele>2399</ele>
        <time>2020-10-27T09:22:44+01:00</time>
      </trkpt>
      <trkpt lat="44.93691" lon="6.50414">
        <ele>2404</ele>
        <time>2020-10-27T09:22:49+01:00</time>
      </trkpt>
      <trkpt lat="44.93516" lon="6.50382">
        <ele>2421</ele>
        <time>2020-10-27T09:22:54+01:00</time>
      </trkpt>
      <trkpt lat="44.93477" lon="6.50455">
        <ele>2429</ele>
        <time>2020-10-27T09:22:59+01:00</time>
      </trkpt>
      <trkpt lat="44.93366" lon="6.50568">
        <ele>2408</ele>
        <time>2020-10-27T09:23:04+01:00</time>
      </trkpt>
      <trkpt lat="44.93303" lon="6.50633">
        <ele>2398</ele>
        <time>2020-10-27T09:23:09+01:00</time>
      </trkpt>
      <trkpt lat="44.93311" lon="6.50652">
        <ele>2402</ele>
        <time>2020-10-27T09:23:14+01:00</time>
      </trkpt>
      <trkpt lat="44.93231" lon="6.50708">
        <ele>2395</ele>
        <time>2020-10-27T09:23:19+01:00</time>
      </trkpt>
      <trkpt lat="44.93196" lon="6.50732">
        <ele>2392</ele>
        <time>2020-10-27T09:23:24+01:00</time>
      </trkpt>
      <trkpt lat="44.93091" lon="6.50796">
        <ele>2388</ele>
        <time>2020-10-27T09:23:29+01:00</time>
      </trkpt>
      <trkpt lat="44.92975" lon="6.50813">
        <ele>2380</ele>
        <time>2020-10-27T09:23:34+01:00</time>
      </trkpt>
      <trkpt lat="44.92924" lon="6.50835">
        <ele>2382</ele>
        <time>2020-10-27T09:23:39+01:00</time>
      </trkpt>
      <trkpt lat="44.92747" lon="6.50822">
        <ele>2370</ele>
        <time>2020-10-27T09:23:44+01:00</time>
      </trkpt>
      <trkpt lat="44.92641" lon="6.50798">
        <ele>2364</ele>
        <time>2020-10-27T09:23:49+01:00</time>
      </trkpt>
      <trkpt lat="44.926" lon="6.50774">
        <ele>2360</ele>
        <time>2020-10-27T09:23:54+01:00</time>
      </trkpt>
      <trkpt lat="44.9258" lon="6.5086">
        <ele>2351</ele>
        <time>2020-10-27T09:23:59+01:00</time>
      </trkpt>
      <trkpt lat="44.92541" lon="6.50899">
        <ele>2350</ele>
        <time>2020-10-27T09:24:04+01:00</time>
      </trkpt>
      <trkpt lat="44.92486" lon="6.50867">
        <ele>2332</ele>
        <time>2020-10-27T09:24:09+01:00</time>
      </trkpt>
      <trkpt lat="44.92397" lon="6.50903">
        <ele>2316</ele>
        <time>2020-10-27T09:24:14+01:00</time>
      </trkpt>
      <trkpt lat="44.92295" lon="6.50873">
        <ele>2296</ele>
        <time>2020-10-27T09:24:19+01:00</time>
      </trkpt>
      <trkpt lat="44.92397" lon="6.50783">
        <ele>2281</ele>
        <time>2020-10-27T09:24:24+01:00</time>
      </trkpt>
      <trkpt lat="44.92307" lon="6.50762">
        <ele>2256</ele>
        <time>2020-10-27T09:24:29+01:00</time>
      </trkpt>
      <trkpt lat="44.92325" lon="6.50729">
        <ele>2246</ele>
        <time>2020-10-27T09:24:34+01:00</time>
      </trkpt>
      <trkpt lat="44.92299" lon="6.50701">
        <ele>2233</ele>
        <time>2020-10-27T09:24:39+01:00</time>
      </trkpt>
      <trkpt lat="44.92219" lon="6.50663">
        <ele>2222</ele>
        <time>2020-10-27T09:24:44+01:00</time>
      </trkpt>
      <trkpt lat="44.92194" lon="6.50607">
        <ele>2207</ele>
        <time>2020-10-27T09:24:49+01:00</time>
      </trkpt>
      <trkpt lat="44.92311" lon="6.50588">
        <ele>2187</ele>
        <time>2020-10-27T09:24:54+01:00</time>
      </trkpt>
      <trkpt lat="44.92267" lon="6.50523">
        <ele>2177</ele>
        <time>2020-10-27T09:24:59+01:00</time>
      </trkpt>
      <trkpt lat="44.92161" lon="6.50498">
        <ele>2165</ele>
        <time>2020-10-27T09:25:04+01:00</time>
      </trkpt>
      <trkpt lat="44.92216" lon="6.50459">
        <ele>2155</ele>
        <time>2020-10-27T09:25:09+01:00</time>
      </trkpt>
      <trkpt lat="44.9228" lon="6.50416">
        <ele>2141</ele>
        <time>2020-10-27T09:25:14+01:00</time>
      </trkpt>
      <trkpt lat="44.92313" lon="6.50414">
        <ele>2136</ele>
        <time>2020-10-27T09:25:19+01:00</time>
      </trkpt>
      <trkpt lat="44.92267" lon="6.50367">
        <ele>2122</ele>
        <time>2020-10-27T09:25:24+01:00</time>
      </trkpt>
      <trkpt lat="44.92178" lon="6.50345">
        <ele>2111</ele>
        <time>2020-10-27T09:25:29+01:00</time>
      </trkpt>
      <trkpt lat="44.92049" lon="6.50229">
        <ele>2081</ele>
        <time>2020-10-27T09:25:34+01:00</time>
      </trkpt>
      <trkpt lat="44.91968" lon="6.50202">
        <ele>2069</ele>
        <time>2020-10-27T09:25:39+01:00</time>
      </trkpt>
      <trkpt lat="44.9188" lon="6.50212">
        <ele>2054</ele>
        <time>2020-10-27T09:25:44+01:00</time>
      </trkpt>
      <trkpt lat="44.91731" lon="6.50266">
        <ele>2026</ele>
        <time>2020-10-27T09:25:49+01:00</time>
      </trkpt>
      <trkpt lat="44.91809" lon="6.50171">
        <ele>2013</ele>
        <time>2020-10-27T09:25:54+01:00</time>
      </trkpt>
      <trkpt lat="44.91755" lon="6.50182">
        <ele>2002</ele>
        <time>2020-10-27T09:25:59+01:00</time>
      </trkpt>
      <trkpt lat="44.91684" lon="6.50212">
        <ele>1991</ele>
        <time>2020-10-27T09:26:04+01:00</time>
      </trkpt>
      <trkpt lat="44.91792" lon="6.50071">
        <ele>1968</ele>
        <time>2020-10-27T09:26:09+01:00</time>
      </trkpt>
      <trkpt lat="44.91672" lon="6.50064">
        <ele>1924</ele>
        <time>2020-10-27T09:26:14+01:00</time>
      </trkpt>
      <trkpt lat="44.91509" lon="6.50051">
        <ele>1875</ele>
        <time>2020-10-27T09:26:19+01:00</time>
      </trkpt>
      <trkpt lat="44.91416" lon="6.50047">
        <ele>1859</ele>
        <time>2020-10-27T09:26:24+01:00</time>
      </trkpt>
      <trkpt lat="44.91272" lon="6.50045">
        <ele>1832</ele>
        <time>2020-10-27T09:26:29+01:00</time>
      </trkpt>
      <trkpt lat="44.91131" lon="6.49985">
        <ele>1793</ele>
        <time>2020-10-27T09:26:34+01:00</time>
      </trkpt>
      <trkpt lat="44.90971" lon="6.49888">
        <ele>1763</ele>
        <time>2020-10-27T09:26:39+01:00</time>
      </trkpt>
      <trkpt lat="44.9102" lon="6.49785">
        <ele>1757</ele>
        <time>2020-10-27T09:26:44+01:00</time>
      </trkpt>
      <trkpt lat="44.90971" lon="6.49742">
        <ele>1749</ele>
        <time>2020-10-27T09:26:49+01:00</time>
      </trkpt>
      <trkpt lat="44.90874" lon="6.49637">
        <ele>1740</ele>
        <time>2020-10-27T09:26:54+01:00</time>
      </trkpt>
      <trkpt lat="44.90824" lon="6.49614">
        <ele>1740</ele>
        <time>2020-10-27T09:26:59+01:00</time>
      </trkpt>
      <trkpt lat="44.90766" lon="6.4956">
        <ele>1740</ele>
        <time>2020-10-27T09:27:04+01:00</time>
      </trkpt>
      <trkpt lat="44.90632" lon="6.49528">
        <ele>1738</ele>
        <time>2020-10-27T09:27:09+01:00</time>
      </trkpt>
      <trkpt lat="44.9059" lon="6.49551">
        <ele>1738</ele>
        <time>2020-10-27T09:27:14+01:00</time>
      </trkpt>
      <trkpt lat="44.90439" lon="6.49523">
        <ele>1734</ele>
        <time>2020-10-27T09:27:19+01:00</time>
      </trkpt>
      <trkpt lat="44.90379" lon="6.4947">
        <ele>1723</ele>
        <time>2020-10-27T09:27:24+01:00</time>
      </trkpt>
      <trkpt lat="44.90277" lon="6.49405">
        <ele>1720</ele>
        <time>2020-10-27T09:27:29+01:00</time>
      </trkpt>
      <trkpt lat="44.90207" lon="6.49313">
        <ele>1720</ele>
        <time>2020-10-27T09:27:34+01:00</time>
      </trkpt>
      <trkpt lat="44.90123" lon="6.49292">
        <ele>1720</ele>
        <time>2020-10-27T09:27:39+01:00</time>
      </trkpt>
      <trkpt lat="44.89977" lon="6.49247">
        <ele>1720</ele>
        <time>2020-10-27T09:27:44+01:00</time>
      </trkpt>
      <trkpt lat="44.89927" lon="6.49217">
        <ele>1720</ele>
        <time>2020-10-27T09:27:49+01:00</time>
      </trkpt>
      <trkpt lat="44.8971" lon="6.49169">
        <ele>1703</ele>
        <time>2020-10-27T09:27:54+01:00</time>
      </trkpt>
      <trkpt lat="44.89634" lon="6.49161">
        <ele>1706</ele>
        <time>2020-10-27T09:27:59+01:00</time>
      </trkpt>
      <trkpt lat="44.89565" lon="6.49118">
        <ele>1703</ele>
        <time>2020-10-27T09:28:04+01:00</time>
      </trkpt>
      <trkpt lat="44.895" lon="6.49103">
        <ele>1704</ele>
        <time>2020-10-27T09:28:09+01:00</time>
      </trkpt>
      <trkpt lat="44.89459" lon="6.49105">
        <ele>1702</ele>
        <time>2020-10-27T09:28:14+01:00</time>
      </trkpt>
      <trkpt lat="44.89298" lon="6.49079">
        <ele>1700</ele>
        <time>2020-10-27T09:28:19+01:00</time>
      </trkpt>
      <trkpt lat="44.89257" lon="6.49038">
        <ele>1699</ele>
        <time>2020-10-27T09:28:24+01:00</time>
      </trkpt>
      <trkpt lat="44.89202" lon="6.49041">
        <ele>1687</ele>
        <time>2020-10-27T09:28:29+01:00</time>
      </trkpt>
      <trkpt lat="44.89141" lon="6.49073">
        <ele>1675</ele>
        <time>2020-10-27T09:28:34+01:00</time>
      </trkpt>
      <trkpt lat="44.89079" lon="6.4909">
        <ele>1665</ele>
        <time>2020-10-27T09:28:39+01:00</time>
      </trkpt>
      <trkpt lat="44.88883" lon="6.49062">
        <ele>1642</ele>
        <time>2020-10-27T09:28:44+01:00</time>
      </trkpt>
      <trkpt lat="44.88758" lon="6.49015">
        <ele>1622</ele>
        <time>2020-10-27T09:28:49+01:00</time>
      </trkpt>
      <trkpt lat="44.88597" lon="6.48972">
        <ele>1598</ele>
        <time>2020-10-27T09:28:54+01:00</time>
      </trkpt>
      <trkpt lat="44.88468" lon="6.48901">
        <ele>1583</ele>
        <time>2020-10-27T09:28:59+01:00</time>
      </trkpt>
      <trkpt lat="44.88374" lon="6.48858">
        <ele>1570</ele>
        <time>2020-10-27T09:29:04+01:00</time>
      </trkpt>
      <trkpt lat="44.88269" lon="6.48873">
        <ele>1559</ele>
        <time>2020-10-27T09:29:09+01:00</time>
      </trkpt>
      <trkpt lat="44.88161" lon="6.48854">
        <ele>1544</ele>
        <time>2020-10-27T09:29:14+01:00</time>
      </trkpt>
      <trkpt lat="44.8805" lon="6.4888">
        <ele>1540</ele>
        <time>2020-10-27T09:29:19+01:00</time>
      </trkpt>
      <trkpt lat="44.87954" lon="6.48918">
        <ele>1523</ele>
        <time>2020-10-27T09:29:24+01:00</time>
      </trkpt>
      <trkpt lat="44.87875" lon="6.49028">
        <ele>1514</ele>
        <time>2020-10-27T09:29:29+01:00</time>
      </trkpt>
      <trkpt lat="44.87838" lon="6.49101">
        <ele>1512</ele>
        <time>2020-10-27T09:29:34+01:00</time>
      </trkpt>
      <trkpt lat="44.87686" lon="6.49184">
        <ele>1475</ele>
        <time>2020-10-27T09:29:39+01:00</time>
      </trkpt>
      <trkpt lat="44.87641" lon="6.49225">
        <ele>1465</ele>
        <time>2020-10-27T09:29:44+01:00</time>
      </trkpt>
      <trkpt lat="44.87566" lon="6.49386">
        <ele>1462</ele>
        <time>2020-10-27T09:29:49+01:00</time>
      </trkpt>
      <trkpt lat="44.87476" lon="6.49335">
        <ele>1440</ele>
        <time>2020-10-27T09:29:54+01:00</time>
      </trkpt>
      <trkpt lat="44.87432" lon="6.49326">
        <ele>1429</ele>
        <time>2020-10-27T09:29:59+01:00</time>
      </trkpt>
      <trkpt lat="44.87352" lon="6.49418">
        <ele>1428</ele>
        <time>2020-10-27T09:30:04+01:00</time>
      </trkpt>
      <trkpt lat="44.87321" lon="6.49378">
        <ele>1415</ele>
        <time>2020-10-27T09:30:09+01:00</time>
      </trkpt>
      <trkpt lat="44.8725" lon="6.49352">
        <ele>1419</ele>
        <time>2020-10-27T09:30:14+01:00</time>
      </trkpt>
      <trkpt lat="44.87213" lon="6.49307">
        <ele>1412</ele>
        <time>2020-10-27T09:30:19+01:00</time>
      </trkpt>
      <trkpt lat="44.87128" lon="6.49326">
        <ele>1415</ele>
        <time>2020-10-27T09:30:24+01:00</time>
      </trkpt>
      <trkpt lat="44.87064" lon="6.49305">
        <ele>1407</ele>
        <time>2020-10-27T09:30:29+01:00</time>
      </trkpt>
      <trkpt lat="44.86978" lon="6.4932">
        <ele>1406</ele>
        <time>2020-10-27T09:30:34+01:00</time>
      </trkpt>
      <trkpt lat="44.8683" lon="6.49311">
        <ele>1393</ele>
        <time>2020-10-27T09:30:39+01:00</time>
      </trkpt>
      <trkpt lat="44.86722" lon="6.49438">
        <ele>1385</ele>
        <time>2020-10-27T09:30:44+01:00</time>
      </trkpt>
      <trkpt lat="44.86651" lon="6.49513">
        <ele>1383</ele>
        <time>2020-10-27T09:30:49+01:00</time>
      </trkpt>
      <trkpt lat="44.86642" lon="6.49485">
        <ele>1375</ele>
        <time>2020-10-27T09:30:54+01:00</time>
      </trkpt>
      <trkpt lat="44.86672" lon="6.4947">
        <ele>1377</ele>
        <time>2020-10-27T09:30:59+01:00</time>
      </trkpt>
      <trkpt lat="44.86736" lon="6.49365">
        <ele>1374</ele>
        <time>2020-10-27T09:31:04+01:00</time>
      </trkpt>
      <trkpt lat="44.86707" lon="6.4938">
        <ele>1366</ele>
        <time>2020-10-27T09:31:09+01:00</time>
      </trkpt>
      <trkpt lat="44.86616" lon="6.4945">
        <ele>1367</ele>
        <time>2020-10-27T09:31:14+01:00</time>
      </trkpt>
      <trkpt lat="44.86567" lon="6.49408">
        <ele>1357</ele>
        <time>2020-10-27T09:31:19+01:00</time>
      </trkpt>
      <trkpt lat="44.86505" lon="6.49363">
        <ele>1345</ele>
        <time>2020-10-27T09:31:24+01:00</time>
      </trkpt>
      <trkpt lat="44.86448" lon="6.49339">
        <ele>1333</ele>
        <time>2020-10-27T09:31:29+01:00</time>
      </trkpt>
      <trkpt lat="44.86407" lon="6.49322">
        <ele>1322</ele>
        <time>2020-10-27T09:31:34+01:00</time>
      </trkpt>
      <trkpt lat="44.86336" lon="6.49343">
        <ele>1315</ele>
        <time>2020-10-27T09:31:39+01:00</time>
      </trkpt>
      <trkpt lat="44.86199" lon="6.49328">
        <ele>1301</ele>
        <time>2020-10-27T09:31:44+01:00</time>
      </trkpt>
      <trkpt lat="44.86149" lon="6.4936">
        <ele>1299</ele>
        <time>2020-10-27T09:31:49+01:00</time>
      </trkpt>
      <trkpt lat="44.86096" lon="6.4935">
        <ele>1284</ele>
        <time>2020-10-27T09:31:54+01:00</time>
      </trkpt>
      <trkpt lat="44.86055" lon="6.49378">
        <ele>1284</ele>
        <time>2020-10-27T09:31:59+01:00</time>
      </trkpt>
      <trkpt lat="44.86026" lon="6.49337">
        <ele>1277</ele>
        <time>2020-10-27T09:32:04+01:00</time>
      </trkpt>
      <trkpt lat="44.8596" lon="6.49283">
        <ele>1272</ele>
        <time>2020-10-27T09:32:09+01:00</time>
      </trkpt>
      <trkpt lat="44.85931" lon="6.49159">
        <ele>1257</ele>
        <time>2020-10-27T09:32:14+01:00</time>
      </trkpt>
      <trkpt lat="44.8584" lon="6.49191">
        <ele>1252</ele>
        <time>2020-10-27T09:32:19+01:00</time>
      </trkpt>
      <trkpt lat="44.85699" lon="6.49197">
        <ele>1234</ele>
        <time>2020-10-27T09:32:24+01:00</time>
      </trkpt>
      <trkpt lat="44.85618" lon="6.49204">
        <ele>1230</ele>
        <time>2020-10-27T09:32:29+01:00</time>
      </trkpt>
      <trkpt lat="44.85531" lon="6.49255">
        <ele>1226</ele>
        <time>2020-10-27T09:32:34+01:00</time>
      </trkpt>
      <trkpt lat="44.85382" lon="6.4929">
        <ele>1214</ele>
        <time>2020-10-27T09:32:39+01:00</time>
      </trkpt>
      <trkpt lat="44.85244" lon="6.49191">
        <ele>1206</ele>
        <time>2020-10-27T09:32:44+01:00</time>
      </trkpt>
      <trkpt lat="44.85054" lon="6.49109">
        <ele>1193</ele>
        <time>2020-10-27T09:32:49+01:00</time>
      </trkpt>
      <trkpt lat="44.8486" lon="6.49032">
        <ele>1182</ele>
        <time>2020-10-27T09:32:54+01:00</time>
      </trkpt>
      <trkpt lat="44.84707" lon="6.4897">
        <ele>1167</ele>
        <time>2020-10-27T09:32:59+01:00</time>
      </trkpt>
      <trkpt lat="44.84597" lon="6.48948">
        <ele>1160</ele>
        <time>2020-10-27T09:33:04+01:00</time>
      </trkpt>
      <trkpt lat="44.84631" lon="6.48796">
        <ele>1165</ele>
        <time>2020-10-27T09:33:09+01:00</time>
      </trkpt>
      <trkpt lat="44.84584" lon="6.48807">
        <ele>1162</ele>
        <time>2020-10-27T09:33:14+01:00</time>
      </trkpt>
      <trkpt lat="44.8453" lon="6.48732">
        <ele>1165</ele>
        <time>2020-10-27T09:33:19+01:00</time>
      </trkpt>
      <trkpt lat="44.8448" lon="6.48639">
        <ele>1163</ele>
        <time>2020-10-27T09:33:24+01:00</time>
      </trkpt>
      <trkpt lat="44.84445" lon="6.48637">
        <ele>1160</ele>
        <time>2020-10-27T09:33:29+01:00</time>
      </trkpt>
      <trkpt lat="44.84421" lon="6.48577">
        <ele>1160</ele>
        <time>2020-10-27T09:33:34+01:00</time>
      </trkpt>
      <trkpt lat="44.84351" lon="6.48496">
        <ele>1162</ele>
        <time>2020-10-27T09:33:39+01:00</time>
      </trkpt>
      <trkpt lat="44.84375" lon="6.48468">
        <ele>1164</ele>
        <time>2020-10-27T09:33:44+01:00</time>
      </trkpt>
      <trkpt lat="44.84375" lon="6.48468">
        <ele>1164</ele>
        <time>2020-10-27T09:33:49+01:00</time>
      </trkpt>
      <trkpt lat="44.84375" lon="6.4847">
        <ele>1164</ele>
        <time>2020-10-27T09:33:54+01:00</time>
      </trkpt>
    </trkseg>
  </trk>
  <trk>
    <name><![CDATA[E7 La Chapelle - Refuge des Souffles]]></name>
    <trkseg>
      <trkpt lat="44.8175" lon="6.19318">
        <ele>1090</ele>
        <time>2020-10-27T09:17:34+01:00</time>
      </trkpt>
      <trkpt lat="44.81759" lon="6.19176">
        <ele>1087</ele>
        <time>2020-10-27T09:17:39+01:00</time>
      </trkpt>
      <trkpt lat="44.81787" lon="6.19009">
        <ele>1080</ele>
        <time>2020-10-27T09:17:44+01:00</time>
      </trkpt>
      <trkpt lat="44.81817" lon="6.18966">
        <ele>1078</ele>
        <time>2020-10-27T09:17:49+01:00</time>
      </trkpt>
      <trkpt lat="44.8189" lon="6.18919">
        <ele>1077</ele>
        <time>2020-10-27T09:17:54+01:00</time>
      </trkpt>
      <trkpt lat="44.81936" lon="6.18777">
        <ele>1075</ele>
        <time>2020-10-27T09:17:59+01:00</time>
      </trkpt>
      <trkpt lat="44.81969" lon="6.18747">
        <ele>1078</ele>
        <time>2020-10-27T09:18:04+01:00</time>
      </trkpt>
      <trkpt lat="44.8196" lon="6.18627">
        <ele>1075</ele>
        <time>2020-10-27T09:18:09+01:00</time>
      </trkpt>
      <trkpt lat="44.8195" lon="6.1847">
        <ele>1071</ele>
        <time>2020-10-27T09:18:14+01:00</time>
      </trkpt>
      <trkpt lat="44.81985" lon="6.18314">
        <ele>1070</ele>
        <time>2020-10-27T09:18:19+01:00</time>
      </trkpt>
      <trkpt lat="44.82009" lon="6.18206">
        <ele>1070</ele>
        <time>2020-10-27T09:18:24+01:00</time>
      </trkpt>
      <trkpt lat="44.82004" lon="6.18054">
        <ele>1070</ele>
        <time>2020-10-27T09:18:29+01:00</time>
      </trkpt>
      <trkpt lat="44.82015" lon="6.18039">
        <ele>1070</ele>
        <time>2020-10-27T09:18:34+01:00</time>
      </trkpt>
      <trkpt lat="44.82047" lon="6.17934">
        <ele>1070</ele>
        <time>2020-10-27T09:18:39+01:00</time>
      </trkpt>
      <trkpt lat="44.82047" lon="6.17863">
        <ele>1071</ele>
        <time>2020-10-27T09:18:44+01:00</time>
      </trkpt>
      <trkpt lat="44.82032" lon="6.17769">
        <ele>1070</ele>
        <time>2020-10-27T09:18:49+01:00</time>
      </trkpt>
      <trkpt lat="44.82106" lon="6.1743">
        <ele>1061</ele>
        <time>2020-10-27T09:18:54+01:00</time>
      </trkpt>
      <trkpt lat="44.82099" lon="6.17391">
        <ele>1059</ele>
        <time>2020-10-27T09:18:59+01:00</time>
      </trkpt>
      <trkpt lat="44.82128" lon="6.17337">
        <ele>1062</ele>
        <time>2020-10-27T09:19:04+01:00</time>
      </trkpt>
      <trkpt lat="44.82088" lon="6.17299">
        <ele>1056</ele>
        <time>2020-10-27T09:19:09+01:00</time>
      </trkpt>
      <trkpt lat="44.821" lon="6.17219">
        <ele>1056</ele>
        <time>2020-10-27T09:19:14+01:00</time>
      </trkpt>
      <trkpt lat="44.82128" lon="6.17071">
        <ele>1053</ele>
        <time>2020-10-27T09:19:19+01:00</time>
      </trkpt>
      <trkpt lat="44.82213" lon="6.16919">
        <ele>1050</ele>
        <time>2020-10-27T09:19:24+01:00</time>
      </trkpt>
      <trkpt lat="44.82237" lon="6.1673">
        <ele>1050</ele>
        <time>2020-10-27T09:19:29+01:00</time>
      </trkpt>
      <trkpt lat="44.82181" lon="6.16434">
        <ele>1050</ele>
        <time>2020-10-27T09:19:34+01:00</time>
      </trkpt>
      <trkpt lat="44.82099" lon="6.16245">
        <ele>1049</ele>
        <time>2020-10-27T09:19:39+01:00</time>
      </trkpt>
      <trkpt lat="44.82087" lon="6.16222">
        <ele>1049</ele>
        <time>2020-10-27T09:19:44+01:00</time>
      </trkpt>
      <trkpt lat="44.82117" lon="6.16149">
        <ele>1049</ele>
        <time>2020-10-27T09:19:49+01:00</time>
      </trkpt>
      <trkpt lat="44.82144" lon="6.16016">
        <ele>1041</ele>
        <time>2020-10-27T09:19:54+01:00</time>
      </trkpt>
      <trkpt lat="44.82169" lon="6.15668">
        <ele>1038</ele>
        <time>2020-10-27T09:19:59+01:00</time>
      </trkpt>
      <trkpt lat="44.82301" lon="6.15524">
        <ele>1035</ele>
        <time>2020-10-27T09:20:04+01:00</time>
      </trkpt>
      <trkpt lat="44.82329" lon="6.15387">
        <ele>1032</ele>
        <time>2020-10-27T09:20:09+01:00</time>
      </trkpt>
      <trkpt lat="44.82309" lon="6.15278">
        <ele>1030</ele>
        <time>2020-10-27T09:20:14+01:00</time>
      </trkpt>
      <trkpt lat="44.82351" lon="6.15198">
        <ele>1030</ele>
        <time>2020-10-27T09:20:19+01:00</time>
      </trkpt>
      <trkpt lat="44.82354" lon="6.15033">
        <ele>1030</ele>
        <time>2020-10-27T09:20:24+01:00</time>
      </trkpt>
      <trkpt lat="44.8242" lon="6.15014">
        <ele>1030</ele>
        <time>2020-10-27T09:20:29+01:00</time>
      </trkpt>
      <trkpt lat="44.82415" lon="6.14921">
        <ele>1030</ele>
        <time>2020-10-27T09:20:34+01:00</time>
      </trkpt>
      <trkpt lat="44.82488" lon="6.14874">
        <ele>1061</ele>
        <time>2020-10-27T09:20:39+01:00</time>
      </trkpt>
      <trkpt lat="44.82482" lon="6.1472">
        <ele>1046</ele>
        <time>2020-10-27T09:20:44+01:00</time>
      </trkpt>
      <trkpt lat="44.82478" lon="6.14623">
        <ele>1035</ele>
        <time>2020-10-27T09:20:49+01:00</time>
      </trkpt>
      <trkpt lat="44.82526" lon="6.14492">
        <ele>1034</ele>
        <time>2020-10-27T09:20:54+01:00</time>
      </trkpt>
      <trkpt lat="44.82578" lon="6.14456">
        <ele>1037</ele>
        <time>2020-10-27T09:20:59+01:00</time>
      </trkpt>
      <trkpt lat="44.82618" lon="6.14499">
        <ele>1046</ele>
        <time>2020-10-27T09:21:04+01:00</time>
      </trkpt>
      <trkpt lat="44.8263" lon="6.14458">
        <ele>1044</ele>
        <time>2020-10-27T09:21:09+01:00</time>
      </trkpt>
      <trkpt lat="44.82666" lon="6.14464">
        <ele>1051</ele>
        <time>2020-10-27T09:21:14+01:00</time>
      </trkpt>
      <trkpt lat="44.82638" lon="6.14531">
        <ele>1056</ele>
        <time>2020-10-27T09:21:19+01:00</time>
      </trkpt>
      <trkpt lat="44.82671" lon="6.14595">
        <ele>1078</ele>
        <time>2020-10-27T09:21:24+01:00</time>
      </trkpt>
      <trkpt lat="44.82697" lon="6.14629">
        <ele>1080</ele>
        <time>2020-10-27T09:21:29+01:00</time>
      </trkpt>
      <trkpt lat="44.82732" lon="6.14597">
        <ele>1092</ele>
        <time>2020-10-27T09:21:34+01:00</time>
      </trkpt>
      <trkpt lat="44.8273" lon="6.14702">
        <ele>1108</ele>
        <time>2020-10-27T09:21:39+01:00</time>
      </trkpt>
      <trkpt lat="44.82773" lon="6.14645">
        <ele>1129</ele>
        <time>2020-10-27T09:21:44+01:00</time>
      </trkpt>
      <trkpt lat="44.82854" lon="6.14507">
        <ele>1153</ele>
        <time>2020-10-27T09:21:49+01:00</time>
      </trkpt>
      <trkpt lat="44.82915" lon="6.14421">
        <ele>1170</ele>
        <time>2020-10-27T09:21:54+01:00</time>
      </trkpt>
      <trkpt lat="44.82934" lon="6.14357">
        <ele>1176</ele>
        <time>2020-10-27T09:21:59+01:00</time>
      </trkpt>
      <trkpt lat="44.82957" lon="6.14359">
        <ele>1184</ele>
        <time>2020-10-27T09:22:04+01:00</time>
      </trkpt>
      <trkpt lat="44.82992" lon="6.14351">
        <ele>1192</ele>
        <time>2020-10-27T09:22:09+01:00</time>
      </trkpt>
      <trkpt lat="44.83038" lon="6.14342">
        <ele>1193</ele>
        <time>2020-10-27T09:22:14+01:00</time>
      </trkpt>
      <trkpt lat="44.8316" lon="6.14271">
        <ele>1225</ele>
        <time>2020-10-27T09:22:19+01:00</time>
      </trkpt>
      <trkpt lat="44.83185" lon="6.14241">
        <ele>1225</ele>
        <time>2020-10-27T09:22:24+01:00</time>
      </trkpt>
      <trkpt lat="44.83258" lon="6.14346">
        <ele>1315</ele>
        <time>2020-10-27T09:22:29+01:00</time>
      </trkpt>
      <trkpt lat="44.83307" lon="6.14299">
        <ele>1317</ele>
        <time>2020-10-27T09:22:34+01:00</time>
      </trkpt>
      <trkpt lat="44.83318" lon="6.14269">
        <ele>1308</ele>
        <time>2020-10-27T09:22:39+01:00</time>
      </trkpt>
      <trkpt lat="44.83351" lon="6.14241">
        <ele>1331</ele>
        <time>2020-10-27T09:22:44+01:00</time>
      </trkpt>
      <trkpt lat="44.83348" lon="6.14211">
        <ele>1325</ele>
        <time>2020-10-27T09:22:49+01:00</time>
      </trkpt>
      <trkpt lat="44.83371" lon="6.14198">
        <ele>1335</ele>
        <time>2020-10-27T09:22:54+01:00</time>
      </trkpt>
      <trkpt lat="44.83405" lon="6.14134">
        <ele>1316</ele>
        <time>2020-10-27T09:22:59+01:00</time>
      </trkpt>
      <trkpt lat="44.83471" lon="6.14091">
        <ele>1328</ele>
        <time>2020-10-27T09:23:04+01:00</time>
      </trkpt>
      <trkpt lat="44.83485" lon="6.14054">
        <ele>1327</ele>
        <time>2020-10-27T09:23:09+01:00</time>
      </trkpt>
      <trkpt lat="44.83535" lon="6.13994">
        <ele>1347</ele>
        <time>2020-10-27T09:23:14+01:00</time>
      </trkpt>
      <trkpt lat="44.83513" lon="6.14074">
        <ele>1354</ele>
        <time>2020-10-27T09:23:19+01:00</time>
      </trkpt>
      <trkpt lat="44.83598" lon="6.13986">
        <ele>1375</ele>
        <time>2020-10-27T09:23:24+01:00</time>
      </trkpt>
      <trkpt lat="44.83537" lon="6.14151">
        <ele>1400</ele>
        <time>2020-10-27T09:23:29+01:00</time>
      </trkpt>
      <trkpt lat="44.83461" lon="6.14269">
        <ele>1414</ele>
        <time>2020-10-27T09:23:34+01:00</time>
      </trkpt>
      <trkpt lat="44.83537" lon="6.14228">
        <ele>1434</ele>
        <time>2020-10-27T09:23:39+01:00</time>
      </trkpt>
      <trkpt lat="44.83519" lon="6.14284">
        <ele>1451</ele>
        <time>2020-10-27T09:23:44+01:00</time>
      </trkpt>
      <trkpt lat="44.83554" lon="6.14256">
        <ele>1454</ele>
        <time>2020-10-27T09:23:49+01:00</time>
      </trkpt>
      <trkpt lat="44.83543" lon="6.14303">
        <ele>1475</ele>
        <time>2020-10-27T09:23:54+01:00</time>
      </trkpt>
      <trkpt lat="44.83587" lon="6.1426">
        <ele>1474</ele>
        <time>2020-10-27T09:23:59+01:00</time>
      </trkpt>
      <trkpt lat="44.83698" lon="6.14202">
        <ele>1504</ele>
        <time>2020-10-27T09:24:04+01:00</time>
      </trkpt>
      <trkpt lat="44.83659" lon="6.14275">
        <ele>1526</ele>
        <time>2020-10-27T09:24:09+01:00</time>
      </trkpt>
      <trkpt lat="44.83729" lon="6.14228">
        <ele>1534</ele>
        <time>2020-10-27T09:24:14+01:00</time>
      </trkpt>
      <trkpt lat="44.83789" lon="6.14175">
        <ele>1546</ele>
        <time>2020-10-27T09:24:19+01:00</time>
      </trkpt>
      <trkpt lat="44.83751" lon="6.14271">
        <ele>1570</ele>
        <time>2020-10-27T09:24:24+01:00</time>
      </trkpt>
      <trkpt lat="44.83837" lon="6.1422">
        <ele>1585</ele>
        <time>2020-10-27T09:24:29+01:00</time>
      </trkpt>
      <trkpt lat="44.83977" lon="6.14155">
        <ele>1612</ele>
        <time>2020-10-27T09:24:34+01:00</time>
      </trkpt>
      <trkpt lat="44.83926" lon="6.14233">
        <ele>1625</ele>
        <time>2020-10-27T09:24:39+01:00</time>
      </trkpt>
      <trkpt lat="44.83894" lon="6.14265">
        <ele>1631</ele>
        <time>2020-10-27T09:24:44+01:00</time>
      </trkpt>
      <trkpt lat="44.83969" lon="6.1426">
        <ele>1657</ele>
        <time>2020-10-27T09:24:49+01:00</time>
      </trkpt>
      <trkpt lat="44.83955" lon="6.14295">
        <ele>1670</ele>
        <time>2020-10-27T09:24:54+01:00</time>
      </trkpt>
      <trkpt lat="44.83977" lon="6.14305">
        <ele>1684</ele>
        <time>2020-10-27T09:24:59+01:00</time>
      </trkpt>
      <trkpt lat="44.84042" lon="6.14275">
        <ele>1691</ele>
        <time>2020-10-27T09:25:04+01:00</time>
      </trkpt>
      <trkpt lat="44.83995" lon="6.14366">
        <ele>1724</ele>
        <time>2020-10-27T09:25:09+01:00</time>
      </trkpt>
      <trkpt lat="44.84097" lon="6.14329">
        <ele>1735</ele>
        <time>2020-10-27T09:25:14+01:00</time>
      </trkpt>
      <trkpt lat="44.84156" lon="6.14381">
        <ele>1765</ele>
        <time>2020-10-27T09:25:19+01:00</time>
      </trkpt>
      <trkpt lat="44.84209" lon="6.14284">
        <ele>1763</ele>
        <time>2020-10-27T09:25:24+01:00</time>
      </trkpt>
      <trkpt lat="44.84304" lon="6.14284">
        <ele>1786</ele>
        <time>2020-10-27T09:25:29+01:00</time>
      </trkpt>
      <trkpt lat="44.84226" lon="6.1437">
        <ele>1809</ele>
        <time>2020-10-27T09:25:34+01:00</time>
      </trkpt>
      <trkpt lat="44.84296" lon="6.14361">
        <ele>1829</ele>
        <time>2020-10-27T09:25:39+01:00</time>
      </trkpt>
      <trkpt lat="44.84217" lon="6.14473">
        <ele>1848</ele>
        <time>2020-10-27T09:25:44+01:00</time>
      </trkpt>
      <trkpt lat="44.84285" lon="6.14473">
        <ele>1870</ele>
        <time>2020-10-27T09:25:49+01:00</time>
      </trkpt>
      <trkpt lat="44.84331" lon="6.14432">
        <ele>1877</ele>
        <time>2020-10-27T09:25:54+01:00</time>
      </trkpt>
      <trkpt lat="44.8441" lon="6.14426">
        <ele>1891</ele>
        <time>2020-10-27T09:25:59+01:00</time>
      </trkpt>
      <trkpt lat="44.84497" lon="6.14514">
        <ele>1922</ele>
        <time>2020-10-27T09:26:04+01:00</time>
      </trkpt>
      <trkpt lat="44.84459" lon="6.14593">
        <ele>1947</ele>
        <time>2020-10-27T09:26:09+01:00</time>
      </trkpt>
      <trkpt lat="44.84488" lon="6.14627">
        <ele>1958</ele>
        <time>2020-10-27T09:26:14+01:00</time>
      </trkpt>
    </trkseg>
  </trk>
  <trk>
    <name><![CDATA[E8 Refuge des Souffles - Le Désert en Valjouffrey]]></name>
    <trkseg>
      <trkpt lat="44.84475" lon="6.14621">
        <ele>1956</ele>
        <time>2020-10-27T09:18:03+01:00</time>
      </trkpt>
      <trkpt lat="44.8451" lon="6.14597">
        <ele>1950</ele>
        <time>2020-10-27T09:18:08+01:00</time>
      </trkpt>
      <trkpt lat="44.84559" lon="6.14578">
        <ele>1944</ele>
        <time>2020-10-27T09:18:13+01:00</time>
      </trkpt>
      <trkpt lat="44.84612" lon="6.14533">
        <ele>1943</ele>
        <time>2020-10-27T09:18:18+01:00</time>
      </trkpt>
      <trkpt lat="44.84615" lon="6.14464">
        <ele>1936</ele>
        <time>2020-10-27T09:18:23+01:00</time>
      </trkpt>
      <trkpt lat="44.84655" lon="6.14428">
        <ele>1943</ele>
        <time>2020-10-27T09:18:28+01:00</time>
      </trkpt>
      <trkpt lat="44.84719" lon="6.14421">
        <ele>1956</ele>
        <time>2020-10-27T09:18:33+01:00</time>
      </trkpt>
      <trkpt lat="44.84778" lon="6.14267">
        <ele>1963</ele>
        <time>2020-10-27T09:18:38+01:00</time>
      </trkpt>
      <trkpt lat="44.84837" lon="6.1416">
        <ele>1968</ele>
        <time>2020-10-27T09:18:43+01:00</time>
      </trkpt>
      <trkpt lat="44.84855" lon="6.14063">
        <ele>1972</ele>
        <time>2020-10-27T09:18:48+01:00</time>
      </trkpt>
      <trkpt lat="44.84965" lon="6.13924">
        <ele>2006</ele>
        <time>2020-10-27T09:18:53+01:00</time>
      </trkpt>
      <trkpt lat="44.84953" lon="6.14046">
        <ele>2039</ele>
        <time>2020-10-27T09:18:58+01:00</time>
      </trkpt>
      <trkpt lat="44.85027" lon="6.13962">
        <ele>2056</ele>
        <time>2020-10-27T09:19:03+01:00</time>
      </trkpt>
      <trkpt lat="44.85093" lon="6.13829">
        <ele>2082</ele>
        <time>2020-10-27T09:19:08+01:00</time>
      </trkpt>
      <trkpt lat="44.8507" lon="6.13806">
        <ele>2073</ele>
        <time>2020-10-27T09:19:13+01:00</time>
      </trkpt>
      <trkpt lat="44.85067" lon="6.1373">
        <ele>2065</ele>
        <time>2020-10-27T09:19:18+01:00</time>
      </trkpt>
      <trkpt lat="44.85041" lon="6.13733">
        <ele>2049</ele>
        <time>2020-10-27T09:19:23+01:00</time>
      </trkpt>
      <trkpt lat="44.85073" lon="6.13683">
        <ele>2054</ele>
        <time>2020-10-27T09:19:28+01:00</time>
      </trkpt>
      <trkpt lat="44.85094" lon="6.13604">
        <ele>2047</ele>
        <time>2020-10-27T09:19:33+01:00</time>
      </trkpt>
      <trkpt lat="44.85041" lon="6.13576">
        <ele>2028</ele>
        <time>2020-10-27T09:19:38+01:00</time>
      </trkpt>
      <trkpt lat="44.85038" lon="6.13509">
        <ele>2052</ele>
        <time>2020-10-27T09:19:43+01:00</time>
      </trkpt>
      <trkpt lat="44.8496" lon="6.13473">
        <ele>2042</ele>
        <time>2020-10-27T09:19:48+01:00</time>
      </trkpt>
      <trkpt lat="44.84966" lon="6.13436">
        <ele>2048</ele>
        <time>2020-10-27T09:19:53+01:00</time>
      </trkpt>
      <trkpt lat="44.84939" lon="6.13419">
        <ele>2041</ele>
        <time>2020-10-27T09:19:58+01:00</time>
      </trkpt>
      <trkpt lat="44.84904" lon="6.13346">
        <ele>2042</ele>
        <time>2020-10-27T09:20:03+01:00</time>
      </trkpt>
      <trkpt lat="44.84903" lon="6.13303">
        <ele>2046</ele>
        <time>2020-10-27T09:20:08+01:00</time>
      </trkpt>
      <trkpt lat="44.84868" lon="6.13258">
        <ele>2039</ele>
        <time>2020-10-27T09:20:13+01:00</time>
      </trkpt>
      <trkpt lat="44.84819" lon="6.13211">
        <ele>2022</ele>
        <time>2020-10-27T09:20:18+01:00</time>
      </trkpt>
      <trkpt lat="44.84805" lon="6.13121">
        <ele>2022</ele>
        <time>2020-10-27T09:20:23+01:00</time>
      </trkpt>
      <trkpt lat="44.84784" lon="6.13022">
        <ele>2024</ele>
        <time>2020-10-27T09:20:28+01:00</time>
      </trkpt>
      <trkpt lat="44.84757" lon="6.12909">
        <ele>2033</ele>
        <time>2020-10-27T09:20:33+01:00</time>
      </trkpt>
      <trkpt lat="44.84761" lon="6.12853">
        <ele>2042</ele>
        <time>2020-10-27T09:20:38+01:00</time>
      </trkpt>
      <trkpt lat="44.84714" lon="6.12709">
        <ele>2048</ele>
        <time>2020-10-27T09:20:43+01:00</time>
      </trkpt>
      <trkpt lat="44.84712" lon="6.12606">
        <ele>2059</ele>
        <time>2020-10-27T09:20:48+01:00</time>
      </trkpt>
      <trkpt lat="44.84696" lon="6.12527">
        <ele>2067</ele>
        <time>2020-10-27T09:20:53+01:00</time>
      </trkpt>
      <trkpt lat="44.84644" lon="6.12484">
        <ele>2068</ele>
        <time>2020-10-27T09:20:58+01:00</time>
      </trkpt>
      <trkpt lat="44.84603" lon="6.12391">
        <ele>2075</ele>
        <time>2020-10-27T09:21:03+01:00</time>
      </trkpt>
      <trkpt lat="44.846" lon="6.12331">
        <ele>2081</ele>
        <time>2020-10-27T09:21:08+01:00</time>
      </trkpt>
      <trkpt lat="44.84572" lon="6.12308">
        <ele>2081</ele>
        <time>2020-10-27T09:21:13+01:00</time>
      </trkpt>
      <trkpt lat="44.84534" lon="6.12327">
        <ele>2085</ele>
        <time>2020-10-27T09:21:18+01:00</time>
      </trkpt>
      <trkpt lat="44.84452" lon="6.12396">
        <ele>2096</ele>
        <time>2020-10-27T09:21:23+01:00</time>
      </trkpt>
      <trkpt lat="44.84416" lon="6.12441">
        <ele>2100</ele>
        <time>2020-10-27T09:21:28+01:00</time>
      </trkpt>
      <trkpt lat="44.84346" lon="6.12323">
        <ele>2201</ele>
        <time>2020-10-27T09:21:33+01:00</time>
      </trkpt>
      <trkpt lat="44.84346" lon="6.12263">
        <ele>2212</ele>
        <time>2020-10-27T09:21:38+01:00</time>
      </trkpt>
      <trkpt lat="44.84372" lon="6.12192">
        <ele>2216</ele>
        <time>2020-10-27T09:21:43+01:00</time>
      </trkpt>
      <trkpt lat="44.84393" lon="6.12166">
        <ele>2219</ele>
        <time>2020-10-27T09:21:48+01:00</time>
      </trkpt>
      <trkpt lat="44.84423" lon="6.12173">
        <ele>2228</ele>
        <time>2020-10-27T09:21:53+01:00</time>
      </trkpt>
      <trkpt lat="44.84402" lon="6.12121">
        <ele>2237</ele>
        <time>2020-10-27T09:21:58+01:00</time>
      </trkpt>
      <trkpt lat="44.84347" lon="6.12158">
        <ele>2239</ele>
        <time>2020-10-27T09:22:03+01:00</time>
      </trkpt>
      <trkpt lat="44.84366" lon="6.12104">
        <ele>2248</ele>
        <time>2020-10-27T09:22:08+01:00</time>
      </trkpt>
      <trkpt lat="44.84407" lon="6.12048">
        <ele>2259</ele>
        <time>2020-10-27T09:22:13+01:00</time>
      </trkpt>
      <trkpt lat="44.84452" lon="6.12033">
        <ele>2264</ele>
        <time>2020-10-27T09:22:18+01:00</time>
      </trkpt>
      <trkpt lat="44.84544" lon="6.11969">
        <ele>2274</ele>
        <time>2020-10-27T09:22:23+01:00</time>
      </trkpt>
      <trkpt lat="44.84586" lon="6.11999">
        <ele>2275</ele>
        <time>2020-10-27T09:22:28+01:00</time>
      </trkpt>
      <trkpt lat="44.84592" lon="6.11956">
        <ele>2297</ele>
        <time>2020-10-27T09:22:33+01:00</time>
      </trkpt>
      <trkpt lat="44.84624" lon="6.11964">
        <ele>2290</ele>
        <time>2020-10-27T09:22:38+01:00</time>
      </trkpt>
      <trkpt lat="44.84703" lon="6.1193">
        <ele>2304</ele>
        <time>2020-10-27T09:22:43+01:00</time>
      </trkpt>
      <trkpt lat="44.84655" lon="6.11896">
        <ele>2320</ele>
        <time>2020-10-27T09:22:48+01:00</time>
      </trkpt>
      <trkpt lat="44.84614" lon="6.11904">
        <ele>2322</ele>
        <time>2020-10-27T09:22:53+01:00</time>
      </trkpt>
      <trkpt lat="44.84545" lon="6.1184">
        <ele>2335</ele>
        <time>2020-10-27T09:22:58+01:00</time>
      </trkpt>
      <trkpt lat="44.84464" lon="6.11825">
        <ele>2350</ele>
        <time>2020-10-27T09:23:03+01:00</time>
      </trkpt>
      <trkpt lat="44.84501" lon="6.1178">
        <ele>2361</ele>
        <time>2020-10-27T09:23:08+01:00</time>
      </trkpt>
      <trkpt lat="44.84569" lon="6.11767">
        <ele>2374</ele>
        <time>2020-10-27T09:23:13+01:00</time>
      </trkpt>
      <trkpt lat="44.84615" lon="6.11773">
        <ele>2377</ele>
        <time>2020-10-27T09:23:18+01:00</time>
      </trkpt>
      <trkpt lat="44.84565" lon="6.1172">
        <ele>2395</ele>
        <time>2020-10-27T09:23:23+01:00</time>
      </trkpt>
      <trkpt lat="44.84518" lon="6.11705">
        <ele>2402</ele>
        <time>2020-10-27T09:23:28+01:00</time>
      </trkpt>
      <trkpt lat="44.84545" lon="6.11683">
        <ele>2411</ele>
        <time>2020-10-27T09:23:33+01:00</time>
      </trkpt>
      <trkpt lat="44.84553" lon="6.11636">
        <ele>2423</ele>
        <time>2020-10-27T09:23:38+01:00</time>
      </trkpt>
      <trkpt lat="44.84614" lon="6.11585">
        <ele>2431</ele>
        <time>2020-10-27T09:23:43+01:00</time>
      </trkpt>
      <trkpt lat="44.84645" lon="6.11587">
        <ele>2435</ele>
        <time>2020-10-27T09:23:48+01:00</time>
      </trkpt>
      <trkpt lat="44.84719" lon="6.11643">
        <ele>2445</ele>
        <time>2020-10-27T09:23:53+01:00</time>
      </trkpt>
      <trkpt lat="44.84747" lon="6.1164">
        <ele>2458</ele>
        <time>2020-10-27T09:23:58+01:00</time>
      </trkpt>
      <trkpt lat="44.84714" lon="6.11574">
        <ele>2472</ele>
        <time>2020-10-27T09:24:03+01:00</time>
      </trkpt>
      <trkpt lat="44.84658" lon="6.1149">
        <ele>2493</ele>
        <time>2020-10-27T09:24:08+01:00</time>
      </trkpt>
      <trkpt lat="44.84693" lon="6.11475">
        <ele>2493</ele>
        <time>2020-10-27T09:24:13+01:00</time>
      </trkpt>
      <trkpt lat="44.8469" lon="6.11404">
        <ele>2471</ele>
        <time>2020-10-27T09:24:18+01:00</time>
      </trkpt>
      <trkpt lat="44.84706" lon="6.11342">
        <ele>2448</ele>
        <time>2020-10-27T09:24:23+01:00</time>
      </trkpt>
      <trkpt lat="44.84766" lon="6.11364">
        <ele>2412</ele>
        <time>2020-10-27T09:24:28+01:00</time>
      </trkpt>
      <trkpt lat="44.84787" lon="6.1131">
        <ele>2392</ele>
        <time>2020-10-27T09:24:33+01:00</time>
      </trkpt>
      <trkpt lat="44.84897" lon="6.11274">
        <ele>2326</ele>
        <time>2020-10-27T09:24:38+01:00</time>
      </trkpt>
      <trkpt lat="44.84956" lon="6.11218">
        <ele>2288</ele>
        <time>2020-10-27T09:24:43+01:00</time>
      </trkpt>
      <trkpt lat="44.85053" lon="6.11136">
        <ele>2234</ele>
        <time>2020-10-27T09:24:48+01:00</time>
      </trkpt>
      <trkpt lat="44.85055" lon="6.11095">
        <ele>2218</ele>
        <time>2020-10-27T09:24:53+01:00</time>
      </trkpt>
      <trkpt lat="44.85131" lon="6.11063">
        <ele>2190</ele>
        <time>2020-10-27T09:24:58+01:00</time>
      </trkpt>
      <trkpt lat="44.85189" lon="6.10939">
        <ele>2150</ele>
        <time>2020-10-27T09:25:03+01:00</time>
      </trkpt>
      <trkpt lat="44.85256" lon="6.10934">
        <ele>2142</ele>
        <time>2020-10-27T09:25:08+01:00</time>
      </trkpt>
      <trkpt lat="44.85319" lon="6.109">
        <ele>2125</ele>
        <time>2020-10-27T09:25:13+01:00</time>
      </trkpt>
      <trkpt lat="44.85354" lon="6.10913">
        <ele>2122</ele>
        <time>2020-10-27T09:25:18+01:00</time>
      </trkpt>
      <trkpt lat="44.85423" lon="6.10864">
        <ele>2091</ele>
        <time>2020-10-27T09:25:23+01:00</time>
      </trkpt>
      <trkpt lat="44.85505" lon="6.1081">
        <ele>2058</ele>
        <time>2020-10-27T09:25:28+01:00</time>
      </trkpt>
      <trkpt lat="44.85564" lon="6.10778">
        <ele>2044</ele>
        <time>2020-10-27T09:25:33+01:00</time>
      </trkpt>
      <trkpt lat="44.85686" lon="6.10746">
        <ele>2002</ele>
        <time>2020-10-27T09:25:38+01:00</time>
      </trkpt>
      <trkpt lat="44.85783" lon="6.10756">
        <ele>1975</ele>
        <time>2020-10-27T09:25:43+01:00</time>
      </trkpt>
      <trkpt lat="44.85867" lon="6.10746">
        <ele>1968</ele>
        <time>2020-10-27T09:25:48+01:00</time>
      </trkpt>
      <trkpt lat="44.85929" lon="6.10696">
        <ele>1964</ele>
        <time>2020-10-27T09:25:53+01:00</time>
      </trkpt>
      <trkpt lat="44.86034" lon="6.10741">
        <ele>1937</ele>
        <time>2020-10-27T09:25:58+01:00</time>
      </trkpt>
      <trkpt lat="44.86038" lon="6.10726">
        <ele>1929</ele>
        <time>2020-10-27T09:26:03+01:00</time>
      </trkpt>
      <trkpt lat="44.86054" lon="6.10723">
        <ele>1924</ele>
        <time>2020-10-27T09:26:08+01:00</time>
      </trkpt>
      <trkpt lat="44.86103" lon="6.10671">
        <ele>1909</ele>
        <time>2020-10-27T09:26:13+01:00</time>
      </trkpt>
      <trkpt lat="44.86151" lon="6.10698">
        <ele>1899</ele>
        <time>2020-10-27T09:26:18+01:00</time>
      </trkpt>
      <trkpt lat="44.86201" lon="6.10747">
        <ele>1901</ele>
        <time>2020-10-27T09:26:23+01:00</time>
      </trkpt>
      <trkpt lat="44.86274" lon="6.107">
        <ele>1883</ele>
        <time>2020-10-27T09:26:28+01:00</time>
      </trkpt>
      <trkpt lat="44.86366" lon="6.10704">
        <ele>1894</ele>
        <time>2020-10-27T09:26:33+01:00</time>
      </trkpt>
      <trkpt lat="44.86423" lon="6.10619">
        <ele>1887</ele>
        <time>2020-10-27T09:26:38+01:00</time>
      </trkpt>
      <trkpt lat="44.86451" lon="6.10584">
        <ele>1881</ele>
        <time>2020-10-27T09:26:43+01:00</time>
      </trkpt>
      <trkpt lat="44.86495" lon="6.10522">
        <ele>1871</ele>
        <time>2020-10-27T09:26:48+01:00</time>
      </trkpt>
      <trkpt lat="44.8646" lon="6.1035">
        <ele>1829</ele>
        <time>2020-10-27T09:26:53+01:00</time>
      </trkpt>
      <trkpt lat="44.86414" lon="6.10348">
        <ele>1814</ele>
        <time>2020-10-27T09:26:58+01:00</time>
      </trkpt>
      <trkpt lat="44.86426" lon="6.10307">
        <ele>1794</ele>
        <time>2020-10-27T09:27:03+01:00</time>
      </trkpt>
      <trkpt lat="44.86397" lon="6.10292">
        <ele>1772</ele>
        <time>2020-10-27T09:27:08+01:00</time>
      </trkpt>
      <trkpt lat="44.86341" lon="6.10303">
        <ele>1739</ele>
        <time>2020-10-27T09:27:13+01:00</time>
      </trkpt>
      <trkpt lat="44.86352" lon="6.10273">
        <ele>1730</ele>
        <time>2020-10-27T09:27:18+01:00</time>
      </trkpt>
      <trkpt lat="44.86318" lon="6.10271">
        <ele>1712</ele>
        <time>2020-10-27T09:27:23+01:00</time>
      </trkpt>
      <trkpt lat="44.86262" lon="6.10292">
        <ele>1694</ele>
        <time>2020-10-27T09:27:28+01:00</time>
      </trkpt>
      <trkpt lat="44.86273" lon="6.10237">
        <ele>1682</ele>
        <time>2020-10-27T09:27:33+01:00</time>
      </trkpt>
      <trkpt lat="44.86258" lon="6.102">
        <ele>1661</ele>
        <time>2020-10-27T09:27:38+01:00</time>
      </trkpt>
      <trkpt lat="44.8623" lon="6.10198">
        <ele>1649</ele>
        <time>2020-10-27T09:27:43+01:00</time>
      </trkpt>
      <trkpt lat="44.86277" lon="6.10082">
        <ele>1610</ele>
        <time>2020-10-27T09:27:48+01:00</time>
      </trkpt>
      <trkpt lat="44.86311" lon="6.09958">
        <ele>1555</ele>
        <time>2020-10-27T09:27:53+01:00</time>
      </trkpt>
      <trkpt lat="44.863" lon="6.09938">
        <ele>1540</ele>
        <time>2020-10-27T09:27:58+01:00</time>
      </trkpt>
      <trkpt lat="44.86358" lon="6.09859">
        <ele>1514</ele>
        <time>2020-10-27T09:28:03+01:00</time>
      </trkpt>
      <trkpt lat="44.86435" lon="6.09724">
        <ele>1463</ele>
        <time>2020-10-27T09:28:08+01:00</time>
      </trkpt>
      <trkpt lat="44.86533" lon="6.09728">
        <ele>1420</ele>
        <time>2020-10-27T09:28:13+01:00</time>
      </trkpt>
      <trkpt lat="44.86539" lon="6.09687">
        <ele>1398</ele>
        <time>2020-10-27T09:28:18+01:00</time>
      </trkpt>
      <trkpt lat="44.86577" lon="6.09685">
        <ele>1375</ele>
        <time>2020-10-27T09:28:23+01:00</time>
      </trkpt>
      <trkpt lat="44.86629" lon="6.09754">
        <ele>1361</ele>
        <time>2020-10-27T09:28:28+01:00</time>
      </trkpt>
      <trkpt lat="44.86703" lon="6.09767">
        <ele>1343</ele>
        <time>2020-10-27T09:28:33+01:00</time>
      </trkpt>
      <trkpt lat="44.86668" lon="6.09704">
        <ele>1327</ele>
        <time>2020-10-27T09:28:38+01:00</time>
      </trkpt>
      <trkpt lat="44.86627" lon="6.09651">
        <ele>1321</ele>
        <time>2020-10-27T09:28:43+01:00</time>
      </trkpt>
      <trkpt lat="44.86647" lon="6.09578">
        <ele>1311</ele>
        <time>2020-10-27T09:28:48+01:00</time>
      </trkpt>
      <trkpt lat="44.86723" lon="6.09471">
        <ele>1286</ele>
        <time>2020-10-27T09:28:53+01:00</time>
      </trkpt>
      <trkpt lat="44.86759" lon="6.09449">
        <ele>1277</ele>
        <time>2020-10-27T09:28:58+01:00</time>
      </trkpt>
      <trkpt lat="44.86816" lon="6.09383">
        <ele>1261</ele>
        <time>2020-10-27T09:29:03+01:00</time>
      </trkpt>
      <trkpt lat="44.86835" lon="6.09301">
        <ele>1255</ele>
        <time>2020-10-27T09:29:08+01:00</time>
      </trkpt>
      <trkpt lat="44.8687" lon="6.09215">
        <ele>1264</ele>
        <time>2020-10-27T09:29:13+01:00</time>
      </trkpt>
    </trkseg>
  </trk>
  <trk>
    <name><![CDATA[E9 Le Désert en Valjouffrey - Valsenestre]]></name>
    <trkseg>
      <trkpt lat="44.86872" lon="6.09214">
        <ele>1264</ele>
        <time>2020-10-27T09:18:28+01:00</time>
      </trkpt>
      <trkpt lat="44.86941" lon="6.09222">
        <ele>1278</ele>
        <time>2020-10-27T09:18:33+01:00</time>
      </trkpt>
      <trkpt lat="44.87011" lon="6.09186">
        <ele>1291</ele>
        <time>2020-10-27T09:18:38+01:00</time>
      </trkpt>
      <trkpt lat="44.87096" lon="6.09205">
        <ele>1308</ele>
        <time>2020-10-27T09:18:43+01:00</time>
      </trkpt>
      <trkpt lat="44.87189" lon="6.09295">
        <ele>1331</ele>
        <time>2020-10-27T09:18:48+01:00</time>
      </trkpt>
      <trkpt lat="44.87319" lon="6.09325">
        <ele>1360</ele>
        <time>2020-10-27T09:18:53+01:00</time>
      </trkpt>
      <trkpt lat="44.87341" lon="6.09259">
        <ele>1378</ele>
        <time>2020-10-27T09:18:58+01:00</time>
      </trkpt>
      <trkpt lat="44.87398" lon="6.09272">
        <ele>1386</ele>
        <time>2020-10-27T09:19:03+01:00</time>
      </trkpt>
      <trkpt lat="44.87426" lon="6.09281">
        <ele>1387</ele>
        <time>2020-10-27T09:19:08+01:00</time>
      </trkpt>
      <trkpt lat="44.8755" lon="6.09178">
        <ele>1425</ele>
        <time>2020-10-27T09:19:13+01:00</time>
      </trkpt>
      <trkpt lat="44.87642" lon="6.09152">
        <ele>1447</ele>
        <time>2020-10-27T09:19:18+01:00</time>
      </trkpt>
      <trkpt lat="44.87759" lon="6.09064">
        <ele>1481</ele>
        <time>2020-10-27T09:19:23+01:00</time>
      </trkpt>
      <trkpt lat="44.87801" lon="6.09028">
        <ele>1497</ele>
        <time>2020-10-27T09:19:28+01:00</time>
      </trkpt>
      <trkpt lat="44.87926" lon="6.08991">
        <ele>1545</ele>
        <time>2020-10-27T09:19:33+01:00</time>
      </trkpt>
      <trkpt lat="44.88055" lon="6.08919">
        <ele>1578</ele>
        <time>2020-10-27T09:19:38+01:00</time>
      </trkpt>
      <trkpt lat="44.88137" lon="6.08867">
        <ele>1603</ele>
        <time>2020-10-27T09:19:43+01:00</time>
      </trkpt>
      <trkpt lat="44.88178" lon="6.08871">
        <ele>1618</ele>
        <time>2020-10-27T09:19:48+01:00</time>
      </trkpt>
      <trkpt lat="44.88239" lon="6.08822">
        <ele>1640</ele>
        <time>2020-10-27T09:19:53+01:00</time>
      </trkpt>
      <trkpt lat="44.883" lon="6.08816">
        <ele>1661</ele>
        <time>2020-10-27T09:19:58+01:00</time>
      </trkpt>
      <trkpt lat="44.88375" lon="6.08773">
        <ele>1691</ele>
        <time>2020-10-27T09:20:03+01:00</time>
      </trkpt>
      <trkpt lat="44.88428" lon="6.08766">
        <ele>1717</ele>
        <time>2020-10-27T09:20:08+01:00</time>
      </trkpt>
      <trkpt lat="44.88502" lon="6.08704">
        <ele>1763</ele>
        <time>2020-10-27T09:20:13+01:00</time>
      </trkpt>
      <trkpt lat="44.8856" lon="6.08674">
        <ele>1793</ele>
        <time>2020-10-27T09:20:18+01:00</time>
      </trkpt>
      <trkpt lat="44.88601" lon="6.08631">
        <ele>1820</ele>
        <time>2020-10-27T09:20:23+01:00</time>
      </trkpt>
      <trkpt lat="44.88641" lon="6.08633">
        <ele>1848</ele>
        <time>2020-10-27T09:20:28+01:00</time>
      </trkpt>
      <trkpt lat="44.88714" lon="6.08524">
        <ele>1898</ele>
        <time>2020-10-27T09:20:33+01:00</time>
      </trkpt>
      <trkpt lat="44.88738" lon="6.08558">
        <ele>1915</ele>
        <time>2020-10-27T09:20:38+01:00</time>
      </trkpt>
      <trkpt lat="44.88802" lon="6.08539">
        <ele>1951</ele>
        <time>2020-10-27T09:20:43+01:00</time>
      </trkpt>
      <trkpt lat="44.88861" lon="6.08547">
        <ele>1981</ele>
        <time>2020-10-27T09:20:48+01:00</time>
      </trkpt>
      <trkpt lat="44.88838" lon="6.08406">
        <ele>2015</ele>
        <time>2020-10-27T09:20:53+01:00</time>
      </trkpt>
      <trkpt lat="44.8886" lon="6.08236">
        <ele>2078</ele>
        <time>2020-10-27T09:20:58+01:00</time>
      </trkpt>
      <trkpt lat="44.88885" lon="6.08172">
        <ele>2105</ele>
        <time>2020-10-27T09:21:03+01:00</time>
      </trkpt>
      <trkpt lat="44.88948" lon="6.0823">
        <ele>2116</ele>
        <time>2020-10-27T09:21:08+01:00</time>
      </trkpt>
      <trkpt lat="44.89001" lon="6.08165">
        <ele>2151</ele>
        <time>2020-10-27T09:21:13+01:00</time>
      </trkpt>
      <trkpt lat="44.89075" lon="6.08165">
        <ele>2199</ele>
        <time>2020-10-27T09:21:18+01:00</time>
      </trkpt>
      <trkpt lat="44.89115" lon="6.08122">
        <ele>2226</ele>
        <time>2020-10-27T09:21:23+01:00</time>
      </trkpt>
      <trkpt lat="44.89135" lon="6.0814">
        <ele>2237</ele>
        <time>2020-10-27T09:21:28+01:00</time>
      </trkpt>
      <trkpt lat="44.89157" lon="6.08047">
        <ele>2254</ele>
        <time>2020-10-27T09:21:33+01:00</time>
      </trkpt>
      <trkpt lat="44.89159" lon="6.08002">
        <ele>2264</ele>
        <time>2020-10-27T09:21:38+01:00</time>
      </trkpt>
      <trkpt lat="44.89205" lon="6.08011">
        <ele>2275</ele>
        <time>2020-10-27T09:21:43+01:00</time>
      </trkpt>
      <trkpt lat="44.89259" lon="6.07934">
        <ele>2286</ele>
        <time>2020-10-27T09:21:48+01:00</time>
      </trkpt>
      <trkpt lat="44.89282" lon="6.0794">
        <ele>2282</ele>
        <time>2020-10-27T09:21:53+01:00</time>
      </trkpt>
      <trkpt lat="44.89285" lon="6.07876">
        <ele>2271</ele>
        <time>2020-10-27T09:21:58+01:00</time>
      </trkpt>
      <trkpt lat="44.89325" lon="6.07889">
        <ele>2258</ele>
        <time>2020-10-27T09:22:03+01:00</time>
      </trkpt>
      <trkpt lat="44.89423" lon="6.07919">
        <ele>2239</ele>
        <time>2020-10-27T09:22:08+01:00</time>
      </trkpt>
      <trkpt lat="44.89367" lon="6.07796">
        <ele>2216</ele>
        <time>2020-10-27T09:22:13+01:00</time>
      </trkpt>
      <trkpt lat="44.89492" lon="6.07886">
        <ele>2193</ele>
        <time>2020-10-27T09:22:18+01:00</time>
      </trkpt>
      <trkpt lat="44.89667" lon="6.08013">
        <ele>2154</ele>
        <time>2020-10-27T09:22:23+01:00</time>
      </trkpt>
      <trkpt lat="44.89629" lon="6.07931">
        <ele>2141</ele>
        <time>2020-10-27T09:22:28+01:00</time>
      </trkpt>
      <trkpt lat="44.89656" lon="6.07934">
        <ele>2131</ele>
        <time>2020-10-27T09:22:33+01:00</time>
      </trkpt>
      <trkpt lat="44.89626" lon="6.07889">
        <ele>2117</ele>
        <time>2020-10-27T09:22:38+01:00</time>
      </trkpt>
      <trkpt lat="44.89697" lon="6.07908">
        <ele>2100</ele>
        <time>2020-10-27T09:22:43+01:00</time>
      </trkpt>
      <trkpt lat="44.8974" lon="6.07949">
        <ele>2091</ele>
        <time>2020-10-27T09:22:48+01:00</time>
      </trkpt>
      <trkpt lat="44.897" lon="6.07833">
        <ele>2056</ele>
        <time>2020-10-27T09:22:53+01:00</time>
      </trkpt>
      <trkpt lat="44.89767" lon="6.0785">
        <ele>2025</ele>
        <time>2020-10-27T09:22:58+01:00</time>
      </trkpt>
      <trkpt lat="44.89749" lon="6.07786">
        <ele>2006</ele>
        <time>2020-10-27T09:23:03+01:00</time>
      </trkpt>
      <trkpt lat="44.8981" lon="6.07859">
        <ele>1999</ele>
        <time>2020-10-27T09:23:08+01:00</time>
      </trkpt>
      <trkpt lat="44.89782" lon="6.07753">
        <ele>1975</ele>
        <time>2020-10-27T09:23:13+01:00</time>
      </trkpt>
      <trkpt lat="44.89811" lon="6.07758">
        <ele>1958</ele>
        <time>2020-10-27T09:23:18+01:00</time>
      </trkpt>
      <trkpt lat="44.89803" lon="6.07721">
        <ele>1944</ele>
        <time>2020-10-27T09:23:23+01:00</time>
      </trkpt>
      <trkpt lat="44.89895" lon="6.07824">
        <ele>1927</ele>
        <time>2020-10-27T09:23:28+01:00</time>
      </trkpt>
      <trkpt lat="44.8998" lon="6.07893">
        <ele>1904</ele>
        <time>2020-10-27T09:23:33+01:00</time>
      </trkpt>
      <trkpt lat="44.90071" lon="6.07979">
        <ele>1885</ele>
        <time>2020-10-27T09:23:38+01:00</time>
      </trkpt>
      <trkpt lat="44.90103" lon="6.08058">
        <ele>1883</ele>
        <time>2020-10-27T09:23:43+01:00</time>
      </trkpt>
      <trkpt lat="44.90162" lon="6.0811">
        <ele>1855</ele>
        <time>2020-10-27T09:23:48+01:00</time>
      </trkpt>
      <trkpt lat="44.90124" lon="6.08187">
        <ele>1847</ele>
        <time>2020-10-27T09:23:53+01:00</time>
      </trkpt>
      <trkpt lat="44.90135" lon="6.08234">
        <ele>1843</ele>
        <time>2020-10-27T09:23:58+01:00</time>
      </trkpt>
      <trkpt lat="44.90194" lon="6.08266">
        <ele>1821</ele>
        <time>2020-10-27T09:24:03+01:00</time>
      </trkpt>
      <trkpt lat="44.90225" lon="6.08313">
        <ele>1814</ele>
        <time>2020-10-27T09:24:08+01:00</time>
      </trkpt>
      <trkpt lat="44.9029" lon="6.08328">
        <ele>1798</ele>
        <time>2020-10-27T09:24:13+01:00</time>
      </trkpt>
      <trkpt lat="44.90358" lon="6.0841">
        <ele>1787</ele>
        <time>2020-10-27T09:24:18+01:00</time>
      </trkpt>
      <trkpt lat="44.90325" lon="6.08277">
        <ele>1760</ele>
        <time>2020-10-27T09:24:23+01:00</time>
      </trkpt>
      <trkpt lat="44.90367" lon="6.08286">
        <ele>1739</ele>
        <time>2020-10-27T09:24:28+01:00</time>
      </trkpt>
      <trkpt lat="44.90342" lon="6.08163">
        <ele>1705</ele>
        <time>2020-10-27T09:24:33+01:00</time>
      </trkpt>
      <trkpt lat="44.9041" lon="6.08187">
        <ele>1679</ele>
        <time>2020-10-27T09:24:38+01:00</time>
      </trkpt>
      <trkpt lat="44.90389" lon="6.08112">
        <ele>1668</ele>
        <time>2020-10-27T09:24:43+01:00</time>
      </trkpt>
      <trkpt lat="44.90414" lon="6.0811">
        <ele>1655</ele>
        <time>2020-10-27T09:24:48+01:00</time>
      </trkpt>
      <trkpt lat="44.90419" lon="6.08075">
        <ele>1643</ele>
        <time>2020-10-27T09:24:53+01:00</time>
      </trkpt>
      <trkpt lat="44.90451" lon="6.08082">
        <ele>1629</ele>
        <time>2020-10-27T09:24:58+01:00</time>
      </trkpt>
      <trkpt lat="44.90437" lon="6.0803">
        <ele>1621</ele>
        <time>2020-10-27T09:25:03+01:00</time>
      </trkpt>
      <trkpt lat="44.90472" lon="6.08043">
        <ele>1610</ele>
        <time>2020-10-27T09:25:08+01:00</time>
      </trkpt>
      <trkpt lat="44.90474" lon="6.08015">
        <ele>1602</ele>
        <time>2020-10-27T09:25:13+01:00</time>
      </trkpt>
      <trkpt lat="44.90492" lon="6.08007">
        <ele>1593</ele>
        <time>2020-10-27T09:25:18+01:00</time>
      </trkpt>
      <trkpt lat="44.90466" lon="6.07901">
        <ele>1575</ele>
        <time>2020-10-27T09:25:23+01:00</time>
      </trkpt>
      <trkpt lat="44.9044" lon="6.07863">
        <ele>1572</ele>
        <time>2020-10-27T09:25:28+01:00</time>
      </trkpt>
      <trkpt lat="44.90422" lon="6.07809">
        <ele>1556</ele>
        <time>2020-10-27T09:25:33+01:00</time>
      </trkpt>
      <trkpt lat="44.90384" lon="6.07771">
        <ele>1541</ele>
        <time>2020-10-27T09:25:38+01:00</time>
      </trkpt>
      <trkpt lat="44.90442" lon="6.07753">
        <ele>1527</ele>
        <time>2020-10-27T09:25:43+01:00</time>
      </trkpt>
      <trkpt lat="44.90413" lon="6.07719">
        <ele>1514</ele>
        <time>2020-10-27T09:25:48+01:00</time>
      </trkpt>
      <trkpt lat="44.90465" lon="6.07706">
        <ele>1512</ele>
        <time>2020-10-27T09:25:53+01:00</time>
      </trkpt>
      <trkpt lat="44.90533" lon="6.07612">
        <ele>1493</ele>
        <time>2020-10-27T09:25:58+01:00</time>
      </trkpt>
      <trkpt lat="44.90582" lon="6.07603">
        <ele>1491</ele>
        <time>2020-10-27T09:26:03+01:00</time>
      </trkpt>
      <trkpt lat="44.906" lon="6.07552">
        <ele>1484</ele>
        <time>2020-10-27T09:26:08+01:00</time>
      </trkpt>
      <trkpt lat="44.90557" lon="6.07462">
        <ele>1470</ele>
        <time>2020-10-27T09:26:13+01:00</time>
      </trkpt>
      <trkpt lat="44.90574" lon="6.07404">
        <ele>1464</ele>
        <time>2020-10-27T09:26:18+01:00</time>
      </trkpt>
      <trkpt lat="44.90538" lon="6.07305">
        <ele>1454</ele>
        <time>2020-10-27T09:26:23+01:00</time>
      </trkpt>
      <trkpt lat="44.90579" lon="6.07135">
        <ele>1438</ele>
        <time>2020-10-27T09:26:28+01:00</time>
      </trkpt>
      <trkpt lat="44.906" lon="6.06959">
        <ele>1421</ele>
        <time>2020-10-27T09:26:33+01:00</time>
      </trkpt>
      <trkpt lat="44.90608" lon="6.06846">
        <ele>1411</ele>
        <time>2020-10-27T09:26:38+01:00</time>
      </trkpt>
      <trkpt lat="44.90665" lon="6.06593">
        <ele>1388</ele>
        <time>2020-10-27T09:26:43+01:00</time>
      </trkpt>
      <trkpt lat="44.90723" lon="6.06301">
        <ele>1359</ele>
        <time>2020-10-27T09:26:48+01:00</time>
      </trkpt>
      <trkpt lat="44.90732" lon="6.06157">
        <ele>1347</ele>
        <time>2020-10-27T09:26:53+01:00</time>
      </trkpt>
      <trkpt lat="44.90755" lon="6.06011">
        <ele>1336</ele>
        <time>2020-10-27T09:26:58+01:00</time>
      </trkpt>
      <trkpt lat="44.90761" lon="6.05872">
        <ele>1324</ele>
        <time>2020-10-27T09:27:03+01:00</time>
      </trkpt>
      <trkpt lat="44.90759" lon="6.05788">
        <ele>1318</ele>
        <time>2020-10-27T09:27:08+01:00</time>
      </trkpt>
      <trkpt lat="44.90779" lon="6.05548">
        <ele>1299</ele>
        <time>2020-10-27T09:27:13+01:00</time>
      </trkpt>
      <trkpt lat="44.90779" lon="6.05419">
        <ele>1291</ele>
        <time>2020-10-27T09:27:18+01:00</time>
      </trkpt>
      <trkpt lat="44.9087" lon="6.05442">
        <ele>1291</ele>
        <time>2020-10-27T09:27:23+01:00</time>
      </trkpt>
      <trkpt lat="44.90925" lon="6.05395">
        <ele>1293</ele>
        <time>2020-10-27T09:27:28+01:00</time>
      </trkpt>
      <trkpt lat="44.9096" lon="6.05427">
        <ele>1298</ele>
        <time>2020-10-27T09:27:33+01:00</time>
      </trkpt>
    </trkseg>
  </trk>
  <trk>
    <name><![CDATA[E10 Valsenestre - Refuge de la Muzelle]]></name>
    <trkseg>
      <trkpt lat="44.90951" lon="6.05409">
        <ele>1297</ele>
        <time>2020-10-27T09:18:56+01:00</time>
      </trkpt>
      <trkpt lat="44.90927" lon="6.05401">
        <ele>1293</ele>
        <time>2020-10-27T09:19:01+01:00</time>
      </trkpt>
      <trkpt lat="44.90858" lon="6.05441">
        <ele>1291</ele>
        <time>2020-10-27T09:19:06+01:00</time>
      </trkpt>
      <trkpt lat="44.90781" lon="6.05426">
        <ele>1292</ele>
        <time>2020-10-27T09:19:11+01:00</time>
      </trkpt>
      <trkpt lat="44.9077" lon="6.05476">
        <ele>1294</ele>
        <time>2020-10-27T09:19:16+01:00</time>
      </trkpt>
      <trkpt lat="44.90778" lon="6.05574">
        <ele>1301</ele>
        <time>2020-10-27T09:19:21+01:00</time>
      </trkpt>
      <trkpt lat="44.90761" lon="6.0572">
        <ele>1312</ele>
        <time>2020-10-27T09:19:26+01:00</time>
      </trkpt>
      <trkpt lat="44.90756" lon="6.05845">
        <ele>1322</ele>
        <time>2020-10-27T09:19:31+01:00</time>
      </trkpt>
      <trkpt lat="44.90769" lon="6.05909">
        <ele>1327</ele>
        <time>2020-10-27T09:19:36+01:00</time>
      </trkpt>
      <trkpt lat="44.90752" lon="6.06085">
        <ele>1341</ele>
        <time>2020-10-27T09:19:41+01:00</time>
      </trkpt>
      <trkpt lat="44.90731" lon="6.06169">
        <ele>1348</ele>
        <time>2020-10-27T09:19:46+01:00</time>
      </trkpt>
      <trkpt lat="44.90728" lon="6.06312">
        <ele>1360</ele>
        <time>2020-10-27T09:19:51+01:00</time>
      </trkpt>
      <trkpt lat="44.90671" lon="6.06594">
        <ele>1387</ele>
        <time>2020-10-27T09:19:56+01:00</time>
      </trkpt>
      <trkpt lat="44.90641" lon="6.06763">
        <ele>1401</ele>
        <time>2020-10-27T09:20:01+01:00</time>
      </trkpt>
      <trkpt lat="44.90614" lon="6.06855">
        <ele>1410</ele>
        <time>2020-10-27T09:20:06+01:00</time>
      </trkpt>
      <trkpt lat="44.90597" lon="6.06958">
        <ele>1422</ele>
        <time>2020-10-27T09:20:11+01:00</time>
      </trkpt>
      <trkpt lat="44.90598" lon="6.07038">
        <ele>1428</ele>
        <time>2020-10-27T09:20:16+01:00</time>
      </trkpt>
      <trkpt lat="44.90573" lon="6.07167">
        <ele>1441</ele>
        <time>2020-10-27T09:20:21+01:00</time>
      </trkpt>
      <trkpt lat="44.90541" lon="6.0731">
        <ele>1454</ele>
        <time>2020-10-27T09:20:26+01:00</time>
      </trkpt>
      <trkpt lat="44.90576" lon="6.07405">
        <ele>1464</ele>
        <time>2020-10-27T09:20:31+01:00</time>
      </trkpt>
      <trkpt lat="44.90562" lon="6.07465">
        <ele>1470</ele>
        <time>2020-10-27T09:20:36+01:00</time>
      </trkpt>
      <trkpt lat="44.90594" lon="6.07553">
        <ele>1484</ele>
        <time>2020-10-27T09:20:41+01:00</time>
      </trkpt>
      <trkpt lat="44.90577" lon="6.07604">
        <ele>1491</ele>
        <time>2020-10-27T09:20:46+01:00</time>
      </trkpt>
      <trkpt lat="44.90662" lon="6.0769">
        <ele>1504</ele>
        <time>2020-10-27T09:20:51+01:00</time>
      </trkpt>
      <trkpt lat="44.9068" lon="6.07754">
        <ele>1516</ele>
        <time>2020-10-27T09:20:56+01:00</time>
      </trkpt>
      <trkpt lat="44.90723" lon="6.07776">
        <ele>1520</ele>
        <time>2020-10-27T09:21:01+01:00</time>
      </trkpt>
      <trkpt lat="44.90793" lon="6.07823">
        <ele>1533</ele>
        <time>2020-10-27T09:21:06+01:00</time>
      </trkpt>
      <trkpt lat="44.90807" lon="6.0787">
        <ele>1540</ele>
        <time>2020-10-27T09:21:11+01:00</time>
      </trkpt>
      <trkpt lat="44.90794" lon="6.07997">
        <ele>1560</ele>
        <time>2020-10-27T09:21:16+01:00</time>
      </trkpt>
      <trkpt lat="44.90831" lon="6.08001">
        <ele>1563</ele>
        <time>2020-10-27T09:21:21+01:00</time>
      </trkpt>
      <trkpt lat="44.90857" lon="6.08126">
        <ele>1583</ele>
        <time>2020-10-27T09:21:26+01:00</time>
      </trkpt>
      <trkpt lat="44.90802" lon="6.08147">
        <ele>1590</ele>
        <time>2020-10-27T09:21:31+01:00</time>
      </trkpt>
      <trkpt lat="44.90775" lon="6.08151">
        <ele>1592</ele>
        <time>2020-10-27T09:21:36+01:00</time>
      </trkpt>
      <trkpt lat="44.90825" lon="6.08181">
        <ele>1598</ele>
        <time>2020-10-27T09:21:41+01:00</time>
      </trkpt>
      <trkpt lat="44.90877" lon="6.08239">
        <ele>1609</ele>
        <time>2020-10-27T09:21:46+01:00</time>
      </trkpt>
      <trkpt lat="44.90921" lon="6.08312">
        <ele>1621</ele>
        <time>2020-10-27T09:21:51+01:00</time>
      </trkpt>
      <trkpt lat="44.90983" lon="6.084">
        <ele>1634</ele>
        <time>2020-10-27T09:21:56+01:00</time>
      </trkpt>
      <trkpt lat="44.91036" lon="6.0839">
        <ele>1638</ele>
        <time>2020-10-27T09:22:01+01:00</time>
      </trkpt>
      <trkpt lat="44.91012" lon="6.08306">
        <ele>1633</ele>
        <time>2020-10-27T09:22:06+01:00</time>
      </trkpt>
      <trkpt lat="44.91022" lon="6.08272">
        <ele>1640</ele>
        <time>2020-10-27T09:22:11+01:00</time>
      </trkpt>
      <trkpt lat="44.9108" lon="6.08299">
        <ele>1662</ele>
        <time>2020-10-27T09:22:16+01:00</time>
      </trkpt>
      <trkpt lat="44.91152" lon="6.08387">
        <ele>1682</ele>
        <time>2020-10-27T09:22:21+01:00</time>
      </trkpt>
      <trkpt lat="44.91226" lon="6.08396">
        <ele>1709</ele>
        <time>2020-10-27T09:22:26+01:00</time>
      </trkpt>
      <trkpt lat="44.91348" lon="6.08435">
        <ele>1739</ele>
        <time>2020-10-27T09:22:31+01:00</time>
      </trkpt>
      <trkpt lat="44.91302" lon="6.08299">
        <ele>1775</ele>
        <time>2020-10-27T09:22:36+01:00</time>
      </trkpt>
      <trkpt lat="44.9141" lon="6.08287">
        <ele>1817</ele>
        <time>2020-10-27T09:22:41+01:00</time>
      </trkpt>
      <trkpt lat="44.91534" lon="6.08274">
        <ele>1858</ele>
        <time>2020-10-27T09:22:46+01:00</time>
      </trkpt>
      <trkpt lat="44.91635" lon="6.0833">
        <ele>1883</ele>
        <time>2020-10-27T09:22:51+01:00</time>
      </trkpt>
      <trkpt lat="44.91677" lon="6.08379">
        <ele>1887</ele>
        <time>2020-10-27T09:22:56+01:00</time>
      </trkpt>
      <trkpt lat="44.91769" lon="6.0843">
        <ele>1917</ele>
        <time>2020-10-27T09:23:01+01:00</time>
      </trkpt>
      <trkpt lat="44.9179" lon="6.08475">
        <ele>1923</ele>
        <time>2020-10-27T09:23:06+01:00</time>
      </trkpt>
      <trkpt lat="44.91802" lon="6.08413">
        <ele>1938</ele>
        <time>2020-10-27T09:23:11+01:00</time>
      </trkpt>
      <trkpt lat="44.91831" lon="6.0845">
        <ele>1946</ele>
        <time>2020-10-27T09:23:16+01:00</time>
      </trkpt>
      <trkpt lat="44.91917" lon="6.08452">
        <ele>1978</ele>
        <time>2020-10-27T09:23:21+01:00</time>
      </trkpt>
      <trkpt lat="44.91901" lon="6.08353">
        <ele>2001</ele>
        <time>2020-10-27T09:23:26+01:00</time>
      </trkpt>
      <trkpt lat="44.9196" lon="6.08362">
        <ele>2018</ele>
        <time>2020-10-27T09:23:31+01:00</time>
      </trkpt>
      <trkpt lat="44.92039" lon="6.08347">
        <ele>2042</ele>
        <time>2020-10-27T09:23:36+01:00</time>
      </trkpt>
      <trkpt lat="44.92106" lon="6.08345">
        <ele>2058</ele>
        <time>2020-10-27T09:23:41+01:00</time>
      </trkpt>
      <trkpt lat="44.92141" lon="6.08334">
        <ele>2067</ele>
        <time>2020-10-27T09:23:46+01:00</time>
      </trkpt>
      <trkpt lat="44.92144" lon="6.0837">
        <ele>2061</ele>
        <time>2020-10-27T09:23:51+01:00</time>
      </trkpt>
      <trkpt lat="44.92198" lon="6.08377">
        <ele>2079</ele>
        <time>2020-10-27T09:23:56+01:00</time>
      </trkpt>
      <trkpt lat="44.92217" lon="6.08417">
        <ele>2086</ele>
        <time>2020-10-27T09:24:01+01:00</time>
      </trkpt>
      <trkpt lat="44.92323" lon="6.08473">
        <ele>2117</ele>
        <time>2020-10-27T09:24:06+01:00</time>
      </trkpt>
      <trkpt lat="44.92385" lon="6.0849">
        <ele>2130</ele>
        <time>2020-10-27T09:24:11+01:00</time>
      </trkpt>
      <trkpt lat="44.92483" lon="6.08499">
        <ele>2156</ele>
        <time>2020-10-27T09:24:16+01:00</time>
      </trkpt>
      <trkpt lat="44.92577" lon="6.08563">
        <ele>2181</ele>
        <time>2020-10-27T09:24:21+01:00</time>
      </trkpt>
      <trkpt lat="44.92703" lon="6.08621">
        <ele>2218</ele>
        <time>2020-10-27T09:24:26+01:00</time>
      </trkpt>
      <trkpt lat="44.92715" lon="6.08598">
        <ele>2226</ele>
        <time>2020-10-27T09:24:31+01:00</time>
      </trkpt>
      <trkpt lat="44.92741" lon="6.08628">
        <ele>2234</ele>
        <time>2020-10-27T09:24:36+01:00</time>
      </trkpt>
      <trkpt lat="44.92748" lon="6.08604">
        <ele>2240</ele>
        <time>2020-10-27T09:24:41+01:00</time>
      </trkpt>
      <trkpt lat="44.92771" lon="6.08636">
        <ele>2247</ele>
        <time>2020-10-27T09:24:46+01:00</time>
      </trkpt>
      <trkpt lat="44.92785" lon="6.08608">
        <ele>2257</ele>
        <time>2020-10-27T09:24:51+01:00</time>
      </trkpt>
      <trkpt lat="44.92809" lon="6.08664">
        <ele>2263</ele>
        <time>2020-10-27T09:24:56+01:00</time>
      </trkpt>
      <trkpt lat="44.92823" lon="6.08641">
        <ele>2275</ele>
        <time>2020-10-27T09:25:01+01:00</time>
      </trkpt>
      <trkpt lat="44.92864" lon="6.08673">
        <ele>2296</ele>
        <time>2020-10-27T09:25:06+01:00</time>
      </trkpt>
      <trkpt lat="44.92929" lon="6.08681">
        <ele>2337</ele>
        <time>2020-10-27T09:25:11+01:00</time>
      </trkpt>
      <trkpt lat="44.92985" lon="6.08651">
        <ele>2379</ele>
        <time>2020-10-27T09:25:16+01:00</time>
      </trkpt>
      <trkpt lat="44.9302" lon="6.08707">
        <ele>2399</ele>
        <time>2020-10-27T09:25:21+01:00</time>
      </trkpt>
      <trkpt lat="44.93232" lon="6.08793">
        <ele>2585</ele>
        <time>2020-10-27T09:25:26+01:00</time>
      </trkpt>
      <trkpt lat="44.93285" lon="6.08834">
        <ele>2606</ele>
        <time>2020-10-27T09:25:31+01:00</time>
      </trkpt>
      <trkpt lat="44.93414" lon="6.08769">
        <ele>2545</ele>
        <time>2020-10-27T09:25:36+01:00</time>
      </trkpt>
      <trkpt lat="44.93414" lon="6.08894">
        <ele>2516</ele>
        <time>2020-10-27T09:25:41+01:00</time>
      </trkpt>
      <trkpt lat="44.93531" lon="6.08922">
        <ele>2477</ele>
        <time>2020-10-27T09:25:46+01:00</time>
      </trkpt>
      <trkpt lat="44.93548" lon="6.08978">
        <ele>2460</ele>
        <time>2020-10-27T09:25:51+01:00</time>
      </trkpt>
      <trkpt lat="44.93575" lon="6.08943">
        <ele>2449</ele>
        <time>2020-10-27T09:25:56+01:00</time>
      </trkpt>
      <trkpt lat="44.93627" lon="6.08971">
        <ele>2424</ele>
        <time>2020-10-27T09:26:01+01:00</time>
      </trkpt>
      <trkpt lat="44.93709" lon="6.08973">
        <ele>2392</ele>
        <time>2020-10-27T09:26:06+01:00</time>
      </trkpt>
      <trkpt lat="44.9378" lon="6.08978">
        <ele>2372</ele>
        <time>2020-10-27T09:26:11+01:00</time>
      </trkpt>
      <trkpt lat="44.93917" lon="6.09031">
        <ele>2333</ele>
        <time>2020-10-27T09:26:16+01:00</time>
      </trkpt>
      <trkpt lat="44.93977" lon="6.0902">
        <ele>2313</ele>
        <time>2020-10-27T09:26:21+01:00</time>
      </trkpt>
      <trkpt lat="44.94011" lon="6.09035">
        <ele>2304</ele>
        <time>2020-10-27T09:26:26+01:00</time>
      </trkpt>
      <trkpt lat="44.94044" lon="6.09027">
        <ele>2296</ele>
        <time>2020-10-27T09:26:31+01:00</time>
      </trkpt>
      <trkpt lat="44.9409" lon="6.0905">
        <ele>2284</ele>
        <time>2020-10-27T09:26:36+01:00</time>
      </trkpt>
      <trkpt lat="44.94135" lon="6.09042">
        <ele>2280</ele>
        <time>2020-10-27T09:26:41+01:00</time>
      </trkpt>
      <trkpt lat="44.94216" lon="6.09096">
        <ele>2262</ele>
        <time>2020-10-27T09:26:46+01:00</time>
      </trkpt>
      <trkpt lat="44.94254" lon="6.09108">
        <ele>2251</ele>
        <time>2020-10-27T09:26:51+01:00</time>
      </trkpt>
      <trkpt lat="44.94339" lon="6.09211">
        <ele>2205</ele>
        <time>2020-10-27T09:26:56+01:00</time>
      </trkpt>
      <trkpt lat="44.94401" lon="6.09194">
        <ele>2194</ele>
        <time>2020-10-27T09:27:01+01:00</time>
      </trkpt>
      <trkpt lat="44.9443" lon="6.09216">
        <ele>2183</ele>
        <time>2020-10-27T09:27:06+01:00</time>
      </trkpt>
      <trkpt lat="44.94501" lon="6.09224">
        <ele>2167</ele>
        <time>2020-10-27T09:27:11+01:00</time>
      </trkpt>
      <trkpt lat="44.946" lon="6.09325">
        <ele>2139</ele>
        <time>2020-10-27T09:27:16+01:00</time>
      </trkpt>
      <trkpt lat="44.94653" lon="6.0934">
        <ele>2130</ele>
        <time>2020-10-27T09:27:21+01:00</time>
      </trkpt>
      <trkpt lat="44.94731" lon="6.09347">
        <ele>2120</ele>
        <time>2020-10-27T09:27:26+01:00</time>
      </trkpt>
      <trkpt lat="44.94816" lon="6.0939">
        <ele>2115</ele>
        <time>2020-10-27T09:27:31+01:00</time>
      </trkpt>
      <trkpt lat="44.94899" lon="6.09415">
        <ele>2110</ele>
        <time>2020-10-27T09:27:36+01:00</time>
      </trkpt>
      <trkpt lat="44.94943" lon="6.09452">
        <ele>2105</ele>
        <time>2020-10-27T09:27:41+01:00</time>
      </trkpt>
      <trkpt lat="44.94995" lon="6.09462">
        <ele>2104</ele>
        <time>2020-10-27T09:27:46+01:00</time>
      </trkpt>
      <trkpt lat="44.95098" lon="6.09514">
        <ele>2100</ele>
        <time>2020-10-27T09:27:51+01:00</time>
      </trkpt>
      <trkpt lat="44.95156" lon="6.09574">
        <ele>2102</ele>
        <time>2020-10-27T09:27:56+01:00</time>
      </trkpt>
      <trkpt lat="44.95217" lon="6.09634">
        <ele>2102</ele>
        <time>2020-10-27T09:28:01+01:00</time>
      </trkpt>
      <trkpt lat="44.9532" lon="6.09733">
        <ele>2116</ele>
        <time>2020-10-27T09:28:06+01:00</time>
      </trkpt>
      <trkpt lat="44.95318" lon="6.09733">
        <ele>2115</ele>
        <time>2020-10-27T09:28:11+01:00</time>
      </trkpt>
      <trkpt lat="44.95317" lon="6.09733">
        <ele>2115</ele>
        <time>2020-10-27T09:28:16+01:00</time>
      </trkpt>
    </trkseg>
  </trk>
  <trk>
    <name><![CDATA[E11 Refuge de la Muzelle - Le Bourg d'Oisans]]></name>
    <trkseg>
      <trkpt lat="44.95303" lon="6.0972">
        <ele>2112</ele>
        <time>2020-10-27T09:19:21+01:00</time>
      </trkpt>
      <trkpt lat="44.95217" lon="6.09641">
        <ele>2101</ele>
        <time>2020-10-27T09:19:26+01:00</time>
      </trkpt>
      <trkpt lat="44.95179" lon="6.09589">
        <ele>2103</ele>
        <time>2020-10-27T09:19:31+01:00</time>
      </trkpt>
      <trkpt lat="44.95115" lon="6.09538">
        <ele>2100</ele>
        <time>2020-10-27T09:19:36+01:00</time>
      </trkpt>
      <trkpt lat="44.95109" lon="6.09508">
        <ele>2100</ele>
        <time>2020-10-27T09:19:41+01:00</time>
      </trkpt>
      <trkpt lat="44.95092" lon="6.09514">
        <ele>2101</ele>
        <time>2020-10-27T09:19:46+01:00</time>
      </trkpt>
      <trkpt lat="44.95071" lon="6.09482">
        <ele>2105</ele>
        <time>2020-10-27T09:19:51+01:00</time>
      </trkpt>
      <trkpt lat="44.95079" lon="6.09392">
        <ele>2112</ele>
        <time>2020-10-27T09:19:56+01:00</time>
      </trkpt>
      <trkpt lat="44.95095" lon="6.09351">
        <ele>2117</ele>
        <time>2020-10-27T09:20:01+01:00</time>
      </trkpt>
      <trkpt lat="44.95139" lon="6.09314">
        <ele>2121</ele>
        <time>2020-10-27T09:20:06+01:00</time>
      </trkpt>
      <trkpt lat="44.95135" lon="6.09199">
        <ele>2133</ele>
        <time>2020-10-27T09:20:11+01:00</time>
      </trkpt>
      <trkpt lat="44.9522" lon="6.0901">
        <ele>2177</ele>
        <time>2020-10-27T09:20:16+01:00</time>
      </trkpt>
      <trkpt lat="44.95249" lon="6.0898">
        <ele>2181</ele>
        <time>2020-10-27T09:20:21+01:00</time>
      </trkpt>
      <trkpt lat="44.95241" lon="6.08965">
        <ele>2191</ele>
        <time>2020-10-27T09:20:26+01:00</time>
      </trkpt>
      <trkpt lat="44.95312" lon="6.08875">
        <ele>2205</ele>
        <time>2020-10-27T09:20:31+01:00</time>
      </trkpt>
      <trkpt lat="44.95281" lon="6.08784">
        <ele>2256</ele>
        <time>2020-10-27T09:20:36+01:00</time>
      </trkpt>
      <trkpt lat="44.95311" lon="6.08684">
        <ele>2280</ele>
        <time>2020-10-27T09:20:41+01:00</time>
      </trkpt>
      <trkpt lat="44.95369" lon="6.08628">
        <ele>2293</ele>
        <time>2020-10-27T09:20:46+01:00</time>
      </trkpt>
      <trkpt lat="44.95448" lon="6.08533">
        <ele>2312</ele>
        <time>2020-10-27T09:20:51+01:00</time>
      </trkpt>
      <trkpt lat="44.95441" lon="6.08437">
        <ele>2358</ele>
        <time>2020-10-27T09:20:56+01:00</time>
      </trkpt>
      <trkpt lat="44.95461" lon="6.0842">
        <ele>2367</ele>
        <time>2020-10-27T09:21:01+01:00</time>
      </trkpt>
      <trkpt lat="44.95452" lon="6.08355">
        <ele>2396</ele>
        <time>2020-10-27T09:21:06+01:00</time>
      </trkpt>
      <trkpt lat="44.95472" lon="6.0836">
        <ele>2400</ele>
        <time>2020-10-27T09:21:11+01:00</time>
      </trkpt>
      <trkpt lat="44.95449" lon="6.08321">
        <ele>2413</ele>
        <time>2020-10-27T09:21:16+01:00</time>
      </trkpt>
      <trkpt lat="44.95487" lon="6.08321">
        <ele>2425</ele>
        <time>2020-10-27T09:21:21+01:00</time>
      </trkpt>
      <trkpt lat="44.95441" lon="6.08269">
        <ele>2439</ele>
        <time>2020-10-27T09:21:26+01:00</time>
      </trkpt>
      <trkpt lat="44.95492" lon="6.08278">
        <ele>2450</ele>
        <time>2020-10-27T09:21:31+01:00</time>
      </trkpt>
      <trkpt lat="44.95486" lon="6.08242">
        <ele>2473</ele>
        <time>2020-10-27T09:21:36+01:00</time>
      </trkpt>
      <trkpt lat="44.95501" lon="6.08199">
        <ele>2510</ele>
        <time>2020-10-27T09:21:41+01:00</time>
      </trkpt>
      <trkpt lat="44.95434" lon="6.08134">
        <ele>2528</ele>
        <time>2020-10-27T09:21:46+01:00</time>
      </trkpt>
      <trkpt lat="44.95469" lon="6.08066">
        <ele>2514</ele>
        <time>2020-10-27T09:21:51+01:00</time>
      </trkpt>
      <trkpt lat="44.95564" lon="6.08046">
        <ele>2503</ele>
        <time>2020-10-27T09:21:56+01:00</time>
      </trkpt>
      <trkpt lat="44.95634" lon="6.08046">
        <ele>2488</ele>
        <time>2020-10-27T09:22:01+01:00</time>
      </trkpt>
      <trkpt lat="44.95724" lon="6.08087">
        <ele>2466</ele>
        <time>2020-10-27T09:22:06+01:00</time>
      </trkpt>
      <trkpt lat="44.95786" lon="6.08111">
        <ele>2451</ele>
        <time>2020-10-27T09:22:11+01:00</time>
      </trkpt>
      <trkpt lat="44.95851" lon="6.08081">
        <ele>2427</ele>
        <time>2020-10-27T09:22:16+01:00</time>
      </trkpt>
      <trkpt lat="44.95845" lon="6.08057">
        <ele>2419</ele>
        <time>2020-10-27T09:22:21+01:00</time>
      </trkpt>
      <trkpt lat="44.95876" lon="6.08038">
        <ele>2410</ele>
        <time>2020-10-27T09:22:26+01:00</time>
      </trkpt>
      <trkpt lat="44.95876" lon="6.08018">
        <ele>2404</ele>
        <time>2020-10-27T09:22:31+01:00</time>
      </trkpt>
      <trkpt lat="44.95895" lon="6.08003">
        <ele>2397</ele>
        <time>2020-10-27T09:22:36+01:00</time>
      </trkpt>
      <trkpt lat="44.95902" lon="6.07973">
        <ele>2387</ele>
        <time>2020-10-27T09:22:41+01:00</time>
      </trkpt>
      <trkpt lat="44.95936" lon="6.07952">
        <ele>2368</ele>
        <time>2020-10-27T09:22:46+01:00</time>
      </trkpt>
      <trkpt lat="44.95914" lon="6.07915">
        <ele>2364</ele>
        <time>2020-10-27T09:22:51+01:00</time>
      </trkpt>
      <trkpt lat="44.95891" lon="6.07862">
        <ele>2350</ele>
        <time>2020-10-27T09:22:56+01:00</time>
      </trkpt>
      <trkpt lat="44.95924" lon="6.07821">
        <ele>2325</ele>
        <time>2020-10-27T09:23:01+01:00</time>
      </trkpt>
      <trkpt lat="44.95918" lon="6.07795">
        <ele>2318</ele>
        <time>2020-10-27T09:23:06+01:00</time>
      </trkpt>
      <trkpt lat="44.95968" lon="6.07804">
        <ele>2304</ele>
        <time>2020-10-27T09:23:11+01:00</time>
      </trkpt>
      <trkpt lat="44.9599" lon="6.07763">
        <ele>2291</ele>
        <time>2020-10-27T09:23:16+01:00</time>
      </trkpt>
      <trkpt lat="44.96049" lon="6.07778">
        <ele>2280</ele>
        <time>2020-10-27T09:23:21+01:00</time>
      </trkpt>
      <trkpt lat="44.96082" lon="6.07752">
        <ele>2263</ele>
        <time>2020-10-27T09:23:26+01:00</time>
      </trkpt>
      <trkpt lat="44.96129" lon="6.078">
        <ele>2257</ele>
        <time>2020-10-27T09:23:31+01:00</time>
      </trkpt>
      <trkpt lat="44.96169" lon="6.07791">
        <ele>2243</ele>
        <time>2020-10-27T09:23:36+01:00</time>
      </trkpt>
      <trkpt lat="44.96237" lon="6.07769">
        <ele>2221</ele>
        <time>2020-10-27T09:23:41+01:00</time>
      </trkpt>
      <trkpt lat="44.96242" lon="6.07744">
        <ele>2210</ele>
        <time>2020-10-27T09:23:46+01:00</time>
      </trkpt>
      <trkpt lat="44.96328" lon="6.07737">
        <ele>2180</ele>
        <time>2020-10-27T09:23:51+01:00</time>
      </trkpt>
      <trkpt lat="44.96377" lon="6.07709">
        <ele>2166</ele>
        <time>2020-10-27T09:23:56+01:00</time>
      </trkpt>
      <trkpt lat="44.96372" lon="6.07619">
        <ele>2120</ele>
        <time>2020-10-27T09:24:01+01:00</time>
      </trkpt>
      <trkpt lat="44.9643" lon="6.07559">
        <ele>2080</ele>
        <time>2020-10-27T09:24:06+01:00</time>
      </trkpt>
      <trkpt lat="44.96415" lon="6.07533">
        <ele>2071</ele>
        <time>2020-10-27T09:24:11+01:00</time>
      </trkpt>
      <trkpt lat="44.96438" lon="6.07518">
        <ele>2061</ele>
        <time>2020-10-27T09:24:16+01:00</time>
      </trkpt>
      <trkpt lat="44.96401" lon="6.07456">
        <ele>2044</ele>
        <time>2020-10-27T09:24:21+01:00</time>
      </trkpt>
      <trkpt lat="44.9639" lon="6.07385">
        <ele>2027</ele>
        <time>2020-10-27T09:24:26+01:00</time>
      </trkpt>
      <trkpt lat="44.965" lon="6.07403">
        <ele>2002</ele>
        <time>2020-10-27T09:24:31+01:00</time>
      </trkpt>
      <trkpt lat="44.96523" lon="6.07372">
        <ele>1990</ele>
        <time>2020-10-27T09:24:36+01:00</time>
      </trkpt>
      <trkpt lat="44.96513" lon="6.07342">
        <ele>1977</ele>
        <time>2020-10-27T09:24:41+01:00</time>
      </trkpt>
      <trkpt lat="44.96541" lon="6.07302">
        <ele>1956</ele>
        <time>2020-10-27T09:24:46+01:00</time>
      </trkpt>
      <trkpt lat="44.96629" lon="6.07274">
        <ele>1923</ele>
        <time>2020-10-27T09:24:51+01:00</time>
      </trkpt>
      <trkpt lat="44.96693" lon="6.07289">
        <ele>1917</ele>
        <time>2020-10-27T09:24:56+01:00</time>
      </trkpt>
      <trkpt lat="44.96738" lon="6.07229">
        <ele>1887</ele>
        <time>2020-10-27T09:25:01+01:00</time>
      </trkpt>
      <trkpt lat="44.96711" lon="6.07197">
        <ele>1871</ele>
        <time>2020-10-27T09:25:06+01:00</time>
      </trkpt>
      <trkpt lat="44.96721" lon="6.0716">
        <ele>1853</ele>
        <time>2020-10-27T09:25:11+01:00</time>
      </trkpt>
      <trkpt lat="44.96697" lon="6.07128">
        <ele>1836</ele>
        <time>2020-10-27T09:25:16+01:00</time>
      </trkpt>
      <trkpt lat="44.96717" lon="6.07098">
        <ele>1817</ele>
        <time>2020-10-27T09:25:21+01:00</time>
      </trkpt>
      <trkpt lat="44.96728" lon="6.07072">
        <ele>1801</ele>
        <time>2020-10-27T09:25:26+01:00</time>
      </trkpt>
      <trkpt lat="44.96691" lon="6.07018">
        <ele>1780</ele>
        <time>2020-10-27T09:25:31+01:00</time>
      </trkpt>
      <trkpt lat="44.96758" lon="6.06988">
        <ele>1737</ele>
        <time>2020-10-27T09:25:36+01:00</time>
      </trkpt>
      <trkpt lat="44.96794" lon="6.07087">
        <ele>1746</ele>
        <time>2020-10-27T09:25:41+01:00</time>
      </trkpt>
      <trkpt lat="44.96819" lon="6.07119">
        <ele>1750</ele>
        <time>2020-10-27T09:25:46+01:00</time>
      </trkpt>
      <trkpt lat="44.96893" lon="6.07061">
        <ele>1737</ele>
        <time>2020-10-27T09:25:51+01:00</time>
      </trkpt>
      <trkpt lat="44.96983" lon="6.07113">
        <ele>1710</ele>
        <time>2020-10-27T09:25:56+01:00</time>
      </trkpt>
      <trkpt lat="44.97054" lon="6.07212">
        <ele>1695</ele>
        <time>2020-10-27T09:26:01+01:00</time>
      </trkpt>
      <trkpt lat="44.97119" lon="6.0722">
        <ele>1671</ele>
        <time>2020-10-27T09:26:06+01:00</time>
      </trkpt>
      <trkpt lat="44.97084" lon="6.07113">
        <ele>1629</ele>
        <time>2020-10-27T09:26:11+01:00</time>
      </trkpt>
      <trkpt lat="44.97145" lon="6.07134">
        <ele>1606</ele>
        <time>2020-10-27T09:26:16+01:00</time>
      </trkpt>
      <trkpt lat="44.97122" lon="6.07042">
        <ele>1581</ele>
        <time>2020-10-27T09:26:21+01:00</time>
      </trkpt>
      <trkpt lat="44.97191" lon="6.07098">
        <ele>1560</ele>
        <time>2020-10-27T09:26:26+01:00</time>
      </trkpt>
      <trkpt lat="44.97213" lon="6.07134">
        <ele>1563</ele>
        <time>2020-10-27T09:26:31+01:00</time>
      </trkpt>
      <trkpt lat="44.97232" lon="6.07074">
        <ele>1540</ele>
        <time>2020-10-27T09:26:36+01:00</time>
      </trkpt>
      <trkpt lat="44.97269" lon="6.07025">
        <ele>1523</ele>
        <time>2020-10-27T09:26:41+01:00</time>
      </trkpt>
      <trkpt lat="44.97282" lon="6.06939">
        <ele>1505</ele>
        <time>2020-10-27T09:26:46+01:00</time>
      </trkpt>
      <trkpt lat="44.97329" lon="6.06963">
        <ele>1506</ele>
        <time>2020-10-27T09:26:51+01:00</time>
      </trkpt>
      <trkpt lat="44.97383" lon="6.06918">
        <ele>1515</ele>
        <time>2020-10-27T09:26:56+01:00</time>
      </trkpt>
      <trkpt lat="44.97386" lon="6.06785">
        <ele>1518</ele>
        <time>2020-10-27T09:27:01+01:00</time>
      </trkpt>
      <trkpt lat="44.97383" lon="6.06669">
        <ele>1515</ele>
        <time>2020-10-27T09:27:06+01:00</time>
      </trkpt>
      <trkpt lat="44.97406" lon="6.06568">
        <ele>1523</ele>
        <time>2020-10-27T09:27:11+01:00</time>
      </trkpt>
      <trkpt lat="44.97446" lon="6.06456">
        <ele>1541</ele>
        <time>2020-10-27T09:27:16+01:00</time>
      </trkpt>
      <trkpt lat="44.97518" lon="6.06377">
        <ele>1538</ele>
        <time>2020-10-27T09:27:21+01:00</time>
      </trkpt>
      <trkpt lat="44.97597" lon="6.06396">
        <ele>1539</ele>
        <time>2020-10-27T09:27:26+01:00</time>
      </trkpt>
      <trkpt lat="44.97699" lon="6.06516">
        <ele>1508</ele>
        <time>2020-10-27T09:27:31+01:00</time>
      </trkpt>
      <trkpt lat="44.97772" lon="6.06624">
        <ele>1471</ele>
        <time>2020-10-27T09:27:36+01:00</time>
      </trkpt>
      <trkpt lat="44.97758" lon="6.06667">
        <ele>1464</ele>
        <time>2020-10-27T09:27:41+01:00</time>
      </trkpt>
      <trkpt lat="44.97851" lon="6.06748">
        <ele>1389</ele>
        <time>2020-10-27T09:27:46+01:00</time>
      </trkpt>
      <trkpt lat="44.97827" lon="6.06823">
        <ele>1377</ele>
        <time>2020-10-27T09:27:51+01:00</time>
      </trkpt>
      <trkpt lat="44.97916" lon="6.06763">
        <ele>1338</ele>
        <time>2020-10-27T09:27:56+01:00</time>
      </trkpt>
      <trkpt lat="44.97953" lon="6.06823">
        <ele>1316</ele>
        <time>2020-10-27T09:28:01+01:00</time>
      </trkpt>
      <trkpt lat="44.97936" lon="6.06894">
        <ele>1310</ele>
        <time>2020-10-27T09:28:06+01:00</time>
      </trkpt>
      <trkpt lat="44.97933" lon="6.07016">
        <ele>1288</ele>
        <time>2020-10-27T09:28:11+01:00</time>
      </trkpt>
      <trkpt lat="44.97957" lon="6.0704">
        <ele>1272</ele>
        <time>2020-10-27T09:28:16+01:00</time>
      </trkpt>
      <trkpt lat="44.97981" lon="6.06973">
        <ele>1266</ele>
        <time>2020-10-27T09:28:21+01:00</time>
      </trkpt>
      <trkpt lat="44.98021" lon="6.06978">
        <ele>1249</ele>
        <time>2020-10-27T09:28:26+01:00</time>
      </trkpt>
      <trkpt lat="44.98" lon="6.07025">
        <ele>1245</ele>
        <time>2020-10-27T09:28:31+01:00</time>
      </trkpt>
      <trkpt lat="44.98038" lon="6.0704">
        <ele>1227</ele>
        <time>2020-10-27T09:28:36+01:00</time>
      </trkpt>
      <trkpt lat="44.98066" lon="6.07027">
        <ele>1218</ele>
        <time>2020-10-27T09:28:41+01:00</time>
      </trkpt>
      <trkpt lat="44.98068" lon="6.07113">
        <ele>1195</ele>
        <time>2020-10-27T09:28:46+01:00</time>
      </trkpt>
      <trkpt lat="44.98104" lon="6.07134">
        <ele>1186</ele>
        <time>2020-10-27T09:28:51+01:00</time>
      </trkpt>
      <trkpt lat="44.98189" lon="6.07227">
        <ele>1149</ele>
        <time>2020-10-27T09:28:56+01:00</time>
      </trkpt>
      <trkpt lat="44.9827" lon="6.07222">
        <ele>1126</ele>
        <time>2020-10-27T09:29:01+01:00</time>
      </trkpt>
      <trkpt lat="44.98333" lon="6.0728">
        <ele>1107</ele>
        <time>2020-10-27T09:29:06+01:00</time>
      </trkpt>
      <trkpt lat="44.98406" lon="6.07272">
        <ele>1094</ele>
        <time>2020-10-27T09:29:11+01:00</time>
      </trkpt>
      <trkpt lat="44.9845" lon="6.07338">
        <ele>1081</ele>
        <time>2020-10-27T09:29:16+01:00</time>
      </trkpt>
      <trkpt lat="44.98502" lon="6.07392">
        <ele>1071</ele>
        <time>2020-10-27T09:29:21+01:00</time>
      </trkpt>
      <trkpt lat="44.98619" lon="6.07426">
        <ele>1043</ele>
        <time>2020-10-27T09:29:26+01:00</time>
      </trkpt>
      <trkpt lat="44.98595" lon="6.07503">
        <ele>1032</ele>
        <time>2020-10-27T09:29:31+01:00</time>
      </trkpt>
      <trkpt lat="44.98687" lon="6.07518">
        <ele>1006</ele>
        <time>2020-10-27T09:29:36+01:00</time>
      </trkpt>
      <trkpt lat="44.98822" lon="6.07512">
        <ele>975</ele>
        <time>2020-10-27T09:29:41+01:00</time>
      </trkpt>
      <trkpt lat="44.98918" lon="6.07478">
        <ele>960</ele>
        <time>2020-10-27T09:29:46+01:00</time>
      </trkpt>
      <trkpt lat="44.9906" lon="6.07475">
        <ele>915</ele>
        <time>2020-10-27T09:29:51+01:00</time>
      </trkpt>
      <trkpt lat="44.99121" lon="6.07445">
        <ele>901</ele>
        <time>2020-10-27T09:29:56+01:00</time>
      </trkpt>
      <trkpt lat="44.99232" lon="6.07424">
        <ele>880</ele>
        <time>2020-10-27T09:30:01+01:00</time>
      </trkpt>
      <trkpt lat="44.99308" lon="6.07325">
        <ele>859</ele>
        <time>2020-10-27T09:30:06+01:00</time>
      </trkpt>
      <trkpt lat="44.99352" lon="6.0725">
        <ele>852</ele>
        <time>2020-10-27T09:30:11+01:00</time>
      </trkpt>
      <trkpt lat="44.99405" lon="6.07205">
        <ele>844</ele>
        <time>2020-10-27T09:30:16+01:00</time>
      </trkpt>
      <trkpt lat="44.99443" lon="6.0722">
        <ele>839</ele>
        <time>2020-10-27T09:30:21+01:00</time>
      </trkpt>
      <trkpt lat="44.99537" lon="6.07164">
        <ele>825</ele>
        <time>2020-10-27T09:30:26+01:00</time>
      </trkpt>
      <trkpt lat="44.99669" lon="6.07083">
        <ele>804</ele>
        <time>2020-10-27T09:30:31+01:00</time>
      </trkpt>
      <trkpt lat="44.99721" lon="6.06969">
        <ele>806</ele>
        <time>2020-10-27T09:30:36+01:00</time>
      </trkpt>
      <trkpt lat="44.99828" lon="6.06898">
        <ele>806</ele>
        <time>2020-10-27T09:30:41+01:00</time>
      </trkpt>
      <trkpt lat="44.99944" lon="6.0689">
        <ele>786</ele>
        <time>2020-10-27T09:30:46+01:00</time>
      </trkpt>
      <trkpt lat="45.00013" lon="6.0681">
        <ele>783</ele>
        <time>2020-10-27T09:30:51+01:00</time>
      </trkpt>
      <trkpt lat="45.00057" lon="6.06812">
        <ele>777</ele>
        <time>2020-10-27T09:30:56+01:00</time>
      </trkpt>
      <trkpt lat="45.0013" lon="6.06791">
        <ele>781</ele>
        <time>2020-10-27T09:31:01+01:00</time>
      </trkpt>
      <trkpt lat="45.00209" lon="6.0681">
        <ele>769</ele>
        <time>2020-10-27T09:31:06+01:00</time>
      </trkpt>
      <trkpt lat="45.00349" lon="6.06787">
        <ele>769</ele>
        <time>2020-10-27T09:31:11+01:00</time>
      </trkpt>
      <trkpt lat="45.00432" lon="6.06727">
        <ele>764</ele>
        <time>2020-10-27T09:31:16+01:00</time>
      </trkpt>
      <trkpt lat="45.00523" lon="6.06686">
        <ele>760</ele>
        <time>2020-10-27T09:31:21+01:00</time>
      </trkpt>
      <trkpt lat="45.00616" lon="6.06596">
        <ele>757</ele>
        <time>2020-10-27T09:31:26+01:00</time>
      </trkpt>
      <trkpt lat="45.00632" lon="6.06542">
        <ele>756</ele>
        <time>2020-10-27T09:31:31+01:00</time>
      </trkpt>
      <trkpt lat="45.00676" lon="6.06506">
        <ele>755</ele>
        <time>2020-10-27T09:31:36+01:00</time>
      </trkpt>
      <trkpt lat="45.00777" lon="6.06362">
        <ele>752</ele>
        <time>2020-10-27T09:31:41+01:00</time>
      </trkpt>
      <trkpt lat="45.00881" lon="6.06321">
        <ele>752</ele>
        <time>2020-10-27T09:31:46+01:00</time>
      </trkpt>
      <trkpt lat="45.00946" lon="6.0622">
        <ele>756</ele>
        <time>2020-10-27T09:31:51+01:00</time>
      </trkpt>
      <trkpt lat="45.00981" lon="6.06175">
        <ele>756</ele>
        <time>2020-10-27T09:31:56+01:00</time>
      </trkpt>
      <trkpt lat="45.01235" lon="6.06025">
        <ele>748</ele>
        <time>2020-10-27T09:32:01+01:00</time>
      </trkpt>
      <trkpt lat="45.01292" lon="6.06019">
        <ele>746</ele>
        <time>2020-10-27T09:32:06+01:00</time>
      </trkpt>
      <trkpt lat="45.01405" lon="6.05961">
        <ele>746</ele>
        <time>2020-10-27T09:32:11+01:00</time>
      </trkpt>
      <trkpt lat="45.01423" lon="6.05916">
        <ele>747</ele>
        <time>2020-10-27T09:32:16+01:00</time>
      </trkpt>
      <trkpt lat="45.01406" lon="6.05825">
        <ele>749</ele>
        <time>2020-10-27T09:32:21+01:00</time>
      </trkpt>
      <trkpt lat="45.0142" lon="6.05765">
        <ele>752</ele>
        <time>2020-10-27T09:32:26+01:00</time>
      </trkpt>
      <trkpt lat="45.01482" lon="6.05744">
        <ele>754</ele>
        <time>2020-10-27T09:32:31+01:00</time>
      </trkpt>
      <trkpt lat="45.01514" lon="6.05677">
        <ele>757</ele>
        <time>2020-10-27T09:32:36+01:00</time>
      </trkpt>
      <trkpt lat="45.01527" lon="6.05613">
        <ele>759</ele>
        <time>2020-10-27T09:32:41+01:00</time>
      </trkpt>
      <trkpt lat="45.01582" lon="6.05589">
        <ele>763</ele>
        <time>2020-10-27T09:32:46+01:00</time>
      </trkpt>
      <trkpt lat="45.01615" lon="6.05553">
        <ele>772</ele>
        <time>2020-10-27T09:32:51+01:00</time>
      </trkpt>
      <trkpt lat="45.01649" lon="6.05579">
        <ele>770</ele>
        <time>2020-10-27T09:32:56+01:00</time>
      </trkpt>
      <trkpt lat="45.01678" lon="6.05544">
        <ele>786</ele>
        <time>2020-10-27T09:33:01+01:00</time>
      </trkpt>
      <trkpt lat="45.01699" lon="6.05585">
        <ele>767</ele>
        <time>2020-10-27T09:33:06+01:00</time>
      </trkpt>
      <trkpt lat="45.01781" lon="6.05583">
        <ele>765</ele>
        <time>2020-10-27T09:33:11+01:00</time>
      </trkpt>
      <trkpt lat="45.01825" lon="6.05592">
        <ele>756</ele>
        <time>2020-10-27T09:33:16+01:00</time>
      </trkpt>
      <trkpt lat="45.01881" lon="6.05572">
        <ele>758</ele>
        <time>2020-10-27T09:33:21+01:00</time>
      </trkpt>
      <trkpt lat="45.01958" lon="6.05592">
        <ele>747</ele>
        <time>2020-10-27T09:33:26+01:00</time>
      </trkpt>
      <trkpt lat="45.01955" lon="6.05725">
        <ele>740</ele>
        <time>2020-10-27T09:33:31+01:00</time>
      </trkpt>
      <trkpt lat="45.01928" lon="6.05806">
        <ele>740</ele>
        <time>2020-10-27T09:33:36+01:00</time>
      </trkpt>
      <trkpt lat="45.01993" lon="6.0583">
        <ele>739</ele>
        <time>2020-10-27T09:33:41+01:00</time>
      </trkpt>
      <trkpt lat="45.02061" lon="6.058">
        <ele>739</ele>
        <time>2020-10-27T09:33:46+01:00</time>
      </trkpt>
      <trkpt lat="45.02101" lon="6.05802">
        <ele>739</ele>
        <time>2020-10-27T09:33:51+01:00</time>
      </trkpt>
      <trkpt lat="45.02213" lon="6.05731">
        <ele>738</ele>
        <time>2020-10-27T09:33:56+01:00</time>
      </trkpt>
      <trkpt lat="45.0226" lon="6.05667">
        <ele>738</ele>
        <time>2020-10-27T09:34:01+01:00</time>
      </trkpt>
      <trkpt lat="45.02271" lon="6.05557">
        <ele>738</ele>
        <time>2020-10-27T09:34:06+01:00</time>
      </trkpt>
      <trkpt lat="45.02322" lon="6.05516">
        <ele>737</ele>
        <time>2020-10-27T09:34:11+01:00</time>
      </trkpt>
      <trkpt lat="45.02416" lon="6.05373">
        <ele>737</ele>
        <time>2020-10-27T09:34:16+01:00</time>
      </trkpt>
      <trkpt lat="45.02475" lon="6.05332">
        <ele>737</ele>
        <time>2020-10-27T09:34:21+01:00</time>
      </trkpt>
      <trkpt lat="45.02568" lon="6.05201">
        <ele>737</ele>
        <time>2020-10-27T09:34:26+01:00</time>
      </trkpt>
      <trkpt lat="45.0265" lon="6.05214">
        <ele>734</ele>
        <time>2020-10-27T09:34:31+01:00</time>
      </trkpt>
      <trkpt lat="45.02715" lon="6.05158">
        <ele>732</ele>
        <time>2020-10-27T09:34:36+01:00</time>
      </trkpt>
      <trkpt lat="45.0278" lon="6.05089">
        <ele>730</ele>
        <time>2020-10-27T09:34:41+01:00</time>
      </trkpt>
      <trkpt lat="45.02867" lon="6.05038">
        <ele>730</ele>
        <time>2020-10-27T09:34:46+01:00</time>
      </trkpt>
      <trkpt lat="45.03034" lon="6.04875">
        <ele>730</ele>
        <time>2020-10-27T09:34:51+01:00</time>
      </trkpt>
      <trkpt lat="45.03125" lon="6.04815">
        <ele>728</ele>
        <time>2020-10-27T09:34:56+01:00</time>
      </trkpt>
      <trkpt lat="45.03201" lon="6.04665">
        <ele>731</ele>
        <time>2020-10-27T09:35:01+01:00</time>
      </trkpt>
      <trkpt lat="45.03228" lon="6.04579">
        <ele>733</ele>
        <time>2020-10-27T09:35:06+01:00</time>
      </trkpt>
      <trkpt lat="45.03347" lon="6.0451">
        <ele>732</ele>
        <time>2020-10-27T09:35:11+01:00</time>
      </trkpt>
      <trkpt lat="45.03432" lon="6.0451">
        <ele>728</ele>
        <time>2020-10-27T09:35:16+01:00</time>
      </trkpt>
      <trkpt lat="45.03532" lon="6.04407">
        <ele>720</ele>
        <time>2020-10-27T09:35:21+01:00</time>
      </trkpt>
      <trkpt lat="45.03571" lon="6.04248">
        <ele>721</ele>
        <time>2020-10-27T09:35:26+01:00</time>
      </trkpt>
      <trkpt lat="45.03711" lon="6.04154">
        <ele>720</ele>
        <time>2020-10-27T09:35:31+01:00</time>
      </trkpt>
      <trkpt lat="45.03817" lon="6.04029">
        <ele>720</ele>
        <time>2020-10-27T09:35:36+01:00</time>
      </trkpt>
      <trkpt lat="45.03926" lon="6.03759">
        <ele>720</ele>
        <time>2020-10-27T09:35:41+01:00</time>
      </trkpt>
      <trkpt lat="45.03932" lon="6.03708">
        <ele>724</ele>
        <time>2020-10-27T09:35:46+01:00</time>
      </trkpt>
      <trkpt lat="45.0398" lon="6.03635">
        <ele>722</ele>
        <time>2020-10-27T09:35:51+01:00</time>
      </trkpt>
      <trkpt lat="45.03996" lon="6.03493">
        <ele>740</ele>
        <time>2020-10-27T09:35:56+01:00</time>
      </trkpt>
      <trkpt lat="45.04117" lon="6.03416">
        <ele>724</ele>
        <time>2020-10-27T09:36:01+01:00</time>
      </trkpt>
      <trkpt lat="45.04262" lon="6.03394">
        <ele>727</ele>
        <time>2020-10-27T09:36:06+01:00</time>
      </trkpt>
      <trkpt lat="45.04317" lon="6.03356">
        <ele>732</ele>
        <time>2020-10-27T09:36:11+01:00</time>
      </trkpt>
      <trkpt lat="45.04364" lon="6.03356">
        <ele>732</ele>
        <time>2020-10-27T09:36:16+01:00</time>
      </trkpt>
      <trkpt lat="45.04504" lon="6.0325">
        <ele>727</ele>
        <time>2020-10-27T09:36:21+01:00</time>
      </trkpt>
      <trkpt lat="45.04601" lon="6.03092">
        <ele>723</ele>
        <time>2020-10-27T09:36:26+01:00</time>
      </trkpt>
      <trkpt lat="45.04669" lon="6.02991">
        <ele>727</ele>
        <time>2020-10-27T09:36:31+01:00</time>
      </trkpt>
      <trkpt lat="45.04784" lon="6.02911">
        <ele>725</ele>
        <time>2020-10-27T09:36:36+01:00</time>
      </trkpt>
      <trkpt lat="45.04855" lon="6.02832">
        <ele>723</ele>
        <time>2020-10-27T09:36:41+01:00</time>
      </trkpt>
      <trkpt lat="45.04901" lon="6.02766">
        <ele>725</ele>
        <time>2020-10-27T09:36:46+01:00</time>
      </trkpt>
      <trkpt lat="45.04949" lon="6.02796">
        <ele>723</ele>
        <time>2020-10-27T09:36:51+01:00</time>
      </trkpt>
      <trkpt lat="45.05054" lon="6.02907">
        <ele>720</ele>
        <time>2020-10-27T09:36:56+01:00</time>
      </trkpt>
      <trkpt lat="45.05177" lon="6.02959">
        <ele>720</ele>
        <time>2020-10-27T09:37:01+01:00</time>
      </trkpt>
      <trkpt lat="45.05249" lon="6.02952">
        <ele>721</ele>
        <time>2020-10-27T09:37:06+01:00</time>
      </trkpt>
      <trkpt lat="45.05409" lon="6.02896">
        <ele>720</ele>
        <time>2020-10-27T09:37:11+01:00</time>
      </trkpt>
      <trkpt lat="45.05446" lon="6.03105">
        <ele>719</ele>
        <time>2020-10-27T09:37:16+01:00</time>
      </trkpt>
      <trkpt lat="45.05477" lon="6.03186">
        <ele>719</ele>
        <time>2020-10-27T09:37:21+01:00</time>
      </trkpt>
    </trkseg>
  </trk>
  <trk>
    <name><![CDATA[E5 Vallouise-Refuge Pré de la Chaumette]]></name>
    <trkseg>
      <trkpt lat="44.8396" lon="6.47901">
        <ele>1217</ele>
        <time>2016-09-01T07:20:58+02:00</time>
      </trkpt>
      <trkpt lat="44.83975" lon="6.47877">
        <ele>1177</ele>
        <time>2016-09-01T07:23:07+02:00</time>
      </trkpt>
      <trkpt lat="44.83978" lon="6.47845">
        <ele>1172</ele>
        <time>2016-09-01T07:23:26+02:00</time>
      </trkpt>
      <trkpt lat="44.83973" lon="6.47814">
        <ele>1175</ele>
        <time>2016-09-01T07:23:44+02:00</time>
      </trkpt>
      <trkpt lat="44.83958" lon="6.4779">
        <ele>1181</ele>
        <time>2016-09-01T07:24:01+02:00</time>
      </trkpt>
      <trkpt lat="44.83938" lon="6.47773">
        <ele>1185</ele>
        <time>2016-09-01T07:24:22+02:00</time>
      </trkpt>
      <trkpt lat="44.83926" lon="6.47746">
        <ele>1185</ele>
        <time>2016-09-01T07:24:44+02:00</time>
      </trkpt>
      <trkpt lat="44.83927" lon="6.47714">
        <ele>1186</ele>
        <time>2016-09-01T07:25:03+02:00</time>
      </trkpt>
      <trkpt lat="44.83919" lon="6.47683">
        <ele>1187</ele>
        <time>2016-09-01T07:25:21+02:00</time>
      </trkpt>
      <trkpt lat="44.83916" lon="6.47651">
        <ele>1185</ele>
        <time>2016-09-01T07:25:40+02:00</time>
      </trkpt>
      <trkpt lat="44.83915" lon="6.47618">
        <ele>1185</ele>
        <time>2016-09-01T07:26:00+02:00</time>
      </trkpt>
      <trkpt lat="44.83914" lon="6.47585">
        <ele>1184</ele>
        <time>2016-09-01T07:26:19+02:00</time>
      </trkpt>
      <trkpt lat="44.83907" lon="6.47555">
        <ele>1187</ele>
        <time>2016-09-01T07:26:34+02:00</time>
      </trkpt>
      <trkpt lat="44.83903" lon="6.47524">
        <ele>1191</ele>
        <time>2016-09-01T07:26:51+02:00</time>
      </trkpt>
      <trkpt lat="44.83904" lon="6.47492">
        <ele>1192</ele>
        <time>2016-09-01T07:27:09+02:00</time>
      </trkpt>
      <trkpt lat="44.83895" lon="6.47462">
        <ele>1188</ele>
        <time>2016-09-01T07:27:28+02:00</time>
      </trkpt>
      <trkpt lat="44.83895" lon="6.4743">
        <ele>1189</ele>
        <time>2016-09-01T07:27:47+02:00</time>
      </trkpt>
      <trkpt lat="44.83892" lon="6.47398">
        <ele>1192</ele>
        <time>2016-09-01T07:28:03+02:00</time>
      </trkpt>
      <trkpt lat="44.83895" lon="6.47367">
        <ele>1195</ele>
        <time>2016-09-01T07:28:19+02:00</time>
      </trkpt>
      <trkpt lat="44.83891" lon="6.47336">
        <ele>1196</ele>
        <time>2016-09-01T07:28:35+02:00</time>
      </trkpt>
      <trkpt lat="44.839" lon="6.47305">
        <ele>1197</ele>
        <time>2016-09-01T07:28:51+02:00</time>
      </trkpt>
      <trkpt lat="44.83902" lon="6.47272">
        <ele>1197</ele>
        <time>2016-09-01T07:29:09+02:00</time>
      </trkpt>
      <trkpt lat="44.83903" lon="6.4724">
        <ele>1197</ele>
        <time>2016-09-01T07:29:26+02:00</time>
      </trkpt>
      <trkpt lat="44.83899" lon="6.47208">
        <ele>1197</ele>
        <time>2016-09-01T07:29:44+02:00</time>
      </trkpt>
      <trkpt lat="44.83902" lon="6.47176">
        <ele>1201</ele>
        <time>2016-09-01T07:30:02+02:00</time>
      </trkpt>
      <trkpt lat="44.83908" lon="6.47145">
        <ele>1201</ele>
        <time>2016-09-01T07:30:21+02:00</time>
      </trkpt>
      <trkpt lat="44.83912" lon="6.47112">
        <ele>1202</ele>
        <time>2016-09-01T07:30:39+02:00</time>
      </trkpt>
      <trkpt lat="44.83911" lon="6.4708">
        <ele>1202</ele>
        <time>2016-09-01T07:30:56+02:00</time>
      </trkpt>
      <trkpt lat="44.83905" lon="6.47048">
        <ele>1200</ele>
        <time>2016-09-01T07:31:16+02:00</time>
      </trkpt>
      <trkpt lat="44.83901" lon="6.47015">
        <ele>1199</ele>
        <time>2016-09-01T07:31:47+02:00</time>
      </trkpt>
      <trkpt lat="44.83905" lon="6.46984">
        <ele>1201</ele>
        <time>2016-09-01T07:32:04+02:00</time>
      </trkpt>
      <trkpt lat="44.83904" lon="6.46951">
        <ele>1203</ele>
        <time>2016-09-01T07:32:22+02:00</time>
      </trkpt>
      <trkpt lat="44.83897" lon="6.46921">
        <ele>1204</ele>
        <time>2016-09-01T07:32:40+02:00</time>
      </trkpt>
      <trkpt lat="44.83886" lon="6.46891">
        <ele>1204</ele>
        <time>2016-09-01T07:32:57+02:00</time>
      </trkpt>
      <trkpt lat="44.83886" lon="6.46859">
        <ele>1206</ele>
        <time>2016-09-01T07:33:16+02:00</time>
      </trkpt>
      <trkpt lat="44.8388" lon="6.46829">
        <ele>1204</ele>
        <time>2016-09-01T07:33:35+02:00</time>
      </trkpt>
      <trkpt lat="44.83878" lon="6.46796">
        <ele>1204</ele>
        <time>2016-09-01T07:33:56+02:00</time>
      </trkpt>
      <trkpt lat="44.83874" lon="6.46765">
        <ele>1206</ele>
        <time>2016-09-01T07:34:14+02:00</time>
      </trkpt>
      <trkpt lat="44.83859" lon="6.4674">
        <ele>1206</ele>
        <time>2016-09-01T07:34:30+02:00</time>
      </trkpt>
      <trkpt lat="44.83849" lon="6.46711">
        <ele>1204</ele>
        <time>2016-09-01T07:34:51+02:00</time>
      </trkpt>
      <trkpt lat="44.83837" lon="6.46684">
        <ele>1206</ele>
        <time>2016-09-01T07:35:11+02:00</time>
      </trkpt>
      <trkpt lat="44.83826" lon="6.46655">
        <ele>1212</ele>
        <time>2016-09-01T07:35:32+02:00</time>
      </trkpt>
      <trkpt lat="44.83812" lon="6.4663">
        <ele>1212</ele>
        <time>2016-09-01T07:36:00+02:00</time>
      </trkpt>
      <trkpt lat="44.83797" lon="6.46606">
        <ele>1212</ele>
        <time>2016-09-01T07:36:24+02:00</time>
      </trkpt>
      <trkpt lat="44.83786" lon="6.46578">
        <ele>1215</ele>
        <time>2016-09-01T07:36:47+02:00</time>
      </trkpt>
      <trkpt lat="44.83779" lon="6.46547">
        <ele>1216</ele>
        <time>2016-09-01T07:37:10+02:00</time>
      </trkpt>
      <trkpt lat="44.83783" lon="6.46516">
        <ele>1225</ele>
        <time>2016-09-01T07:39:23+02:00</time>
      </trkpt>
      <trkpt lat="44.8379" lon="6.46485">
        <ele>1231</ele>
        <time>2016-09-01T07:39:44+02:00</time>
      </trkpt>
      <trkpt lat="44.83803" lon="6.46458">
        <ele>1231</ele>
        <time>2016-09-01T07:40:02+02:00</time>
      </trkpt>
      <trkpt lat="44.83811" lon="6.46428">
        <ele>1231</ele>
        <time>2016-09-01T07:40:20+02:00</time>
      </trkpt>
      <trkpt lat="44.83827" lon="6.46405">
        <ele>1237</ele>
        <time>2016-09-01T07:40:38+02:00</time>
      </trkpt>
      <trkpt lat="44.83842" lon="6.4638">
        <ele>1233</ele>
        <time>2016-09-01T07:40:55+02:00</time>
      </trkpt>
      <trkpt lat="44.83847" lon="6.46348">
        <ele>1227</ele>
        <time>2016-09-01T07:41:15+02:00</time>
      </trkpt>
      <trkpt lat="44.83848" lon="6.46315">
        <ele>1225</ele>
        <time>2016-09-01T07:41:34+02:00</time>
      </trkpt>
      <trkpt lat="44.83851" lon="6.46283">
        <ele>1224</ele>
        <time>2016-09-01T07:41:51+02:00</time>
      </trkpt>
      <trkpt lat="44.83863" lon="6.46255">
        <ele>1225</ele>
        <time>2016-09-01T07:42:05+02:00</time>
      </trkpt>
      <trkpt lat="44.83871" lon="6.46224">
        <ele>1224</ele>
        <time>2016-09-01T07:42:23+02:00</time>
      </trkpt>
      <trkpt lat="44.83874" lon="6.46192">
        <ele>1222</ele>
        <time>2016-09-01T07:42:41+02:00</time>
      </trkpt>
      <trkpt lat="44.83879" lon="6.4616">
        <ele>1222</ele>
        <time>2016-09-01T07:43:00+02:00</time>
      </trkpt>
      <trkpt lat="44.83891" lon="6.46133">
        <ele>1220</ele>
        <time>2016-09-01T07:43:16+02:00</time>
      </trkpt>
      <trkpt lat="44.83885" lon="6.46102">
        <ele>1217</ele>
        <time>2016-09-01T07:43:41+02:00</time>
      </trkpt>
      <trkpt lat="44.83879" lon="6.46071">
        <ele>1216</ele>
        <time>2016-09-01T07:43:59+02:00</time>
      </trkpt>
      <trkpt lat="44.83875" lon="6.46038">
        <ele>1220</ele>
        <time>2016-09-01T07:44:17+02:00</time>
      </trkpt>
      <trkpt lat="44.83878" lon="6.46006">
        <ele>1220</ele>
        <time>2016-09-01T07:44:35+02:00</time>
      </trkpt>
      <trkpt lat="44.83883" lon="6.45974">
        <ele>1221</ele>
        <time>2016-09-01T07:44:52+02:00</time>
      </trkpt>
      <trkpt lat="44.83882" lon="6.45942">
        <ele>1222</ele>
        <time>2016-09-01T07:45:14+02:00</time>
      </trkpt>
      <trkpt lat="44.83893" lon="6.45913">
        <ele>1223</ele>
        <time>2016-09-01T07:45:30+02:00</time>
      </trkpt>
      <trkpt lat="44.83902" lon="6.45884">
        <ele>1221</ele>
        <time>2016-09-01T07:45:51+02:00</time>
      </trkpt>
      <trkpt lat="44.8391" lon="6.45854">
        <ele>1229</ele>
        <time>2016-09-01T07:46:37+02:00</time>
      </trkpt>
      <trkpt lat="44.83918" lon="6.45824">
        <ele>1229</ele>
        <time>2016-09-01T07:46:53+02:00</time>
      </trkpt>
      <trkpt lat="44.83922" lon="6.45792">
        <ele>1230</ele>
        <time>2016-09-01T07:47:12+02:00</time>
      </trkpt>
      <trkpt lat="44.83917" lon="6.4576">
        <ele>1230</ele>
        <time>2016-09-01T07:47:32+02:00</time>
      </trkpt>
      <trkpt lat="44.83925" lon="6.45729">
        <ele>1230</ele>
        <time>2016-09-01T07:47:51+02:00</time>
      </trkpt>
      <trkpt lat="44.83926" lon="6.45697">
        <ele>1230</ele>
        <time>2016-09-01T07:48:08+02:00</time>
      </trkpt>
      <trkpt lat="44.83919" lon="6.45667">
        <ele>1231</ele>
        <time>2016-09-01T07:48:27+02:00</time>
      </trkpt>
      <trkpt lat="44.83907" lon="6.45639">
        <ele>1230</ele>
        <time>2016-09-01T07:49:01+02:00</time>
      </trkpt>
      <trkpt lat="44.83899" lon="6.45609">
        <ele>1231</ele>
        <time>2016-09-01T07:49:30+02:00</time>
      </trkpt>
      <trkpt lat="44.83904" lon="6.45577">
        <ele>1232</ele>
        <time>2016-09-01T07:49:48+02:00</time>
      </trkpt>
      <trkpt lat="44.83907" lon="6.45545">
        <ele>1232</ele>
        <time>2016-09-01T07:50:06+02:00</time>
      </trkpt>
      <trkpt lat="44.8392" lon="6.45517">
        <ele>1236</ele>
        <time>2016-09-01T07:50:54+02:00</time>
      </trkpt>
      <trkpt lat="44.83931" lon="6.45488">
        <ele>1239</ele>
        <time>2016-09-01T07:51:14+02:00</time>
      </trkpt>
      <trkpt lat="44.83939" lon="6.45459">
        <ele>1237</ele>
        <time>2016-09-01T07:51:32+02:00</time>
      </trkpt>
      <trkpt lat="44.83949" lon="6.45429">
        <ele>1238</ele>
        <time>2016-09-01T07:51:50+02:00</time>
      </trkpt>
      <trkpt lat="44.83951" lon="6.45397">
        <ele>1239</ele>
        <time>2016-09-01T07:52:10+02:00</time>
      </trkpt>
      <trkpt lat="44.83945" lon="6.45365">
        <ele>1242</ele>
        <time>2016-09-01T07:52:30+02:00</time>
      </trkpt>
      <trkpt lat="44.83934" lon="6.45336">
        <ele>1248</ele>
        <time>2016-09-01T07:52:53+02:00</time>
      </trkpt>
      <trkpt lat="44.83932" lon="6.45303">
        <ele>1252</ele>
        <time>2016-09-01T07:53:20+02:00</time>
      </trkpt>
      <trkpt lat="44.83924" lon="6.45273">
        <ele>1252</ele>
        <time>2016-09-01T07:53:45+02:00</time>
      </trkpt>
      <trkpt lat="44.83921" lon="6.45241">
        <ele>1254</ele>
        <time>2016-09-01T07:54:02+02:00</time>
      </trkpt>
      <trkpt lat="44.83921" lon="6.45208">
        <ele>1255</ele>
        <time>2016-09-01T07:54:19+02:00</time>
      </trkpt>
      <trkpt lat="44.83919" lon="6.45176">
        <ele>1259</ele>
        <time>2016-09-01T07:54:38+02:00</time>
      </trkpt>
      <trkpt lat="44.8391" lon="6.45147">
        <ele>1260</ele>
        <time>2016-09-01T07:54:59+02:00</time>
      </trkpt>
      <trkpt lat="44.83899" lon="6.45119">
        <ele>1261</ele>
        <time>2016-09-01T07:55:22+02:00</time>
      </trkpt>
      <trkpt lat="44.83887" lon="6.45092">
        <ele>1266</ele>
        <time>2016-09-01T07:55:44+02:00</time>
      </trkpt>
      <trkpt lat="44.83883" lon="6.45061">
        <ele>1263</ele>
        <time>2016-09-01T07:56:04+02:00</time>
      </trkpt>
      <trkpt lat="44.83876" lon="6.4503">
        <ele>1262</ele>
        <time>2016-09-01T07:56:29+02:00</time>
      </trkpt>
      <trkpt lat="44.83866" lon="6.45">
        <ele>1267</ele>
        <time>2016-09-01T07:56:49+02:00</time>
      </trkpt>
      <trkpt lat="44.83852" lon="6.44975">
        <ele>1270</ele>
        <time>2016-09-01T07:57:33+02:00</time>
      </trkpt>
      <trkpt lat="44.8383" lon="6.44965">
        <ele>1273</ele>
        <time>2016-09-01T07:58:01+02:00</time>
      </trkpt>
      <trkpt lat="44.83819" lon="6.44937">
        <ele>1276</ele>
        <time>2016-09-01T07:58:28+02:00</time>
      </trkpt>
      <trkpt lat="44.83814" lon="6.44905">
        <ele>1275</ele>
        <time>2016-09-01T07:58:52+02:00</time>
      </trkpt>
      <trkpt lat="44.83795" lon="6.44886">
        <ele>1278</ele>
        <time>2016-09-01T07:59:23+02:00</time>
      </trkpt>
      <trkpt lat="44.83787" lon="6.44856">
        <ele>1279</ele>
        <time>2016-09-01T07:59:46+02:00</time>
      </trkpt>
      <trkpt lat="44.83774" lon="6.4483">
        <ele>1280</ele>
        <time>2016-09-01T08:00:26+02:00</time>
      </trkpt>
      <trkpt lat="44.83757" lon="6.44807">
        <ele>1281</ele>
        <time>2016-09-01T08:00:49+02:00</time>
      </trkpt>
      <trkpt lat="44.83743" lon="6.44782">
        <ele>1282</ele>
        <time>2016-09-01T08:01:06+02:00</time>
      </trkpt>
      <trkpt lat="44.83728" lon="6.44756">
        <ele>1282</ele>
        <time>2016-09-01T08:01:24+02:00</time>
      </trkpt>
      <trkpt lat="44.83715" lon="6.44729">
        <ele>1282</ele>
        <time>2016-09-01T08:02:43+02:00</time>
      </trkpt>
      <trkpt lat="44.83698" lon="6.44706">
        <ele>1282</ele>
        <time>2016-09-01T08:04:09+02:00</time>
      </trkpt>
      <trkpt lat="44.83688" lon="6.44677">
        <ele>1284</ele>
        <time>2016-09-01T08:04:29+02:00</time>
      </trkpt>
      <trkpt lat="44.83675" lon="6.44649">
        <ele>1284</ele>
        <time>2016-09-01T08:04:56+02:00</time>
      </trkpt>
      <trkpt lat="44.83663" lon="6.44621">
        <ele>1285</ele>
        <time>2016-09-01T08:05:12+02:00</time>
      </trkpt>
      <trkpt lat="44.8366" lon="6.44589">
        <ele>1284</ele>
        <time>2016-09-01T08:05:31+02:00</time>
      </trkpt>
      <trkpt lat="44.83655" lon="6.44557">
        <ele>1283</ele>
        <time>2016-09-01T08:05:52+02:00</time>
      </trkpt>
      <trkpt lat="44.8364" lon="6.44533">
        <ele>1283</ele>
        <time>2016-09-01T08:06:12+02:00</time>
      </trkpt>
      <trkpt lat="44.83635" lon="6.44501">
        <ele>1283</ele>
        <time>2016-09-01T08:06:29+02:00</time>
      </trkpt>
      <trkpt lat="44.83634" lon="6.44469">
        <ele>1284</ele>
        <time>2016-09-01T08:06:47+02:00</time>
      </trkpt>
      <trkpt lat="44.83631" lon="6.44436">
        <ele>1284</ele>
        <time>2016-09-01T08:07:12+02:00</time>
      </trkpt>
      <trkpt lat="44.83638" lon="6.44405">
        <ele>1284</ele>
        <time>2016-09-01T08:07:33+02:00</time>
      </trkpt>
      <trkpt lat="44.83644" lon="6.44374">
        <ele>1284</ele>
        <time>2016-09-01T08:07:52+02:00</time>
      </trkpt>
      <trkpt lat="44.83654" lon="6.44345">
        <ele>1284</ele>
        <time>2016-09-01T08:08:23+02:00</time>
      </trkpt>
      <trkpt lat="44.83654" lon="6.44312">
        <ele>1285</ele>
        <time>2016-09-01T08:08:45+02:00</time>
      </trkpt>
      <trkpt lat="44.83641" lon="6.44286">
        <ele>1285</ele>
        <time>2016-09-01T08:09:05+02:00</time>
      </trkpt>
      <trkpt lat="44.83632" lon="6.44255">
        <ele>1285</ele>
        <time>2016-09-01T08:09:25+02:00</time>
      </trkpt>
      <trkpt lat="44.83638" lon="6.44253">
        <ele>1280</ele>
        <time>2016-09-01T08:25:49+02:00</time>
      </trkpt>
      <trkpt lat="44.8366" lon="6.44245">
        <ele>1277</ele>
        <time>2016-09-01T08:26:42+02:00</time>
      </trkpt>
      <trkpt lat="44.83671" lon="6.44274">
        <ele>1274</ele>
        <time>2016-09-01T08:28:21+02:00</time>
      </trkpt>
      <trkpt lat="44.83691" lon="6.44257">
        <ele>1276</ele>
        <time>2016-09-01T08:38:21+02:00</time>
      </trkpt>
      <trkpt lat="44.83696" lon="6.44287">
        <ele>1274</ele>
        <time>2016-09-01T08:43:47+02:00</time>
      </trkpt>
      <trkpt lat="44.83698" lon="6.44318">
        <ele>1273</ele>
        <time>2016-09-01T08:44:03+02:00</time>
      </trkpt>
      <trkpt lat="44.83702" lon="6.44349">
        <ele>1273</ele>
        <time>2016-09-01T08:44:22+02:00</time>
      </trkpt>
      <trkpt lat="44.83701" lon="6.44386">
        <ele>1272</ele>
        <time>2016-09-01T08:44:52+02:00</time>
      </trkpt>
      <trkpt lat="44.83709" lon="6.44418">
        <ele>1271</ele>
        <time>2016-09-01T08:45:32+02:00</time>
      </trkpt>
      <trkpt lat="44.83752" lon="6.44441">
        <ele>1277</ele>
        <time>2016-09-01T08:46:31+02:00</time>
      </trkpt>
      <trkpt lat="44.83774" lon="6.44448">
        <ele>1278</ele>
        <time>2016-09-01T08:46:48+02:00</time>
      </trkpt>
      <trkpt lat="44.83796" lon="6.44443">
        <ele>1285</ele>
        <time>2016-09-01T08:47:10+02:00</time>
      </trkpt>
      <trkpt lat="44.83813" lon="6.44465">
        <ele>1283</ele>
        <time>2016-09-01T08:47:36+02:00</time>
      </trkpt>
      <trkpt lat="44.83833" lon="6.44481">
        <ele>1282</ele>
        <time>2016-09-01T08:47:51+02:00</time>
      </trkpt>
      <trkpt lat="44.83846" lon="6.44508">
        <ele>1281</ele>
        <time>2016-09-01T08:48:07+02:00</time>
      </trkpt>
      <trkpt lat="44.83858" lon="6.44535">
        <ele>1281</ele>
        <time>2016-09-01T08:48:23+02:00</time>
      </trkpt>
      <trkpt lat="44.83869" lon="6.44564">
        <ele>1280</ele>
        <time>2016-09-01T08:48:43+02:00</time>
      </trkpt>
      <trkpt lat="44.83873" lon="6.44547">
        <ele>1301</ele>
        <time>2020-10-27T09:28:29+01:00</time>
      </trkpt>
      <trkpt lat="44.83863" lon="6.44508">
        <ele>1304</ele>
        <time>2020-10-27T09:28:34+01:00</time>
      </trkpt>
      <trkpt lat="44.83856" lon="6.4447">
        <ele>1309</ele>
        <time>2020-10-27T09:28:39+01:00</time>
      </trkpt>
      <trkpt lat="44.83829" lon="6.44426">
        <ele>1306</ele>
        <time>2020-10-27T09:28:44+01:00</time>
      </trkpt>
      <trkpt lat="44.83801" lon="6.44379">
        <ele>1310</ele>
        <time>2020-10-27T09:28:49+01:00</time>
      </trkpt>
      <trkpt lat="44.83782" lon="6.44327">
        <ele>1314</ele>
        <time>2020-10-27T09:28:54+01:00</time>
      </trkpt>
      <trkpt lat="44.83777" lon="6.44265">
        <ele>1323</ele>
        <time>2016-09-01T08:57:43+02:00</time>
      </trkpt>
      <trkpt lat="44.83769" lon="6.4422">
        <ele>1315</ele>
        <time>2016-09-01T08:58:24+02:00</time>
      </trkpt>
      <trkpt lat="44.8377" lon="6.44188">
        <ele>1318</ele>
        <time>2016-09-01T08:58:45+02:00</time>
      </trkpt>
      <trkpt lat="44.83765" lon="6.44157">
        <ele>1319</ele>
        <time>2016-09-01T08:59:09+02:00</time>
      </trkpt>
      <trkpt lat="44.83754" lon="6.44128">
        <ele>1321</ele>
        <time>2016-09-01T08:59:30+02:00</time>
      </trkpt>
      <trkpt lat="44.83738" lon="6.44104">
        <ele>1324</ele>
        <time>2016-09-01T08:59:54+02:00</time>
      </trkpt>
      <trkpt lat="44.83726" lon="6.44077">
        <ele>1327</ele>
        <time>2016-09-01T09:00:19+02:00</time>
      </trkpt>
      <trkpt lat="44.8372" lon="6.44045">
        <ele>1330</ele>
        <time>2016-09-01T09:00:47+02:00</time>
      </trkpt>
      <trkpt lat="44.83704" lon="6.44023">
        <ele>1333</ele>
        <time>2016-09-01T09:01:11+02:00</time>
      </trkpt>
      <trkpt lat="44.83688" lon="6.44">
        <ele>1333</ele>
        <time>2016-09-01T09:01:33+02:00</time>
      </trkpt>
      <trkpt lat="44.83668" lon="6.43984">
        <ele>1336</ele>
        <time>2016-09-01T09:02:00+02:00</time>
      </trkpt>
      <trkpt lat="44.83648" lon="6.43965">
        <ele>1339</ele>
        <time>2016-09-01T09:02:24+02:00</time>
      </trkpt>
      <trkpt lat="44.83636" lon="6.43937">
        <ele>1341</ele>
        <time>2016-09-01T09:02:46+02:00</time>
      </trkpt>
      <trkpt lat="44.83619" lon="6.43915">
        <ele>1344</ele>
        <time>2016-09-01T09:10:19+02:00</time>
      </trkpt>
      <trkpt lat="44.83609" lon="6.43887">
        <ele>1347</ele>
        <time>2016-09-01T09:10:41+02:00</time>
      </trkpt>
      <trkpt lat="44.83602" lon="6.43856">
        <ele>1348</ele>
        <time>2016-09-01T09:11:03+02:00</time>
      </trkpt>
      <trkpt lat="44.83605" lon="6.43823">
        <ele>1350</ele>
        <time>2016-09-01T09:11:21+02:00</time>
      </trkpt>
      <trkpt lat="44.83612" lon="6.43792">
        <ele>1354</ele>
        <time>2016-09-01T09:11:55+02:00</time>
      </trkpt>
      <trkpt lat="44.83614" lon="6.4376">
        <ele>1357</ele>
        <time>2016-09-01T09:12:20+02:00</time>
      </trkpt>
      <trkpt lat="44.83617" lon="6.43728">
        <ele>1359</ele>
        <time>2016-09-01T09:12:44+02:00</time>
      </trkpt>
      <trkpt lat="44.8364" lon="6.43726">
        <ele>1367</ele>
        <time>2016-09-01T09:14:49+02:00</time>
      </trkpt>
      <trkpt lat="44.83638" lon="6.43694">
        <ele>1370</ele>
        <time>2016-09-01T09:15:12+02:00</time>
      </trkpt>
      <trkpt lat="44.83622" lon="6.43671">
        <ele>1373</ele>
        <time>2016-09-01T09:15:39+02:00</time>
      </trkpt>
      <trkpt lat="44.83608" lon="6.43645">
        <ele>1375</ele>
        <time>2016-09-01T09:16:04+02:00</time>
      </trkpt>
      <trkpt lat="44.83601" lon="6.43615">
        <ele>1378</ele>
        <time>2016-09-01T09:16:30+02:00</time>
      </trkpt>
      <trkpt lat="44.83587" lon="6.43589">
        <ele>1381</ele>
        <time>2016-09-01T09:16:52+02:00</time>
      </trkpt>
      <trkpt lat="44.8359" lon="6.43556">
        <ele>1384</ele>
        <time>2016-09-01T09:17:19+02:00</time>
      </trkpt>
      <trkpt lat="44.83585" lon="6.43525">
        <ele>1387</ele>
        <time>2016-09-01T09:18:36+02:00</time>
      </trkpt>
      <trkpt lat="44.83595" lon="6.43496">
        <ele>1390</ele>
        <time>2016-09-01T09:19:01+02:00</time>
      </trkpt>
      <trkpt lat="44.83582" lon="6.43468">
        <ele>1394</ele>
        <time>2016-09-01T09:19:34+02:00</time>
      </trkpt>
      <trkpt lat="44.83568" lon="6.43442">
        <ele>1397</ele>
        <time>2016-09-01T09:20:04+02:00</time>
      </trkpt>
      <trkpt lat="44.83578" lon="6.43413">
        <ele>1400</ele>
        <time>2016-09-01T09:20:29+02:00</time>
      </trkpt>
      <trkpt lat="44.83575" lon="6.43381">
        <ele>1403</ele>
        <time>2016-09-01T09:21:02+02:00</time>
      </trkpt>
      <trkpt lat="44.83553" lon="6.43373">
        <ele>1406</ele>
        <time>2016-09-01T09:21:26+02:00</time>
      </trkpt>
      <trkpt lat="44.83558" lon="6.43342">
        <ele>1410</ele>
        <time>2016-09-01T09:22:17+02:00</time>
      </trkpt>
      <trkpt lat="44.83579" lon="6.43355">
        <ele>1413</ele>
        <time>2016-09-01T09:22:59+02:00</time>
      </trkpt>
      <trkpt lat="44.8358" lon="6.43322">
        <ele>1419</ele>
        <time>2016-09-01T09:23:51+02:00</time>
      </trkpt>
      <trkpt lat="44.83568" lon="6.43294">
        <ele>1422</ele>
        <time>2016-09-01T09:24:24+02:00</time>
      </trkpt>
      <trkpt lat="44.83546" lon="6.4328">
        <ele>1425</ele>
        <time>2016-09-01T09:24:49+02:00</time>
      </trkpt>
      <trkpt lat="44.83546" lon="6.43248">
        <ele>1428</ele>
        <time>2016-09-01T09:26:19+02:00</time>
      </trkpt>
      <trkpt lat="44.83562" lon="6.43226">
        <ele>1433</ele>
        <time>2016-09-01T09:26:55+02:00</time>
      </trkpt>
      <trkpt lat="44.83568" lon="6.43195">
        <ele>1438</ele>
        <time>2016-09-01T09:27:35+02:00</time>
      </trkpt>
      <trkpt lat="44.83572" lon="6.43163">
        <ele>1443</ele>
        <time>2016-09-01T09:28:13+02:00</time>
      </trkpt>
      <trkpt lat="44.83577" lon="6.4313">
        <ele>1447</ele>
        <time>2016-09-01T09:28:42+02:00</time>
      </trkpt>
      <trkpt lat="44.83583" lon="6.43099">
        <ele>1448</ele>
        <time>2016-09-01T09:29:04+02:00</time>
      </trkpt>
      <trkpt lat="44.83593" lon="6.43069">
        <ele>1450</ele>
        <time>2016-09-01T09:29:33+02:00</time>
      </trkpt>
      <trkpt lat="44.83597" lon="6.43037">
        <ele>1452</ele>
        <time>2016-09-01T09:29:56+02:00</time>
      </trkpt>
      <trkpt lat="44.83579" lon="6.43018">
        <ele>1454</ele>
        <time>2016-09-01T09:30:15+02:00</time>
      </trkpt>
      <trkpt lat="44.83571" lon="6.42987">
        <ele>1457</ele>
        <time>2016-09-01T09:30:43+02:00</time>
      </trkpt>
      <trkpt lat="44.83552" lon="6.42969">
        <ele>1458</ele>
        <time>2016-09-01T09:31:07+02:00</time>
      </trkpt>
      <trkpt lat="44.83535" lon="6.42947">
        <ele>1460</ele>
        <time>2016-09-01T09:31:34+02:00</time>
      </trkpt>
      <trkpt lat="44.83526" lon="6.42917">
        <ele>1462</ele>
        <time>2016-09-01T09:32:15+02:00</time>
      </trkpt>
      <trkpt lat="44.83517" lon="6.42888">
        <ele>1465</ele>
        <time>2016-09-01T09:32:41+02:00</time>
      </trkpt>
      <trkpt lat="44.83509" lon="6.42857">
        <ele>1467</ele>
        <time>2016-09-01T09:33:04+02:00</time>
      </trkpt>
      <trkpt lat="44.83505" lon="6.42825">
        <ele>1469</ele>
        <time>2016-09-01T09:33:30+02:00</time>
      </trkpt>
      <trkpt lat="44.83502" lon="6.42794">
        <ele>1469</ele>
        <time>2016-09-01T09:33:51+02:00</time>
      </trkpt>
      <trkpt lat="44.835" lon="6.42762">
        <ele>1470</ele>
        <time>2016-09-01T09:34:07+02:00</time>
      </trkpt>
      <trkpt lat="44.83507" lon="6.4273">
        <ele>1471</ele>
        <time>2016-09-01T09:34:29+02:00</time>
      </trkpt>
      <trkpt lat="44.83523" lon="6.42708">
        <ele>1472</ele>
        <time>2016-09-01T09:34:47+02:00</time>
      </trkpt>
      <trkpt lat="44.83534" lon="6.42679">
        <ele>1474</ele>
        <time>2016-09-01T09:35:11+02:00</time>
      </trkpt>
      <trkpt lat="44.83529" lon="6.42648">
        <ele>1476</ele>
        <time>2016-09-01T09:35:31+02:00</time>
      </trkpt>
      <trkpt lat="44.83527" lon="6.42616">
        <ele>1477</ele>
        <time>2016-09-01T09:35:57+02:00</time>
      </trkpt>
      <trkpt lat="44.83517" lon="6.42587">
        <ele>1479</ele>
        <time>2016-09-01T09:36:18+02:00</time>
      </trkpt>
      <trkpt lat="44.83508" lon="6.42558">
        <ele>1480</ele>
        <time>2016-09-01T09:36:43+02:00</time>
      </trkpt>
      <trkpt lat="44.83488" lon="6.42541">
        <ele>1482</ele>
        <time>2016-09-01T09:37:18+02:00</time>
      </trkpt>
      <trkpt lat="44.83468" lon="6.42525">
        <ele>1483</ele>
        <time>2016-09-01T09:37:38+02:00</time>
      </trkpt>
      <trkpt lat="44.83449" lon="6.42507">
        <ele>1485</ele>
        <time>2016-09-01T09:38:02+02:00</time>
      </trkpt>
      <trkpt lat="44.83439" lon="6.42477">
        <ele>1487</ele>
        <time>2016-09-01T09:38:42+02:00</time>
      </trkpt>
      <trkpt lat="44.83428" lon="6.42449">
        <ele>1488</ele>
        <time>2016-09-01T09:39:03+02:00</time>
      </trkpt>
      <trkpt lat="44.83414" lon="6.42423">
        <ele>1490</ele>
        <time>2016-09-01T09:39:26+02:00</time>
      </trkpt>
      <trkpt lat="44.83409" lon="6.42391">
        <ele>1492</ele>
        <time>2016-09-01T09:39:51+02:00</time>
      </trkpt>
      <trkpt lat="44.83396" lon="6.42364">
        <ele>1493</ele>
        <time>2016-09-01T09:40:15+02:00</time>
      </trkpt>
      <trkpt lat="44.83396" lon="6.42333">
        <ele>1495</ele>
        <time>2016-09-01T09:40:39+02:00</time>
      </trkpt>
      <trkpt lat="44.83386" lon="6.42304">
        <ele>1497</ele>
        <time>2016-09-01T09:41:01+02:00</time>
      </trkpt>
      <trkpt lat="44.83381" lon="6.42271">
        <ele>1499</ele>
        <time>2016-09-01T09:41:25+02:00</time>
      </trkpt>
      <trkpt lat="44.83381" lon="6.42239">
        <ele>1501</ele>
        <time>2016-09-01T09:41:51+02:00</time>
      </trkpt>
      <trkpt lat="44.83381" lon="6.42208">
        <ele>1503</ele>
        <time>2016-09-01T09:42:16+02:00</time>
      </trkpt>
      <trkpt lat="44.83381" lon="6.42176">
        <ele>1505</ele>
        <time>2016-09-01T09:42:42+02:00</time>
      </trkpt>
      <trkpt lat="44.83374" lon="6.42145">
        <ele>1507</ele>
        <time>2016-09-01T09:43:09+02:00</time>
      </trkpt>
      <trkpt lat="44.83356" lon="6.42125">
        <ele>1509</ele>
        <time>2016-09-01T09:43:31+02:00</time>
      </trkpt>
      <trkpt lat="44.83338" lon="6.42105">
        <ele>1510</ele>
        <time>2016-09-01T09:43:52+02:00</time>
      </trkpt>
      <trkpt lat="44.83328" lon="6.42077">
        <ele>1512</ele>
        <time>2016-09-01T09:44:14+02:00</time>
      </trkpt>
      <trkpt lat="44.83314" lon="6.4205">
        <ele>1513</ele>
        <time>2016-09-01T09:44:38+02:00</time>
      </trkpt>
      <trkpt lat="44.8331" lon="6.42019">
        <ele>1514</ele>
        <time>2016-09-01T09:44:59+02:00</time>
      </trkpt>
      <trkpt lat="44.8331" lon="6.41987">
        <ele>1516</ele>
        <time>2016-09-01T09:45:20+02:00</time>
      </trkpt>
      <trkpt lat="44.83313" lon="6.41954">
        <ele>1517</ele>
        <time>2016-09-01T09:45:43+02:00</time>
      </trkpt>
      <trkpt lat="44.83315" lon="6.41922">
        <ele>1519</ele>
        <time>2016-09-01T09:46:04+02:00</time>
      </trkpt>
      <trkpt lat="44.83306" lon="6.41891">
        <ele>1520</ele>
        <time>2016-09-01T09:46:26+02:00</time>
      </trkpt>
      <trkpt lat="44.8329" lon="6.41868">
        <ele>1522</ele>
        <time>2016-09-01T09:46:46+02:00</time>
      </trkpt>
      <trkpt lat="44.83275" lon="6.41843">
        <ele>1523</ele>
        <time>2016-09-01T09:47:09+02:00</time>
      </trkpt>
      <trkpt lat="44.83261" lon="6.41817">
        <ele>1525</ele>
        <time>2016-09-01T09:47:34+02:00</time>
      </trkpt>
      <trkpt lat="44.83248" lon="6.41792">
        <ele>1526</ele>
        <time>2016-09-01T09:47:54+02:00</time>
      </trkpt>
      <trkpt lat="44.83248" lon="6.41759">
        <ele>1527</ele>
        <time>2016-09-01T09:48:40+02:00</time>
      </trkpt>
      <trkpt lat="44.83247" lon="6.41727">
        <ele>1528</ele>
        <time>2016-09-01T09:48:59+02:00</time>
      </trkpt>
      <trkpt lat="44.83252" lon="6.41696">
        <ele>1529</ele>
        <time>2016-09-01T09:49:17+02:00</time>
      </trkpt>
      <trkpt lat="44.83252" lon="6.41664">
        <ele>1530</ele>
        <time>2016-09-01T09:49:36+02:00</time>
      </trkpt>
      <trkpt lat="44.83261" lon="6.41634">
        <ele>1532</ele>
        <time>2016-09-01T09:49:58+02:00</time>
      </trkpt>
      <trkpt lat="44.83265" lon="6.41602">
        <ele>1534</ele>
        <time>2016-09-01T09:50:22+02:00</time>
      </trkpt>
      <trkpt lat="44.83274" lon="6.41572">
        <ele>1536</ele>
        <time>2016-09-01T09:50:48+02:00</time>
      </trkpt>
      <trkpt lat="44.83271" lon="6.4154">
        <ele>1539</ele>
        <time>2016-09-01T09:51:14+02:00</time>
      </trkpt>
      <trkpt lat="44.83265" lon="6.41508">
        <ele>1542</ele>
        <time>2016-09-01T09:51:41+02:00</time>
      </trkpt>
      <trkpt lat="44.83267" lon="6.41476">
        <ele>1546</ele>
        <time>2016-09-01T09:52:11+02:00</time>
      </trkpt>
      <trkpt lat="44.83259" lon="6.41446">
        <ele>1550</ele>
        <time>2016-09-01T09:52:44+02:00</time>
      </trkpt>
      <trkpt lat="44.83249" lon="6.41417">
        <ele>1553</ele>
        <time>2016-09-01T09:53:10+02:00</time>
      </trkpt>
      <trkpt lat="44.83248" lon="6.41383">
        <ele>1556</ele>
        <time>2016-09-01T09:53:42+02:00</time>
      </trkpt>
      <trkpt lat="44.8326" lon="6.41357">
        <ele>1558</ele>
        <time>2016-09-01T09:54:05+02:00</time>
      </trkpt>
      <trkpt lat="44.83261" lon="6.41324">
        <ele>1561</ele>
        <time>2016-09-01T09:54:39+02:00</time>
      </trkpt>
      <trkpt lat="44.83265" lon="6.41293">
        <ele>1565</ele>
        <time>2016-09-01T09:55:12+02:00</time>
      </trkpt>
      <trkpt lat="44.83267" lon="6.41261">
        <ele>1568</ele>
        <time>2016-09-01T09:55:40+02:00</time>
      </trkpt>
      <trkpt lat="44.83257" lon="6.41231">
        <ele>1570</ele>
        <time>2016-09-01T09:56:03+02:00</time>
      </trkpt>
      <trkpt lat="44.83261" lon="6.41199">
        <ele>1572</ele>
        <time>2016-09-01T09:56:22+02:00</time>
      </trkpt>
      <trkpt lat="44.83257" lon="6.41168">
        <ele>1573</ele>
        <time>2016-09-01T09:56:46+02:00</time>
      </trkpt>
      <trkpt lat="44.83254" lon="6.41135">
        <ele>1575</ele>
        <time>2016-09-01T09:57:10+02:00</time>
      </trkpt>
      <trkpt lat="44.83241" lon="6.41108">
        <ele>1577</ele>
        <time>2016-09-01T09:57:33+02:00</time>
      </trkpt>
      <trkpt lat="44.8323" lon="6.41081">
        <ele>1578</ele>
        <time>2016-09-01T09:57:57+02:00</time>
      </trkpt>
      <trkpt lat="44.8322" lon="6.41052">
        <ele>1580</ele>
        <time>2016-09-01T09:58:19+02:00</time>
      </trkpt>
      <trkpt lat="44.83218" lon="6.41019">
        <ele>1581</ele>
        <time>2016-09-01T09:58:39+02:00</time>
      </trkpt>
      <trkpt lat="44.83219" lon="6.40987">
        <ele>1582</ele>
        <time>2016-09-01T09:59:00+02:00</time>
      </trkpt>
      <trkpt lat="44.83218" lon="6.40955">
        <ele>1582</ele>
        <time>2016-09-01T09:59:22+02:00</time>
      </trkpt>
      <trkpt lat="44.83225" lon="6.40924">
        <ele>1583</ele>
        <time>2016-09-01T09:59:41+02:00</time>
      </trkpt>
      <trkpt lat="44.83209" lon="6.409">
        <ele>1585</ele>
        <time>2016-09-01T10:00:01+02:00</time>
      </trkpt>
      <trkpt lat="44.83194" lon="6.40876">
        <ele>1586</ele>
        <time>2016-09-01T10:00:27+02:00</time>
      </trkpt>
      <trkpt lat="44.83186" lon="6.40847">
        <ele>1587</ele>
        <time>2016-09-01T10:00:48+02:00</time>
      </trkpt>
      <trkpt lat="44.83177" lon="6.40817">
        <ele>1589</ele>
        <time>2016-09-01T10:01:10+02:00</time>
      </trkpt>
      <trkpt lat="44.83162" lon="6.40792">
        <ele>1590</ele>
        <time>2016-09-01T10:01:34+02:00</time>
      </trkpt>
      <trkpt lat="44.83151" lon="6.40765">
        <ele>1591</ele>
        <time>2016-09-01T10:01:57+02:00</time>
      </trkpt>
      <trkpt lat="44.8314" lon="6.40737">
        <ele>1592</ele>
        <time>2016-09-01T10:02:20+02:00</time>
      </trkpt>
      <trkpt lat="44.83123" lon="6.40714">
        <ele>1593</ele>
        <time>2016-09-01T10:02:38+02:00</time>
      </trkpt>
      <trkpt lat="44.83112" lon="6.40686">
        <ele>1595</ele>
        <time>2016-09-01T10:03:17+02:00</time>
      </trkpt>
      <trkpt lat="44.83098" lon="6.40659">
        <ele>1595</ele>
        <time>2016-09-01T10:03:31+02:00</time>
      </trkpt>
      <trkpt lat="44.83081" lon="6.40629">
        <ele>1597</ele>
        <time>2016-09-01T10:04:02+02:00</time>
      </trkpt>
      <trkpt lat="44.83068" lon="6.40601">
        <ele>1598</ele>
        <time>2016-09-01T10:04:17+02:00</time>
      </trkpt>
      <trkpt lat="44.83064" lon="6.4057">
        <ele>1599</ele>
        <time>2016-09-01T10:04:34+02:00</time>
      </trkpt>
      <trkpt lat="44.83064" lon="6.40537">
        <ele>1600</ele>
        <time>2016-09-01T10:04:58+02:00</time>
      </trkpt>
      <trkpt lat="44.83061" lon="6.40505">
        <ele>1601</ele>
        <time>2016-09-01T10:05:20+02:00</time>
      </trkpt>
      <trkpt lat="44.83063" lon="6.40472">
        <ele>1602</ele>
        <time>2016-09-01T10:05:39+02:00</time>
      </trkpt>
      <trkpt lat="44.83063" lon="6.4044">
        <ele>1603</ele>
        <time>2016-09-01T10:06:00+02:00</time>
      </trkpt>
      <trkpt lat="44.83065" lon="6.40409">
        <ele>1603</ele>
        <time>2016-09-01T10:06:20+02:00</time>
      </trkpt>
      <trkpt lat="44.8307" lon="6.40376">
        <ele>1603</ele>
        <time>2016-09-01T10:06:40+02:00</time>
      </trkpt>
      <trkpt lat="44.83072" lon="6.40343">
        <ele>1603</ele>
        <time>2016-09-01T10:07:01+02:00</time>
      </trkpt>
      <trkpt lat="44.8308" lon="6.40312">
        <ele>1604</ele>
        <time>2016-09-01T10:07:20+02:00</time>
      </trkpt>
      <trkpt lat="44.83088" lon="6.40283">
        <ele>1605</ele>
        <time>2016-09-01T10:07:41+02:00</time>
      </trkpt>
      <trkpt lat="44.83098" lon="6.40252">
        <ele>1606</ele>
        <time>2016-09-01T10:08:04+02:00</time>
      </trkpt>
      <trkpt lat="44.83107" lon="6.40223">
        <ele>1606</ele>
        <time>2016-09-01T10:08:25+02:00</time>
      </trkpt>
      <trkpt lat="44.83126" lon="6.40204">
        <ele>1607</ele>
        <time>2016-09-01T10:08:43+02:00</time>
      </trkpt>
      <trkpt lat="44.83117" lon="6.40174">
        <ele>1607</ele>
        <time>2016-09-01T10:37:55+02:00</time>
      </trkpt>
      <trkpt lat="44.83109" lon="6.40144">
        <ele>1604</ele>
        <time>2016-09-01T10:38:18+02:00</time>
      </trkpt>
      <trkpt lat="44.83088" lon="6.40155">
        <ele>1600</ele>
        <time>2016-09-01T10:39:17+02:00</time>
      </trkpt>
      <trkpt lat="44.83071" lon="6.40133">
        <ele>1597</ele>
        <time>2016-09-01T10:39:35+02:00</time>
      </trkpt>
      <trkpt lat="44.83049" lon="6.40124">
        <ele>1597</ele>
        <time>2016-09-01T10:39:54+02:00</time>
      </trkpt>
      <trkpt lat="44.83033" lon="6.40101">
        <ele>1597</ele>
        <time>2016-09-01T10:40:21+02:00</time>
      </trkpt>
      <trkpt lat="44.83026" lon="6.40068">
        <ele>1598</ele>
        <time>2016-09-01T10:40:51+02:00</time>
      </trkpt>
      <trkpt lat="44.83013" lon="6.40042">
        <ele>1599</ele>
        <time>2016-09-01T10:41:14+02:00</time>
      </trkpt>
      <trkpt lat="44.83003" lon="6.40012">
        <ele>1600</ele>
        <time>2016-09-01T10:41:37+02:00</time>
      </trkpt>
      <trkpt lat="44.82999" lon="6.3998">
        <ele>1601</ele>
        <time>2016-09-01T10:42:02+02:00</time>
      </trkpt>
      <trkpt lat="44.82995" lon="6.39949">
        <ele>1602</ele>
        <time>2016-09-01T10:42:21+02:00</time>
      </trkpt>
      <trkpt lat="44.82984" lon="6.39921">
        <ele>1603</ele>
        <time>2016-09-01T10:42:37+02:00</time>
      </trkpt>
      <trkpt lat="44.8298" lon="6.39889">
        <ele>1604</ele>
        <time>2016-09-01T10:43:04+02:00</time>
      </trkpt>
      <trkpt lat="44.82971" lon="6.3986">
        <ele>1605</ele>
        <time>2016-09-01T10:43:24+02:00</time>
      </trkpt>
      <trkpt lat="44.82958" lon="6.39833">
        <ele>1606</ele>
        <time>2016-09-01T10:43:45+02:00</time>
      </trkpt>
      <trkpt lat="44.82943" lon="6.39808">
        <ele>1607</ele>
        <time>2016-09-01T10:44:07+02:00</time>
      </trkpt>
      <trkpt lat="44.82927" lon="6.39784">
        <ele>1609</ele>
        <time>2016-09-01T10:44:27+02:00</time>
      </trkpt>
      <trkpt lat="44.82915" lon="6.39755">
        <ele>1610</ele>
        <time>2016-09-01T10:44:48+02:00</time>
      </trkpt>
      <trkpt lat="44.82905" lon="6.39727">
        <ele>1611</ele>
        <time>2016-09-01T10:45:09+02:00</time>
      </trkpt>
      <trkpt lat="44.82894" lon="6.397">
        <ele>1612</ele>
        <time>2016-09-01T10:45:27+02:00</time>
      </trkpt>
      <trkpt lat="44.829" lon="6.39669">
        <ele>1612</ele>
        <time>2016-09-01T10:45:48+02:00</time>
      </trkpt>
      <trkpt lat="44.82887" lon="6.39642">
        <ele>1618</ele>
        <time>2016-09-01T10:46:29+02:00</time>
      </trkpt>
      <trkpt lat="44.82869" lon="6.3962">
        <ele>1623</ele>
        <time>2016-09-01T10:47:05+02:00</time>
      </trkpt>
      <trkpt lat="44.82847" lon="6.39614">
        <ele>1627</ele>
        <time>2016-09-01T10:47:46+02:00</time>
      </trkpt>
      <trkpt lat="44.82824" lon="6.39618">
        <ele>1631</ele>
        <time>2016-09-01T10:48:30+02:00</time>
      </trkpt>
      <trkpt lat="44.82801" lon="6.39615">
        <ele>1633</ele>
        <time>2016-09-01T10:48:57+02:00</time>
      </trkpt>
      <trkpt lat="44.82778" lon="6.39616">
        <ele>1634</ele>
        <time>2016-09-01T10:49:25+02:00</time>
      </trkpt>
      <trkpt lat="44.82755" lon="6.39621">
        <ele>1634</ele>
        <time>2016-09-01T10:49:45+02:00</time>
      </trkpt>
      <trkpt lat="44.82733" lon="6.39616">
        <ele>1637</ele>
        <time>2016-09-01T10:50:16+02:00</time>
      </trkpt>
      <trkpt lat="44.8271" lon="6.39615">
        <ele>1641</ele>
        <time>2016-09-01T10:50:46+02:00</time>
      </trkpt>
      <trkpt lat="44.82687" lon="6.39625">
        <ele>1643</ele>
        <time>2016-09-01T10:51:19+02:00</time>
      </trkpt>
      <trkpt lat="44.82667" lon="6.39612">
        <ele>1644</ele>
        <time>2016-09-01T10:51:52+02:00</time>
      </trkpt>
      <trkpt lat="44.82645" lon="6.39603">
        <ele>1645</ele>
        <time>2016-09-01T10:52:18+02:00</time>
      </trkpt>
      <trkpt lat="44.82622" lon="6.39599">
        <ele>1649</ele>
        <time>2016-09-01T10:52:56+02:00</time>
      </trkpt>
      <trkpt lat="44.82602" lon="6.39614">
        <ele>1655</ele>
        <time>2016-09-01T10:53:37+02:00</time>
      </trkpt>
      <trkpt lat="44.82579" lon="6.39614">
        <ele>1658</ele>
        <time>2016-09-01T10:54:08+02:00</time>
      </trkpt>
      <trkpt lat="44.82557" lon="6.39609">
        <ele>1662</ele>
        <time>2016-09-01T10:54:41+02:00</time>
      </trkpt>
      <trkpt lat="44.82535" lon="6.39599">
        <ele>1667</ele>
        <time>2016-09-01T10:55:22+02:00</time>
      </trkpt>
      <trkpt lat="44.82513" lon="6.39592">
        <ele>1673</ele>
        <time>2016-09-01T10:56:12+02:00</time>
      </trkpt>
      <trkpt lat="44.8249" lon="6.3959">
        <ele>1676</ele>
        <time>2016-09-01T10:56:39+02:00</time>
      </trkpt>
      <trkpt lat="44.82468" lon="6.39583">
        <ele>1681</ele>
        <time>2016-09-01T10:57:19+02:00</time>
      </trkpt>
      <trkpt lat="44.82444" lon="6.3958">
        <ele>1680</ele>
        <time>2016-09-01T10:57:52+02:00</time>
      </trkpt>
      <trkpt lat="44.82422" lon="6.39582">
        <ele>1683</ele>
        <time>2016-09-01T10:58:56+02:00</time>
      </trkpt>
      <trkpt lat="44.824" lon="6.39592">
        <ele>1688</ele>
        <time>2016-09-01T10:59:30+02:00</time>
      </trkpt>
      <trkpt lat="44.82377" lon="6.3959">
        <ele>1695</ele>
        <time>2016-09-01T11:00:20+02:00</time>
      </trkpt>
      <trkpt lat="44.82354" lon="6.39596">
        <ele>1700</ele>
        <time>2016-09-01T11:01:03+02:00</time>
      </trkpt>
      <trkpt lat="44.82336" lon="6.39615">
        <ele>1701</ele>
        <time>2016-09-01T11:01:39+02:00</time>
      </trkpt>
      <trkpt lat="44.82313" lon="6.3961">
        <ele>1705</ele>
        <time>2016-09-01T11:02:16+02:00</time>
      </trkpt>
      <trkpt lat="44.82291" lon="6.39618">
        <ele>1705</ele>
        <time>2016-09-01T11:02:53+02:00</time>
      </trkpt>
      <trkpt lat="44.82272" lon="6.39636">
        <ele>1707</ele>
        <time>2016-09-01T11:03:21+02:00</time>
      </trkpt>
      <trkpt lat="44.82249" lon="6.39631">
        <ele>1710</ele>
        <time>2016-09-01T11:03:58+02:00</time>
      </trkpt>
      <trkpt lat="44.82227" lon="6.39624">
        <ele>1713</ele>
        <time>2016-09-01T11:04:34+02:00</time>
      </trkpt>
      <trkpt lat="44.82207" lon="6.39608">
        <ele>1718</ele>
        <time>2016-09-01T11:05:34+02:00</time>
      </trkpt>
      <trkpt lat="44.82184" lon="6.39604">
        <ele>1721</ele>
        <time>2016-09-01T11:06:09+02:00</time>
      </trkpt>
      <trkpt lat="44.82163" lon="6.39592">
        <ele>1723</ele>
        <time>2016-09-01T11:06:38+02:00</time>
      </trkpt>
      <trkpt lat="44.82141" lon="6.39583">
        <ele>1725</ele>
        <time>2016-09-01T11:07:07+02:00</time>
      </trkpt>
      <trkpt lat="44.82118" lon="6.39589">
        <ele>1733</ele>
        <time>2016-09-01T11:08:04+02:00</time>
      </trkpt>
      <trkpt lat="44.82097" lon="6.39601">
        <ele>1735</ele>
        <time>2016-09-01T11:08:40+02:00</time>
      </trkpt>
      <trkpt lat="44.82075" lon="6.39606">
        <ele>1744</ele>
        <time>2016-09-01T11:10:11+02:00</time>
      </trkpt>
      <trkpt lat="44.82056" lon="6.39588">
        <ele>1745</ele>
        <time>2016-09-01T11:10:43+02:00</time>
      </trkpt>
      <trkpt lat="44.82036" lon="6.39572">
        <ele>1753</ele>
        <time>2016-09-01T11:11:11+02:00</time>
      </trkpt>
      <trkpt lat="44.82019" lon="6.3955">
        <ele>1767</ele>
        <time>2016-09-01T11:12:04+02:00</time>
      </trkpt>
      <trkpt lat="44.81997" lon="6.39555">
        <ele>1761</ele>
        <time>2016-09-01T11:12:31+02:00</time>
      </trkpt>
      <trkpt lat="44.81975" lon="6.39546">
        <ele>1758</ele>
        <time>2016-09-01T11:13:01+02:00</time>
      </trkpt>
      <trkpt lat="44.81953" lon="6.39555">
        <ele>1757</ele>
        <time>2016-09-01T11:13:26+02:00</time>
      </trkpt>
      <trkpt lat="44.81931" lon="6.39546">
        <ele>1763</ele>
        <time>2016-09-01T11:13:59+02:00</time>
      </trkpt>
      <trkpt lat="44.81909" lon="6.39534">
        <ele>1771</ele>
        <time>2016-09-01T11:14:27+02:00</time>
      </trkpt>
      <trkpt lat="44.81889" lon="6.39517">
        <ele>1779</ele>
        <time>2016-09-01T11:14:48+02:00</time>
      </trkpt>
      <trkpt lat="44.81868" lon="6.39504">
        <ele>1784</ele>
        <time>2016-09-01T11:15:09+02:00</time>
      </trkpt>
      <trkpt lat="44.81849" lon="6.39485">
        <ele>1788</ele>
        <time>2016-09-01T11:15:30+02:00</time>
      </trkpt>
      <trkpt lat="44.81828" lon="6.39471">
        <ele>1784</ele>
        <time>2016-09-01T11:15:56+02:00</time>
      </trkpt>
      <trkpt lat="44.81807" lon="6.39459">
        <ele>1784</ele>
        <time>2016-09-01T11:16:18+02:00</time>
      </trkpt>
      <trkpt lat="44.81789" lon="6.3944">
        <ele>1787</ele>
        <time>2016-09-01T11:16:41+02:00</time>
      </trkpt>
      <trkpt lat="44.81767" lon="6.3943">
        <ele>1794</ele>
        <time>2016-09-01T11:17:22+02:00</time>
      </trkpt>
      <trkpt lat="44.8175" lon="6.39408">
        <ele>1801</ele>
        <time>2016-09-01T11:17:53+02:00</time>
      </trkpt>
      <trkpt lat="44.81731" lon="6.39391">
        <ele>1809</ele>
        <time>2016-09-01T11:18:53+02:00</time>
      </trkpt>
      <trkpt lat="44.81711" lon="6.39375">
        <ele>1808</ele>
        <time>2016-09-01T11:19:20+02:00</time>
      </trkpt>
      <trkpt lat="44.81694" lon="6.39353">
        <ele>1816</ele>
        <time>2016-09-01T11:19:39+02:00</time>
      </trkpt>
      <trkpt lat="44.81686" lon="6.39322">
        <ele>1817</ele>
        <time>2016-09-01T11:20:07+02:00</time>
      </trkpt>
      <trkpt lat="44.81675" lon="6.39294">
        <ele>1817</ele>
        <time>2016-09-01T11:20:24+02:00</time>
      </trkpt>
      <trkpt lat="44.8166" lon="6.39269">
        <ele>1828</ele>
        <time>2016-09-01T11:20:43+02:00</time>
      </trkpt>
      <trkpt lat="44.81647" lon="6.39243">
        <ele>1817</ele>
        <time>2016-09-01T11:21:14+02:00</time>
      </trkpt>
      <trkpt lat="44.81627" lon="6.39226">
        <ele>1818</ele>
        <time>2016-09-01T11:21:36+02:00</time>
      </trkpt>
      <trkpt lat="44.81609" lon="6.39206">
        <ele>1823</ele>
        <time>2016-09-01T11:21:57+02:00</time>
      </trkpt>
      <trkpt lat="44.81587" lon="6.39201">
        <ele>1813</ele>
        <time>2016-09-01T11:22:16+02:00</time>
      </trkpt>
      <trkpt lat="44.81564" lon="6.39192">
        <ele>1812</ele>
        <time>2016-09-01T11:22:36+02:00</time>
      </trkpt>
      <trkpt lat="44.81547" lon="6.39172">
        <ele>1812</ele>
        <time>2016-09-01T11:23:41+02:00</time>
      </trkpt>
      <trkpt lat="44.81532" lon="6.39147">
        <ele>1817</ele>
        <time>2016-09-01T11:23:58+02:00</time>
      </trkpt>
      <trkpt lat="44.81518" lon="6.39121">
        <ele>1817</ele>
        <time>2016-09-01T11:24:19+02:00</time>
      </trkpt>
      <trkpt lat="44.81503" lon="6.39096">
        <ele>1818</ele>
        <time>2016-09-01T11:24:40+02:00</time>
      </trkpt>
      <trkpt lat="44.81484" lon="6.39077">
        <ele>1816</ele>
        <time>2016-09-01T11:25:02+02:00</time>
      </trkpt>
      <trkpt lat="44.81468" lon="6.39055">
        <ele>1820</ele>
        <time>2016-09-01T11:25:20+02:00</time>
      </trkpt>
      <trkpt lat="44.81449" lon="6.39036">
        <ele>1821</ele>
        <time>2016-09-01T11:25:40+02:00</time>
      </trkpt>
      <trkpt lat="44.8143" lon="6.39017">
        <ele>1824</ele>
        <time>2016-09-01T11:26:04+02:00</time>
      </trkpt>
      <trkpt lat="44.81411" lon="6.38997">
        <ele>1823</ele>
        <time>2016-09-01T11:26:44+02:00</time>
      </trkpt>
      <trkpt lat="44.81393" lon="6.38979">
        <ele>1823</ele>
        <time>2016-09-01T11:27:24+02:00</time>
      </trkpt>
      <trkpt lat="44.8138" lon="6.38952">
        <ele>1828</ele>
        <time>2016-09-01T11:27:56+02:00</time>
      </trkpt>
      <trkpt lat="44.81365" lon="6.38928">
        <ele>1838</ele>
        <time>2016-09-01T11:28:29+02:00</time>
      </trkpt>
      <trkpt lat="44.81362" lon="6.38896">
        <ele>1838</ele>
        <time>2016-09-01T11:34:09+02:00</time>
      </trkpt>
      <trkpt lat="44.81358" lon="6.38864">
        <ele>1841</ele>
        <time>2016-09-01T11:34:29+02:00</time>
      </trkpt>
      <trkpt lat="44.81353" lon="6.38831">
        <ele>1836</ele>
        <time>2016-09-01T11:34:51+02:00</time>
      </trkpt>
      <trkpt lat="44.81341" lon="6.38803">
        <ele>1843</ele>
        <time>2016-09-01T11:35:46+02:00</time>
      </trkpt>
      <trkpt lat="44.8133" lon="6.38775">
        <ele>1843</ele>
        <time>2016-09-01T11:36:02+02:00</time>
      </trkpt>
      <trkpt lat="44.81316" lon="6.38749">
        <ele>1842</ele>
        <time>2016-09-01T11:36:27+02:00</time>
      </trkpt>
      <trkpt lat="44.81304" lon="6.38722">
        <ele>1842</ele>
        <time>2016-09-01T11:36:44+02:00</time>
      </trkpt>
      <trkpt lat="44.81289" lon="6.38697">
        <ele>1849</ele>
        <time>2016-09-01T11:37:01+02:00</time>
      </trkpt>
      <trkpt lat="44.81274" lon="6.38673">
        <ele>1844</ele>
        <time>2016-09-01T11:37:21+02:00</time>
      </trkpt>
      <trkpt lat="44.81256" lon="6.38652">
        <ele>1825</ele>
        <time>2016-09-01T11:37:49+02:00</time>
      </trkpt>
      <trkpt lat="44.81243" lon="6.38626">
        <ele>1821</ele>
        <time>2016-09-01T11:38:14+02:00</time>
      </trkpt>
      <trkpt lat="44.81225" lon="6.38606">
        <ele>1827</ele>
        <time>2016-09-01T11:38:33+02:00</time>
      </trkpt>
      <trkpt lat="44.81212" lon="6.3858">
        <ele>1831</ele>
        <time>2016-09-01T11:38:53+02:00</time>
      </trkpt>
      <trkpt lat="44.81198" lon="6.38554">
        <ele>1833</ele>
        <time>2016-09-01T11:39:20+02:00</time>
      </trkpt>
      <trkpt lat="44.81179" lon="6.38535">
        <ele>1827</ele>
        <time>2016-09-01T11:39:45+02:00</time>
      </trkpt>
      <trkpt lat="44.81158" lon="6.38521">
        <ele>1828</ele>
        <time>2016-09-01T11:40:05+02:00</time>
      </trkpt>
      <trkpt lat="44.81135" lon="6.38509">
        <ele>1830</ele>
        <time>2016-09-01T11:40:25+02:00</time>
      </trkpt>
      <trkpt lat="44.81116" lon="6.38491">
        <ele>1827</ele>
        <time>2016-09-01T11:40:45+02:00</time>
      </trkpt>
      <trkpt lat="44.81103" lon="6.38464">
        <ele>1829</ele>
        <time>2016-09-01T11:41:12+02:00</time>
      </trkpt>
      <trkpt lat="44.81107" lon="6.38431">
        <ele>1834</ele>
        <time>2016-09-01T11:41:27+02:00</time>
      </trkpt>
      <trkpt lat="44.81104" lon="6.38399">
        <ele>1833</ele>
        <time>2016-09-01T11:41:49+02:00</time>
      </trkpt>
      <trkpt lat="44.81103" lon="6.38366">
        <ele>1839</ele>
        <time>2016-09-01T11:42:08+02:00</time>
      </trkpt>
      <trkpt lat="44.81108" lon="6.38334">
        <ele>1838</ele>
        <time>2016-09-01T11:42:28+02:00</time>
      </trkpt>
      <trkpt lat="44.81089" lon="6.38314">
        <ele>1840</ele>
        <time>2016-09-01T11:42:49+02:00</time>
      </trkpt>
      <trkpt lat="44.81073" lon="6.3829">
        <ele>1842</ele>
        <time>2016-09-01T11:43:10+02:00</time>
      </trkpt>
      <trkpt lat="44.81056" lon="6.3827">
        <ele>1837</ele>
        <time>2016-09-01T11:43:33+02:00</time>
      </trkpt>
      <trkpt lat="44.81039" lon="6.38247">
        <ele>1838</ele>
        <time>2016-09-01T11:43:55+02:00</time>
      </trkpt>
      <trkpt lat="44.81022" lon="6.38226">
        <ele>1843</ele>
        <time>2016-09-01T11:44:19+02:00</time>
      </trkpt>
      <trkpt lat="44.81001" lon="6.3821">
        <ele>1841</ele>
        <time>2016-09-01T11:44:50+02:00</time>
      </trkpt>
      <trkpt lat="44.80983" lon="6.38192">
        <ele>1844</ele>
        <time>2016-09-01T11:45:13+02:00</time>
      </trkpt>
      <trkpt lat="44.80962" lon="6.38178">
        <ele>1844</ele>
        <time>2016-09-01T11:45:37+02:00</time>
      </trkpt>
      <trkpt lat="44.80958" lon="6.38146">
        <ele>1845</ele>
        <time>2016-09-01T11:46:00+02:00</time>
      </trkpt>
      <trkpt lat="44.8095" lon="6.38116">
        <ele>1849</ele>
        <time>2016-09-01T11:46:30+02:00</time>
      </trkpt>
      <trkpt lat="44.80939" lon="6.38088">
        <ele>1853</ele>
        <time>2016-09-01T11:47:02+02:00</time>
      </trkpt>
      <trkpt lat="44.80931" lon="6.38058">
        <ele>1853</ele>
        <time>2016-09-01T11:47:24+02:00</time>
      </trkpt>
      <trkpt lat="44.80918" lon="6.38031">
        <ele>1855</ele>
        <time>2016-09-01T11:47:47+02:00</time>
      </trkpt>
      <trkpt lat="44.809" lon="6.38011">
        <ele>1856</ele>
        <time>2016-09-01T11:48:08+02:00</time>
      </trkpt>
      <trkpt lat="44.80879" lon="6.37999">
        <ele>1858</ele>
        <time>2016-09-01T11:48:34+02:00</time>
      </trkpt>
      <trkpt lat="44.80864" lon="6.37975">
        <ele>1865</ele>
        <time>2016-09-01T11:49:38+02:00</time>
      </trkpt>
      <trkpt lat="44.80849" lon="6.37949">
        <ele>1868</ele>
        <time>2016-09-01T11:49:54+02:00</time>
      </trkpt>
      <trkpt lat="44.8083" lon="6.37933">
        <ele>1873</ele>
        <time>2016-09-01T11:50:34+02:00</time>
      </trkpt>
      <trkpt lat="44.80816" lon="6.37908">
        <ele>1882</ele>
        <time>2016-09-01T11:52:03+02:00</time>
      </trkpt>
      <trkpt lat="44.80797" lon="6.37887">
        <ele>1885</ele>
        <time>2016-09-01T11:52:34+02:00</time>
      </trkpt>
      <trkpt lat="44.80808" lon="6.37859">
        <ele>1890</ele>
        <time>2016-09-01T11:53:16+02:00</time>
      </trkpt>
      <trkpt lat="44.80793" lon="6.37833">
        <ele>1896</ele>
        <time>2016-09-01T11:53:56+02:00</time>
      </trkpt>
      <trkpt lat="44.80781" lon="6.37806">
        <ele>1900</ele>
        <time>2016-09-01T11:54:24+02:00</time>
      </trkpt>
      <trkpt lat="44.80774" lon="6.37775">
        <ele>1901</ele>
        <time>2016-09-01T11:55:09+02:00</time>
      </trkpt>
      <trkpt lat="44.80765" lon="6.37744">
        <ele>1903</ele>
        <time>2016-09-01T11:55:35+02:00</time>
      </trkpt>
      <trkpt lat="44.80751" lon="6.37718">
        <ele>1909</ele>
        <time>2016-09-01T11:56:06+02:00</time>
      </trkpt>
      <trkpt lat="44.80734" lon="6.37694">
        <ele>1916</ele>
        <time>2016-09-01T11:57:07+02:00</time>
      </trkpt>
      <trkpt lat="44.80713" lon="6.37676">
        <ele>1917</ele>
        <time>2016-09-01T11:57:30+02:00</time>
      </trkpt>
      <trkpt lat="44.80698" lon="6.37653">
        <ele>1922</ele>
        <time>2016-09-01T11:58:07+02:00</time>
      </trkpt>
      <trkpt lat="44.80681" lon="6.37632">
        <ele>1926</ele>
        <time>2016-09-01T11:58:44+02:00</time>
      </trkpt>
      <trkpt lat="44.80661" lon="6.37616">
        <ele>1928</ele>
        <time>2016-09-01T11:59:18+02:00</time>
      </trkpt>
      <trkpt lat="44.80643" lon="6.37595">
        <ele>1931</ele>
        <time>2016-09-01T11:59:46+02:00</time>
      </trkpt>
      <trkpt lat="44.80628" lon="6.37573">
        <ele>1933</ele>
        <time>2016-09-01T12:00:09+02:00</time>
      </trkpt>
      <trkpt lat="44.80608" lon="6.37556">
        <ele>1933</ele>
        <time>2016-09-01T12:00:32+02:00</time>
      </trkpt>
      <trkpt lat="44.80594" lon="6.37531">
        <ele>1934</ele>
        <time>2016-09-01T12:00:51+02:00</time>
      </trkpt>
      <trkpt lat="44.80582" lon="6.37504">
        <ele>1936</ele>
        <time>2016-09-01T12:01:35+02:00</time>
      </trkpt>
      <trkpt lat="44.80588" lon="6.37473">
        <ele>1937</ele>
        <time>2016-09-01T12:02:17+02:00</time>
      </trkpt>
      <trkpt lat="44.80611" lon="6.37478">
        <ele>1938</ele>
        <time>2016-09-01T12:02:39+02:00</time>
      </trkpt>
      <trkpt lat="44.8059" lon="6.37466">
        <ele>1945</ele>
        <time>2016-09-01T12:39:56+02:00</time>
      </trkpt>
      <trkpt lat="44.80574" lon="6.37441">
        <ele>1945</ele>
        <time>2016-09-01T12:40:14+02:00</time>
      </trkpt>
      <trkpt lat="44.80564" lon="6.37412">
        <ele>1946</ele>
        <time>2016-09-01T12:40:43+02:00</time>
      </trkpt>
      <trkpt lat="44.8055" lon="6.37387">
        <ele>1947</ele>
        <time>2016-09-01T12:41:11+02:00</time>
      </trkpt>
      <trkpt lat="44.80528" lon="6.37366">
        <ele>1956</ele>
        <time>2020-10-27T09:54:39+01:00</time>
      </trkpt>
      <trkpt lat="44.80501" lon="6.37361">
        <ele>1954</ele>
        <time>2020-10-27T09:54:44+01:00</time>
      </trkpt>
      <trkpt lat="44.80473" lon="6.37324">
        <ele>1958</ele>
        <time>2020-10-27T09:54:49+01:00</time>
      </trkpt>
      <trkpt lat="44.8044" lon="6.37283">
        <ele>1962</ele>
        <time>2020-10-27T09:54:54+01:00</time>
      </trkpt>
      <trkpt lat="44.80411" lon="6.37255">
        <ele>1963</ele>
        <time>2020-10-27T09:54:59+01:00</time>
      </trkpt>
      <trkpt lat="44.80383" lon="6.37213">
        <ele>1966</ele>
        <time>2020-10-27T09:55:04+01:00</time>
      </trkpt>
      <trkpt lat="44.80357" lon="6.37171">
        <ele>1968</ele>
        <time>2020-10-27T09:55:09+01:00</time>
      </trkpt>
      <trkpt lat="44.80347" lon="6.37126">
        <ele>1971</ele>
        <time>2020-10-27T09:55:14+01:00</time>
      </trkpt>
      <trkpt lat="44.80332" lon="6.37077">
        <ele>1975</ele>
        <time>2020-10-27T09:55:19+01:00</time>
      </trkpt>
      <trkpt lat="44.80316" lon="6.37049">
        <ele>1979</ele>
        <time>2020-10-27T09:55:24+01:00</time>
      </trkpt>
      <trkpt lat="44.80299" lon="6.37014">
        <ele>1982</ele>
        <time>2020-10-27T09:55:29+01:00</time>
      </trkpt>
      <trkpt lat="44.80288" lon="6.36978">
        <ele>1985</ele>
        <time>2020-10-27T09:55:34+01:00</time>
      </trkpt>
      <trkpt lat="44.80286" lon="6.36942">
        <ele>1989</ele>
        <time>2020-10-27T09:55:39+01:00</time>
      </trkpt>
      <trkpt lat="44.80274" lon="6.36902">
        <ele>1993</ele>
        <time>2020-10-27T09:55:44+01:00</time>
      </trkpt>
      <trkpt lat="44.80261" lon="6.36868">
        <ele>1996</ele>
        <time>2020-10-27T09:55:49+01:00</time>
      </trkpt>
      <trkpt lat="44.80249" lon="6.3682">
        <ele>2002</ele>
        <time>2020-10-27T09:55:54+01:00</time>
      </trkpt>
      <trkpt lat="44.80221" lon="6.36802">
        <ele>2002</ele>
        <time>2020-10-27T09:55:59+01:00</time>
      </trkpt>
      <trkpt lat="44.80204" lon="6.36767">
        <ele>2006</ele>
        <time>2020-10-27T09:56:04+01:00</time>
      </trkpt>
      <trkpt lat="44.80185" lon="6.36722">
        <ele>2011</ele>
        <time>2020-10-27T09:56:09+01:00</time>
      </trkpt>
      <trkpt lat="44.8017" lon="6.36692">
        <ele>2013</ele>
        <time>2020-10-27T09:56:14+01:00</time>
      </trkpt>
      <trkpt lat="44.80145" lon="6.36677">
        <ele>2014</ele>
        <time>2020-10-27T09:56:19+01:00</time>
      </trkpt>
      <trkpt lat="44.80127" lon="6.36652">
        <ele>2017</ele>
        <time>2020-10-27T09:56:24+01:00</time>
      </trkpt>
      <trkpt lat="44.80113" lon="6.36617">
        <ele>2022</ele>
        <time>2020-10-27T09:56:29+01:00</time>
      </trkpt>
      <trkpt lat="44.8009" lon="6.36589">
        <ele>2024</ele>
        <time>2020-10-27T09:56:34+01:00</time>
      </trkpt>
      <trkpt lat="44.8007" lon="6.36598">
        <ele>2024</ele>
        <time>2020-10-27T09:56:39+01:00</time>
      </trkpt>
      <trkpt lat="44.80065" lon="6.36624">
        <ele>2022</ele>
        <time>2020-10-27T09:56:44+01:00</time>
      </trkpt>
      <trkpt lat="44.80047" lon="6.36635">
        <ele>2023</ele>
        <time>2020-10-27T09:56:49+01:00</time>
      </trkpt>
      <trkpt lat="44.80017" lon="6.36627">
        <ele>2029</ele>
        <time>2020-10-27T09:56:54+01:00</time>
      </trkpt>
      <trkpt lat="44.80001" lon="6.36609">
        <ele>2010</ele>
        <time>2016-09-01T13:05:40+02:00</time>
      </trkpt>
      <trkpt lat="44.79983" lon="6.36589">
        <ele>2016</ele>
        <time>2016-09-01T13:05:53+02:00</time>
      </trkpt>
      <trkpt lat="44.79984" lon="6.36621">
        <ele>2011</ele>
        <time>2016-09-01T13:06:30+02:00</time>
      </trkpt>
      <trkpt lat="44.7997" lon="6.36647">
        <ele>2016</ele>
        <time>2016-09-01T13:07:14+02:00</time>
      </trkpt>
      <trkpt lat="44.79951" lon="6.36664">
        <ele>2016</ele>
        <time>2016-09-01T13:08:07+02:00</time>
      </trkpt>
      <trkpt lat="44.79929" lon="6.36655">
        <ele>2030</ele>
        <time>2016-09-01T13:09:19+02:00</time>
      </trkpt>
      <trkpt lat="44.7991" lon="6.36674">
        <ele>2044</ele>
        <time>2016-09-01T13:10:57+02:00</time>
      </trkpt>
      <trkpt lat="44.79889" lon="6.36665">
        <ele>2049</ele>
        <time>2016-09-01T13:11:43+02:00</time>
      </trkpt>
      <trkpt lat="44.79879" lon="6.36636">
        <ele>2049</ele>
        <time>2016-09-01T13:12:10+02:00</time>
      </trkpt>
      <trkpt lat="44.79869" lon="6.36665">
        <ele>2054</ele>
        <time>2016-09-01T13:13:52+02:00</time>
      </trkpt>
      <trkpt lat="44.79848" lon="6.36676">
        <ele>2062</ele>
        <time>2016-09-01T13:14:53+02:00</time>
      </trkpt>
      <trkpt lat="44.79841" lon="6.3671">
        <ele>2066</ele>
        <time>2016-09-01T13:15:57+02:00</time>
      </trkpt>
      <trkpt lat="44.7982" lon="6.36697">
        <ele>2073</ele>
        <time>2016-09-01T13:16:41+02:00</time>
      </trkpt>
      <trkpt lat="44.79807" lon="6.36672">
        <ele>2076</ele>
        <time>2016-09-01T13:17:17+02:00</time>
      </trkpt>
      <trkpt lat="44.79802" lon="6.3664">
        <ele>2085</ele>
        <time>2016-09-01T13:18:12+02:00</time>
      </trkpt>
      <trkpt lat="44.79787" lon="6.36617">
        <ele>2088</ele>
        <time>2016-09-01T13:18:44+02:00</time>
      </trkpt>
      <trkpt lat="44.79767" lon="6.366">
        <ele>2083</ele>
        <time>2016-09-01T13:19:14+02:00</time>
      </trkpt>
      <trkpt lat="44.79744" lon="6.36598">
        <ele>2087</ele>
        <time>2016-09-01T13:19:47+02:00</time>
      </trkpt>
      <trkpt lat="44.79721" lon="6.366">
        <ele>2103</ele>
        <time>2016-09-01T13:24:33+02:00</time>
      </trkpt>
      <trkpt lat="44.79698" lon="6.3659">
        <ele>2101</ele>
        <time>2016-09-01T13:25:10+02:00</time>
      </trkpt>
      <trkpt lat="44.7968" lon="6.3657">
        <ele>2111</ele>
        <time>2016-09-01T13:25:35+02:00</time>
      </trkpt>
      <trkpt lat="44.7966" lon="6.36556">
        <ele>2113</ele>
        <time>2016-09-01T13:26:11+02:00</time>
      </trkpt>
      <trkpt lat="44.79641" lon="6.36539">
        <ele>2116</ele>
        <time>2016-09-01T13:26:32+02:00</time>
      </trkpt>
      <trkpt lat="44.79619" lon="6.36529">
        <ele>2113</ele>
        <time>2016-09-01T13:26:59+02:00</time>
      </trkpt>
      <trkpt lat="44.79596" lon="6.3652">
        <ele>2115</ele>
        <time>2016-09-01T13:27:26+02:00</time>
      </trkpt>
      <trkpt lat="44.79572" lon="6.36516">
        <ele>2117</ele>
        <time>2016-09-01T13:27:57+02:00</time>
      </trkpt>
      <trkpt lat="44.7955" lon="6.36507">
        <ele>2117</ele>
        <time>2016-09-01T13:28:17+02:00</time>
      </trkpt>
      <trkpt lat="44.79528" lon="6.36499">
        <ele>2113</ele>
        <time>2016-09-01T13:28:39+02:00</time>
      </trkpt>
      <trkpt lat="44.79508" lon="6.36484">
        <ele>2110</ele>
        <time>2016-09-01T13:29:05+02:00</time>
      </trkpt>
      <trkpt lat="44.79488" lon="6.36498">
        <ele>2111</ele>
        <time>2016-09-01T13:29:30+02:00</time>
      </trkpt>
      <trkpt lat="44.79467" lon="6.3648">
        <ele>2117</ele>
        <time>2016-09-01T13:29:52+02:00</time>
      </trkpt>
      <trkpt lat="44.79445" lon="6.36487">
        <ele>2113</ele>
        <time>2016-09-01T13:30:33+02:00</time>
      </trkpt>
      <trkpt lat="44.79423" lon="6.36491">
        <ele>2105</ele>
        <time>2016-09-01T13:31:05+02:00</time>
      </trkpt>
      <trkpt lat="44.794" lon="6.3649">
        <ele>2102</ele>
        <time>2016-09-01T13:31:35+02:00</time>
      </trkpt>
      <trkpt lat="44.79378" lon="6.36485">
        <ele>2103</ele>
        <time>2016-09-01T13:32:00+02:00</time>
      </trkpt>
      <trkpt lat="44.79355" lon="6.36487">
        <ele>2110</ele>
        <time>2016-09-01T13:32:31+02:00</time>
      </trkpt>
      <trkpt lat="44.79332" lon="6.36482">
        <ele>2114</ele>
        <time>2016-09-01T13:34:11+02:00</time>
      </trkpt>
      <trkpt lat="44.79309" lon="6.36484">
        <ele>2118</ele>
        <time>2016-09-01T13:34:55+02:00</time>
      </trkpt>
      <trkpt lat="44.79287" lon="6.36504">
        <ele>2124</ele>
        <time>2016-09-01T13:35:43+02:00</time>
      </trkpt>
      <trkpt lat="44.79264" lon="6.36494">
        <ele>2127</ele>
        <time>2016-09-01T13:36:15+02:00</time>
      </trkpt>
      <trkpt lat="44.79242" lon="6.36495">
        <ele>2129</ele>
        <time>2016-09-01T13:37:19+02:00</time>
      </trkpt>
      <trkpt lat="44.79219" lon="6.36503">
        <ele>2134</ele>
        <time>2016-09-01T13:37:49+02:00</time>
      </trkpt>
      <trkpt lat="44.79197" lon="6.36511">
        <ele>2139</ele>
        <time>2016-09-01T13:38:55+02:00</time>
      </trkpt>
      <trkpt lat="44.79174" lon="6.36512">
        <ele>2132</ele>
        <time>2016-09-01T13:39:33+02:00</time>
      </trkpt>
      <trkpt lat="44.79151" lon="6.36515">
        <ele>2138</ele>
        <time>2016-09-01T13:40:42+02:00</time>
      </trkpt>
      <trkpt lat="44.79128" lon="6.36513">
        <ele>2139</ele>
        <time>2016-09-01T13:41:16+02:00</time>
      </trkpt>
      <trkpt lat="44.79107" lon="6.36502">
        <ele>2141</ele>
        <time>2016-09-01T13:41:57+02:00</time>
      </trkpt>
      <trkpt lat="44.79087" lon="6.36488">
        <ele>2150</ele>
        <time>2016-09-01T13:42:28+02:00</time>
      </trkpt>
      <trkpt lat="44.79065" lon="6.36481">
        <ele>2150</ele>
        <time>2016-09-01T13:43:06+02:00</time>
      </trkpt>
      <trkpt lat="44.79042" lon="6.36483">
        <ele>2157</ele>
        <time>2016-09-01T13:43:41+02:00</time>
      </trkpt>
      <trkpt lat="44.79024" lon="6.36508">
        <ele>2161</ele>
        <time>2016-09-01T13:45:15+02:00</time>
      </trkpt>
      <trkpt lat="44.79004" lon="6.36525">
        <ele>2164</ele>
        <time>2016-09-01T13:46:04+02:00</time>
      </trkpt>
      <trkpt lat="44.78981" lon="6.36524">
        <ele>2167</ele>
        <time>2016-09-01T13:46:44+02:00</time>
      </trkpt>
      <trkpt lat="44.78959" lon="6.36519">
        <ele>2178</ele>
        <time>2016-09-01T13:49:43+02:00</time>
      </trkpt>
      <trkpt lat="44.7894" lon="6.365">
        <ele>2186</ele>
        <time>2016-09-01T13:51:06+02:00</time>
      </trkpt>
      <trkpt lat="44.78943" lon="6.36468">
        <ele>2189</ele>
        <time>2016-09-01T13:51:50+02:00</time>
      </trkpt>
      <trkpt lat="44.78942" lon="6.36436">
        <ele>2190</ele>
        <time>2016-09-01T13:52:19+02:00</time>
      </trkpt>
      <trkpt lat="44.78935" lon="6.36405">
        <ele>2192</ele>
        <time>2016-09-01T13:52:42+02:00</time>
      </trkpt>
      <trkpt lat="44.78932" lon="6.36373">
        <ele>2194</ele>
        <time>2016-09-01T13:53:20+02:00</time>
      </trkpt>
      <trkpt lat="44.78916" lon="6.36351">
        <ele>2198</ele>
        <time>2016-09-01T13:54:06+02:00</time>
      </trkpt>
      <trkpt lat="44.78894" lon="6.36341">
        <ele>2205</ele>
        <time>2016-09-01T13:55:08+02:00</time>
      </trkpt>
      <trkpt lat="44.78881" lon="6.36314">
        <ele>2208</ele>
        <time>2016-09-01T13:55:43+02:00</time>
      </trkpt>
      <trkpt lat="44.78868" lon="6.36288">
        <ele>2212</ele>
        <time>2016-09-01T13:56:40+02:00</time>
      </trkpt>
      <trkpt lat="44.78858" lon="6.36258">
        <ele>2220</ele>
        <time>2016-09-01T13:57:37+02:00</time>
      </trkpt>
      <trkpt lat="44.78846" lon="6.36231">
        <ele>2227</ele>
        <time>2016-09-01T13:58:44+02:00</time>
      </trkpt>
      <trkpt lat="44.78834" lon="6.36204">
        <ele>2236</ele>
        <time>2016-09-01T14:01:01+02:00</time>
      </trkpt>
      <trkpt lat="44.78811" lon="6.36211">
        <ele>2242</ele>
        <time>2016-09-01T14:02:28+02:00</time>
      </trkpt>
      <trkpt lat="44.78794" lon="6.36232">
        <ele>2250</ele>
        <time>2016-09-01T14:03:32+02:00</time>
      </trkpt>
      <trkpt lat="44.78772" lon="6.36233">
        <ele>2258</ele>
        <time>2016-09-01T14:04:15+02:00</time>
      </trkpt>
      <trkpt lat="44.78756" lon="6.36209">
        <ele>2259</ele>
        <time>2016-09-01T14:04:49+02:00</time>
      </trkpt>
      <trkpt lat="44.78737" lon="6.36191">
        <ele>2265</ele>
        <time>2016-09-01T14:05:33+02:00</time>
      </trkpt>
      <trkpt lat="44.78733" lon="6.36223">
        <ele>2268</ele>
        <time>2016-09-01T14:06:34+02:00</time>
      </trkpt>
      <trkpt lat="44.7872" lon="6.36252">
        <ele>2273</ele>
        <time>2016-09-01T14:07:16+02:00</time>
      </trkpt>
      <trkpt lat="44.78715" lon="6.36284">
        <ele>2276</ele>
        <time>2016-09-01T14:07:48+02:00</time>
      </trkpt>
      <trkpt lat="44.78706" lon="6.36312">
        <ele>2276</ele>
        <time>2016-09-01T14:08:16+02:00</time>
      </trkpt>
      <trkpt lat="44.7871" lon="6.36344">
        <ele>2277</ele>
        <time>2016-09-01T14:08:54+02:00</time>
      </trkpt>
      <trkpt lat="44.78717" lon="6.36374">
        <ele>2276</ele>
        <time>2016-09-01T14:09:15+02:00</time>
      </trkpt>
      <trkpt lat="44.78694" lon="6.36369">
        <ele>2279</ele>
        <time>2016-09-01T14:10:40+02:00</time>
      </trkpt>
      <trkpt lat="44.78673" lon="6.36381">
        <ele>2282</ele>
        <time>2016-09-01T14:11:16+02:00</time>
      </trkpt>
      <trkpt lat="44.7865" lon="6.36377">
        <ele>2287</ele>
        <time>2016-09-01T14:12:05+02:00</time>
      </trkpt>
      <trkpt lat="44.78635" lon="6.36353">
        <ele>2299</ele>
        <time>2016-09-01T14:17:41+02:00</time>
      </trkpt>
      <trkpt lat="44.78612" lon="6.36362">
        <ele>2302</ele>
        <time>2016-09-01T14:18:18+02:00</time>
      </trkpt>
      <trkpt lat="44.7859" lon="6.36375">
        <ele>2304</ele>
        <time>2016-09-01T14:18:41+02:00</time>
      </trkpt>
      <trkpt lat="44.78569" lon="6.36363">
        <ele>2310</ele>
        <time>2016-09-01T14:19:29+02:00</time>
      </trkpt>
      <trkpt lat="44.78557" lon="6.36333">
        <ele>2315</ele>
        <time>2016-09-01T14:20:22+02:00</time>
      </trkpt>
      <trkpt lat="44.78535" lon="6.36344">
        <ele>2319</ele>
        <time>2016-09-01T14:21:05+02:00</time>
      </trkpt>
      <trkpt lat="44.78534" lon="6.36312">
        <ele>2324</ele>
        <time>2016-09-01T14:22:02+02:00</time>
      </trkpt>
      <trkpt lat="44.78512" lon="6.36304">
        <ele>2331</ele>
        <time>2016-09-01T14:23:25+02:00</time>
      </trkpt>
      <trkpt lat="44.78496" lon="6.36281">
        <ele>2340</ele>
        <time>2016-09-01T14:25:10+02:00</time>
      </trkpt>
      <trkpt lat="44.78485" lon="6.36253">
        <ele>2358</ele>
        <time>2016-09-01T14:28:01+02:00</time>
      </trkpt>
      <trkpt lat="44.78482" lon="6.36221">
        <ele>2365</ele>
        <time>2016-09-01T14:29:13+02:00</time>
      </trkpt>
      <trkpt lat="44.78485" lon="6.36188">
        <ele>2373</ele>
        <time>2016-09-01T14:30:31+02:00</time>
      </trkpt>
      <trkpt lat="44.78495" lon="6.3616">
        <ele>2384</ele>
        <time>2016-09-01T14:32:13+02:00</time>
      </trkpt>
      <trkpt lat="44.78505" lon="6.36129">
        <ele>2396</ele>
        <time>2016-09-01T14:34:38+02:00</time>
      </trkpt>
      <trkpt lat="44.78525" lon="6.36113">
        <ele>2400</ele>
        <time>2016-09-01T14:35:18+02:00</time>
      </trkpt>
      <trkpt lat="44.78514" lon="6.36085">
        <ele>2410</ele>
        <time>2016-09-01T14:36:52+02:00</time>
      </trkpt>
      <trkpt lat="44.78514" lon="6.36054">
        <ele>2414</ele>
        <time>2016-09-01T14:38:14+02:00</time>
      </trkpt>
      <trkpt lat="44.78493" lon="6.36041">
        <ele>2418</ele>
        <time>2016-09-01T14:38:53+02:00</time>
      </trkpt>
      <trkpt lat="44.7847" lon="6.36042">
        <ele>2421</ele>
        <time>2016-09-01T14:39:30+02:00</time>
      </trkpt>
      <trkpt lat="44.78451" lon="6.36026">
        <ele>2433</ele>
        <time>2016-09-01T14:40:55+02:00</time>
      </trkpt>
      <trkpt lat="44.78472" lon="6.36015">
        <ele>2437</ele>
        <time>2016-09-01T14:41:51+02:00</time>
      </trkpt>
      <trkpt lat="44.78495" lon="6.36013">
        <ele>2440</ele>
        <time>2016-09-01T14:42:21+02:00</time>
      </trkpt>
      <trkpt lat="44.78486" lon="6.35984">
        <ele>2444</ele>
        <time>2016-09-01T14:43:02+02:00</time>
      </trkpt>
      <trkpt lat="44.78463" lon="6.35975">
        <ele>2449</ele>
        <time>2016-09-01T14:44:08+02:00</time>
      </trkpt>
      <trkpt lat="44.78441" lon="6.35971">
        <ele>2451</ele>
        <time>2016-09-01T14:44:38+02:00</time>
      </trkpt>
      <trkpt lat="44.78419" lon="6.35978">
        <ele>2454</ele>
        <time>2016-09-01T14:45:16+02:00</time>
      </trkpt>
      <trkpt lat="44.78405" lon="6.36004">
        <ele>2457</ele>
        <time>2016-09-01T14:45:43+02:00</time>
      </trkpt>
      <trkpt lat="44.78383" lon="6.3601">
        <ele>2459</ele>
        <time>2016-09-01T14:46:34+02:00</time>
      </trkpt>
      <trkpt lat="44.78364" lon="6.35991">
        <ele>2467</ele>
        <time>2016-09-01T14:48:07+02:00</time>
      </trkpt>
      <trkpt lat="44.78346" lon="6.35971">
        <ele>2471</ele>
        <time>2016-09-01T14:48:51+02:00</time>
      </trkpt>
      <trkpt lat="44.7833" lon="6.35948">
        <ele>2473</ele>
        <time>2016-09-01T14:49:16+02:00</time>
      </trkpt>
      <trkpt lat="44.78317" lon="6.35922">
        <ele>2477</ele>
        <time>2016-09-01T14:50:17+02:00</time>
      </trkpt>
      <trkpt lat="44.783" lon="6.35899">
        <ele>2479</ele>
        <time>2016-09-01T14:50:40+02:00</time>
      </trkpt>
      <trkpt lat="44.78289" lon="6.35871">
        <ele>2483</ele>
        <time>2016-09-01T14:51:04+02:00</time>
      </trkpt>
      <trkpt lat="44.7828" lon="6.35841">
        <ele>2479</ele>
        <time>2016-09-01T14:51:32+02:00</time>
      </trkpt>
      <trkpt lat="44.78265" lon="6.35817">
        <ele>2479</ele>
        <time>2016-09-01T14:52:03+02:00</time>
      </trkpt>
      <trkpt lat="44.78246" lon="6.358">
        <ele>2480</ele>
        <time>2016-09-01T14:52:47+02:00</time>
      </trkpt>
      <trkpt lat="44.78227" lon="6.35819">
        <ele>2480</ele>
        <time>2016-09-01T15:05:22+02:00</time>
      </trkpt>
      <trkpt lat="44.78226" lon="6.35852">
        <ele>2491</ele>
        <time>2016-09-01T15:05:49+02:00</time>
      </trkpt>
      <trkpt lat="44.78223" lon="6.35885">
        <ele>2491</ele>
        <time>2016-09-01T15:06:11+02:00</time>
      </trkpt>
      <trkpt lat="44.78215" lon="6.35915">
        <ele>2492</ele>
        <time>2016-09-01T15:06:38+02:00</time>
      </trkpt>
      <trkpt lat="44.78215" lon="6.35947">
        <ele>2494</ele>
        <time>2016-09-01T15:07:04+02:00</time>
      </trkpt>
      <trkpt lat="44.78214" lon="6.35979">
        <ele>2493</ele>
        <time>2016-09-01T15:07:26+02:00</time>
      </trkpt>
      <trkpt lat="44.78213" lon="6.36011">
        <ele>2496</ele>
        <time>2016-09-01T15:08:04+02:00</time>
      </trkpt>
      <trkpt lat="44.78215" lon="6.36043">
        <ele>2501</ele>
        <time>2016-09-01T15:08:39+02:00</time>
      </trkpt>
      <trkpt lat="44.78206" lon="6.36073">
        <ele>2507</ele>
        <time>2016-09-01T15:09:42+02:00</time>
      </trkpt>
      <trkpt lat="44.78183" lon="6.36078">
        <ele>2514</ele>
        <time>2016-09-01T15:11:21+02:00</time>
      </trkpt>
      <trkpt lat="44.78168" lon="6.36051">
        <ele>2521</ele>
        <time>2016-09-01T15:12:15+02:00</time>
      </trkpt>
      <trkpt lat="44.78152" lon="6.36028">
        <ele>2526</ele>
        <time>2016-09-01T15:12:58+02:00</time>
      </trkpt>
      <trkpt lat="44.78136" lon="6.36004">
        <ele>2533</ele>
        <time>2016-09-01T15:13:46+02:00</time>
      </trkpt>
      <trkpt lat="44.78115" lon="6.36015">
        <ele>2538</ele>
        <time>2016-09-01T15:14:39+02:00</time>
      </trkpt>
      <trkpt lat="44.78092" lon="6.36018">
        <ele>2542</ele>
        <time>2016-09-01T15:15:48+02:00</time>
      </trkpt>
      <trkpt lat="44.78069" lon="6.36017">
        <ele>2542</ele>
        <time>2016-09-01T15:16:11+02:00</time>
      </trkpt>
      <trkpt lat="44.78047" lon="6.36013">
        <ele>2543</ele>
        <time>2016-09-01T15:16:35+02:00</time>
      </trkpt>
      <trkpt lat="44.78024" lon="6.36012">
        <ele>2545</ele>
        <time>2016-09-01T15:18:21+02:00</time>
      </trkpt>
      <trkpt lat="44.78002" lon="6.36003">
        <ele>2548</ele>
        <time>2016-09-01T15:18:54+02:00</time>
      </trkpt>
      <trkpt lat="44.77979" lon="6.36001">
        <ele>2548</ele>
        <time>2016-09-01T15:19:26+02:00</time>
      </trkpt>
      <trkpt lat="44.77958" lon="6.35985">
        <ele>2549</ele>
        <time>2016-09-01T15:20:09+02:00</time>
      </trkpt>
      <trkpt lat="44.77936" lon="6.35978">
        <ele>2559</ele>
        <time>2016-09-01T15:21:34+02:00</time>
      </trkpt>
      <trkpt lat="44.77913" lon="6.35974">
        <ele>2570</ele>
        <time>2016-09-01T15:23:25+02:00</time>
      </trkpt>
      <trkpt lat="44.77891" lon="6.35957">
        <ele>2580</ele>
        <time>2016-09-01T15:24:52+02:00</time>
      </trkpt>
      <trkpt lat="44.77868" lon="6.35944">
        <ele>2587</ele>
        <time>2016-09-01T15:26:11+02:00</time>
      </trkpt>
      <trkpt lat="44.77847" lon="6.35932">
        <ele>2591</ele>
        <time>2016-09-01T15:26:54+02:00</time>
      </trkpt>
      <trkpt lat="44.77826" lon="6.35916">
        <ele>2594</ele>
        <time>2016-09-01T15:27:26+02:00</time>
      </trkpt>
      <trkpt lat="44.77805" lon="6.35905">
        <ele>2602</ele>
        <time>2016-09-01T15:28:30+02:00</time>
      </trkpt>
      <trkpt lat="44.77785" lon="6.35891">
        <ele>2607</ele>
        <time>2016-09-01T15:29:21+02:00</time>
      </trkpt>
      <trkpt lat="44.77761" lon="6.35895">
        <ele>2608</ele>
        <time>2016-09-01T15:30:41+02:00</time>
      </trkpt>
      <trkpt lat="44.77738" lon="6.35892">
        <ele>2616</ele>
        <time>2016-09-01T15:31:37+02:00</time>
      </trkpt>
      <trkpt lat="44.77717" lon="6.35904">
        <ele>2619</ele>
        <time>2016-09-01T15:32:12+02:00</time>
      </trkpt>
      <trkpt lat="44.77697" lon="6.35919">
        <ele>2623</ele>
        <time>2016-09-01T15:32:58+02:00</time>
      </trkpt>
      <trkpt lat="44.77675" lon="6.3593">
        <ele>2623</ele>
        <time>2016-09-01T15:33:24+02:00</time>
      </trkpt>
      <trkpt lat="44.77654" lon="6.35941">
        <ele>2624</ele>
        <time>2016-09-01T15:33:45+02:00</time>
      </trkpt>
      <trkpt lat="44.77639" lon="6.35966">
        <ele>2630</ele>
        <time>2016-09-01T15:34:48+02:00</time>
      </trkpt>
      <trkpt lat="44.77618" lon="6.35978">
        <ele>2637</ele>
        <time>2016-09-01T15:35:39+02:00</time>
      </trkpt>
      <trkpt lat="44.77599" lon="6.35993">
        <ele>2636</ele>
        <time>2016-09-01T15:36:19+02:00</time>
      </trkpt>
      <trkpt lat="44.7758" lon="6.3601">
        <ele>2647</ele>
        <time>2016-09-01T15:38:03+02:00</time>
      </trkpt>
      <trkpt lat="44.77557" lon="6.36008">
        <ele>2654</ele>
        <time>2016-09-01T15:39:05+02:00</time>
      </trkpt>
      <trkpt lat="44.77536" lon="6.36019">
        <ele>2666</ele>
        <time>2016-09-01T15:40:29+02:00</time>
      </trkpt>
      <trkpt lat="44.77518" lon="6.36039">
        <ele>2673</ele>
        <time>2016-09-01T15:41:32+02:00</time>
      </trkpt>
      <trkpt lat="44.77505" lon="6.36066">
        <ele>2678</ele>
        <time>2016-09-01T15:42:57+02:00</time>
      </trkpt>
      <trkpt lat="44.77488" lon="6.36087">
        <ele>2698</ele>
        <time>2016-09-01T15:44:28+02:00</time>
      </trkpt>
      <trkpt lat="44.77485" lon="6.36118">
        <ele>2715</ele>
        <time>2016-09-01T15:45:37+02:00</time>
      </trkpt>
      <trkpt lat="44.77463" lon="6.36116">
        <ele>2725</ele>
        <time>2016-09-01T15:49:24+02:00</time>
      </trkpt>
      <trkpt lat="44.77451" lon="6.36089">
        <ele>2752</ele>
        <time>2016-09-01T15:53:03+02:00</time>
      </trkpt>
      <trkpt lat="44.77439" lon="6.36058">
        <ele>2760</ele>
        <time>2016-09-01T15:54:31+02:00</time>
      </trkpt>
      <trkpt lat="44.77425" lon="6.36031">
        <ele>2759</ele>
        <time>2016-09-01T15:55:05+02:00</time>
      </trkpt>
      <trkpt lat="44.77413" lon="6.36003">
        <ele>2763</ele>
        <time>2016-09-01T16:00:24+02:00</time>
      </trkpt>
      <trkpt lat="44.77408" lon="6.35972">
        <ele>2762</ele>
        <time>2016-09-01T16:00:49+02:00</time>
      </trkpt>
      <trkpt lat="44.77405" lon="6.3594">
        <ele>2758</ele>
        <time>2016-09-01T16:01:07+02:00</time>
      </trkpt>
      <trkpt lat="44.77399" lon="6.35908">
        <ele>2757</ele>
        <time>2016-09-01T16:01:33+02:00</time>
      </trkpt>
      <trkpt lat="44.77386" lon="6.35882">
        <ele>2759</ele>
        <time>2016-09-01T16:02:08+02:00</time>
      </trkpt>
      <trkpt lat="44.77372" lon="6.35856">
        <ele>2759</ele>
        <time>2016-09-01T16:02:44+02:00</time>
      </trkpt>
      <trkpt lat="44.77356" lon="6.35833">
        <ele>2757</ele>
        <time>2016-09-01T16:03:05+02:00</time>
      </trkpt>
      <trkpt lat="44.77339" lon="6.35813">
        <ele>2751</ele>
        <time>2016-09-01T16:03:32+02:00</time>
      </trkpt>
      <trkpt lat="44.77319" lon="6.35796">
        <ele>2745</ele>
        <time>2016-09-01T16:04:09+02:00</time>
      </trkpt>
      <trkpt lat="44.77298" lon="6.35781">
        <ele>2739</ele>
        <time>2016-09-01T16:04:41+02:00</time>
      </trkpt>
      <trkpt lat="44.77289" lon="6.35752">
        <ele>2737</ele>
        <time>2016-09-01T16:05:16+02:00</time>
      </trkpt>
      <trkpt lat="44.7727" lon="6.35733">
        <ele>2734</ele>
        <time>2016-09-01T16:06:14+02:00</time>
      </trkpt>
      <trkpt lat="44.77251" lon="6.35713">
        <ele>2735</ele>
        <time>2016-09-01T16:06:59+02:00</time>
      </trkpt>
      <trkpt lat="44.77227" lon="6.35714">
        <ele>2732</ele>
        <time>2016-09-01T16:07:21+02:00</time>
      </trkpt>
      <trkpt lat="44.77208" lon="6.35695">
        <ele>2730</ele>
        <time>2016-09-01T16:07:47+02:00</time>
      </trkpt>
      <trkpt lat="44.77186" lon="6.35685">
        <ele>2731</ele>
        <time>2016-09-01T16:08:17+02:00</time>
      </trkpt>
      <trkpt lat="44.77164" lon="6.35683">
        <ele>2727</ele>
        <time>2016-09-01T16:08:58+02:00</time>
      </trkpt>
      <trkpt lat="44.77142" lon="6.35672">
        <ele>2725</ele>
        <time>2016-09-01T16:09:35+02:00</time>
      </trkpt>
      <trkpt lat="44.77125" lon="6.3565">
        <ele>2731</ele>
        <time>2016-09-01T16:10:11+02:00</time>
      </trkpt>
      <trkpt lat="44.77112" lon="6.35624">
        <ele>2728</ele>
        <time>2016-09-01T16:10:37+02:00</time>
      </trkpt>
      <trkpt lat="44.77089" lon="6.35619">
        <ele>2728</ele>
        <time>2016-09-01T16:11:20+02:00</time>
      </trkpt>
      <trkpt lat="44.77066" lon="6.35618">
        <ele>2726</ele>
        <time>2016-09-01T16:11:39+02:00</time>
      </trkpt>
      <trkpt lat="44.77043" lon="6.35616">
        <ele>2722</ele>
        <time>2016-09-01T16:12:04+02:00</time>
      </trkpt>
      <trkpt lat="44.77022" lon="6.35605">
        <ele>2722</ele>
        <time>2016-09-01T16:12:51+02:00</time>
      </trkpt>
      <trkpt lat="44.77001" lon="6.35594">
        <ele>2720</ele>
        <time>2016-09-01T16:13:23+02:00</time>
      </trkpt>
      <trkpt lat="44.76982" lon="6.35577">
        <ele>2718</ele>
        <time>2016-09-01T16:14:03+02:00</time>
      </trkpt>
      <trkpt lat="44.76969" lon="6.35551">
        <ele>2720</ele>
        <time>2016-09-01T16:14:47+02:00</time>
      </trkpt>
      <trkpt lat="44.76951" lon="6.35529">
        <ele>2719</ele>
        <time>2016-09-01T16:15:09+02:00</time>
      </trkpt>
      <trkpt lat="44.76938" lon="6.35503">
        <ele>2720</ele>
        <time>2016-09-01T16:16:26+02:00</time>
      </trkpt>
      <trkpt lat="44.76923" lon="6.35478">
        <ele>2721</ele>
        <time>2016-09-01T16:16:43+02:00</time>
      </trkpt>
      <trkpt lat="44.76904" lon="6.35462">
        <ele>2721</ele>
        <time>2016-09-01T16:17:08+02:00</time>
      </trkpt>
      <trkpt lat="44.76887" lon="6.3544">
        <ele>2722</ele>
        <time>2016-09-01T16:17:40+02:00</time>
      </trkpt>
      <trkpt lat="44.76868" lon="6.35422">
        <ele>2723</ele>
        <time>2016-09-01T16:18:04+02:00</time>
      </trkpt>
      <trkpt lat="44.7685" lon="6.35402">
        <ele>2728</ele>
        <time>2016-09-01T16:18:31+02:00</time>
      </trkpt>
      <trkpt lat="44.76845" lon="6.3537">
        <ele>2733</ele>
        <time>2016-09-01T16:20:56+02:00</time>
      </trkpt>
      <trkpt lat="44.76844" lon="6.35337">
        <ele>2730</ele>
        <time>2016-09-01T16:25:35+02:00</time>
      </trkpt>
      <trkpt lat="44.76843" lon="6.35305">
        <ele>2725</ele>
        <time>2016-09-01T16:25:53+02:00</time>
      </trkpt>
      <trkpt lat="44.76823" lon="6.35322">
        <ele>2716</ele>
        <time>2016-09-01T16:26:47+02:00</time>
      </trkpt>
      <trkpt lat="44.76806" lon="6.35301">
        <ele>2706</ele>
        <time>2016-09-01T16:27:33+02:00</time>
      </trkpt>
      <trkpt lat="44.76799" lon="6.35271">
        <ele>2702</ele>
        <time>2016-09-01T16:27:56+02:00</time>
      </trkpt>
      <trkpt lat="44.76798" lon="6.35239">
        <ele>2697</ele>
        <time>2016-09-01T16:28:19+02:00</time>
      </trkpt>
      <trkpt lat="44.76792" lon="6.35208">
        <ele>2693</ele>
        <time>2016-09-01T16:28:45+02:00</time>
      </trkpt>
      <trkpt lat="44.76771" lon="6.35222">
        <ele>2686</ele>
        <time>2016-09-01T16:29:26+02:00</time>
      </trkpt>
      <trkpt lat="44.76767" lon="6.35254">
        <ele>2683</ele>
        <time>2016-09-01T16:30:46+02:00</time>
      </trkpt>
      <trkpt lat="44.76749" lon="6.35274">
        <ele>2680</ele>
        <time>2016-09-01T16:31:09+02:00</time>
      </trkpt>
      <trkpt lat="44.76733" lon="6.35297">
        <ele>2676</ele>
        <time>2016-09-01T16:31:31+02:00</time>
      </trkpt>
      <trkpt lat="44.76711" lon="6.353">
        <ele>2670</ele>
        <time>2016-09-01T16:32:10+02:00</time>
      </trkpt>
      <trkpt lat="44.76688" lon="6.35303">
        <ele>2667</ele>
        <time>2016-09-01T16:32:35+02:00</time>
      </trkpt>
      <trkpt lat="44.76668" lon="6.35289">
        <ele>2660</ele>
        <time>2016-09-01T16:33:06+02:00</time>
      </trkpt>
      <trkpt lat="44.76676" lon="6.3526">
        <ele>2654</ele>
        <time>2016-09-01T16:33:33+02:00</time>
      </trkpt>
      <trkpt lat="44.76684" lon="6.35229">
        <ele>2650</ele>
        <time>2016-09-01T16:33:55+02:00</time>
      </trkpt>
      <trkpt lat="44.7668" lon="6.35198">
        <ele>2646</ele>
        <time>2016-09-01T16:34:17+02:00</time>
      </trkpt>
      <trkpt lat="44.76657" lon="6.35194">
        <ele>2637</ele>
        <time>2016-09-01T16:34:57+02:00</time>
      </trkpt>
      <trkpt lat="44.76636" lon="6.35205">
        <ele>2627</ele>
        <time>2016-09-01T16:35:38+02:00</time>
      </trkpt>
      <trkpt lat="44.76618" lon="6.35185">
        <ele>2622</ele>
        <time>2016-09-01T16:36:27+02:00</time>
      </trkpt>
      <trkpt lat="44.76601" lon="6.35163">
        <ele>2618</ele>
        <time>2016-09-01T16:37:08+02:00</time>
      </trkpt>
      <trkpt lat="44.76579" lon="6.35169">
        <ele>2608</ele>
        <time>2016-09-01T16:37:55+02:00</time>
      </trkpt>
      <trkpt lat="44.76557" lon="6.35179">
        <ele>2606</ele>
        <time>2016-09-01T16:38:17+02:00</time>
      </trkpt>
      <trkpt lat="44.76538" lon="6.3516">
        <ele>2599</ele>
        <time>2016-09-01T16:39:20+02:00</time>
      </trkpt>
      <trkpt lat="44.76533" lon="6.35129">
        <ele>2590</ele>
        <time>2016-09-01T16:40:35+02:00</time>
      </trkpt>
      <trkpt lat="44.76511" lon="6.35119">
        <ele>2579</ele>
        <time>2016-09-01T16:41:58+02:00</time>
      </trkpt>
      <trkpt lat="44.76489" lon="6.35126">
        <ele>2577</ele>
        <time>2016-09-01T16:43:00+02:00</time>
      </trkpt>
      <trkpt lat="44.76503" lon="6.35101">
        <ele>2571</ele>
        <time>2016-09-01T16:44:00+02:00</time>
      </trkpt>
      <trkpt lat="44.76523" lon="6.35085">
        <ele>2562</ele>
        <time>2016-09-01T16:45:26+02:00</time>
      </trkpt>
      <trkpt lat="44.76542" lon="6.35067">
        <ele>2557</ele>
        <time>2016-09-01T16:45:53+02:00</time>
      </trkpt>
      <trkpt lat="44.7652" lon="6.35056">
        <ele>2546</ele>
        <time>2016-09-01T16:47:03+02:00</time>
      </trkpt>
      <trkpt lat="44.76497" lon="6.35055">
        <ele>2540</ele>
        <time>2016-09-01T16:47:38+02:00</time>
      </trkpt>
      <trkpt lat="44.76474" lon="6.35054">
        <ele>2535</ele>
        <time>2016-09-01T16:48:07+02:00</time>
      </trkpt>
      <trkpt lat="44.76479" lon="6.3502">
        <ele>2519</ele>
        <time>2016-09-01T16:49:38+02:00</time>
      </trkpt>
      <trkpt lat="44.76456" lon="6.35022">
        <ele>2505</ele>
        <time>2016-09-01T16:50:48+02:00</time>
      </trkpt>
      <trkpt lat="44.76463" lon="6.34991">
        <ele>2496</ele>
        <time>2016-09-01T16:51:31+02:00</time>
      </trkpt>
      <trkpt lat="44.76486" lon="6.34984">
        <ele>2481</ele>
        <time>2016-09-01T16:53:18+02:00</time>
      </trkpt>
      <trkpt lat="44.76507" lon="6.34972">
        <ele>2478</ele>
        <time>2016-09-01T16:53:45+02:00</time>
      </trkpt>
      <trkpt lat="44.76507" lon="6.3494">
        <ele>2460</ele>
        <time>2016-09-01T16:55:06+02:00</time>
      </trkpt>
      <trkpt lat="44.76514" lon="6.3491">
        <ele>2442</ele>
        <time>2016-09-01T16:56:43+02:00</time>
      </trkpt>
      <trkpt lat="44.76493" lon="6.34897">
        <ele>2435</ele>
        <time>2016-09-01T16:57:12+02:00</time>
      </trkpt>
      <trkpt lat="44.76481" lon="6.3487">
        <ele>2422</ele>
        <time>2016-09-01T16:58:37+02:00</time>
      </trkpt>
      <trkpt lat="44.76458" lon="6.34871">
        <ele>2419</ele>
        <time>2016-09-01T16:59:19+02:00</time>
      </trkpt>
      <trkpt lat="44.76476" lon="6.3485">
        <ele>2417</ele>
        <time>2016-09-01T16:59:41+02:00</time>
      </trkpt>
      <trkpt lat="44.76454" lon="6.3484">
        <ele>2406</ele>
        <time>2016-09-01T17:00:55+02:00</time>
      </trkpt>
      <trkpt lat="44.76457" lon="6.34808">
        <ele>2396</ele>
        <time>2016-09-01T17:02:11+02:00</time>
      </trkpt>
      <trkpt lat="44.76434" lon="6.34809">
        <ele>2387</ele>
        <time>2016-09-01T17:03:30+02:00</time>
      </trkpt>
      <trkpt lat="44.76427" lon="6.34778">
        <ele>2373</ele>
        <time>2016-09-01T17:04:48+02:00</time>
      </trkpt>
      <trkpt lat="44.76413" lon="6.34752">
        <ele>2362</ele>
        <time>2016-09-01T17:06:08+02:00</time>
      </trkpt>
      <trkpt lat="44.76391" lon="6.3475">
        <ele>2353</ele>
        <time>2016-09-01T17:07:20+02:00</time>
      </trkpt>
      <trkpt lat="44.76375" lon="6.34727">
        <ele>2344</ele>
        <time>2016-09-01T17:08:04+02:00</time>
      </trkpt>
      <trkpt lat="44.76363" lon="6.34701">
        <ele>2330</ele>
        <time>2016-09-01T17:09:03+02:00</time>
      </trkpt>
      <trkpt lat="44.7634" lon="6.34696">
        <ele>2314</ele>
        <time>2016-09-01T17:10:14+02:00</time>
      </trkpt>
      <trkpt lat="44.76321" lon="6.34716">
        <ele>2306</ele>
        <time>2016-09-01T17:11:09+02:00</time>
      </trkpt>
      <trkpt lat="44.763" lon="6.34706">
        <ele>2286</ele>
        <time>2016-09-01T17:13:20+02:00</time>
      </trkpt>
      <trkpt lat="44.76293" lon="6.34736">
        <ele>2279</ele>
        <time>2016-09-01T17:14:14+02:00</time>
      </trkpt>
      <trkpt lat="44.76273" lon="6.34721">
        <ele>2272</ele>
        <time>2016-09-01T17:14:49+02:00</time>
      </trkpt>
      <trkpt lat="44.7625" lon="6.34717">
        <ele>2265</ele>
        <time>2016-09-01T17:15:21+02:00</time>
      </trkpt>
      <trkpt lat="44.76227" lon="6.34711">
        <ele>2258</ele>
        <time>2016-09-01T17:17:01+02:00</time>
      </trkpt>
      <trkpt lat="44.76212" lon="6.34687">
        <ele>2253</ele>
        <time>2016-09-01T17:17:36+02:00</time>
      </trkpt>
      <trkpt lat="44.7619" lon="6.34679">
        <ele>2244</ele>
        <time>2016-09-01T17:18:27+02:00</time>
      </trkpt>
      <trkpt lat="44.76167" lon="6.3468">
        <ele>2243</ele>
        <time>2016-09-01T17:19:23+02:00</time>
      </trkpt>
      <trkpt lat="44.76157" lon="6.34651">
        <ele>2234</ele>
        <time>2016-09-01T17:20:14+02:00</time>
      </trkpt>
      <trkpt lat="44.76157" lon="6.34619">
        <ele>2226</ele>
        <time>2016-09-01T17:20:54+02:00</time>
      </trkpt>
      <trkpt lat="44.76154" lon="6.34587">
        <ele>2214</ele>
        <time>2016-09-01T17:22:05+02:00</time>
      </trkpt>
      <trkpt lat="44.76171" lon="6.34567">
        <ele>2212</ele>
        <time>2016-09-01T17:28:35+02:00</time>
      </trkpt>
      <trkpt lat="44.76192" lon="6.34556">
        <ele>2209</ele>
        <time>2016-09-01T17:31:42+02:00</time>
      </trkpt>
      <trkpt lat="44.76169" lon="6.3455">
        <ele>2202</ele>
        <time>2016-09-01T17:32:16+02:00</time>
      </trkpt>
      <trkpt lat="44.76148" lon="6.34538">
        <ele>2198</ele>
        <time>2016-09-01T17:32:37+02:00</time>
      </trkpt>
      <trkpt lat="44.76153" lon="6.34507">
        <ele>2191</ele>
        <time>2016-09-01T17:33:17+02:00</time>
      </trkpt>
      <trkpt lat="44.76174" lon="6.34492">
        <ele>2187</ele>
        <time>2016-09-01T17:33:43+02:00</time>
      </trkpt>
      <trkpt lat="44.76194" lon="6.34477">
        <ele>2183</ele>
        <time>2016-09-01T17:34:10+02:00</time>
      </trkpt>
      <trkpt lat="44.76215" lon="6.34466">
        <ele>2179</ele>
        <time>2016-09-01T17:34:35+02:00</time>
      </trkpt>
      <trkpt lat="44.762" lon="6.34443">
        <ele>2171</ele>
        <time>2016-09-01T17:35:08+02:00</time>
      </trkpt>
      <trkpt lat="44.7618" lon="6.34427">
        <ele>2165</ele>
        <time>2016-09-01T17:36:41+02:00</time>
      </trkpt>
      <trkpt lat="44.76159" lon="6.34412">
        <ele>2161</ele>
        <time>2016-09-01T17:37:01+02:00</time>
      </trkpt>
      <trkpt lat="44.76138" lon="6.34401">
        <ele>2156</ele>
        <time>2016-09-01T17:37:25+02:00</time>
      </trkpt>
      <trkpt lat="44.76161" lon="6.34384">
        <ele>2153</ele>
        <time>2016-09-01T17:37:47+02:00</time>
      </trkpt>
      <trkpt lat="44.7614" lon="6.34369">
        <ele>2148</ele>
        <time>2016-09-01T17:38:13+02:00</time>
      </trkpt>
      <trkpt lat="44.76122" lon="6.34349">
        <ele>2143</ele>
        <time>2016-09-01T17:38:42+02:00</time>
      </trkpt>
      <trkpt lat="44.76104" lon="6.34329">
        <ele>2137</ele>
        <time>2016-09-01T17:39:07+02:00</time>
      </trkpt>
      <trkpt lat="44.76114" lon="6.343">
        <ele>2132</ele>
        <time>2016-09-01T17:39:54+02:00</time>
      </trkpt>
      <trkpt lat="44.76099" lon="6.34274">
        <ele>2115</ele>
        <time>2016-09-01T17:41:27+02:00</time>
      </trkpt>
      <trkpt lat="44.76091" lon="6.34245">
        <ele>2099</ele>
        <time>2016-09-01T17:42:24+02:00</time>
      </trkpt>
      <trkpt lat="44.7608" lon="6.34217">
        <ele>2094</ele>
        <time>2016-09-01T17:42:47+02:00</time>
      </trkpt>
      <trkpt lat="44.76084" lon="6.34184">
        <ele>2088</ele>
        <time>2016-09-01T17:43:15+02:00</time>
      </trkpt>
      <trkpt lat="44.76094" lon="6.34155">
        <ele>2085</ele>
        <time>2016-09-01T17:43:29+02:00</time>
      </trkpt>
      <trkpt lat="44.76111" lon="6.34131">
        <ele>2082</ele>
        <time>2016-09-01T17:43:45+02:00</time>
      </trkpt>
      <trkpt lat="44.76125" lon="6.34105">
        <ele>2080</ele>
        <time>2016-09-01T17:44:05+02:00</time>
      </trkpt>
      <trkpt lat="44.76133" lon="6.34075">
        <ele>2078</ele>
        <time>2016-09-01T17:44:27+02:00</time>
      </trkpt>
      <trkpt lat="44.76154" lon="6.3406">
        <ele>2076</ele>
        <time>2016-09-01T17:44:48+02:00</time>
      </trkpt>
      <trkpt lat="44.76172" lon="6.3404">
        <ele>2074</ele>
        <time>2016-09-01T17:45:10+02:00</time>
      </trkpt>
      <trkpt lat="44.76195" lon="6.34034">
        <ele>2072</ele>
        <time>2016-09-01T17:45:27+02:00</time>
      </trkpt>
      <trkpt lat="44.76216" lon="6.34022">
        <ele>2070</ele>
        <time>2016-09-01T17:45:58+02:00</time>
      </trkpt>
      <trkpt lat="44.76238" lon="6.34025">
        <ele>2067</ele>
        <time>2016-09-01T17:46:18+02:00</time>
      </trkpt>
      <trkpt lat="44.76256" lon="6.34004">
        <ele>2063</ele>
        <time>2016-09-01T17:46:42+02:00</time>
      </trkpt>
      <trkpt lat="44.76279" lon="6.34014">
        <ele>2058</ele>
        <time>2016-09-01T17:47:07+02:00</time>
      </trkpt>
      <trkpt lat="44.76301" lon="6.34017">
        <ele>2053</ele>
        <time>2016-09-01T17:47:34+02:00</time>
      </trkpt>
      <trkpt lat="44.76311" lon="6.33988">
        <ele>2036</ele>
        <time>2016-09-01T17:49:10+02:00</time>
      </trkpt>
      <trkpt lat="44.76327" lon="6.33965">
        <ele>2033</ele>
        <time>2016-09-01T17:49:30+02:00</time>
      </trkpt>
      <trkpt lat="44.76322" lon="6.33933">
        <ele>2025</ele>
        <time>2016-09-01T17:50:06+02:00</time>
      </trkpt>
      <trkpt lat="44.76332" lon="6.33904">
        <ele>2017</ele>
        <time>2016-09-01T17:50:43+02:00</time>
      </trkpt>
      <trkpt lat="44.76321" lon="6.33875">
        <ele>2011</ele>
        <time>2016-09-01T17:51:18+02:00</time>
      </trkpt>
      <trkpt lat="44.76335" lon="6.33851">
        <ele>2007</ele>
        <time>2016-09-01T17:51:50+02:00</time>
      </trkpt>
      <trkpt lat="44.7635" lon="6.33825">
        <ele>2001</ele>
        <time>2016-09-01T17:52:25+02:00</time>
      </trkpt>
      <trkpt lat="44.76345" lon="6.33794">
        <ele>1992</ele>
        <time>2016-09-01T17:53:11+02:00</time>
      </trkpt>
      <trkpt lat="44.76345" lon="6.33762">
        <ele>1986</ele>
        <time>2016-09-01T17:53:46+02:00</time>
      </trkpt>
      <trkpt lat="44.76355" lon="6.33733">
        <ele>1979</ele>
        <time>2016-09-01T17:54:34+02:00</time>
      </trkpt>
      <trkpt lat="44.76335" lon="6.3372">
        <ele>1973</ele>
        <time>2016-09-01T17:55:05+02:00</time>
      </trkpt>
      <trkpt lat="44.7633" lon="6.33688">
        <ele>1967</ele>
        <time>2016-09-01T17:56:30+02:00</time>
      </trkpt>
      <trkpt lat="44.76339" lon="6.33659">
        <ele>1965</ele>
        <time>2016-09-01T17:56:47+02:00</time>
      </trkpt>
      <trkpt lat="44.7635" lon="6.33629">
        <ele>1963</ele>
        <time>2016-09-01T17:57:09+02:00</time>
      </trkpt>
      <trkpt lat="44.76371" lon="6.33614">
        <ele>1961</ele>
        <time>2016-09-01T17:57:26+02:00</time>
      </trkpt>
      <trkpt lat="44.76385" lon="6.33588">
        <ele>1959</ele>
        <time>2016-09-01T17:57:49+02:00</time>
      </trkpt>
      <trkpt lat="44.76396" lon="6.33561">
        <ele>1954</ele>
        <time>2016-09-01T17:58:24+02:00</time>
      </trkpt>
      <trkpt lat="44.76403" lon="6.3353">
        <ele>1951</ele>
        <time>2016-09-01T17:58:58+02:00</time>
      </trkpt>
      <trkpt lat="44.76409" lon="6.33499">
        <ele>1947</ele>
        <time>2016-09-01T17:59:32+02:00</time>
      </trkpt>
      <trkpt lat="44.76417" lon="6.33469">
        <ele>1943</ele>
        <time>2016-09-01T17:59:56+02:00</time>
      </trkpt>
      <trkpt lat="44.76429" lon="6.33442">
        <ele>1939</ele>
        <time>2016-09-01T18:00:33+02:00</time>
      </trkpt>
      <trkpt lat="44.76435" lon="6.3341">
        <ele>1925</ele>
        <time>2016-09-01T18:02:04+02:00</time>
      </trkpt>
      <trkpt lat="44.76442" lon="6.3338">
        <ele>1921</ele>
        <time>2016-09-01T18:02:25+02:00</time>
      </trkpt>
      <trkpt lat="44.76454" lon="6.33352">
        <ele>1905</ele>
        <time>2016-09-01T18:04:24+02:00</time>
      </trkpt>
      <trkpt lat="44.76476" lon="6.33344">
        <ele>1892</ele>
        <time>2016-09-01T18:05:37+02:00</time>
      </trkpt>
      <trkpt lat="44.76492" lon="6.33322">
        <ele>1866</ele>
        <time>2016-09-01T18:08:34+02:00</time>
      </trkpt>
      <trkpt lat="44.76477" lon="6.33299">
        <ele>1860</ele>
        <time>2016-09-01T18:09:04+02:00</time>
      </trkpt>
      <trkpt lat="44.76475" lon="6.33267">
        <ele>1847</ele>
        <time>2016-09-01T18:10:08+02:00</time>
      </trkpt>
      <trkpt lat="44.7646" lon="6.33241">
        <ele>1841</ele>
        <time>2016-09-01T18:10:33+02:00</time>
      </trkpt>
      <trkpt lat="44.76455" lon="6.33209">
        <ele>1836</ele>
        <time>2016-09-01T18:11:02+02:00</time>
      </trkpt>
      <trkpt lat="44.76454" lon="6.33177">
        <ele>1832</ele>
        <time>2016-09-01T18:11:26+02:00</time>
      </trkpt>
      <trkpt lat="44.76442" lon="6.33149">
        <ele>1829</ele>
        <time>2016-09-01T18:11:51+02:00</time>
      </trkpt>
      <trkpt lat="44.76441" lon="6.33117">
        <ele>1827</ele>
        <time>2016-09-01T18:12:13+02:00</time>
      </trkpt>
      <trkpt lat="44.76445" lon="6.33086">
        <ele>1824</ele>
        <time>2016-09-01T18:12:38+02:00</time>
      </trkpt>
      <trkpt lat="44.76437" lon="6.33055">
        <ele>1820</ele>
        <time>2016-09-01T18:13:03+02:00</time>
      </trkpt>
      <trkpt lat="44.76427" lon="6.33027">
        <ele>1817</ele>
        <time>2016-09-01T18:13:25+02:00</time>
      </trkpt>
      <trkpt lat="44.76421" lon="6.32996">
        <ele>1815</ele>
        <time>2016-09-01T18:13:51+02:00</time>
      </trkpt>
      <trkpt lat="44.76427" lon="6.32964">
        <ele>1812</ele>
        <time>2016-09-01T18:14:14+02:00</time>
      </trkpt>
      <trkpt lat="44.76413" lon="6.32938">
        <ele>1808</ele>
        <time>2016-09-01T18:14:44+02:00</time>
      </trkpt>
      <trkpt lat="44.76416" lon="6.32907">
        <ele>1804</ele>
        <time>2016-09-01T18:15:05+02:00</time>
      </trkpt>
      <trkpt lat="44.76436" lon="6.32893">
        <ele>1803</ele>
        <time>2016-09-01T18:15:31+02:00</time>
      </trkpt>
      <trkpt lat="44.76458" lon="6.32883">
        <ele>1802</ele>
        <time>2016-09-01T18:16:00+02:00</time>
      </trkpt>
      <trkpt lat="44.76481" lon="6.32883">
        <ele>1801</ele>
        <time>2016-09-01T18:16:11+02:00</time>
      </trkpt>
      <trkpt lat="44.76503" lon="6.32865">
        <ele>1800</ele>
        <time>2016-09-01T18:16:43+02:00</time>
      </trkpt>
      <trkpt lat="44.76513" lon="6.32836">
        <ele>1800</ele>
        <time>2016-09-01T18:17:02+02:00</time>
      </trkpt>
      <trkpt lat="44.7652" lon="6.32805">
        <ele>1799</ele>
        <time>2016-09-01T18:17:18+02:00</time>
      </trkpt>
      <trkpt lat="44.76525" lon="6.32773">
        <ele>1799</ele>
        <time>2016-09-01T18:17:37+02:00</time>
      </trkpt>
      <trkpt lat="44.76547" lon="6.32784">
        <ele>1803</ele>
        <time>2016-09-01T18:21:14+02:00</time>
      </trkpt>
      <trkpt lat="44.76568" lon="6.32794">
        <ele>1805</ele>
        <time>2016-09-01T18:21:35+02:00</time>
      </trkpt>
      <trkpt lat="44.76591" lon="6.328">
        <ele>1807</ele>
        <time>2016-09-01T18:21:56+02:00</time>
      </trkpt>
      <trkpt lat="44.76613" lon="6.32809">
        <ele>1809</ele>
        <time>2016-09-01T18:22:21+02:00</time>
      </trkpt>
      <trkpt lat="44.76637" lon="6.32809">
        <ele>1810</ele>
        <time>2016-09-01T18:22:41+02:00</time>
      </trkpt>
      <trkpt lat="44.76659" lon="6.32816">
        <ele>1813</ele>
        <time>2016-09-01T18:23:10+02:00</time>
      </trkpt>
      <trkpt lat="44.7668" lon="6.3283">
        <ele>1816</ele>
        <time>2016-09-01T18:23:34+02:00</time>
      </trkpt>
      <trkpt lat="44.76701" lon="6.32845">
        <ele>1820</ele>
        <time>2016-09-01T18:23:59+02:00</time>
      </trkpt>
      <trkpt lat="44.76722" lon="6.32856">
        <ele>1823</ele>
        <time>2016-09-01T18:24:25+02:00</time>
      </trkpt>
      <trkpt lat="44.7672" lon="6.32888">
        <ele>1825</ele>
        <time>2016-09-01T18:25:06+02:00</time>
      </trkpt>
    </trkseg>
  </trk>
  <trk>
    <name><![CDATA[E6 Pré de la Chaumette - La Chapelle-en-Valgaudémar]]></name>
    <trkseg>
      <trkpt lat="44.76555" lon="6.32793">
        <ele>1807</ele>
        <time>2016-09-02T06:21:14+02:00</time>
      </trkpt>
      <trkpt lat="44.76575" lon="6.32809">
        <ele>1809</ele>
        <time>2016-09-02T06:21:42+02:00</time>
      </trkpt>
      <trkpt lat="44.76597" lon="6.32808">
        <ele>1812</ele>
        <time>2016-09-02T06:22:18+02:00</time>
      </trkpt>
      <trkpt lat="44.7662" lon="6.32814">
        <ele>1814</ele>
        <time>2016-09-02T06:22:40+02:00</time>
      </trkpt>
      <trkpt lat="44.76642" lon="6.32821">
        <ele>1816</ele>
        <time>2016-09-02T06:23:05+02:00</time>
      </trkpt>
      <trkpt lat="44.76663" lon="6.32834">
        <ele>1818</ele>
        <time>2016-09-02T06:23:32+02:00</time>
      </trkpt>
      <trkpt lat="44.76683" lon="6.32849">
        <ele>1822</ele>
        <time>2016-09-02T06:24:03+02:00</time>
      </trkpt>
      <trkpt lat="44.76702" lon="6.32867">
        <ele>1827</ele>
        <time>2016-09-02T06:24:39+02:00</time>
      </trkpt>
      <trkpt lat="44.76723" lon="6.32878">
        <ele>1831</ele>
        <time>2016-09-02T06:25:11+02:00</time>
      </trkpt>
      <trkpt lat="44.76743" lon="6.32894">
        <ele>1834</ele>
        <time>2016-09-02T06:25:43+02:00</time>
      </trkpt>
      <trkpt lat="44.76762" lon="6.3291">
        <ele>1840</ele>
        <time>2016-09-02T06:26:16+02:00</time>
      </trkpt>
      <trkpt lat="44.7678" lon="6.3293">
        <ele>1846</ele>
        <time>2016-09-02T06:26:57+02:00</time>
      </trkpt>
      <trkpt lat="44.76802" lon="6.3294">
        <ele>1852</ele>
        <time>2016-09-02T06:27:28+02:00</time>
      </trkpt>
      <trkpt lat="44.76821" lon="6.32957">
        <ele>1856</ele>
        <time>2016-09-02T06:28:11+02:00</time>
      </trkpt>
      <trkpt lat="44.76842" lon="6.32971">
        <ele>1859</ele>
        <time>2016-09-02T06:28:51+02:00</time>
      </trkpt>
      <trkpt lat="44.76863" lon="6.32962">
        <ele>1867</ele>
        <time>2016-09-02T06:29:43+02:00</time>
      </trkpt>
      <trkpt lat="44.76885" lon="6.32951">
        <ele>1875</ele>
        <time>2016-09-02T06:30:33+02:00</time>
      </trkpt>
      <trkpt lat="44.76907" lon="6.32942">
        <ele>1884</ele>
        <time>2016-09-02T06:31:17+02:00</time>
      </trkpt>
      <trkpt lat="44.76928" lon="6.32933">
        <ele>1891</ele>
        <time>2016-09-02T06:33:55+02:00</time>
      </trkpt>
      <trkpt lat="44.76949" lon="6.32919">
        <ele>1897</ele>
        <time>2016-09-02T06:35:17+02:00</time>
      </trkpt>
      <trkpt lat="44.76971" lon="6.32911">
        <ele>1903</ele>
        <time>2016-09-02T06:35:52+02:00</time>
      </trkpt>
      <trkpt lat="44.76994" lon="6.32915">
        <ele>1903</ele>
        <time>2016-09-02T06:36:38+02:00</time>
      </trkpt>
      <trkpt lat="44.77016" lon="6.32924">
        <ele>1904</ele>
        <time>2016-09-02T06:37:58+02:00</time>
      </trkpt>
      <trkpt lat="44.77038" lon="6.32925">
        <ele>1909</ele>
        <time>2016-09-02T06:38:42+02:00</time>
      </trkpt>
      <trkpt lat="44.77081" lon="6.32918">
        <ele>1919</ele>
        <time>2016-09-02T06:40:36+02:00</time>
      </trkpt>
      <trkpt lat="44.77103" lon="6.32926">
        <ele>1917</ele>
        <time>2016-09-02T06:41:12+02:00</time>
      </trkpt>
      <trkpt lat="44.77126" lon="6.32928">
        <ele>1917</ele>
        <time>2016-09-02T06:41:48+02:00</time>
      </trkpt>
      <trkpt lat="44.77148" lon="6.32919">
        <ele>1919</ele>
        <time>2016-09-02T06:42:17+02:00</time>
      </trkpt>
      <trkpt lat="44.77168" lon="6.32903">
        <ele>1927</ele>
        <time>2016-09-02T06:43:12+02:00</time>
      </trkpt>
      <trkpt lat="44.7719" lon="6.32896">
        <ele>1930</ele>
        <time>2016-09-02T06:43:39+02:00</time>
      </trkpt>
      <trkpt lat="44.77213" lon="6.32891">
        <ele>1933</ele>
        <time>2016-09-02T06:44:35+02:00</time>
      </trkpt>
      <trkpt lat="44.77234" lon="6.32875">
        <ele>1938</ele>
        <time>2016-09-02T06:45:37+02:00</time>
      </trkpt>
      <trkpt lat="44.77255" lon="6.32865">
        <ele>1941</ele>
        <time>2016-09-02T06:46:53+02:00</time>
      </trkpt>
      <trkpt lat="44.77276" lon="6.32852">
        <ele>1946</ele>
        <time>2016-09-02T06:47:37+02:00</time>
      </trkpt>
      <trkpt lat="44.77296" lon="6.32836">
        <ele>1951</ele>
        <time>2016-09-02T06:48:13+02:00</time>
      </trkpt>
      <trkpt lat="44.77318" lon="6.32831">
        <ele>1953</ele>
        <time>2016-09-02T06:48:50+02:00</time>
      </trkpt>
      <trkpt lat="44.77338" lon="6.32814">
        <ele>1963</ele>
        <time>2016-09-02T06:50:28+02:00</time>
      </trkpt>
      <trkpt lat="44.77359" lon="6.32802">
        <ele>1970</ele>
        <time>2016-09-02T06:51:17+02:00</time>
      </trkpt>
      <trkpt lat="44.77368" lon="6.32773">
        <ele>1982</ele>
        <time>2016-09-02T06:52:12+02:00</time>
      </trkpt>
      <trkpt lat="44.7739" lon="6.32764">
        <ele>1984</ele>
        <time>2016-09-02T06:53:10+02:00</time>
      </trkpt>
      <trkpt lat="44.77413" lon="6.32762">
        <ele>1982</ele>
        <time>2016-09-02T06:55:44+02:00</time>
      </trkpt>
      <trkpt lat="44.77432" lon="6.32746">
        <ele>1989</ele>
        <time>2016-09-02T06:56:44+02:00</time>
      </trkpt>
      <trkpt lat="44.77453" lon="6.32733">
        <ele>1998</ele>
        <time>2016-09-02T06:57:46+02:00</time>
      </trkpt>
      <trkpt lat="44.77475" lon="6.32738">
        <ele>2000</ele>
        <time>2016-09-02T06:58:24+02:00</time>
      </trkpt>
      <trkpt lat="44.77494" lon="6.32756">
        <ele>1998</ele>
        <time>2016-09-02T06:59:04+02:00</time>
      </trkpt>
      <trkpt lat="44.77513" lon="6.32775">
        <ele>2002</ele>
        <time>2016-09-02T06:59:44+02:00</time>
      </trkpt>
      <trkpt lat="44.77533" lon="6.3279">
        <ele>2007</ele>
        <time>2016-09-02T07:00:21+02:00</time>
      </trkpt>
      <trkpt lat="44.77551" lon="6.32809">
        <ele>2011</ele>
        <time>2016-09-02T07:01:02+02:00</time>
      </trkpt>
      <trkpt lat="44.77564" lon="6.32782">
        <ele>2019</ele>
        <time>2016-09-02T07:02:20+02:00</time>
      </trkpt>
      <trkpt lat="44.77573" lon="6.32753">
        <ele>2026</ele>
        <time>2016-09-02T07:02:58+02:00</time>
      </trkpt>
      <trkpt lat="44.77582" lon="6.32724">
        <ele>2034</ele>
        <time>2016-09-02T07:03:39+02:00</time>
      </trkpt>
      <trkpt lat="44.77605" lon="6.32729">
        <ele>2038</ele>
        <time>2016-09-02T07:04:57+02:00</time>
      </trkpt>
      <trkpt lat="44.77623" lon="6.32748">
        <ele>2039</ele>
        <time>2016-09-02T07:05:35+02:00</time>
      </trkpt>
      <trkpt lat="44.7763" lon="6.32718">
        <ele>2046</ele>
        <time>2016-09-02T07:07:29+02:00</time>
      </trkpt>
      <trkpt lat="44.77652" lon="6.32714">
        <ele>2052</ele>
        <time>2016-09-02T07:08:28+02:00</time>
      </trkpt>
      <trkpt lat="44.77664" lon="6.32686">
        <ele>2060</ele>
        <time>2016-09-02T07:09:29+02:00</time>
      </trkpt>
      <trkpt lat="44.77684" lon="6.32702">
        <ele>2062</ele>
        <time>2016-09-02T07:10:07+02:00</time>
      </trkpt>
      <trkpt lat="44.77705" lon="6.32689">
        <ele>2070</ele>
        <time>2016-09-02T07:11:21+02:00</time>
      </trkpt>
      <trkpt lat="44.77706" lon="6.32657">
        <ele>2076</ele>
        <time>2016-09-02T07:12:01+02:00</time>
      </trkpt>
      <trkpt lat="44.77715" lon="6.32627">
        <ele>2084</ele>
        <time>2016-09-02T07:12:45+02:00</time>
      </trkpt>
      <trkpt lat="44.77704" lon="6.32598">
        <ele>2088</ele>
        <time>2016-09-02T07:13:27+02:00</time>
      </trkpt>
      <trkpt lat="44.77686" lon="6.32577">
        <ele>2092</ele>
        <time>2016-09-02T07:14:01+02:00</time>
      </trkpt>
      <trkpt lat="44.77709" lon="6.32571">
        <ele>2098</ele>
        <time>2016-09-02T07:14:59+02:00</time>
      </trkpt>
      <trkpt lat="44.77693" lon="6.32548">
        <ele>2105</ele>
        <time>2016-09-02T07:15:51+02:00</time>
      </trkpt>
      <trkpt lat="44.77679" lon="6.32521">
        <ele>2113</ele>
        <time>2016-09-02T07:16:38+02:00</time>
      </trkpt>
      <trkpt lat="44.77657" lon="6.32522">
        <ele>2111</ele>
        <time>2016-09-02T07:17:12+02:00</time>
      </trkpt>
      <trkpt lat="44.77634" lon="6.32527">
        <ele>2112</ele>
        <time>2016-09-02T07:17:46+02:00</time>
      </trkpt>
      <trkpt lat="44.77612" lon="6.32526">
        <ele>2114</ele>
        <time>2016-09-02T07:18:16+02:00</time>
      </trkpt>
      <trkpt lat="44.7759" lon="6.32517">
        <ele>2122</ele>
        <time>2016-09-02T07:19:06+02:00</time>
      </trkpt>
      <trkpt lat="44.77572" lon="6.32499">
        <ele>2133</ele>
        <time>2016-09-02T07:19:54+02:00</time>
      </trkpt>
      <trkpt lat="44.77549" lon="6.32506">
        <ele>2130</ele>
        <time>2016-09-02T07:20:38+02:00</time>
      </trkpt>
      <trkpt lat="44.77527" lon="6.32497">
        <ele>2135</ele>
        <time>2016-09-02T07:21:24+02:00</time>
      </trkpt>
      <trkpt lat="44.77505" lon="6.32488">
        <ele>2139</ele>
        <time>2016-09-02T07:22:20+02:00</time>
      </trkpt>
      <trkpt lat="44.77482" lon="6.32483">
        <ele>2138</ele>
        <time>2016-09-02T07:23:04+02:00</time>
      </trkpt>
      <trkpt lat="44.77459" lon="6.32477">
        <ele>2135</ele>
        <time>2016-09-02T07:24:03+02:00</time>
      </trkpt>
      <trkpt lat="44.77442" lon="6.32457">
        <ele>2141</ele>
        <time>2016-09-02T07:25:06+02:00</time>
      </trkpt>
      <trkpt lat="44.77449" lon="6.32426">
        <ele>2158</ele>
        <time>2016-09-02T07:36:19+02:00</time>
      </trkpt>
      <trkpt lat="44.77455" lon="6.32395">
        <ele>2170</ele>
        <time>2016-09-02T07:37:04+02:00</time>
      </trkpt>
      <trkpt lat="44.77451" lon="6.32362">
        <ele>2179</ele>
        <time>2016-09-02T07:38:03+02:00</time>
      </trkpt>
      <trkpt lat="44.77443" lon="6.32332">
        <ele>2186</ele>
        <time>2016-09-02T07:39:19+02:00</time>
      </trkpt>
      <trkpt lat="44.77434" lon="6.32302">
        <ele>2193</ele>
        <time>2016-09-02T07:39:47+02:00</time>
      </trkpt>
      <trkpt lat="44.77421" lon="6.32276">
        <ele>2196</ele>
        <time>2016-09-02T07:40:46+02:00</time>
      </trkpt>
      <trkpt lat="44.77404" lon="6.32252">
        <ele>2200</ele>
        <time>2016-09-02T07:41:26+02:00</time>
      </trkpt>
      <trkpt lat="44.77393" lon="6.32223">
        <ele>2208</ele>
        <time>2016-09-02T07:41:56+02:00</time>
      </trkpt>
      <trkpt lat="44.77374" lon="6.32206">
        <ele>2211</ele>
        <time>2016-09-02T07:42:33+02:00</time>
      </trkpt>
      <trkpt lat="44.77381" lon="6.32174">
        <ele>2222</ele>
        <time>2016-09-02T07:43:49+02:00</time>
      </trkpt>
      <trkpt lat="44.77404" lon="6.32175">
        <ele>2226</ele>
        <time>2016-09-02T07:44:25+02:00</time>
      </trkpt>
      <trkpt lat="44.77388" lon="6.32152">
        <ele>2232</ele>
        <time>2016-09-02T07:45:54+02:00</time>
      </trkpt>
      <trkpt lat="44.77376" lon="6.32122">
        <ele>2242</ele>
        <time>2016-09-02T07:46:44+02:00</time>
      </trkpt>
      <trkpt lat="44.77396" lon="6.32139">
        <ele>2239</ele>
        <time>2016-09-02T07:47:23+02:00</time>
      </trkpt>
      <trkpt lat="44.77419" lon="6.32149">
        <ele>2239</ele>
        <time>2016-09-02T07:48:06+02:00</time>
      </trkpt>
      <trkpt lat="44.77442" lon="6.32139">
        <ele>2251</ele>
        <time>2016-09-02T07:48:50+02:00</time>
      </trkpt>
      <trkpt lat="44.77464" lon="6.3214">
        <ele>2259</ele>
        <time>2016-09-02T07:49:19+02:00</time>
      </trkpt>
      <trkpt lat="44.77486" lon="6.32148">
        <ele>2263</ele>
        <time>2016-09-02T07:49:48+02:00</time>
      </trkpt>
      <trkpt lat="44.77506" lon="6.32166">
        <ele>2262</ele>
        <time>2016-09-02T07:51:50+02:00</time>
      </trkpt>
      <trkpt lat="44.77504" lon="6.32134">
        <ele>2274</ele>
        <time>2016-09-02T07:53:22+02:00</time>
      </trkpt>
      <trkpt lat="44.7751" lon="6.32104">
        <ele>2287</ele>
        <time>2016-09-02T07:56:00+02:00</time>
      </trkpt>
      <trkpt lat="44.7751" lon="6.32072">
        <ele>2300</ele>
        <time>2016-09-02T07:57:14+02:00</time>
      </trkpt>
      <trkpt lat="44.77496" lon="6.32047">
        <ele>2306</ele>
        <time>2016-09-02T07:57:50+02:00</time>
      </trkpt>
      <trkpt lat="44.7748" lon="6.32024">
        <ele>2310</ele>
        <time>2016-09-02T07:58:35+02:00</time>
      </trkpt>
      <trkpt lat="44.77463" lon="6.32003">
        <ele>2315</ele>
        <time>2016-09-02T07:59:06+02:00</time>
      </trkpt>
      <trkpt lat="44.77454" lon="6.31973">
        <ele>2324</ele>
        <time>2016-09-02T07:59:51+02:00</time>
      </trkpt>
      <trkpt lat="44.77453" lon="6.31941">
        <ele>2335</ele>
        <time>2016-09-02T08:01:54+02:00</time>
      </trkpt>
      <trkpt lat="44.77443" lon="6.31913">
        <ele>2344</ele>
        <time>2016-09-02T08:02:42+02:00</time>
      </trkpt>
      <trkpt lat="44.77422" lon="6.319">
        <ele>2344</ele>
        <time>2016-09-02T08:03:19+02:00</time>
      </trkpt>
      <trkpt lat="44.77399" lon="6.31907">
        <ele>2338</ele>
        <time>2016-09-02T08:03:54+02:00</time>
      </trkpt>
      <trkpt lat="44.77377" lon="6.319">
        <ele>2337</ele>
        <time>2016-09-02T08:04:27+02:00</time>
      </trkpt>
      <trkpt lat="44.77363" lon="6.31875">
        <ele>2342</ele>
        <time>2016-09-02T08:11:21+02:00</time>
      </trkpt>
      <trkpt lat="44.77368" lon="6.31844">
        <ele>2352</ele>
        <time>2016-09-02T08:12:25+02:00</time>
      </trkpt>
      <trkpt lat="44.7737" lon="6.31812">
        <ele>2361</ele>
        <time>2016-09-02T08:12:59+02:00</time>
      </trkpt>
      <trkpt lat="44.77373" lon="6.31781">
        <ele>2369</ele>
        <time>2016-09-02T08:13:28+02:00</time>
      </trkpt>
      <trkpt lat="44.77369" lon="6.31749">
        <ele>2376</ele>
        <time>2016-09-02T08:19:42+02:00</time>
      </trkpt>
      <trkpt lat="44.77371" lon="6.31718">
        <ele>2384</ele>
        <time>2016-09-02T08:21:01+02:00</time>
      </trkpt>
      <trkpt lat="44.7737" lon="6.31685">
        <ele>2391</ele>
        <time>2016-09-02T08:21:50+02:00</time>
      </trkpt>
      <trkpt lat="44.77382" lon="6.31658">
        <ele>2398</ele>
        <time>2016-09-02T08:22:31+02:00</time>
      </trkpt>
      <trkpt lat="44.77388" lon="6.31627">
        <ele>2405</ele>
        <time>2016-09-02T08:23:05+02:00</time>
      </trkpt>
      <trkpt lat="44.77392" lon="6.31596">
        <ele>2412</ele>
        <time>2016-09-02T08:24:15+02:00</time>
      </trkpt>
      <trkpt lat="44.77396" lon="6.31564">
        <ele>2419</ele>
        <time>2016-09-02T08:25:00+02:00</time>
      </trkpt>
      <trkpt lat="44.77398" lon="6.31532">
        <ele>2427</ele>
        <time>2016-09-02T08:25:49+02:00</time>
      </trkpt>
      <trkpt lat="44.77401" lon="6.315">
        <ele>2434</ele>
        <time>2016-09-02T08:27:11+02:00</time>
      </trkpt>
      <trkpt lat="44.77404" lon="6.31469">
        <ele>2440</ele>
        <time>2016-09-02T08:30:59+02:00</time>
      </trkpt>
      <trkpt lat="44.77404" lon="6.31435">
        <ele>2446</ele>
        <time>2016-09-02T08:32:05+02:00</time>
      </trkpt>
      <trkpt lat="44.77398" lon="6.31405">
        <ele>2453</ele>
        <time>2016-09-02T08:32:48+02:00</time>
      </trkpt>
      <trkpt lat="44.77392" lon="6.31374">
        <ele>2459</ele>
        <time>2016-09-02T08:33:28+02:00</time>
      </trkpt>
      <trkpt lat="44.77382" lon="6.31345">
        <ele>2465</ele>
        <time>2016-09-02T08:34:19+02:00</time>
      </trkpt>
      <trkpt lat="44.77369" lon="6.3132">
        <ele>2473</ele>
        <time>2016-09-02T08:35:22+02:00</time>
      </trkpt>
      <trkpt lat="44.77349" lon="6.31303">
        <ele>2479</ele>
        <time>2016-09-02T08:35:52+02:00</time>
      </trkpt>
      <trkpt lat="44.77327" lon="6.31295">
        <ele>2488</ele>
        <time>2016-09-02T08:37:42+02:00</time>
      </trkpt>
      <trkpt lat="44.77317" lon="6.31267">
        <ele>2499</ele>
        <time>2016-09-02T08:39:30+02:00</time>
      </trkpt>
      <trkpt lat="44.77319" lon="6.3123">
        <ele>2502</ele>
        <time>2016-09-02T08:40:47+02:00</time>
      </trkpt>
      <trkpt lat="44.77314" lon="6.31198">
        <ele>2509</ele>
        <time>2016-09-02T08:43:10+02:00</time>
      </trkpt>
      <trkpt lat="44.77299" lon="6.31172">
        <ele>2519</ele>
        <time>2016-09-02T08:44:46+02:00</time>
      </trkpt>
      <trkpt lat="44.7729" lon="6.31142">
        <ele>2525</ele>
        <time>2016-09-02T08:46:25+02:00</time>
      </trkpt>
      <trkpt lat="44.77298" lon="6.31112">
        <ele>2525</ele>
        <time>2016-09-02T08:47:12+02:00</time>
      </trkpt>
      <trkpt lat="44.773" lon="6.31078">
        <ele>2527</ele>
        <time>2016-09-02T08:49:21+02:00</time>
      </trkpt>
      <trkpt lat="44.773" lon="6.31046">
        <ele>2533</ele>
        <time>2016-09-02T08:50:13+02:00</time>
      </trkpt>
      <trkpt lat="44.77304" lon="6.31013">
        <ele>2538</ele>
        <time>2016-09-02T08:51:14+02:00</time>
      </trkpt>
      <trkpt lat="44.77302" lon="6.30981">
        <ele>2547</ele>
        <time>2016-09-02T08:52:43+02:00</time>
      </trkpt>
      <trkpt lat="44.77302" lon="6.30949">
        <ele>2558</ele>
        <time>2016-09-02T08:53:34+02:00</time>
      </trkpt>
      <trkpt lat="44.77301" lon="6.30917">
        <ele>2569</ele>
        <time>2016-09-02T08:55:12+02:00</time>
      </trkpt>
      <trkpt lat="44.77305" lon="6.30885">
        <ele>2578</ele>
        <time>2016-09-02T08:57:05+02:00</time>
      </trkpt>
      <trkpt lat="44.77311" lon="6.30854">
        <ele>2585</ele>
        <time>2016-09-02T08:57:46+02:00</time>
      </trkpt>
      <trkpt lat="44.77315" lon="6.30821">
        <ele>2593</ele>
        <time>2016-09-02T08:58:57+02:00</time>
      </trkpt>
      <trkpt lat="44.77324" lon="6.30791">
        <ele>2597</ele>
        <time>2016-09-02T08:59:36+02:00</time>
      </trkpt>
      <trkpt lat="44.7733" lon="6.30759">
        <ele>2603</ele>
        <time>2016-09-02T09:00:34+02:00</time>
      </trkpt>
      <trkpt lat="44.77322" lon="6.3073">
        <ele>2617</ele>
        <time>2016-09-02T09:02:22+02:00</time>
      </trkpt>
      <trkpt lat="44.77321" lon="6.30696">
        <ele>2626</ele>
        <time>2016-09-02T09:04:06+02:00</time>
      </trkpt>
      <trkpt lat="44.77327" lon="6.30666">
        <ele>2633</ele>
        <time>2016-09-02T09:05:09+02:00</time>
      </trkpt>
      <trkpt lat="44.77326" lon="6.30634">
        <ele>2645</ele>
        <time>2016-09-02T09:06:47+02:00</time>
      </trkpt>
      <trkpt lat="44.77304" lon="6.30623">
        <ele>2650</ele>
        <time>2016-09-02T09:09:19+02:00</time>
      </trkpt>
      <trkpt lat="44.77308" lon="6.30591">
        <ele>2661</ele>
        <time>2016-09-02T09:10:29+02:00</time>
      </trkpt>
      <trkpt lat="44.7732" lon="6.30565">
        <ele>2666</ele>
        <time>2016-09-02T09:11:11+02:00</time>
      </trkpt>
      <trkpt lat="44.77339" lon="6.30548">
        <ele>2665</ele>
        <time>2016-09-02T09:11:53+02:00</time>
      </trkpt>
      <trkpt lat="44.7736" lon="6.30534">
        <ele>2659</ele>
        <time>2016-09-02T09:28:30+02:00</time>
      </trkpt>
      <trkpt lat="44.7738" lon="6.30517">
        <ele>2651</ele>
        <time>2016-09-02T09:29:00+02:00</time>
      </trkpt>
      <trkpt lat="44.77396" lon="6.30496">
        <ele>2639</ele>
        <time>2016-09-02T09:29:56+02:00</time>
      </trkpt>
      <trkpt lat="44.77403" lon="6.30464">
        <ele>2626</ele>
        <time>2016-09-02T09:31:30+02:00</time>
      </trkpt>
      <trkpt lat="44.77415" lon="6.30437">
        <ele>2611</ele>
        <time>2016-09-02T09:32:27+02:00</time>
      </trkpt>
      <trkpt lat="44.77437" lon="6.30442">
        <ele>2610</ele>
        <time>2016-09-02T09:32:50+02:00</time>
      </trkpt>
      <trkpt lat="44.77426" lon="6.30413">
        <ele>2601</ele>
        <time>2016-09-02T09:33:30+02:00</time>
      </trkpt>
      <trkpt lat="44.77427" lon="6.3038">
        <ele>2582</ele>
        <time>2016-09-02T09:33:55+02:00</time>
      </trkpt>
      <trkpt lat="44.7744" lon="6.30354">
        <ele>2567</ele>
        <time>2016-09-02T09:34:48+02:00</time>
      </trkpt>
      <trkpt lat="44.77463" lon="6.30355">
        <ele>2566</ele>
        <time>2016-09-02T09:35:32+02:00</time>
      </trkpt>
      <trkpt lat="44.77482" lon="6.30334">
        <ele>2556</ele>
        <time>2016-09-02T09:35:50+02:00</time>
      </trkpt>
      <trkpt lat="44.77488" lon="6.30304">
        <ele>2542</ele>
        <time>2016-09-02T09:36:15+02:00</time>
      </trkpt>
      <trkpt lat="44.775" lon="6.30276">
        <ele>2530</ele>
        <time>2016-09-02T09:36:54+02:00</time>
      </trkpt>
      <trkpt lat="44.775" lon="6.30243">
        <ele>2516</ele>
        <time>2016-09-02T09:37:14+02:00</time>
      </trkpt>
      <trkpt lat="44.77521" lon="6.30255">
        <ele>2524</ele>
        <time>2016-09-02T09:37:44+02:00</time>
      </trkpt>
      <trkpt lat="44.77541" lon="6.30238">
        <ele>2521</ele>
        <time>2016-09-02T09:38:37+02:00</time>
      </trkpt>
      <trkpt lat="44.77553" lon="6.30211">
        <ele>2514</ele>
        <time>2016-09-02T09:38:59+02:00</time>
      </trkpt>
      <trkpt lat="44.77557" lon="6.30178">
        <ele>2504</ele>
        <time>2016-09-02T09:39:17+02:00</time>
      </trkpt>
      <trkpt lat="44.7756" lon="6.30146">
        <ele>2498</ele>
        <time>2016-09-02T09:39:38+02:00</time>
      </trkpt>
      <trkpt lat="44.77568" lon="6.30115">
        <ele>2496</ele>
        <time>2016-09-02T09:40:01+02:00</time>
      </trkpt>
      <trkpt lat="44.77579" lon="6.30087">
        <ele>2495</ele>
        <time>2016-09-02T09:40:21+02:00</time>
      </trkpt>
      <trkpt lat="44.77582" lon="6.30053">
        <ele>2493</ele>
        <time>2016-09-02T09:40:33+02:00</time>
      </trkpt>
      <trkpt lat="44.77586" lon="6.30022">
        <ele>2490</ele>
        <time>2016-09-02T09:40:51+02:00</time>
      </trkpt>
      <trkpt lat="44.77591" lon="6.2999">
        <ele>2487</ele>
        <time>2016-09-02T09:41:11+02:00</time>
      </trkpt>
      <trkpt lat="44.77606" lon="6.29965">
        <ele>2485</ele>
        <time>2016-09-02T09:41:26+02:00</time>
      </trkpt>
      <trkpt lat="44.77618" lon="6.29938">
        <ele>2483</ele>
        <time>2016-09-02T09:41:50+02:00</time>
      </trkpt>
      <trkpt lat="44.77631" lon="6.29909">
        <ele>2482</ele>
        <time>2016-09-02T09:42:13+02:00</time>
      </trkpt>
      <trkpt lat="44.77637" lon="6.29879">
        <ele>2481</ele>
        <time>2016-09-02T09:42:33+02:00</time>
      </trkpt>
      <trkpt lat="44.77654" lon="6.29857">
        <ele>2482</ele>
        <time>2016-09-02T09:42:50+02:00</time>
      </trkpt>
      <trkpt lat="44.77656" lon="6.29825">
        <ele>2482</ele>
        <time>2016-09-02T09:43:10+02:00</time>
      </trkpt>
      <trkpt lat="44.77659" lon="6.29793">
        <ele>2481</ele>
        <time>2016-09-02T09:43:29+02:00</time>
      </trkpt>
      <trkpt lat="44.7767" lon="6.29765">
        <ele>2482</ele>
        <time>2016-09-02T09:43:47+02:00</time>
      </trkpt>
      <trkpt lat="44.77675" lon="6.29733">
        <ele>2483</ele>
        <time>2016-09-02T09:45:09+02:00</time>
      </trkpt>
      <trkpt lat="44.77685" lon="6.29704">
        <ele>2486</ele>
        <time>2016-09-02T09:46:22+02:00</time>
      </trkpt>
      <trkpt lat="44.77694" lon="6.29673">
        <ele>2488</ele>
        <time>2016-09-02T09:46:46+02:00</time>
      </trkpt>
      <trkpt lat="44.77702" lon="6.29643">
        <ele>2491</ele>
        <time>2016-09-02T09:47:11+02:00</time>
      </trkpt>
      <trkpt lat="44.77704" lon="6.2961">
        <ele>2493</ele>
        <time>2016-09-02T09:47:35+02:00</time>
      </trkpt>
      <trkpt lat="44.77705" lon="6.29578">
        <ele>2494</ele>
        <time>2016-09-02T09:48:02+02:00</time>
      </trkpt>
      <trkpt lat="44.77715" lon="6.2955">
        <ele>2498</ele>
        <time>2016-09-02T09:48:24+02:00</time>
      </trkpt>
      <trkpt lat="44.77717" lon="6.29518">
        <ele>2501</ele>
        <time>2016-09-02T09:49:05+02:00</time>
      </trkpt>
      <trkpt lat="44.77717" lon="6.29486">
        <ele>2504</ele>
        <time>2016-09-02T09:49:44+02:00</time>
      </trkpt>
      <trkpt lat="44.77722" lon="6.29454">
        <ele>2509</ele>
        <time>2016-09-02T09:50:20+02:00</time>
      </trkpt>
      <trkpt lat="44.77721" lon="6.29423">
        <ele>2513</ele>
        <time>2016-09-02T09:50:47+02:00</time>
      </trkpt>
      <trkpt lat="44.77717" lon="6.29391">
        <ele>2519</ele>
        <time>2016-09-02T09:51:34+02:00</time>
      </trkpt>
      <trkpt lat="44.77717" lon="6.29359">
        <ele>2527</ele>
        <time>2016-09-02T09:52:02+02:00</time>
      </trkpt>
      <trkpt lat="44.77717" lon="6.29327">
        <ele>2535</ele>
        <time>2016-09-02T09:53:33+02:00</time>
      </trkpt>
      <trkpt lat="44.77723" lon="6.29296">
        <ele>2544</ele>
        <time>2016-09-02T09:54:19+02:00</time>
      </trkpt>
      <trkpt lat="44.77733" lon="6.29267">
        <ele>2553</ele>
        <time>2016-09-02T09:55:23+02:00</time>
      </trkpt>
      <trkpt lat="44.77737" lon="6.29235">
        <ele>2562</ele>
        <time>2016-09-02T09:56:13+02:00</time>
      </trkpt>
      <trkpt lat="44.77724" lon="6.2921">
        <ele>2570</ele>
        <time>2016-09-02T09:57:03+02:00</time>
      </trkpt>
      <trkpt lat="44.77718" lon="6.29179">
        <ele>2579</ele>
        <time>2016-09-02T09:58:21+02:00</time>
      </trkpt>
      <trkpt lat="44.77741" lon="6.2917">
        <ele>2583</ele>
        <time>2016-09-02T09:59:08+02:00</time>
      </trkpt>
      <trkpt lat="44.77743" lon="6.29138">
        <ele>2586</ele>
        <time>2016-09-02T10:01:14+02:00</time>
      </trkpt>
      <trkpt lat="44.7773" lon="6.29112">
        <ele>2590</ele>
        <time>2016-09-02T10:01:57+02:00</time>
      </trkpt>
      <trkpt lat="44.7775" lon="6.29098">
        <ele>2588</ele>
        <time>2016-09-02T10:02:45+02:00</time>
      </trkpt>
      <trkpt lat="44.77745" lon="6.29067">
        <ele>2587</ele>
        <time>2016-09-02T10:04:59+02:00</time>
      </trkpt>
      <trkpt lat="44.77725" lon="6.29049">
        <ele>2589</ele>
        <time>2016-09-02T10:06:13+02:00</time>
      </trkpt>
      <trkpt lat="44.77735" lon="6.29019">
        <ele>2580</ele>
        <time>2016-09-02T10:10:58+02:00</time>
      </trkpt>
      <trkpt lat="44.77754" lon="6.29037">
        <ele>2578</ele>
        <time>2016-09-02T10:11:19+02:00</time>
      </trkpt>
      <trkpt lat="44.77776" lon="6.29023">
        <ele>2573</ele>
        <time>2016-09-02T10:11:36+02:00</time>
      </trkpt>
      <trkpt lat="44.77794" lon="6.29">
        <ele>2563</ele>
        <time>2016-09-02T10:11:52+02:00</time>
      </trkpt>
      <trkpt lat="44.77815" lon="6.28987">
        <ele>2557</ele>
        <time>2016-09-02T10:12:08+02:00</time>
      </trkpt>
      <trkpt lat="44.77835" lon="6.28973">
        <ele>2550</ele>
        <time>2016-09-02T10:12:22+02:00</time>
      </trkpt>
      <trkpt lat="44.77857" lon="6.28963">
        <ele>2546</ele>
        <time>2016-09-02T10:12:40+02:00</time>
      </trkpt>
      <trkpt lat="44.77881" lon="6.28967">
        <ele>2547</ele>
        <time>2016-09-02T10:13:43+02:00</time>
      </trkpt>
      <trkpt lat="44.77901" lon="6.28954">
        <ele>2541</ele>
        <time>2016-09-02T10:13:56+02:00</time>
      </trkpt>
      <trkpt lat="44.77918" lon="6.28931">
        <ele>2531</ele>
        <time>2016-09-02T10:14:13+02:00</time>
      </trkpt>
      <trkpt lat="44.7794" lon="6.28917">
        <ele>2523</ele>
        <time>2016-09-02T10:14:28+02:00</time>
      </trkpt>
      <trkpt lat="44.77962" lon="6.289">
        <ele>2516</ele>
        <time>2016-09-02T10:14:42+02:00</time>
      </trkpt>
      <trkpt lat="44.77982" lon="6.28885">
        <ele>2509</ele>
        <time>2016-09-02T10:15:22+02:00</time>
      </trkpt>
      <trkpt lat="44.78004" lon="6.28873">
        <ele>2502</ele>
        <time>2016-09-02T10:16:21+02:00</time>
      </trkpt>
      <trkpt lat="44.78028" lon="6.28875">
        <ele>2498</ele>
        <time>2016-09-02T10:16:39+02:00</time>
      </trkpt>
      <trkpt lat="44.78052" lon="6.28874">
        <ele>2493</ele>
        <time>2016-09-02T10:16:58+02:00</time>
      </trkpt>
      <trkpt lat="44.78075" lon="6.2888">
        <ele>2490</ele>
        <time>2016-09-02T10:17:18+02:00</time>
      </trkpt>
      <trkpt lat="44.78098" lon="6.28875">
        <ele>2485</ele>
        <time>2016-09-02T10:17:42+02:00</time>
      </trkpt>
      <trkpt lat="44.78121" lon="6.28876">
        <ele>2482</ele>
        <time>2016-09-02T10:18:01+02:00</time>
      </trkpt>
      <trkpt lat="44.78111" lon="6.28847">
        <ele>2472</ele>
        <time>2016-09-02T10:19:16+02:00</time>
      </trkpt>
      <trkpt lat="44.78134" lon="6.28841">
        <ele>2467</ele>
        <time>2016-09-02T10:19:37+02:00</time>
      </trkpt>
      <trkpt lat="44.78157" lon="6.28849">
        <ele>2467</ele>
        <time>2016-09-02T10:19:55+02:00</time>
      </trkpt>
      <trkpt lat="44.78177" lon="6.28835">
        <ele>2463</ele>
        <time>2016-09-02T10:20:19+02:00</time>
      </trkpt>
      <trkpt lat="44.78195" lon="6.28815">
        <ele>2461</ele>
        <time>2016-09-02T10:20:45+02:00</time>
      </trkpt>
      <trkpt lat="44.78217" lon="6.2881">
        <ele>2464</ele>
        <time>2016-09-02T10:21:10+02:00</time>
      </trkpt>
      <trkpt lat="44.78219" lon="6.28778">
        <ele>2453</ele>
        <time>2016-09-02T10:21:40+02:00</time>
      </trkpt>
      <trkpt lat="44.78229" lon="6.28749">
        <ele>2445</ele>
        <time>2016-09-02T10:22:15+02:00</time>
      </trkpt>
      <trkpt lat="44.78245" lon="6.28726">
        <ele>2441</ele>
        <time>2016-09-02T10:22:36+02:00</time>
      </trkpt>
      <trkpt lat="44.7826" lon="6.28701">
        <ele>2436</ele>
        <time>2016-09-02T10:23:06+02:00</time>
      </trkpt>
      <trkpt lat="44.78281" lon="6.2869">
        <ele>2435</ele>
        <time>2016-09-02T10:23:25+02:00</time>
      </trkpt>
      <trkpt lat="44.78304" lon="6.28691">
        <ele>2437</ele>
        <time>2016-09-02T10:23:46+02:00</time>
      </trkpt>
      <trkpt lat="44.78324" lon="6.28676">
        <ele>2435</ele>
        <time>2016-09-02T10:24:10+02:00</time>
      </trkpt>
      <trkpt lat="44.78338" lon="6.28651">
        <ele>2431</ele>
        <time>2016-09-02T10:24:37+02:00</time>
      </trkpt>
      <trkpt lat="44.78342" lon="6.28619">
        <ele>2425</ele>
        <time>2016-09-02T10:24:59+02:00</time>
      </trkpt>
      <trkpt lat="44.78353" lon="6.28591">
        <ele>2421</ele>
        <time>2016-09-02T10:26:46+02:00</time>
      </trkpt>
      <trkpt lat="44.78374" lon="6.28575">
        <ele>2421</ele>
        <time>2016-09-02T10:27:30+02:00</time>
      </trkpt>
      <trkpt lat="44.7839" lon="6.28553">
        <ele>2418</ele>
        <time>2016-09-02T10:27:52+02:00</time>
      </trkpt>
      <trkpt lat="44.78404" lon="6.28527">
        <ele>2414</ele>
        <time>2016-09-02T10:28:16+02:00</time>
      </trkpt>
      <trkpt lat="44.78426" lon="6.28527">
        <ele>2419</ele>
        <time>2016-09-02T10:28:42+02:00</time>
      </trkpt>
      <trkpt lat="44.78448" lon="6.28539">
        <ele>2428</ele>
        <time>2016-09-02T10:29:06+02:00</time>
      </trkpt>
      <trkpt lat="44.78464" lon="6.28516">
        <ele>2430</ele>
        <time>2016-09-02T10:29:50+02:00</time>
      </trkpt>
      <trkpt lat="44.78461" lon="6.28484">
        <ele>2424</ele>
        <time>2016-09-02T10:30:30+02:00</time>
      </trkpt>
      <trkpt lat="44.78462" lon="6.28452">
        <ele>2420</ele>
        <time>2016-09-02T10:30:51+02:00</time>
      </trkpt>
      <trkpt lat="44.78465" lon="6.2842">
        <ele>2417</ele>
        <time>2016-09-02T10:31:10+02:00</time>
      </trkpt>
      <trkpt lat="44.78478" lon="6.28393">
        <ele>2417</ele>
        <time>2016-09-02T10:32:07+02:00</time>
      </trkpt>
      <trkpt lat="44.78495" lon="6.2837">
        <ele>2419</ele>
        <time>2016-09-02T10:33:42+02:00</time>
      </trkpt>
      <trkpt lat="44.78515" lon="6.28355">
        <ele>2424</ele>
        <time>2016-09-02T10:33:56+02:00</time>
      </trkpt>
      <trkpt lat="44.78519" lon="6.28324">
        <ele>2421</ele>
        <time>2016-09-02T10:34:59+02:00</time>
      </trkpt>
      <trkpt lat="44.78527" lon="6.28294">
        <ele>2420</ele>
        <time>2016-09-02T10:35:41+02:00</time>
      </trkpt>
      <trkpt lat="44.7855" lon="6.28294">
        <ele>2431</ele>
        <time>2016-09-02T10:37:36+02:00</time>
      </trkpt>
      <trkpt lat="44.78562" lon="6.2832">
        <ele>2440</ele>
        <time>2016-09-02T10:38:45+02:00</time>
      </trkpt>
      <trkpt lat="44.7858" lon="6.283">
        <ele>2446</ele>
        <time>2016-09-02T10:39:38+02:00</time>
      </trkpt>
      <trkpt lat="44.78594" lon="6.28274">
        <ele>2449</ele>
        <time>2016-09-02T10:40:30+02:00</time>
      </trkpt>
      <trkpt lat="44.78617" lon="6.28273">
        <ele>2461</ele>
        <time>2016-09-02T10:41:02+02:00</time>
      </trkpt>
      <trkpt lat="44.78612" lon="6.28241">
        <ele>2456</ele>
        <time>2016-09-02T10:42:16+02:00</time>
      </trkpt>
      <trkpt lat="44.78633" lon="6.2823">
        <ele>2467</ele>
        <time>2016-09-02T10:42:53+02:00</time>
      </trkpt>
      <trkpt lat="44.78656" lon="6.28224">
        <ele>2478</ele>
        <time>2016-09-02T10:43:37+02:00</time>
      </trkpt>
      <trkpt lat="44.78665" lon="6.28194">
        <ele>2482</ele>
        <time>2016-09-02T10:46:00+02:00</time>
      </trkpt>
      <trkpt lat="44.78655" lon="6.28167">
        <ele>2476</ele>
        <time>2016-09-02T10:46:50+02:00</time>
      </trkpt>
      <trkpt lat="44.7867" lon="6.28143">
        <ele>2482</ele>
        <time>2016-09-02T10:47:27+02:00</time>
      </trkpt>
      <trkpt lat="44.78692" lon="6.28129">
        <ele>2492</ele>
        <time>2016-09-02T10:48:00+02:00</time>
      </trkpt>
      <trkpt lat="44.78715" lon="6.2813">
        <ele>2503</ele>
        <time>2016-09-02T10:48:57+02:00</time>
      </trkpt>
      <trkpt lat="44.78732" lon="6.28108">
        <ele>2512</ele>
        <time>2016-09-02T10:49:31+02:00</time>
      </trkpt>
      <trkpt lat="44.78724" lon="6.28077">
        <ele>2507</ele>
        <time>2016-09-02T10:50:43+02:00</time>
      </trkpt>
      <trkpt lat="44.78734" lon="6.28049">
        <ele>2511</ele>
        <time>2016-09-02T10:51:37+02:00</time>
      </trkpt>
      <trkpt lat="44.78757" lon="6.2805">
        <ele>2524</ele>
        <time>2016-09-02T10:53:26+02:00</time>
      </trkpt>
      <trkpt lat="44.78774" lon="6.28029">
        <ele>2533</ele>
        <time>2016-09-02T10:54:59+02:00</time>
      </trkpt>
      <trkpt lat="44.78797" lon="6.28037">
        <ele>2547</ele>
        <time>2016-09-02T10:56:17+02:00</time>
      </trkpt>
      <trkpt lat="44.78809" lon="6.28065">
        <ele>2557</ele>
        <time>2016-09-02T10:58:04+02:00</time>
      </trkpt>
      <trkpt lat="44.7882" lon="6.28037">
        <ele>2562</ele>
        <time>2016-09-02T10:58:49+02:00</time>
      </trkpt>
      <trkpt lat="44.78837" lon="6.28014">
        <ele>2570</ele>
        <time>2016-09-02T10:59:42+02:00</time>
      </trkpt>
      <trkpt lat="44.78857" lon="6.28029">
        <ele>2583</ele>
        <time>2016-09-02T11:01:26+02:00</time>
      </trkpt>
      <trkpt lat="44.78873" lon="6.28053">
        <ele>2594</ele>
        <time>2016-09-02T11:04:04+02:00</time>
      </trkpt>
      <trkpt lat="44.78879" lon="6.28084">
        <ele>2600</ele>
        <time>2016-09-02T11:05:18+02:00</time>
      </trkpt>
      <trkpt lat="44.78879" lon="6.28116">
        <ele>2601</ele>
        <time>2016-09-02T11:06:08+02:00</time>
      </trkpt>
      <trkpt lat="44.78886" lon="6.28148">
        <ele>2605</ele>
        <time>2016-09-02T11:06:48+02:00</time>
      </trkpt>
      <trkpt lat="44.78902" lon="6.2817">
        <ele>2611</ele>
        <time>2016-09-02T11:16:27+02:00</time>
      </trkpt>
      <trkpt lat="44.78923" lon="6.28181">
        <ele>2613</ele>
        <time>2016-09-02T11:17:35+02:00</time>
      </trkpt>
      <trkpt lat="44.78946" lon="6.28177">
        <ele>2608</ele>
        <time>2016-09-02T11:18:23+02:00</time>
      </trkpt>
      <trkpt lat="44.78968" lon="6.28167">
        <ele>2607</ele>
        <time>2016-09-02T11:18:47+02:00</time>
      </trkpt>
      <trkpt lat="44.78991" lon="6.28165">
        <ele>2602</ele>
        <time>2016-09-02T11:19:13+02:00</time>
      </trkpt>
      <trkpt lat="44.79013" lon="6.28175">
        <ele>2592</ele>
        <time>2016-09-02T11:20:17+02:00</time>
      </trkpt>
      <trkpt lat="44.79035" lon="6.28172">
        <ele>2589</ele>
        <time>2016-09-02T11:20:56+02:00</time>
      </trkpt>
      <trkpt lat="44.79021" lon="6.28197">
        <ele>2581</ele>
        <time>2016-09-02T11:21:29+02:00</time>
      </trkpt>
      <trkpt lat="44.7903" lon="6.28226">
        <ele>2567</ele>
        <time>2016-09-02T11:22:13+02:00</time>
      </trkpt>
      <trkpt lat="44.79038" lon="6.28257">
        <ele>2553</ele>
        <time>2016-09-02T11:23:04+02:00</time>
      </trkpt>
      <trkpt lat="44.79059" lon="6.28245">
        <ele>2554</ele>
        <time>2016-09-02T11:23:33+02:00</time>
      </trkpt>
      <trkpt lat="44.79081" lon="6.28257">
        <ele>2547</ele>
        <time>2016-09-02T11:24:00+02:00</time>
      </trkpt>
      <trkpt lat="44.79104" lon="6.28259">
        <ele>2550</ele>
        <time>2016-09-02T11:24:20+02:00</time>
      </trkpt>
      <trkpt lat="44.79119" lon="6.28283">
        <ele>2545</ele>
        <time>2016-09-02T11:25:00+02:00</time>
      </trkpt>
      <trkpt lat="44.79112" lon="6.28314">
        <ele>2534</ele>
        <time>2016-09-02T11:25:27+02:00</time>
      </trkpt>
      <trkpt lat="44.79106" lon="6.28345">
        <ele>2522</ele>
        <time>2016-09-02T11:25:51+02:00</time>
      </trkpt>
      <trkpt lat="44.79118" lon="6.28373">
        <ele>2515</ele>
        <time>2016-09-02T11:26:16+02:00</time>
      </trkpt>
      <trkpt lat="44.79141" lon="6.28381">
        <ele>2515</ele>
        <time>2016-09-02T11:26:46+02:00</time>
      </trkpt>
      <trkpt lat="44.79162" lon="6.28393">
        <ele>2513</ele>
        <time>2016-09-02T11:27:09+02:00</time>
      </trkpt>
      <trkpt lat="44.79143" lon="6.28411">
        <ele>2504</ele>
        <time>2016-09-02T11:27:52+02:00</time>
      </trkpt>
      <trkpt lat="44.79141" lon="6.28442">
        <ele>2492</ele>
        <time>2016-09-02T11:28:46+02:00</time>
      </trkpt>
      <trkpt lat="44.79121" lon="6.28458">
        <ele>2484</ele>
        <time>2016-09-02T11:29:44+02:00</time>
      </trkpt>
      <trkpt lat="44.79139" lon="6.28478">
        <ele>2478</ele>
        <time>2016-09-02T11:30:20+02:00</time>
      </trkpt>
      <trkpt lat="44.79161" lon="6.28474">
        <ele>2481</ele>
        <time>2016-09-02T11:30:45+02:00</time>
      </trkpt>
      <trkpt lat="44.79145" lon="6.28499">
        <ele>2471</ele>
        <time>2016-09-02T11:32:18+02:00</time>
      </trkpt>
      <trkpt lat="44.79125" lon="6.28515">
        <ele>2464</ele>
        <time>2016-09-02T11:32:38+02:00</time>
      </trkpt>
      <trkpt lat="44.79103" lon="6.28514">
        <ele>2463</ele>
        <time>2016-09-02T11:33:03+02:00</time>
      </trkpt>
      <trkpt lat="44.79119" lon="6.28537">
        <ele>2457</ele>
        <time>2016-09-02T11:33:28+02:00</time>
      </trkpt>
      <trkpt lat="44.79142" lon="6.28539">
        <ele>2457</ele>
        <time>2016-09-02T11:33:51+02:00</time>
      </trkpt>
      <trkpt lat="44.79157" lon="6.28565">
        <ele>2450</ele>
        <time>2016-09-02T11:34:21+02:00</time>
      </trkpt>
      <trkpt lat="44.79177" lon="6.2858">
        <ele>2448</ele>
        <time>2016-09-02T11:34:47+02:00</time>
      </trkpt>
      <trkpt lat="44.79194" lon="6.28601">
        <ele>2447</ele>
        <time>2016-09-02T11:35:12+02:00</time>
      </trkpt>
      <trkpt lat="44.79211" lon="6.28623">
        <ele>2443</ele>
        <time>2016-09-02T11:35:33+02:00</time>
      </trkpt>
      <trkpt lat="44.79229" lon="6.28643">
        <ele>2440</ele>
        <time>2016-09-02T11:35:56+02:00</time>
      </trkpt>
      <trkpt lat="44.79247" lon="6.28664">
        <ele>2435</ele>
        <time>2016-09-02T11:36:17+02:00</time>
      </trkpt>
      <trkpt lat="44.79255" lon="6.28693">
        <ele>2424</ele>
        <time>2016-09-02T11:36:46+02:00</time>
      </trkpt>
      <trkpt lat="44.79274" lon="6.28713">
        <ele>2415</ele>
        <time>2016-09-02T11:37:07+02:00</time>
      </trkpt>
      <trkpt lat="44.79296" lon="6.28726">
        <ele>2409</ele>
        <time>2016-09-02T11:37:32+02:00</time>
      </trkpt>
      <trkpt lat="44.79318" lon="6.2873">
        <ele>2405</ele>
        <time>2016-09-02T11:37:53+02:00</time>
      </trkpt>
      <trkpt lat="44.79341" lon="6.2873">
        <ele>2400</ele>
        <time>2016-09-02T11:40:36+02:00</time>
      </trkpt>
      <trkpt lat="44.79362" lon="6.28717">
        <ele>2397</ele>
        <time>2016-09-02T11:41:04+02:00</time>
      </trkpt>
      <trkpt lat="44.79384" lon="6.28706">
        <ele>2392</ele>
        <time>2016-09-02T11:41:36+02:00</time>
      </trkpt>
      <trkpt lat="44.79404" lon="6.2869">
        <ele>2390</ele>
        <time>2016-09-02T11:41:59+02:00</time>
      </trkpt>
      <trkpt lat="44.79426" lon="6.2868">
        <ele>2385</ele>
        <time>2016-09-02T11:42:23+02:00</time>
      </trkpt>
      <trkpt lat="44.79447" lon="6.2867">
        <ele>2381</ele>
        <time>2016-09-02T11:42:49+02:00</time>
      </trkpt>
      <trkpt lat="44.79469" lon="6.28659">
        <ele>2377</ele>
        <time>2016-09-02T11:43:16+02:00</time>
      </trkpt>
      <trkpt lat="44.79458" lon="6.28687">
        <ele>2372</ele>
        <time>2016-09-02T11:43:52+02:00</time>
      </trkpt>
      <trkpt lat="44.79444" lon="6.28713">
        <ele>2369</ele>
        <time>2016-09-02T11:44:17+02:00</time>
      </trkpt>
      <trkpt lat="44.79429" lon="6.28737">
        <ele>2365</ele>
        <time>2016-09-02T11:44:41+02:00</time>
      </trkpt>
      <trkpt lat="44.79453" lon="6.28736">
        <ele>2359</ele>
        <time>2016-09-02T11:45:18+02:00</time>
      </trkpt>
      <trkpt lat="44.79476" lon="6.28732">
        <ele>2354</ele>
        <time>2016-09-02T11:45:38+02:00</time>
      </trkpt>
      <trkpt lat="44.79499" lon="6.28736">
        <ele>2346</ele>
        <time>2016-09-02T11:46:05+02:00</time>
      </trkpt>
      <trkpt lat="44.79521" lon="6.28742">
        <ele>2339</ele>
        <time>2016-09-02T11:46:30+02:00</time>
      </trkpt>
      <trkpt lat="44.79544" lon="6.28748">
        <ele>2333</ele>
        <time>2016-09-02T11:46:53+02:00</time>
      </trkpt>
      <trkpt lat="44.79568" lon="6.28746">
        <ele>2327</ele>
        <time>2016-09-02T11:47:18+02:00</time>
      </trkpt>
      <trkpt lat="44.7959" lon="6.28747">
        <ele>2322</ele>
        <time>2016-09-02T11:47:38+02:00</time>
      </trkpt>
      <trkpt lat="44.79611" lon="6.28733">
        <ele>2319</ele>
        <time>2016-09-02T11:48:12+02:00</time>
      </trkpt>
      <trkpt lat="44.79633" lon="6.28745">
        <ele>2312</ele>
        <time>2016-09-02T11:48:39+02:00</time>
      </trkpt>
      <trkpt lat="44.79651" lon="6.28768">
        <ele>2305</ele>
        <time>2016-09-02T11:49:08+02:00</time>
      </trkpt>
      <trkpt lat="44.79671" lon="6.28781">
        <ele>2299</ele>
        <time>2016-09-02T11:49:33+02:00</time>
      </trkpt>
      <trkpt lat="44.79692" lon="6.28794">
        <ele>2295</ele>
        <time>2016-09-02T11:49:54+02:00</time>
      </trkpt>
      <trkpt lat="44.79712" lon="6.2881">
        <ele>2292</ele>
        <time>2016-09-02T11:50:14+02:00</time>
      </trkpt>
      <trkpt lat="44.79734" lon="6.2882">
        <ele>2289</ele>
        <time>2016-09-02T11:50:33+02:00</time>
      </trkpt>
      <trkpt lat="44.79755" lon="6.28833">
        <ele>2287</ele>
        <time>2016-09-02T11:50:55+02:00</time>
      </trkpt>
      <trkpt lat="44.79778" lon="6.28844">
        <ele>2285</ele>
        <time>2016-09-02T11:51:13+02:00</time>
      </trkpt>
      <trkpt lat="44.79799" lon="6.28859">
        <ele>2284</ele>
        <time>2016-09-02T11:51:31+02:00</time>
      </trkpt>
      <trkpt lat="44.79817" lon="6.28877">
        <ele>2282</ele>
        <time>2016-09-02T11:51:55+02:00</time>
      </trkpt>
      <trkpt lat="44.79833" lon="6.289">
        <ele>2280</ele>
        <time>2016-09-02T11:54:05+02:00</time>
      </trkpt>
      <trkpt lat="44.79846" lon="6.28926">
        <ele>2278</ele>
        <time>2016-09-02T11:55:25+02:00</time>
      </trkpt>
      <trkpt lat="44.79844" lon="6.28958">
        <ele>2276</ele>
        <time>2016-09-02T11:57:19+02:00</time>
      </trkpt>
      <trkpt lat="44.79847" lon="6.2899">
        <ele>2274</ele>
        <time>2016-09-02T11:57:54+02:00</time>
      </trkpt>
      <trkpt lat="44.79836" lon="6.29021">
        <ele>2273</ele>
        <time>2016-09-02T11:58:37+02:00</time>
      </trkpt>
      <trkpt lat="44.79815" lon="6.29036">
        <ele>2273</ele>
        <time>2016-09-02T11:59:10+02:00</time>
      </trkpt>
      <trkpt lat="44.7981" lon="6.29068">
        <ele>2273</ele>
        <time>2016-09-02T11:59:43+02:00</time>
      </trkpt>
      <trkpt lat="44.798" lon="6.29097">
        <ele>2272</ele>
        <time>2016-09-02T12:01:43+02:00</time>
      </trkpt>
      <trkpt lat="44.79796" lon="6.29128">
        <ele>2271</ele>
        <time>2016-09-02T12:02:03+02:00</time>
      </trkpt>
      <trkpt lat="44.79804" lon="6.29161">
        <ele>2270</ele>
        <time>2016-09-02T12:02:43+02:00</time>
      </trkpt>
      <trkpt lat="44.79823" lon="6.29182">
        <ele>2270</ele>
        <time>2016-09-02T12:03:33+02:00</time>
      </trkpt>
      <trkpt lat="44.79842" lon="6.292">
        <ele>2269</ele>
        <time>2016-09-02T12:03:53+02:00</time>
      </trkpt>
      <trkpt lat="44.79862" lon="6.29186">
        <ele>2266</ele>
        <time>2016-09-02T12:07:21+02:00</time>
      </trkpt>
      <trkpt lat="44.79884" lon="6.29199">
        <ele>2262</ele>
        <time>2016-09-02T12:08:08+02:00</time>
      </trkpt>
      <trkpt lat="44.79906" lon="6.29192">
        <ele>2259</ele>
        <time>2016-09-02T12:08:34+02:00</time>
      </trkpt>
      <trkpt lat="44.79926" lon="6.29175">
        <ele>2257</ele>
        <time>2016-09-02T12:09:06+02:00</time>
      </trkpt>
      <trkpt lat="44.79949" lon="6.29169">
        <ele>2252</ele>
        <time>2016-09-02T12:09:32+02:00</time>
      </trkpt>
      <trkpt lat="44.79971" lon="6.29162">
        <ele>2248</ele>
        <time>2016-09-02T12:10:06+02:00</time>
      </trkpt>
      <trkpt lat="44.79994" lon="6.29156">
        <ele>2244</ele>
        <time>2016-09-02T12:10:36+02:00</time>
      </trkpt>
      <trkpt lat="44.80017" lon="6.2916">
        <ele>2237</ele>
        <time>2016-09-02T12:11:10+02:00</time>
      </trkpt>
      <trkpt lat="44.80039" lon="6.29172">
        <ele>2229</ele>
        <time>2016-09-02T12:11:33+02:00</time>
      </trkpt>
      <trkpt lat="44.80061" lon="6.29183">
        <ele>2222</ele>
        <time>2016-09-02T12:11:51+02:00</time>
      </trkpt>
      <trkpt lat="44.80075" lon="6.29208">
        <ele>2217</ele>
        <time>2016-09-02T12:12:21+02:00</time>
      </trkpt>
      <trkpt lat="44.80095" lon="6.2919">
        <ele>2209</ele>
        <time>2016-09-02T12:13:09+02:00</time>
      </trkpt>
      <trkpt lat="44.80113" lon="6.29171">
        <ele>2201</ele>
        <time>2016-09-02T12:13:50+02:00</time>
      </trkpt>
      <trkpt lat="44.80118" lon="6.29203">
        <ele>2197</ele>
        <time>2016-09-02T12:14:23+02:00</time>
      </trkpt>
      <trkpt lat="44.8014" lon="6.29192">
        <ele>2188</ele>
        <time>2016-09-02T12:15:12+02:00</time>
      </trkpt>
      <trkpt lat="44.80162" lon="6.29188">
        <ele>2177</ele>
        <time>2016-09-02T12:16:18+02:00</time>
      </trkpt>
      <trkpt lat="44.80185" lon="6.29187">
        <ele>2165</ele>
        <time>2016-09-02T12:17:13+02:00</time>
      </trkpt>
      <trkpt lat="44.80179" lon="6.29217">
        <ele>2167</ele>
        <time>2016-09-02T12:17:43+02:00</time>
      </trkpt>
      <trkpt lat="44.80201" lon="6.29209">
        <ele>2155</ele>
        <time>2016-09-02T12:18:40+02:00</time>
      </trkpt>
      <trkpt lat="44.80209" lon="6.29238">
        <ele>2151</ele>
        <time>2016-09-02T12:19:20+02:00</time>
      </trkpt>
      <trkpt lat="44.80229" lon="6.29221">
        <ele>2140</ele>
        <time>2016-09-02T12:20:04+02:00</time>
      </trkpt>
      <trkpt lat="44.80241" lon="6.29194">
        <ele>2133</ele>
        <time>2016-09-02T12:20:30+02:00</time>
      </trkpt>
      <trkpt lat="44.80256" lon="6.29168">
        <ele>2126</ele>
        <time>2016-09-02T12:20:56+02:00</time>
      </trkpt>
      <trkpt lat="44.8026" lon="6.292">
        <ele>2124</ele>
        <time>2016-09-02T12:22:02+02:00</time>
      </trkpt>
      <trkpt lat="44.8027" lon="6.29229">
        <ele>2120</ele>
        <time>2016-09-02T12:22:32+02:00</time>
      </trkpt>
      <trkpt lat="44.80293" lon="6.29223">
        <ele>2111</ele>
        <time>2016-09-02T12:23:02+02:00</time>
      </trkpt>
      <trkpt lat="44.80307" lon="6.29198">
        <ele>2104</ele>
        <time>2016-09-02T12:23:39+02:00</time>
      </trkpt>
      <trkpt lat="44.80312" lon="6.29166">
        <ele>2101</ele>
        <time>2016-09-02T12:24:08+02:00</time>
      </trkpt>
      <trkpt lat="44.80312" lon="6.29133">
        <ele>2099</ele>
        <time>2016-09-02T12:24:35+02:00</time>
      </trkpt>
      <trkpt lat="44.80334" lon="6.29143">
        <ele>2089</ele>
        <time>2016-09-02T12:26:29+02:00</time>
      </trkpt>
      <trkpt lat="44.80357" lon="6.29145">
        <ele>2081</ele>
        <time>2016-09-02T12:26:48+02:00</time>
      </trkpt>
      <trkpt lat="44.80379" lon="6.29154">
        <ele>2075</ele>
        <time>2016-09-02T12:27:12+02:00</time>
      </trkpt>
      <trkpt lat="44.8039" lon="6.29183">
        <ele>2073</ele>
        <time>2016-09-02T12:28:04+02:00</time>
      </trkpt>
      <trkpt lat="44.8038" lon="6.29211">
        <ele>2076</ele>
        <time>2016-09-02T12:28:26+02:00</time>
      </trkpt>
      <trkpt lat="44.80397" lon="6.29231">
        <ele>2070</ele>
        <time>2016-09-02T12:29:04+02:00</time>
      </trkpt>
      <trkpt lat="44.8042" lon="6.29233">
        <ele>2062</ele>
        <time>2016-09-02T12:29:31+02:00</time>
      </trkpt>
      <trkpt lat="44.80443" lon="6.29241">
        <ele>2054</ele>
        <time>2016-09-02T12:30:07+02:00</time>
      </trkpt>
      <trkpt lat="44.80465" lon="6.29245">
        <ele>2046</ele>
        <time>2016-09-02T12:30:29+02:00</time>
      </trkpt>
      <trkpt lat="44.80486" lon="6.29259">
        <ele>2041</ele>
        <time>2016-09-02T12:30:47+02:00</time>
      </trkpt>
      <trkpt lat="44.80498" lon="6.29286">
        <ele>2041</ele>
        <time>2016-09-02T12:31:14+02:00</time>
      </trkpt>
      <trkpt lat="44.80517" lon="6.29305">
        <ele>2034</ele>
        <time>2016-09-02T12:31:38+02:00</time>
      </trkpt>
      <trkpt lat="44.80515" lon="6.29338">
        <ele>2040</ele>
        <time>2016-09-02T12:32:05+02:00</time>
      </trkpt>
      <trkpt lat="44.80514" lon="6.2937">
        <ele>2041</ele>
        <time>2016-09-02T12:32:28+02:00</time>
      </trkpt>
      <trkpt lat="44.80523" lon="6.29399">
        <ele>2035</ele>
        <time>2016-09-02T12:32:59+02:00</time>
      </trkpt>
      <trkpt lat="44.80534" lon="6.29371">
        <ele>2028</ele>
        <time>2016-09-02T12:34:18+02:00</time>
      </trkpt>
      <trkpt lat="44.80546" lon="6.294">
        <ele>2019</ele>
        <time>2016-09-02T12:35:50+02:00</time>
      </trkpt>
      <trkpt lat="44.80557" lon="6.29427">
        <ele>2010</ele>
        <time>2016-09-02T12:36:13+02:00</time>
      </trkpt>
      <trkpt lat="44.80571" lon="6.29453">
        <ele>2002</ele>
        <time>2016-09-02T12:36:36+02:00</time>
      </trkpt>
      <trkpt lat="44.8058" lon="6.29482">
        <ele>1996</ele>
        <time>2016-09-02T12:37:01+02:00</time>
      </trkpt>
      <trkpt lat="44.80588" lon="6.29513">
        <ele>1993</ele>
        <time>2016-09-02T12:37:23+02:00</time>
      </trkpt>
      <trkpt lat="44.80594" lon="6.29481">
        <ele>1986</ele>
        <time>2016-09-02T12:38:06+02:00</time>
      </trkpt>
      <trkpt lat="44.80596" lon="6.29448">
        <ele>1982</ele>
        <time>2016-09-02T12:38:24+02:00</time>
      </trkpt>
      <trkpt lat="44.80599" lon="6.29417">
        <ele>1980</ele>
        <time>2016-09-02T12:38:43+02:00</time>
      </trkpt>
      <trkpt lat="44.80613" lon="6.29441">
        <ele>1971</ele>
        <time>2016-09-02T12:39:42+02:00</time>
      </trkpt>
      <trkpt lat="44.80619" lon="6.29472">
        <ele>1968</ele>
        <time>2016-09-02T12:40:01+02:00</time>
      </trkpt>
      <trkpt lat="44.80632" lon="6.29499">
        <ele>1959</ele>
        <time>2016-09-02T12:40:23+02:00</time>
      </trkpt>
      <trkpt lat="44.80644" lon="6.29527">
        <ele>1951</ele>
        <time>2016-09-02T12:40:59+02:00</time>
      </trkpt>
      <trkpt lat="44.80657" lon="6.29554">
        <ele>1943</ele>
        <time>2016-09-02T12:41:19+02:00</time>
      </trkpt>
      <trkpt lat="44.80661" lon="6.29522">
        <ele>1938</ele>
        <time>2016-09-02T12:41:57+02:00</time>
      </trkpt>
      <trkpt lat="44.80663" lon="6.2949">
        <ele>1936</ele>
        <time>2016-09-02T12:42:21+02:00</time>
      </trkpt>
      <trkpt lat="44.80669" lon="6.29459">
        <ele>1935</ele>
        <time>2016-09-02T12:42:42+02:00</time>
      </trkpt>
      <trkpt lat="44.8068" lon="6.29431">
        <ele>1931</ele>
        <time>2016-09-02T12:43:03+02:00</time>
      </trkpt>
      <trkpt lat="44.80689" lon="6.2946">
        <ele>1925</ele>
        <time>2016-09-02T12:43:36+02:00</time>
      </trkpt>
      <trkpt lat="44.80697" lon="6.2949">
        <ele>1919</ele>
        <time>2016-09-02T12:44:02+02:00</time>
      </trkpt>
      <trkpt lat="44.80711" lon="6.29517">
        <ele>1911</ele>
        <time>2016-09-02T12:44:38+02:00</time>
      </trkpt>
      <trkpt lat="44.80719" lon="6.29548">
        <ele>1906</ele>
        <time>2016-09-02T12:44:55+02:00</time>
      </trkpt>
      <trkpt lat="44.80726" lon="6.29517">
        <ele>1903</ele>
        <time>2016-09-02T12:46:35+02:00</time>
      </trkpt>
      <trkpt lat="44.80731" lon="6.29486">
        <ele>1902</ele>
        <time>2016-09-02T12:47:00+02:00</time>
      </trkpt>
      <trkpt lat="44.80753" lon="6.29495">
        <ele>1890</ele>
        <time>2016-09-02T12:47:53+02:00</time>
      </trkpt>
      <trkpt lat="44.80763" lon="6.29526">
        <ele>1884</ele>
        <time>2016-09-02T12:48:22+02:00</time>
      </trkpt>
      <trkpt lat="44.80769" lon="6.29558">
        <ele>1879</ele>
        <time>2016-09-02T12:48:37+02:00</time>
      </trkpt>
      <trkpt lat="44.8078" lon="6.29528">
        <ele>1876</ele>
        <time>2016-09-02T12:49:16+02:00</time>
      </trkpt>
      <trkpt lat="44.80797" lon="6.2955">
        <ele>1865</ele>
        <time>2016-09-02T12:49:56+02:00</time>
      </trkpt>
      <trkpt lat="44.80808" lon="6.29523">
        <ele>1862</ele>
        <time>2016-09-02T12:50:39+02:00</time>
      </trkpt>
      <trkpt lat="44.80823" lon="6.29498">
        <ele>1858</ele>
        <time>2016-09-02T12:51:08+02:00</time>
      </trkpt>
      <trkpt lat="44.8084" lon="6.29473">
        <ele>1854</ele>
        <time>2016-09-02T12:51:51+02:00</time>
      </trkpt>
      <trkpt lat="44.80854" lon="6.29499">
        <ele>1845</ele>
        <time>2016-09-02T12:52:32+02:00</time>
      </trkpt>
      <trkpt lat="44.80858" lon="6.29532">
        <ele>1839</ele>
        <time>2016-09-02T12:52:48+02:00</time>
      </trkpt>
      <trkpt lat="44.80863" lon="6.29565">
        <ele>1833</ele>
        <time>2016-09-02T12:53:15+02:00</time>
      </trkpt>
      <trkpt lat="44.80885" lon="6.29551">
        <ele>1825</ele>
        <time>2016-09-02T12:53:50+02:00</time>
      </trkpt>
      <trkpt lat="44.80904" lon="6.29533">
        <ele>1820</ele>
        <time>2016-09-02T12:54:15+02:00</time>
      </trkpt>
      <trkpt lat="44.80927" lon="6.29536">
        <ele>1809</ele>
        <time>2016-09-02T12:55:17+02:00</time>
      </trkpt>
      <trkpt lat="44.80937" lon="6.29566">
        <ele>1800</ele>
        <time>2016-09-02T12:56:09+02:00</time>
      </trkpt>
      <trkpt lat="44.8096" lon="6.29562">
        <ele>1789</ele>
        <time>2016-09-02T12:56:47+02:00</time>
      </trkpt>
      <trkpt lat="44.80982" lon="6.29554">
        <ele>1779</ele>
        <time>2016-09-02T12:58:27+02:00</time>
      </trkpt>
      <trkpt lat="44.80997" lon="6.29528">
        <ele>1775</ele>
        <time>2016-09-02T12:59:23+02:00</time>
      </trkpt>
      <trkpt lat="44.8102" lon="6.29528">
        <ele>1765</ele>
        <time>2016-09-02T13:00:29+02:00</time>
      </trkpt>
      <trkpt lat="44.81042" lon="6.29527">
        <ele>1755</ele>
        <time>2016-09-02T13:03:13+02:00</time>
      </trkpt>
      <trkpt lat="44.81061" lon="6.29509">
        <ele>1749</ele>
        <time>2016-09-02T13:03:36+02:00</time>
      </trkpt>
      <trkpt lat="44.81084" lon="6.29523">
        <ele>1736</ele>
        <time>2016-09-02T13:04:57+02:00</time>
      </trkpt>
      <trkpt lat="44.81083" lon="6.29556">
        <ele>1731</ele>
        <time>2016-09-02T13:09:20+02:00</time>
      </trkpt>
      <trkpt lat="44.81096" lon="6.29583">
        <ele>1725</ele>
        <time>2016-09-02T13:09:40+02:00</time>
      </trkpt>
      <trkpt lat="44.81111" lon="6.29607">
        <ele>1718</ele>
        <time>2016-09-02T13:10:01+02:00</time>
      </trkpt>
      <trkpt lat="44.81116" lon="6.29638">
        <ele>1710</ele>
        <time>2016-09-02T13:10:34+02:00</time>
      </trkpt>
      <trkpt lat="44.81138" lon="6.29629">
        <ele>1707</ele>
        <time>2016-09-02T13:11:16+02:00</time>
      </trkpt>
      <trkpt lat="44.81151" lon="6.29603">
        <ele>1710</ele>
        <time>2016-09-02T13:11:34+02:00</time>
      </trkpt>
      <trkpt lat="44.81174" lon="6.29602">
        <ele>1707</ele>
        <time>2016-09-02T13:12:02+02:00</time>
      </trkpt>
      <trkpt lat="44.81195" lon="6.29613">
        <ele>1704</ele>
        <time>2016-09-02T13:12:24+02:00</time>
      </trkpt>
      <trkpt lat="44.81217" lon="6.29625">
        <ele>1700</ele>
        <time>2016-09-02T13:12:50+02:00</time>
      </trkpt>
      <trkpt lat="44.81236" lon="6.29644">
        <ele>1695</ele>
        <time>2016-09-02T13:13:14+02:00</time>
      </trkpt>
      <trkpt lat="44.81259" lon="6.29646">
        <ele>1693</ele>
        <time>2016-09-02T13:14:17+02:00</time>
      </trkpt>
      <trkpt lat="44.81282" lon="6.2964">
        <ele>1691</ele>
        <time>2016-09-02T13:14:37+02:00</time>
      </trkpt>
      <trkpt lat="44.81304" lon="6.29635">
        <ele>1689</ele>
        <time>2016-09-02T13:14:55+02:00</time>
      </trkpt>
      <trkpt lat="44.81327" lon="6.29627">
        <ele>1687</ele>
        <time>2016-09-02T13:15:14+02:00</time>
      </trkpt>
      <trkpt lat="44.8135" lon="6.2962">
        <ele>1685</ele>
        <time>2016-09-02T13:15:32+02:00</time>
      </trkpt>
      <trkpt lat="44.81373" lon="6.29616">
        <ele>1683</ele>
        <time>2016-09-02T13:15:51+02:00</time>
      </trkpt>
      <trkpt lat="44.81396" lon="6.29608">
        <ele>1680</ele>
        <time>2016-09-02T13:16:09+02:00</time>
      </trkpt>
      <trkpt lat="44.81418" lon="6.29601">
        <ele>1678</ele>
        <time>2016-09-02T13:16:27+02:00</time>
      </trkpt>
      <trkpt lat="44.81441" lon="6.29594">
        <ele>1675</ele>
        <time>2016-09-02T13:16:45+02:00</time>
      </trkpt>
      <trkpt lat="44.81462" lon="6.29584">
        <ele>1672</ele>
        <time>2016-09-02T13:17:37+02:00</time>
      </trkpt>
      <trkpt lat="44.81485" lon="6.29576">
        <ele>1669</ele>
        <time>2016-09-02T13:18:03+02:00</time>
      </trkpt>
      <trkpt lat="44.81508" lon="6.2957">
        <ele>1666</ele>
        <time>2016-09-02T13:18:22+02:00</time>
      </trkpt>
      <trkpt lat="44.8153" lon="6.2956">
        <ele>1664</ele>
        <time>2016-09-02T13:18:42+02:00</time>
      </trkpt>
      <trkpt lat="44.81553" lon="6.2956">
        <ele>1660</ele>
        <time>2016-09-02T13:19:01+02:00</time>
      </trkpt>
      <trkpt lat="44.81576" lon="6.29559">
        <ele>1657</ele>
        <time>2016-09-02T13:19:21+02:00</time>
      </trkpt>
      <trkpt lat="44.81598" lon="6.2956">
        <ele>1654</ele>
        <time>2016-09-02T13:19:41+02:00</time>
      </trkpt>
      <trkpt lat="44.81621" lon="6.29559">
        <ele>1652</ele>
        <time>2016-09-02T13:20:15+02:00</time>
      </trkpt>
      <trkpt lat="44.81644" lon="6.29555">
        <ele>1650</ele>
        <time>2016-09-02T13:20:42+02:00</time>
      </trkpt>
      <trkpt lat="44.81668" lon="6.29556">
        <ele>1648</ele>
        <time>2016-09-02T13:21:01+02:00</time>
      </trkpt>
      <trkpt lat="44.81691" lon="6.29558">
        <ele>1645</ele>
        <time>2016-09-02T13:21:21+02:00</time>
      </trkpt>
      <trkpt lat="44.81713" lon="6.29566">
        <ele>1640</ele>
        <time>2016-09-02T13:21:43+02:00</time>
      </trkpt>
      <trkpt lat="44.81741" lon="6.29565">
        <ele>1637</ele>
        <time>2016-09-02T13:22:16+02:00</time>
      </trkpt>
      <trkpt lat="44.81765" lon="6.29564">
        <ele>1635</ele>
        <time>2016-09-02T13:22:50+02:00</time>
      </trkpt>
      <trkpt lat="44.81786" lon="6.29553">
        <ele>1636</ele>
        <time>2016-09-02T13:23:14+02:00</time>
      </trkpt>
      <trkpt lat="44.8181" lon="6.29553">
        <ele>1634</ele>
        <time>2016-09-02T13:23:37+02:00</time>
      </trkpt>
      <trkpt lat="44.81832" lon="6.29553">
        <ele>1632</ele>
        <time>2016-09-02T13:23:53+02:00</time>
      </trkpt>
      <trkpt lat="44.81855" lon="6.29557">
        <ele>1629</ele>
        <time>2016-09-02T13:24:13+02:00</time>
      </trkpt>
      <trkpt lat="44.81878" lon="6.29561">
        <ele>1625</ele>
        <time>2016-09-02T13:24:39+02:00</time>
      </trkpt>
      <trkpt lat="44.81901" lon="6.29557">
        <ele>1624</ele>
        <time>2016-09-02T13:24:52+02:00</time>
      </trkpt>
      <trkpt lat="44.81924" lon="6.29563">
        <ele>1619</ele>
        <time>2016-09-02T13:25:08+02:00</time>
      </trkpt>
      <trkpt lat="44.81945" lon="6.2955">
        <ele>1619</ele>
        <time>2016-09-02T13:25:37+02:00</time>
      </trkpt>
      <trkpt lat="44.81968" lon="6.29544">
        <ele>1617</ele>
        <time>2016-09-02T13:25:58+02:00</time>
      </trkpt>
      <trkpt lat="44.81989" lon="6.29533">
        <ele>1616</ele>
        <time>2016-09-02T13:26:24+02:00</time>
      </trkpt>
      <trkpt lat="44.82012" lon="6.29532">
        <ele>1612</ele>
        <time>2016-09-02T13:26:52+02:00</time>
      </trkpt>
      <trkpt lat="44.82034" lon="6.2952">
        <ele>1611</ele>
        <time>2016-09-02T13:27:14+02:00</time>
      </trkpt>
      <trkpt lat="44.82057" lon="6.29521">
        <ele>1607</ele>
        <time>2016-09-02T13:27:31+02:00</time>
      </trkpt>
      <trkpt lat="44.82077" lon="6.29505">
        <ele>1606</ele>
        <time>2016-09-02T13:27:53+02:00</time>
      </trkpt>
      <trkpt lat="44.82101" lon="6.29501">
        <ele>1601</ele>
        <time>2016-09-02T13:28:18+02:00</time>
      </trkpt>
      <trkpt lat="44.82123" lon="6.29491">
        <ele>1596</ele>
        <time>2016-09-02T13:28:42+02:00</time>
      </trkpt>
      <trkpt lat="44.82143" lon="6.29474">
        <ele>1594</ele>
        <time>2016-09-02T13:28:59+02:00</time>
      </trkpt>
      <trkpt lat="44.82162" lon="6.29457">
        <ele>1591</ele>
        <time>2016-09-02T13:29:22+02:00</time>
      </trkpt>
      <trkpt lat="44.82178" lon="6.29434">
        <ele>1591</ele>
        <time>2016-09-02T13:29:42+02:00</time>
      </trkpt>
      <trkpt lat="44.82196" lon="6.29414">
        <ele>1590</ele>
        <time>2016-09-02T13:30:01+02:00</time>
      </trkpt>
      <trkpt lat="44.82215" lon="6.29396">
        <ele>1594</ele>
        <time>2016-09-02T13:30:21+02:00</time>
      </trkpt>
      <trkpt lat="44.82239" lon="6.29393">
        <ele>1589</ele>
        <time>2016-09-02T13:31:28+02:00</time>
      </trkpt>
      <trkpt lat="44.8226" lon="6.29381">
        <ele>1590</ele>
        <time>2016-09-02T13:31:49+02:00</time>
      </trkpt>
      <trkpt lat="44.82281" lon="6.29367">
        <ele>1591</ele>
        <time>2016-09-02T13:32:10+02:00</time>
      </trkpt>
      <trkpt lat="44.82302" lon="6.29353">
        <ele>1591</ele>
        <time>2016-09-02T13:32:40+02:00</time>
      </trkpt>
      <trkpt lat="44.82324" lon="6.29342">
        <ele>1587</ele>
        <time>2016-09-02T13:32:56+02:00</time>
      </trkpt>
      <trkpt lat="44.82348" lon="6.29343">
        <ele>1582</ele>
        <time>2016-09-02T13:33:22+02:00</time>
      </trkpt>
      <trkpt lat="44.8237" lon="6.2934">
        <ele>1580</ele>
        <time>2016-09-02T13:33:43+02:00</time>
      </trkpt>
      <trkpt lat="44.82393" lon="6.29343">
        <ele>1577</ele>
        <time>2016-09-02T13:34:09+02:00</time>
      </trkpt>
      <trkpt lat="44.82416" lon="6.29332">
        <ele>1576</ele>
        <time>2016-09-02T13:34:38+02:00</time>
      </trkpt>
      <trkpt lat="44.82439" lon="6.29331">
        <ele>1573</ele>
        <time>2016-09-02T13:34:49+02:00</time>
      </trkpt>
      <trkpt lat="44.82461" lon="6.2934">
        <ele>1570</ele>
        <time>2016-09-02T13:36:59+02:00</time>
      </trkpt>
      <trkpt lat="44.82482" lon="6.29325">
        <ele>1569</ele>
        <time>2016-09-02T13:37:53+02:00</time>
      </trkpt>
      <trkpt lat="44.82504" lon="6.29314">
        <ele>1568</ele>
        <time>2016-09-02T13:38:14+02:00</time>
      </trkpt>
      <trkpt lat="44.82527" lon="6.29317">
        <ele>1566</ele>
        <time>2016-09-02T13:38:51+02:00</time>
      </trkpt>
      <trkpt lat="44.82547" lon="6.29304">
        <ele>1565</ele>
        <time>2016-09-02T13:39:10+02:00</time>
      </trkpt>
      <trkpt lat="44.8257" lon="6.29306">
        <ele>1563</ele>
        <time>2016-09-02T13:39:35+02:00</time>
      </trkpt>
      <trkpt lat="44.8259" lon="6.29288">
        <ele>1561</ele>
        <time>2016-09-02T13:39:58+02:00</time>
      </trkpt>
      <trkpt lat="44.8261" lon="6.29274">
        <ele>1560</ele>
        <time>2016-09-02T13:40:23+02:00</time>
      </trkpt>
      <trkpt lat="44.82632" lon="6.29265">
        <ele>1559</ele>
        <time>2016-09-02T13:40:41+02:00</time>
      </trkpt>
      <trkpt lat="44.8265" lon="6.29244">
        <ele>1556</ele>
        <time>2016-09-02T13:41:05+02:00</time>
      </trkpt>
      <trkpt lat="44.82671" lon="6.29232">
        <ele>1554</ele>
        <time>2016-09-02T13:41:26+02:00</time>
      </trkpt>
      <trkpt lat="44.82693" lon="6.29217">
        <ele>1552</ele>
        <time>2016-09-02T13:41:41+02:00</time>
      </trkpt>
      <trkpt lat="44.82715" lon="6.29227">
        <ele>1550</ele>
        <time>2016-09-02T13:42:08+02:00</time>
      </trkpt>
      <trkpt lat="44.82734" lon="6.29209">
        <ele>1547</ele>
        <time>2016-09-02T13:42:29+02:00</time>
      </trkpt>
      <trkpt lat="44.82757" lon="6.29204">
        <ele>1544</ele>
        <time>2016-09-02T13:43:02+02:00</time>
      </trkpt>
      <trkpt lat="44.82779" lon="6.29194">
        <ele>1542</ele>
        <time>2016-09-02T13:43:38+02:00</time>
      </trkpt>
      <trkpt lat="44.82801" lon="6.29198">
        <ele>1543</ele>
        <time>2016-09-02T13:44:24+02:00</time>
      </trkpt>
      <trkpt lat="44.82815" lon="6.29171">
        <ele>1535</ele>
        <time>2016-09-02T13:44:47+02:00</time>
      </trkpt>
      <trkpt lat="44.82834" lon="6.29154">
        <ele>1532</ele>
        <time>2016-09-02T13:45:19+02:00</time>
      </trkpt>
      <trkpt lat="44.82854" lon="6.29135">
        <ele>1531</ele>
        <time>2016-09-02T13:45:40+02:00</time>
      </trkpt>
      <trkpt lat="44.82871" lon="6.29113">
        <ele>1526</ele>
        <time>2016-09-02T13:45:57+02:00</time>
      </trkpt>
      <trkpt lat="44.82894" lon="6.29104">
        <ele>1522</ele>
        <time>2016-09-02T13:46:28+02:00</time>
      </trkpt>
      <trkpt lat="44.82915" lon="6.29091">
        <ele>1516</ele>
        <time>2016-09-02T13:46:50+02:00</time>
      </trkpt>
      <trkpt lat="44.82938" lon="6.29084">
        <ele>1521</ele>
        <time>2016-09-02T13:47:04+02:00</time>
      </trkpt>
      <trkpt lat="44.82959" lon="6.29073">
        <ele>1525</ele>
        <time>2016-09-02T13:47:22+02:00</time>
      </trkpt>
      <trkpt lat="44.8298" lon="6.29059">
        <ele>1527</ele>
        <time>2016-09-02T13:48:04+02:00</time>
      </trkpt>
      <trkpt lat="44.82997" lon="6.29037">
        <ele>1522</ele>
        <time>2016-09-02T13:48:22+02:00</time>
      </trkpt>
      <trkpt lat="44.8301" lon="6.29009">
        <ele>1516</ele>
        <time>2016-09-02T13:48:39+02:00</time>
      </trkpt>
      <trkpt lat="44.83021" lon="6.2898">
        <ele>1513</ele>
        <time>2016-09-02T13:49:00+02:00</time>
      </trkpt>
      <trkpt lat="44.83024" lon="6.28949">
        <ele>1507</ele>
        <time>2016-09-02T13:49:17+02:00</time>
      </trkpt>
      <trkpt lat="44.83037" lon="6.28923">
        <ele>1505</ele>
        <time>2016-09-02T13:49:37+02:00</time>
      </trkpt>
      <trkpt lat="44.83051" lon="6.28897">
        <ele>1503</ele>
        <time>2016-09-02T13:50:06+02:00</time>
      </trkpt>
      <trkpt lat="44.83053" lon="6.28865">
        <ele>1498</ele>
        <time>2016-09-02T13:50:20+02:00</time>
      </trkpt>
      <trkpt lat="44.83067" lon="6.28839">
        <ele>1492</ele>
        <time>2016-09-02T13:50:43+02:00</time>
      </trkpt>
      <trkpt lat="44.83077" lon="6.2881">
        <ele>1485</ele>
        <time>2016-09-02T13:51:07+02:00</time>
      </trkpt>
      <trkpt lat="44.83087" lon="6.28781">
        <ele>1480</ele>
        <time>2016-09-02T13:51:26+02:00</time>
      </trkpt>
      <trkpt lat="44.83089" lon="6.28749">
        <ele>1475</ele>
        <time>2016-09-02T13:51:58+02:00</time>
      </trkpt>
      <trkpt lat="44.83105" lon="6.28726">
        <ele>1483</ele>
        <time>2016-09-02T13:52:21+02:00</time>
      </trkpt>
      <trkpt lat="44.83106" lon="6.28694">
        <ele>1478</ele>
        <time>2016-09-02T13:52:41+02:00</time>
      </trkpt>
      <trkpt lat="44.83106" lon="6.28662">
        <ele>1472</ele>
        <time>2016-09-02T13:53:09+02:00</time>
      </trkpt>
      <trkpt lat="44.83097" lon="6.28631">
        <ele>1464</ele>
        <time>2016-09-02T13:53:24+02:00</time>
      </trkpt>
      <trkpt lat="44.83097" lon="6.28599">
        <ele>1460</ele>
        <time>2016-09-02T13:53:43+02:00</time>
      </trkpt>
      <trkpt lat="44.83102" lon="6.28568">
        <ele>1457</ele>
        <time>2016-09-02T13:57:20+02:00</time>
      </trkpt>
      <trkpt lat="44.83106" lon="6.28536">
        <ele>1453</ele>
        <time>2016-09-02T13:57:38+02:00</time>
      </trkpt>
      <trkpt lat="44.83116" lon="6.28507">
        <ele>1450</ele>
        <time>2016-09-02T13:57:56+02:00</time>
      </trkpt>
      <trkpt lat="44.83136" lon="6.2849">
        <ele>1449</ele>
        <time>2016-09-02T13:58:20+02:00</time>
      </trkpt>
      <trkpt lat="44.83149" lon="6.28464">
        <ele>1446</ele>
        <time>2016-09-02T13:58:47+02:00</time>
      </trkpt>
      <trkpt lat="44.83153" lon="6.28433">
        <ele>1440</ele>
        <time>2016-09-02T14:00:14+02:00</time>
      </trkpt>
      <trkpt lat="44.83157" lon="6.28401">
        <ele>1436</ele>
        <time>2016-09-02T14:00:31+02:00</time>
      </trkpt>
      <trkpt lat="44.83162" lon="6.28368">
        <ele>1433</ele>
        <time>2016-09-02T14:00:57+02:00</time>
      </trkpt>
      <trkpt lat="44.83184" lon="6.2836">
        <ele>1440</ele>
        <time>2016-09-02T14:01:20+02:00</time>
      </trkpt>
      <trkpt lat="44.83207" lon="6.28357">
        <ele>1451</ele>
        <time>2016-09-02T14:01:52+02:00</time>
      </trkpt>
      <trkpt lat="44.83218" lon="6.28329">
        <ele>1460</ele>
        <time>2016-09-02T14:02:22+02:00</time>
      </trkpt>
      <trkpt lat="44.83215" lon="6.28297">
        <ele>1457</ele>
        <time>2016-09-02T14:02:48+02:00</time>
      </trkpt>
      <trkpt lat="44.83214" lon="6.28264">
        <ele>1455</ele>
        <time>2016-09-02T14:03:13+02:00</time>
      </trkpt>
      <trkpt lat="44.83207" lon="6.28232">
        <ele>1451</ele>
        <time>2016-09-02T14:03:35+02:00</time>
      </trkpt>
      <trkpt lat="44.832" lon="6.28201">
        <ele>1449</ele>
        <time>2016-09-02T14:04:05+02:00</time>
      </trkpt>
      <trkpt lat="44.83194" lon="6.2817">
        <ele>1446</ele>
        <time>2016-09-02T14:04:26+02:00</time>
      </trkpt>
      <trkpt lat="44.83187" lon="6.28139">
        <ele>1446</ele>
        <time>2016-09-02T14:04:38+02:00</time>
      </trkpt>
      <trkpt lat="44.83173" lon="6.28114">
        <ele>1441</ele>
        <time>2016-09-02T14:04:56+02:00</time>
      </trkpt>
      <trkpt lat="44.83155" lon="6.28092">
        <ele>1437</ele>
        <time>2016-09-02T14:05:16+02:00</time>
      </trkpt>
      <trkpt lat="44.83139" lon="6.2807">
        <ele>1437</ele>
        <time>2016-09-02T14:05:35+02:00</time>
      </trkpt>
      <trkpt lat="44.83124" lon="6.28044">
        <ele>1438</ele>
        <time>2016-09-02T14:05:55+02:00</time>
      </trkpt>
      <trkpt lat="44.83105" lon="6.28026">
        <ele>1435</ele>
        <time>2016-09-02T14:06:15+02:00</time>
      </trkpt>
      <trkpt lat="44.83087" lon="6.28006">
        <ele>1430</ele>
        <time>2016-09-02T14:06:38+02:00</time>
      </trkpt>
      <trkpt lat="44.8307" lon="6.27985">
        <ele>1431</ele>
        <time>2016-09-02T14:07:01+02:00</time>
      </trkpt>
      <trkpt lat="44.8305" lon="6.2797">
        <ele>1431</ele>
        <time>2016-09-02T14:07:20+02:00</time>
      </trkpt>
      <trkpt lat="44.83027" lon="6.27964">
        <ele>1425</ele>
        <time>2016-09-02T14:07:43+02:00</time>
      </trkpt>
      <trkpt lat="44.83006" lon="6.2795">
        <ele>1420</ele>
        <time>2016-09-02T14:08:03+02:00</time>
      </trkpt>
      <trkpt lat="44.82991" lon="6.27926">
        <ele>1420</ele>
        <time>2016-09-02T14:08:20+02:00</time>
      </trkpt>
      <trkpt lat="44.82989" lon="6.27893">
        <ele>1424</ele>
        <time>2016-09-02T14:08:43+02:00</time>
      </trkpt>
      <trkpt lat="44.82974" lon="6.27869">
        <ele>1423</ele>
        <time>2016-09-02T14:09:07+02:00</time>
      </trkpt>
      <trkpt lat="44.82966" lon="6.27838">
        <ele>1424</ele>
        <time>2016-09-02T14:09:28+02:00</time>
      </trkpt>
      <trkpt lat="44.82957" lon="6.27808">
        <ele>1423</ele>
        <time>2016-09-02T14:09:46+02:00</time>
      </trkpt>
      <trkpt lat="44.82949" lon="6.27778">
        <ele>1421</ele>
        <time>2016-09-02T14:10:33+02:00</time>
      </trkpt>
      <trkpt lat="44.82943" lon="6.27746">
        <ele>1420</ele>
        <time>2016-09-02T14:10:52+02:00</time>
      </trkpt>
      <trkpt lat="44.82945" lon="6.27713">
        <ele>1419</ele>
        <time>2016-09-02T14:11:12+02:00</time>
      </trkpt>
      <trkpt lat="44.82941" lon="6.27682">
        <ele>1416</ele>
        <time>2016-09-02T14:11:31+02:00</time>
      </trkpt>
      <trkpt lat="44.82939" lon="6.2765">
        <ele>1413</ele>
        <time>2016-09-02T14:11:45+02:00</time>
      </trkpt>
      <trkpt lat="44.82924" lon="6.27626">
        <ele>1405</ele>
        <time>2016-09-02T14:12:10+02:00</time>
      </trkpt>
      <trkpt lat="44.82926" lon="6.27593">
        <ele>1405</ele>
        <time>2016-09-02T14:12:33+02:00</time>
      </trkpt>
      <trkpt lat="44.8293" lon="6.27562">
        <ele>1408</ele>
        <time>2016-09-02T14:13:08+02:00</time>
      </trkpt>
      <trkpt lat="44.82918" lon="6.27531">
        <ele>1403</ele>
        <time>2016-09-02T14:13:40+02:00</time>
      </trkpt>
      <trkpt lat="44.8292" lon="6.27499">
        <ele>1406</ele>
        <time>2016-09-02T15:30:50+02:00</time>
      </trkpt>
      <trkpt lat="44.82909" lon="6.27467">
        <ele>1405</ele>
        <time>2016-09-02T15:31:25+02:00</time>
      </trkpt>
      <trkpt lat="44.82914" lon="6.27435">
        <ele>1407</ele>
        <time>2016-09-02T15:31:54+02:00</time>
      </trkpt>
      <trkpt lat="44.82911" lon="6.27403">
        <ele>1409</ele>
        <time>2016-09-02T15:32:25+02:00</time>
      </trkpt>
      <trkpt lat="44.82911" lon="6.27371">
        <ele>1410</ele>
        <time>2016-09-02T15:32:53+02:00</time>
      </trkpt>
      <trkpt lat="44.82912" lon="6.27339">
        <ele>1412</ele>
        <time>2016-09-02T15:33:16+02:00</time>
      </trkpt>
      <trkpt lat="44.82906" lon="6.27308">
        <ele>1414</ele>
        <time>2016-09-02T15:33:37+02:00</time>
      </trkpt>
      <trkpt lat="44.82908" lon="6.27276">
        <ele>1418</ele>
        <time>2016-09-02T15:34:05+02:00</time>
      </trkpt>
      <trkpt lat="44.82903" lon="6.27245">
        <ele>1420</ele>
        <time>2016-09-02T15:34:36+02:00</time>
      </trkpt>
      <trkpt lat="44.82903" lon="6.27213">
        <ele>1424</ele>
        <time>2016-09-02T15:35:14+02:00</time>
      </trkpt>
      <trkpt lat="44.82905" lon="6.27182">
        <ele>1429</ele>
        <time>2016-09-02T15:35:52+02:00</time>
      </trkpt>
      <trkpt lat="44.82904" lon="6.2715">
        <ele>1433</ele>
        <time>2016-09-02T15:36:31+02:00</time>
      </trkpt>
      <trkpt lat="44.82904" lon="6.27118">
        <ele>1438</ele>
        <time>2016-09-02T15:37:21+02:00</time>
      </trkpt>
      <trkpt lat="44.82911" lon="6.27086">
        <ele>1446</ele>
        <time>2016-09-02T15:37:43+02:00</time>
      </trkpt>
      <trkpt lat="44.82895" lon="6.27062">
        <ele>1440</ele>
        <time>2016-09-02T15:38:35+02:00</time>
      </trkpt>
      <trkpt lat="44.82888" lon="6.2703">
        <ele>1440</ele>
        <time>2016-09-02T15:39:04+02:00</time>
      </trkpt>
      <trkpt lat="44.82878" lon="6.27001">
        <ele>1437</ele>
        <time>2016-09-02T15:39:31+02:00</time>
      </trkpt>
      <trkpt lat="44.82872" lon="6.2697">
        <ele>1438</ele>
        <time>2016-09-02T15:40:00+02:00</time>
      </trkpt>
      <trkpt lat="44.8286" lon="6.26944">
        <ele>1435</ele>
        <time>2016-09-02T15:40:22+02:00</time>
      </trkpt>
      <trkpt lat="44.82851" lon="6.26913">
        <ele>1435</ele>
        <time>2016-09-02T15:40:44+02:00</time>
      </trkpt>
      <trkpt lat="44.82854" lon="6.26881">
        <ele>1441</ele>
        <time>2016-09-02T15:41:07+02:00</time>
      </trkpt>
      <trkpt lat="44.82836" lon="6.26862">
        <ele>1434</ele>
        <time>2016-09-02T15:41:24+02:00</time>
      </trkpt>
      <trkpt lat="44.82824" lon="6.26834">
        <ele>1432</ele>
        <time>2016-09-02T15:41:45+02:00</time>
      </trkpt>
      <trkpt lat="44.8282" lon="6.26802">
        <ele>1434</ele>
        <time>2016-09-02T15:42:12+02:00</time>
      </trkpt>
      <trkpt lat="44.82812" lon="6.26771">
        <ele>1433</ele>
        <time>2016-09-02T15:42:57+02:00</time>
      </trkpt>
      <trkpt lat="44.82801" lon="6.26743">
        <ele>1430</ele>
        <time>2016-09-02T15:43:26+02:00</time>
      </trkpt>
      <trkpt lat="44.82791" lon="6.26714">
        <ele>1425</ele>
        <time>2016-09-02T15:43:48+02:00</time>
      </trkpt>
      <trkpt lat="44.82783" lon="6.26682">
        <ele>1421</ele>
        <time>2016-09-02T15:44:23+02:00</time>
      </trkpt>
      <trkpt lat="44.82771" lon="6.26654">
        <ele>1416</ele>
        <time>2016-09-02T15:44:46+02:00</time>
      </trkpt>
      <trkpt lat="44.82767" lon="6.26622">
        <ele>1414</ele>
        <time>2016-09-02T15:45:11+02:00</time>
      </trkpt>
      <trkpt lat="44.82755" lon="6.26594">
        <ele>1409</ele>
        <time>2016-09-02T15:45:54+02:00</time>
      </trkpt>
      <trkpt lat="44.82747" lon="6.26564">
        <ele>1407</ele>
        <time>2016-09-02T15:46:14+02:00</time>
      </trkpt>
      <trkpt lat="44.82748" lon="6.26532">
        <ele>1410</ele>
        <time>2016-09-02T15:46:48+02:00</time>
      </trkpt>
      <trkpt lat="44.82739" lon="6.26501">
        <ele>1408</ele>
        <time>2016-09-02T15:47:08+02:00</time>
      </trkpt>
      <trkpt lat="44.82737" lon="6.26469">
        <ele>1410</ele>
        <time>2016-09-02T15:47:23+02:00</time>
      </trkpt>
      <trkpt lat="44.82737" lon="6.26436">
        <ele>1414</ele>
        <time>2016-09-02T15:47:51+02:00</time>
      </trkpt>
      <trkpt lat="44.82731" lon="6.26406">
        <ele>1415</ele>
        <time>2016-09-02T15:48:32+02:00</time>
      </trkpt>
      <trkpt lat="44.82715" lon="6.26382">
        <ele>1412</ele>
        <time>2016-09-02T15:48:49+02:00</time>
      </trkpt>
      <trkpt lat="44.82704" lon="6.26353">
        <ele>1412</ele>
        <time>2016-09-02T15:49:12+02:00</time>
      </trkpt>
      <trkpt lat="44.82701" lon="6.26321">
        <ele>1416</ele>
        <time>2016-09-02T15:49:36+02:00</time>
      </trkpt>
      <trkpt lat="44.82691" lon="6.26292">
        <ele>1416</ele>
        <time>2016-09-02T15:49:58+02:00</time>
      </trkpt>
      <trkpt lat="44.82692" lon="6.2626">
        <ele>1420</ele>
        <time>2016-09-02T15:50:27+02:00</time>
      </trkpt>
      <trkpt lat="44.82693" lon="6.26227">
        <ele>1424</ele>
        <time>2016-09-02T15:50:44+02:00</time>
      </trkpt>
      <trkpt lat="44.82685" lon="6.26197">
        <ele>1422</ele>
        <time>2016-09-02T15:51:14+02:00</time>
      </trkpt>
      <trkpt lat="44.82671" lon="6.26171">
        <ele>1418</ele>
        <time>2016-09-02T15:51:40+02:00</time>
      </trkpt>
      <trkpt lat="44.82659" lon="6.26142">
        <ele>1410</ele>
        <time>2016-09-02T15:52:01+02:00</time>
      </trkpt>
      <trkpt lat="44.82658" lon="6.26111">
        <ele>1405</ele>
        <time>2016-09-02T15:52:21+02:00</time>
      </trkpt>
      <trkpt lat="44.8266" lon="6.26079">
        <ele>1401</ele>
        <time>2016-09-02T15:53:13+02:00</time>
      </trkpt>
      <trkpt lat="44.82654" lon="6.26048">
        <ele>1393</ele>
        <time>2016-09-02T15:53:39+02:00</time>
      </trkpt>
      <trkpt lat="44.8267" lon="6.26021">
        <ele>1395</ele>
        <time>2016-09-02T15:54:10+02:00</time>
      </trkpt>
      <trkpt lat="44.8268" lon="6.25992">
        <ele>1398</ele>
        <time>2016-09-02T15:54:58+02:00</time>
      </trkpt>
      <trkpt lat="44.82659" lon="6.25976">
        <ele>1390</ele>
        <time>2016-09-02T15:55:34+02:00</time>
      </trkpt>
      <trkpt lat="44.8264" lon="6.25957">
        <ele>1383</ele>
        <time>2016-09-02T15:56:04+02:00</time>
      </trkpt>
      <trkpt lat="44.82628" lon="6.25928">
        <ele>1381</ele>
        <time>2016-09-02T15:56:35+02:00</time>
      </trkpt>
      <trkpt lat="44.82613" lon="6.25904">
        <ele>1376</ele>
        <time>2016-09-02T15:56:51+02:00</time>
      </trkpt>
      <trkpt lat="44.82594" lon="6.25887">
        <ele>1368</ele>
        <time>2016-09-02T15:57:23+02:00</time>
      </trkpt>
      <trkpt lat="44.82572" lon="6.25877">
        <ele>1358</ele>
        <time>2016-09-02T15:58:09+02:00</time>
      </trkpt>
      <trkpt lat="44.82554" lon="6.25857">
        <ele>1350</ele>
        <time>2016-09-02T15:59:09+02:00</time>
      </trkpt>
      <trkpt lat="44.82549" lon="6.25826">
        <ele>1347</ele>
        <time>2016-09-02T15:59:28+02:00</time>
      </trkpt>
      <trkpt lat="44.82549" lon="6.25794">
        <ele>1344</ele>
        <time>2016-09-02T15:59:48+02:00</time>
      </trkpt>
      <trkpt lat="44.82543" lon="6.25764">
        <ele>1337</ele>
        <time>2016-09-02T16:00:15+02:00</time>
      </trkpt>
      <trkpt lat="44.82542" lon="6.25732">
        <ele>1330</ele>
        <time>2016-09-02T16:00:38+02:00</time>
      </trkpt>
      <trkpt lat="44.82551" lon="6.25702">
        <ele>1330</ele>
        <time>2016-09-02T16:00:54+02:00</time>
      </trkpt>
      <trkpt lat="44.82563" lon="6.25673">
        <ele>1331</ele>
        <time>2016-09-02T16:01:20+02:00</time>
      </trkpt>
      <trkpt lat="44.82578" lon="6.25648">
        <ele>1337</ele>
        <time>2016-09-02T16:01:39+02:00</time>
      </trkpt>
      <trkpt lat="44.82579" lon="6.25617">
        <ele>1332</ele>
        <time>2016-09-02T16:01:57+02:00</time>
      </trkpt>
      <trkpt lat="44.82589" lon="6.25587">
        <ele>1334</ele>
        <time>2016-09-02T16:02:17+02:00</time>
      </trkpt>
      <trkpt lat="44.82575" lon="6.25562">
        <ele>1320</ele>
        <time>2016-09-02T16:02:39+02:00</time>
      </trkpt>
      <trkpt lat="44.82567" lon="6.25531">
        <ele>1311</ele>
        <time>2016-09-02T16:03:08+02:00</time>
      </trkpt>
      <trkpt lat="44.82565" lon="6.25498">
        <ele>1306</ele>
        <time>2016-09-02T16:03:34+02:00</time>
      </trkpt>
      <trkpt lat="44.82557" lon="6.25468">
        <ele>1298</ele>
        <time>2016-09-02T16:03:56+02:00</time>
      </trkpt>
      <trkpt lat="44.82557" lon="6.25436">
        <ele>1295</ele>
        <time>2016-09-02T16:04:21+02:00</time>
      </trkpt>
      <trkpt lat="44.82556" lon="6.25401">
        <ele>1289</ele>
        <time>2016-09-02T16:18:54+02:00</time>
      </trkpt>
      <trkpt lat="44.82564" lon="6.25372">
        <ele>1289</ele>
        <time>2016-09-02T16:19:16+02:00</time>
      </trkpt>
      <trkpt lat="44.82574" lon="6.25341">
        <ele>1287</ele>
        <time>2016-09-02T16:19:43+02:00</time>
      </trkpt>
      <trkpt lat="44.82581" lon="6.2531">
        <ele>1284</ele>
        <time>2016-09-02T16:20:13+02:00</time>
      </trkpt>
      <trkpt lat="44.82586" lon="6.25278">
        <ele>1279</ele>
        <time>2016-09-02T16:20:35+02:00</time>
      </trkpt>
      <trkpt lat="44.82598" lon="6.25251">
        <ele>1282</ele>
        <time>2016-09-02T16:21:01+02:00</time>
      </trkpt>
      <trkpt lat="44.82595" lon="6.25219">
        <ele>1276</ele>
        <time>2016-09-02T16:21:28+02:00</time>
      </trkpt>
      <trkpt lat="44.82593" lon="6.25186">
        <ele>1270</ele>
        <time>2016-09-02T16:21:55+02:00</time>
      </trkpt>
      <trkpt lat="44.82592" lon="6.25154">
        <ele>1265</ele>
        <time>2016-09-02T16:22:16+02:00</time>
      </trkpt>
      <trkpt lat="44.82595" lon="6.25123">
        <ele>1264</ele>
        <time>2016-09-02T16:22:44+02:00</time>
      </trkpt>
      <trkpt lat="44.82594" lon="6.2509">
        <ele>1260</ele>
        <time>2016-09-02T16:23:07+02:00</time>
      </trkpt>
      <trkpt lat="44.82598" lon="6.25058">
        <ele>1260</ele>
        <time>2016-09-02T16:23:26+02:00</time>
      </trkpt>
      <trkpt lat="44.826" lon="6.25027">
        <ele>1258</ele>
        <time>2016-09-02T16:23:49+02:00</time>
      </trkpt>
      <trkpt lat="44.82597" lon="6.24995">
        <ele>1253</ele>
        <time>2016-09-02T16:24:09+02:00</time>
      </trkpt>
      <trkpt lat="44.82595" lon="6.24963">
        <ele>1251</ele>
        <time>2016-09-02T16:24:30+02:00</time>
      </trkpt>
      <trkpt lat="44.82595" lon="6.2493">
        <ele>1250</ele>
        <time>2016-09-02T16:24:55+02:00</time>
      </trkpt>
      <trkpt lat="44.82591" lon="6.24898">
        <ele>1248</ele>
        <time>2016-09-02T16:25:17+02:00</time>
      </trkpt>
      <trkpt lat="44.8258" lon="6.2487">
        <ele>1242</ele>
        <time>2016-09-02T16:25:33+02:00</time>
      </trkpt>
      <trkpt lat="44.82569" lon="6.2484">
        <ele>1238</ele>
        <time>2016-09-02T16:25:48+02:00</time>
      </trkpt>
      <trkpt lat="44.82565" lon="6.24809">
        <ele>1234</ele>
        <time>2016-09-02T16:26:06+02:00</time>
      </trkpt>
      <trkpt lat="44.82564" lon="6.24776">
        <ele>1231</ele>
        <time>2016-09-02T16:26:26+02:00</time>
      </trkpt>
      <trkpt lat="44.82564" lon="6.24743">
        <ele>1228</ele>
        <time>2016-09-02T16:26:48+02:00</time>
      </trkpt>
      <trkpt lat="44.82563" lon="6.24709">
        <ele>1226</ele>
        <time>2016-09-02T16:27:15+02:00</time>
      </trkpt>
      <trkpt lat="44.82563" lon="6.24675">
        <ele>1224</ele>
        <time>2016-09-02T16:27:36+02:00</time>
      </trkpt>
      <trkpt lat="44.82556" lon="6.24644">
        <ele>1222</ele>
        <time>2016-09-02T16:27:49+02:00</time>
      </trkpt>
      <trkpt lat="44.8255" lon="6.24612">
        <ele>1219</ele>
        <time>2016-09-02T16:28:07+02:00</time>
      </trkpt>
      <trkpt lat="44.82545" lon="6.2458">
        <ele>1218</ele>
        <time>2016-09-02T16:28:22+02:00</time>
      </trkpt>
      <trkpt lat="44.82541" lon="6.24547">
        <ele>1215</ele>
        <time>2016-09-02T16:28:43+02:00</time>
      </trkpt>
      <trkpt lat="44.82538" lon="6.24514">
        <ele>1213</ele>
        <time>2016-09-02T16:29:03+02:00</time>
      </trkpt>
      <trkpt lat="44.82534" lon="6.24483">
        <ele>1210</ele>
        <time>2016-09-02T16:29:23+02:00</time>
      </trkpt>
      <trkpt lat="44.82532" lon="6.24451">
        <ele>1208</ele>
        <time>2016-09-02T16:29:40+02:00</time>
      </trkpt>
      <trkpt lat="44.82524" lon="6.2442">
        <ele>1204</ele>
        <time>2016-09-02T16:29:56+02:00</time>
      </trkpt>
      <trkpt lat="44.82525" lon="6.24388">
        <ele>1203</ele>
        <time>2016-09-02T16:30:13+02:00</time>
      </trkpt>
      <trkpt lat="44.82521" lon="6.24357">
        <ele>1201</ele>
        <time>2016-09-02T16:30:29+02:00</time>
      </trkpt>
      <trkpt lat="44.82523" lon="6.24325">
        <ele>1200</ele>
        <time>2016-09-02T16:30:44+02:00</time>
      </trkpt>
      <trkpt lat="44.82519" lon="6.24293">
        <ele>1198</ele>
        <time>2016-09-02T16:31:01+02:00</time>
      </trkpt>
      <trkpt lat="44.82514" lon="6.24262">
        <ele>1196</ele>
        <time>2016-09-02T16:31:16+02:00</time>
      </trkpt>
      <trkpt lat="44.82505" lon="6.24233">
        <ele>1194</ele>
        <time>2016-09-02T16:31:35+02:00</time>
      </trkpt>
      <trkpt lat="44.82505" lon="6.242">
        <ele>1193</ele>
        <time>2016-09-02T16:31:52+02:00</time>
      </trkpt>
      <trkpt lat="44.82498" lon="6.2417">
        <ele>1191</ele>
        <time>2016-09-02T16:32:08+02:00</time>
      </trkpt>
      <trkpt lat="44.82496" lon="6.24137">
        <ele>1189</ele>
        <time>2016-09-02T16:32:31+02:00</time>
      </trkpt>
      <trkpt lat="44.8249" lon="6.24107">
        <ele>1187</ele>
        <time>2016-09-02T16:32:53+02:00</time>
      </trkpt>
      <trkpt lat="44.82486" lon="6.24075">
        <ele>1185</ele>
        <time>2016-09-02T16:33:09+02:00</time>
      </trkpt>
      <trkpt lat="44.82485" lon="6.24041">
        <ele>1183</ele>
        <time>2016-09-02T16:33:23+02:00</time>
      </trkpt>
      <trkpt lat="44.82483" lon="6.24009">
        <ele>1181</ele>
        <time>2016-09-02T16:33:38+02:00</time>
      </trkpt>
      <trkpt lat="44.82484" lon="6.23976">
        <ele>1180</ele>
        <time>2016-09-02T16:33:57+02:00</time>
      </trkpt>
      <trkpt lat="44.82486" lon="6.23944">
        <ele>1180</ele>
        <time>2016-09-02T16:34:17+02:00</time>
      </trkpt>
      <trkpt lat="44.82487" lon="6.23911">
        <ele>1180</ele>
        <time>2016-09-02T16:34:37+02:00</time>
      </trkpt>
      <trkpt lat="44.82487" lon="6.23879">
        <ele>1180</ele>
        <time>2016-09-02T16:34:52+02:00</time>
      </trkpt>
      <trkpt lat="44.82488" lon="6.23847">
        <ele>1181</ele>
        <time>2016-09-02T16:35:09+02:00</time>
      </trkpt>
      <trkpt lat="44.82488" lon="6.23814">
        <ele>1181</ele>
        <time>2016-09-02T16:35:26+02:00</time>
      </trkpt>
      <trkpt lat="44.8249" lon="6.23781">
        <ele>1182</ele>
        <time>2016-09-02T16:35:42+02:00</time>
      </trkpt>
      <trkpt lat="44.82494" lon="6.23748">
        <ele>1182</ele>
        <time>2016-09-02T16:35:59+02:00</time>
      </trkpt>
      <trkpt lat="44.82493" lon="6.23716">
        <ele>1183</ele>
        <time>2016-09-02T16:36:16+02:00</time>
      </trkpt>
      <trkpt lat="44.82494" lon="6.23683">
        <ele>1185</ele>
        <time>2016-09-02T16:36:36+02:00</time>
      </trkpt>
      <trkpt lat="44.82487" lon="6.23652">
        <ele>1184</ele>
        <time>2016-09-02T16:36:53+02:00</time>
      </trkpt>
      <trkpt lat="44.82487" lon="6.23619">
        <ele>1185</ele>
        <time>2016-09-02T16:37:11+02:00</time>
      </trkpt>
      <trkpt lat="44.82485" lon="6.23587">
        <ele>1185</ele>
        <time>2016-09-02T16:37:26+02:00</time>
      </trkpt>
      <trkpt lat="44.82477" lon="6.23557">
        <ele>1183</ele>
        <time>2016-09-02T16:37:44+02:00</time>
      </trkpt>
      <trkpt lat="44.8248" lon="6.23526">
        <ele>1182</ele>
        <time>2016-09-02T16:38:02+02:00</time>
      </trkpt>
      <trkpt lat="44.82488" lon="6.23496">
        <ele>1182</ele>
        <time>2016-09-02T16:38:19+02:00</time>
      </trkpt>
      <trkpt lat="44.8249" lon="6.23463">
        <ele>1181</ele>
        <time>2016-09-02T16:38:35+02:00</time>
      </trkpt>
      <trkpt lat="44.8249" lon="6.23429">
        <ele>1179</ele>
        <time>2016-09-02T16:38:55+02:00</time>
      </trkpt>
      <trkpt lat="44.82489" lon="6.23397">
        <ele>1178</ele>
        <time>2016-09-02T16:39:11+02:00</time>
      </trkpt>
      <trkpt lat="44.82489" lon="6.23366">
        <ele>1177</ele>
        <time>2016-09-02T16:39:28+02:00</time>
      </trkpt>
      <trkpt lat="44.82479" lon="6.23337">
        <ele>1175</ele>
        <time>2016-09-02T16:39:47+02:00</time>
      </trkpt>
      <trkpt lat="44.82461" lon="6.23316">
        <ele>1172</ele>
        <time>2016-09-02T16:40:10+02:00</time>
      </trkpt>
      <trkpt lat="44.82438" lon="6.23313">
        <ele>1168</ele>
        <time>2016-09-02T16:40:48+02:00</time>
      </trkpt>
      <trkpt lat="44.82416" lon="6.23324">
        <ele>1165</ele>
        <time>2016-09-02T16:41:25+02:00</time>
      </trkpt>
      <trkpt lat="44.82393" lon="6.23321">
        <ele>1171</ele>
        <time>2016-09-02T16:41:43+02:00</time>
      </trkpt>
      <trkpt lat="44.82372" lon="6.23307">
        <ele>1176</ele>
        <time>2016-09-02T16:42:18+02:00</time>
      </trkpt>
      <trkpt lat="44.82354" lon="6.23281">
        <ele>1179</ele>
        <time>2016-09-02T16:44:49+02:00</time>
      </trkpt>
      <trkpt lat="44.8235" lon="6.2325">
        <ele>1178</ele>
        <time>2016-09-02T16:45:08+02:00</time>
      </trkpt>
      <trkpt lat="44.82346" lon="6.23217">
        <ele>1175</ele>
        <time>2016-09-02T16:45:29+02:00</time>
      </trkpt>
      <trkpt lat="44.82342" lon="6.23186">
        <ele>1172</ele>
        <time>2016-09-02T16:45:41+02:00</time>
      </trkpt>
      <trkpt lat="44.82332" lon="6.23155">
        <ele>1169</ele>
        <time>2016-09-02T16:46:00+02:00</time>
      </trkpt>
      <trkpt lat="44.82326" lon="6.23124">
        <ele>1168</ele>
        <time>2016-09-02T16:46:27+02:00</time>
      </trkpt>
      <trkpt lat="44.82317" lon="6.23095">
        <ele>1167</ele>
        <time>2016-09-02T16:46:56+02:00</time>
      </trkpt>
      <trkpt lat="44.82304" lon="6.23069">
        <ele>1168</ele>
        <time>2016-09-02T16:47:23+02:00</time>
      </trkpt>
      <trkpt lat="44.82298" lon="6.23037">
        <ele>1165</ele>
        <time>2016-09-02T16:47:48+02:00</time>
      </trkpt>
      <trkpt lat="44.82294" lon="6.23005">
        <ele>1161</ele>
        <time>2016-09-02T16:48:05+02:00</time>
      </trkpt>
      <trkpt lat="44.82278" lon="6.22983">
        <ele>1162</ele>
        <time>2016-09-02T16:48:24+02:00</time>
      </trkpt>
      <trkpt lat="44.82263" lon="6.22958">
        <ele>1161</ele>
        <time>2016-09-02T16:48:49+02:00</time>
      </trkpt>
      <trkpt lat="44.82246" lon="6.22936">
        <ele>1162</ele>
        <time>2016-09-02T16:49:16+02:00</time>
      </trkpt>
      <trkpt lat="44.82232" lon="6.22911">
        <ele>1166</ele>
        <time>2016-09-02T16:49:38+02:00</time>
      </trkpt>
      <trkpt lat="44.82221" lon="6.22881">
        <ele>1168</ele>
        <time>2016-09-02T16:50:01+02:00</time>
      </trkpt>
      <trkpt lat="44.82208" lon="6.22855">
        <ele>1170</ele>
        <time>2016-09-02T16:50:22+02:00</time>
      </trkpt>
      <trkpt lat="44.82202" lon="6.22824">
        <ele>1167</ele>
        <time>2016-09-02T16:50:41+02:00</time>
      </trkpt>
      <trkpt lat="44.82189" lon="6.22796">
        <ele>1166</ele>
        <time>2016-09-02T16:51:12+02:00</time>
      </trkpt>
      <trkpt lat="44.82173" lon="6.22773">
        <ele>1164</ele>
        <time>2016-09-02T16:51:34+02:00</time>
      </trkpt>
      <trkpt lat="44.82159" lon="6.22747">
        <ele>1163</ele>
        <time>2016-09-02T16:51:51+02:00</time>
      </trkpt>
      <trkpt lat="44.82143" lon="6.22723">
        <ele>1166</ele>
        <time>2016-09-02T16:52:08+02:00</time>
      </trkpt>
      <trkpt lat="44.82127" lon="6.22699">
        <ele>1167</ele>
        <time>2016-09-02T16:52:28+02:00</time>
      </trkpt>
      <trkpt lat="44.82105" lon="6.22686">
        <ele>1172</ele>
        <time>2016-09-02T16:52:53+02:00</time>
      </trkpt>
      <trkpt lat="44.82086" lon="6.22665">
        <ele>1173</ele>
        <time>2016-09-02T16:53:14+02:00</time>
      </trkpt>
      <trkpt lat="44.82077" lon="6.22635">
        <ele>1175</ele>
        <time>2016-09-02T16:53:48+02:00</time>
      </trkpt>
      <trkpt lat="44.82088" lon="6.22601">
        <ele>1166</ele>
        <time>2016-09-02T16:58:06+02:00</time>
      </trkpt>
      <trkpt lat="44.82082" lon="6.2257">
        <ele>1165</ele>
        <time>2016-09-02T17:07:45+02:00</time>
      </trkpt>
      <trkpt lat="44.82078" lon="6.22538">
        <ele>1165</ele>
        <time>2016-09-02T17:08:04+02:00</time>
      </trkpt>
      <trkpt lat="44.82075" lon="6.22506">
        <ele>1164</ele>
        <time>2016-09-02T17:08:26+02:00</time>
      </trkpt>
      <trkpt lat="44.82067" lon="6.22475">
        <ele>1166</ele>
        <time>2016-09-02T17:08:48+02:00</time>
      </trkpt>
      <trkpt lat="44.82061" lon="6.22443">
        <ele>1166</ele>
        <time>2016-09-02T17:09:08+02:00</time>
      </trkpt>
      <trkpt lat="44.82051" lon="6.22413">
        <ele>1168</ele>
        <time>2016-09-02T17:09:31+02:00</time>
      </trkpt>
      <trkpt lat="44.82039" lon="6.22386">
        <ele>1172</ele>
        <time>2016-09-02T17:09:54+02:00</time>
      </trkpt>
      <trkpt lat="44.82034" lon="6.22355">
        <ele>1171</ele>
        <time>2016-09-02T17:10:15+02:00</time>
      </trkpt>
      <trkpt lat="44.82031" lon="6.22323">
        <ele>1170</ele>
        <time>2016-09-02T17:10:35+02:00</time>
      </trkpt>
      <trkpt lat="44.82028" lon="6.22291">
        <ele>1168</ele>
        <time>2016-09-02T17:10:59+02:00</time>
      </trkpt>
      <trkpt lat="44.82024" lon="6.22259">
        <ele>1168</ele>
        <time>2016-09-02T17:11:27+02:00</time>
      </trkpt>
      <trkpt lat="44.82027" lon="6.22227">
        <ele>1164</ele>
        <time>2016-09-02T17:11:48+02:00</time>
      </trkpt>
      <trkpt lat="44.82021" lon="6.22195">
        <ele>1163</ele>
        <time>2016-09-02T17:12:04+02:00</time>
      </trkpt>
      <trkpt lat="44.82018" lon="6.22162">
        <ele>1161</ele>
        <time>2016-09-02T17:12:23+02:00</time>
      </trkpt>
      <trkpt lat="44.82013" lon="6.22131">
        <ele>1158</ele>
        <time>2016-09-02T17:12:40+02:00</time>
      </trkpt>
      <trkpt lat="44.82012" lon="6.22099">
        <ele>1154</ele>
        <time>2016-09-02T17:13:01+02:00</time>
      </trkpt>
      <trkpt lat="44.82005" lon="6.22068">
        <ele>1151</ele>
        <time>2016-09-02T17:13:28+02:00</time>
      </trkpt>
      <trkpt lat="44.81994" lon="6.22039">
        <ele>1149</ele>
        <time>2016-09-02T17:13:57+02:00</time>
      </trkpt>
      <trkpt lat="44.81992" lon="6.22007">
        <ele>1145</ele>
        <time>2016-09-02T17:14:18+02:00</time>
      </trkpt>
      <trkpt lat="44.81995" lon="6.21975">
        <ele>1141</ele>
        <time>2016-09-02T17:14:41+02:00</time>
      </trkpt>
      <trkpt lat="44.81992" lon="6.21943">
        <ele>1141</ele>
        <time>2016-09-02T17:15:04+02:00</time>
      </trkpt>
      <trkpt lat="44.81982" lon="6.21913">
        <ele>1143</ele>
        <time>2016-09-02T17:15:50+02:00</time>
      </trkpt>
      <trkpt lat="44.81974" lon="6.21883">
        <ele>1145</ele>
        <time>2016-09-02T17:16:11+02:00</time>
      </trkpt>
      <trkpt lat="44.81973" lon="6.2185">
        <ele>1144</ele>
        <time>2016-09-02T17:16:26+02:00</time>
      </trkpt>
      <trkpt lat="44.81972" lon="6.21818">
        <ele>1143</ele>
        <time>2016-09-02T17:16:59+02:00</time>
      </trkpt>
      <trkpt lat="44.81971" lon="6.21785">
        <ele>1142</ele>
        <time>2016-09-02T17:17:19+02:00</time>
      </trkpt>
      <trkpt lat="44.81966" lon="6.21753">
        <ele>1141</ele>
        <time>2016-09-02T17:17:36+02:00</time>
      </trkpt>
      <trkpt lat="44.81958" lon="6.21723">
        <ele>1142</ele>
        <time>2016-09-02T17:17:56+02:00</time>
      </trkpt>
      <trkpt lat="44.81959" lon="6.2169">
        <ele>1139</ele>
        <time>2016-09-02T17:18:15+02:00</time>
      </trkpt>
      <trkpt lat="44.81961" lon="6.21659">
        <ele>1136</ele>
        <time>2016-09-02T17:18:33+02:00</time>
      </trkpt>
      <trkpt lat="44.81961" lon="6.21626">
        <ele>1133</ele>
        <time>2016-09-02T17:18:50+02:00</time>
      </trkpt>
      <trkpt lat="44.81955" lon="6.21593">
        <ele>1131</ele>
        <time>2016-09-02T17:19:10+02:00</time>
      </trkpt>
      <trkpt lat="44.81943" lon="6.21565">
        <ele>1130</ele>
        <time>2016-09-02T17:19:29+02:00</time>
      </trkpt>
      <trkpt lat="44.81935" lon="6.21535">
        <ele>1128</ele>
        <time>2016-09-02T17:19:45+02:00</time>
      </trkpt>
      <trkpt lat="44.8192" lon="6.21511">
        <ele>1126</ele>
        <time>2016-09-02T17:20:02+02:00</time>
      </trkpt>
      <trkpt lat="44.819" lon="6.21494">
        <ele>1128</ele>
        <time>2016-09-02T17:20:21+02:00</time>
      </trkpt>
      <trkpt lat="44.81884" lon="6.21469">
        <ele>1131</ele>
        <time>2016-09-02T17:20:41+02:00</time>
      </trkpt>
      <trkpt lat="44.81882" lon="6.21438">
        <ele>1131</ele>
        <time>2016-09-02T17:20:57+02:00</time>
      </trkpt>
      <trkpt lat="44.81884" lon="6.21405">
        <ele>1130</ele>
        <time>2016-09-02T17:21:15+02:00</time>
      </trkpt>
      <trkpt lat="44.81883" lon="6.21373">
        <ele>1129</ele>
        <time>2016-09-02T17:21:31+02:00</time>
      </trkpt>
      <trkpt lat="44.81879" lon="6.21341">
        <ele>1128</ele>
        <time>2016-09-02T17:21:50+02:00</time>
      </trkpt>
      <trkpt lat="44.81868" lon="6.21312">
        <ele>1130</ele>
        <time>2016-09-02T17:22:13+02:00</time>
      </trkpt>
      <trkpt lat="44.81882" lon="6.21287">
        <ele>1126</ele>
        <time>2016-09-02T17:22:40+02:00</time>
      </trkpt>
      <trkpt lat="44.81884" lon="6.21254">
        <ele>1124</ele>
        <time>2016-09-02T17:22:58+02:00</time>
      </trkpt>
      <trkpt lat="44.81888" lon="6.21223">
        <ele>1123</ele>
        <time>2016-09-02T17:23:14+02:00</time>
      </trkpt>
      <trkpt lat="44.81892" lon="6.2119">
        <ele>1121</ele>
        <time>2016-09-02T17:23:33+02:00</time>
      </trkpt>
      <trkpt lat="44.81889" lon="6.21157">
        <ele>1121</ele>
        <time>2016-09-02T17:23:49+02:00</time>
      </trkpt>
      <trkpt lat="44.81885" lon="6.21126">
        <ele>1123</ele>
        <time>2016-09-02T17:24:07+02:00</time>
      </trkpt>
      <trkpt lat="44.81882" lon="6.21092">
        <ele>1124</ele>
        <time>2016-09-02T17:24:34+02:00</time>
      </trkpt>
      <trkpt lat="44.81877" lon="6.21061">
        <ele>1126</ele>
        <time>2016-09-02T17:24:53+02:00</time>
      </trkpt>
      <trkpt lat="44.81872" lon="6.21029">
        <ele>1128</ele>
        <time>2016-09-02T17:25:10+02:00</time>
      </trkpt>
      <trkpt lat="44.81875" lon="6.20995">
        <ele>1127</ele>
        <time>2016-09-02T17:25:31+02:00</time>
      </trkpt>
      <trkpt lat="44.81883" lon="6.20964">
        <ele>1124</ele>
        <time>2016-09-02T17:25:50+02:00</time>
      </trkpt>
      <trkpt lat="44.81885" lon="6.20932">
        <ele>1122</ele>
        <time>2016-09-02T17:26:11+02:00</time>
      </trkpt>
      <trkpt lat="44.81885" lon="6.209">
        <ele>1121</ele>
        <time>2016-09-02T17:26:26+02:00</time>
      </trkpt>
      <trkpt lat="44.81885" lon="6.20868">
        <ele>1119</ele>
        <time>2016-09-02T17:26:45+02:00</time>
      </trkpt>
      <trkpt lat="44.81886" lon="6.20836">
        <ele>1116</ele>
        <time>2016-09-02T17:27:05+02:00</time>
      </trkpt>
      <trkpt lat="44.81895" lon="6.20807">
        <ele>1113</ele>
        <time>2016-09-02T17:27:25+02:00</time>
      </trkpt>
      <trkpt lat="44.81894" lon="6.20774">
        <ele>1112</ele>
        <time>2016-09-02T17:27:55+02:00</time>
      </trkpt>
      <trkpt lat="44.81882" lon="6.20745">
        <ele>1112</ele>
        <time>2016-09-02T17:28:17+02:00</time>
      </trkpt>
      <trkpt lat="44.81871" lon="6.20716">
        <ele>1114</ele>
        <time>2016-09-02T17:28:30+02:00</time>
      </trkpt>
      <trkpt lat="44.81868" lon="6.20685">
        <ele>1113</ele>
        <time>2016-09-02T17:28:49+02:00</time>
      </trkpt>
      <trkpt lat="44.81861" lon="6.20655">
        <ele>1114</ele>
        <time>2016-09-02T17:29:03+02:00</time>
      </trkpt>
      <trkpt lat="44.81865" lon="6.20623">
        <ele>1112</ele>
        <time>2016-09-02T17:29:23+02:00</time>
      </trkpt>
      <trkpt lat="44.81867" lon="6.20589">
        <ele>1111</ele>
        <time>2016-09-02T17:29:47+02:00</time>
      </trkpt>
      <trkpt lat="44.81872" lon="6.20557">
        <ele>1109</ele>
        <time>2016-09-02T17:30:04+02:00</time>
      </trkpt>
      <trkpt lat="44.81871" lon="6.20525">
        <ele>1108</ele>
        <time>2016-09-02T17:30:24+02:00</time>
      </trkpt>
      <trkpt lat="44.81866" lon="6.20492">
        <ele>1107</ele>
        <time>2016-09-02T17:30:39+02:00</time>
      </trkpt>
      <trkpt lat="44.81863" lon="6.20461">
        <ele>1107</ele>
        <time>2016-09-02T17:31:04+02:00</time>
      </trkpt>
      <trkpt lat="44.81851" lon="6.2043">
        <ele>1107</ele>
        <time>2016-09-02T17:31:18+02:00</time>
      </trkpt>
      <trkpt lat="44.81845" lon="6.20398">
        <ele>1106</ele>
        <time>2016-09-02T17:31:33+02:00</time>
      </trkpt>
      <trkpt lat="44.81843" lon="6.20365">
        <ele>1104</ele>
        <time>2016-09-02T17:31:55+02:00</time>
      </trkpt>
      <trkpt lat="44.81845" lon="6.2033">
        <ele>1102</ele>
        <time>2016-09-02T17:32:19+02:00</time>
      </trkpt>
      <trkpt lat="44.81853" lon="6.20301">
        <ele>1102</ele>
        <time>2016-09-02T17:32:34+02:00</time>
      </trkpt>
      <trkpt lat="44.81845" lon="6.20271">
        <ele>1102</ele>
        <time>2016-09-02T17:32:59+02:00</time>
      </trkpt>
      <trkpt lat="44.81842" lon="6.20239">
        <ele>1102</ele>
        <time>2016-09-02T17:33:18+02:00</time>
      </trkpt>
      <trkpt lat="44.81829" lon="6.20209">
        <ele>1103</ele>
        <time>2016-09-02T17:33:40+02:00</time>
      </trkpt>
      <trkpt lat="44.81813" lon="6.20186">
        <ele>1108</ele>
        <time>2016-09-02T17:33:59+02:00</time>
      </trkpt>
      <trkpt lat="44.81797" lon="6.20165">
        <ele>1111</ele>
        <time>2016-09-02T17:34:33+02:00</time>
      </trkpt>
      <trkpt lat="44.8178" lon="6.20143">
        <ele>1113</ele>
        <time>2016-09-02T17:34:57+02:00</time>
      </trkpt>
      <trkpt lat="44.81771" lon="6.20112">
        <ele>1109</ele>
        <time>2016-09-02T17:35:16+02:00</time>
      </trkpt>
      <trkpt lat="44.81757" lon="6.20087">
        <ele>1105</ele>
        <time>2016-09-02T17:36:05+02:00</time>
      </trkpt>
      <trkpt lat="44.81741" lon="6.20064">
        <ele>1108</ele>
        <time>2016-09-02T17:36:27+02:00</time>
      </trkpt>
      <trkpt lat="44.81731" lon="6.20034">
        <ele>1111</ele>
        <time>2016-09-02T17:36:46+02:00</time>
      </trkpt>
      <trkpt lat="44.81717" lon="6.20008">
        <ele>1112</ele>
        <time>2016-09-02T17:37:12+02:00</time>
      </trkpt>
      <trkpt lat="44.81721" lon="6.19975">
        <ele>1107</ele>
        <time>2016-09-02T17:37:28+02:00</time>
      </trkpt>
      <trkpt lat="44.81715" lon="6.19942">
        <ele>1107</ele>
        <time>2016-09-02T17:37:46+02:00</time>
      </trkpt>
      <trkpt lat="44.81712" lon="6.19909">
        <ele>1105</ele>
        <time>2016-09-02T17:38:11+02:00</time>
      </trkpt>
      <trkpt lat="44.81702" lon="6.19881">
        <ele>1105</ele>
        <time>2016-09-02T17:38:27+02:00</time>
      </trkpt>
      <trkpt lat="44.81693" lon="6.19847">
        <ele>1104</ele>
        <time>2016-09-02T17:39:04+02:00</time>
      </trkpt>
      <trkpt lat="44.81678" lon="6.19823">
        <ele>1104</ele>
        <time>2016-09-02T17:39:22+02:00</time>
      </trkpt>
      <trkpt lat="44.81668" lon="6.19794">
        <ele>1104</ele>
        <time>2016-09-02T17:39:38+02:00</time>
      </trkpt>
      <trkpt lat="44.81655" lon="6.19768">
        <ele>1106</ele>
        <time>2016-09-02T17:39:57+02:00</time>
      </trkpt>
      <trkpt lat="44.8166" lon="6.19736">
        <ele>1102</ele>
        <time>2016-09-02T17:40:28+02:00</time>
      </trkpt>
      <trkpt lat="44.81655" lon="6.19704">
        <ele>1101</ele>
        <time>2016-09-02T17:40:55+02:00</time>
      </trkpt>
      <trkpt lat="44.81651" lon="6.19672">
        <ele>1099</ele>
        <time>2016-09-02T17:41:16+02:00</time>
      </trkpt>
      <trkpt lat="44.81657" lon="6.19641">
        <ele>1096</ele>
        <time>2016-09-02T17:42:41+02:00</time>
      </trkpt>
      <trkpt lat="44.81662" lon="6.19609">
        <ele>1094</ele>
        <time>2016-09-02T17:42:54+02:00</time>
      </trkpt>
      <trkpt lat="44.81661" lon="6.19577">
        <ele>1093</ele>
        <time>2016-09-02T17:43:20+02:00</time>
      </trkpt>
      <trkpt lat="44.81645" lon="6.19554">
        <ele>1095</ele>
        <time>2016-09-02T17:43:52+02:00</time>
      </trkpt>
      <trkpt lat="44.81632" lon="6.19527">
        <ele>1097</ele>
        <time>2016-09-02T17:44:12+02:00</time>
      </trkpt>
      <trkpt lat="44.81639" lon="6.19495">
        <ele>1095</ele>
        <time>2016-09-02T17:44:40+02:00</time>
      </trkpt>
      <trkpt lat="44.81655" lon="6.19473">
        <ele>1093</ele>
        <time>2016-09-02T17:45:01+02:00</time>
      </trkpt>
      <trkpt lat="44.81671" lon="6.1945">
        <ele>1091</ele>
        <time>2016-09-02T17:45:21+02:00</time>
      </trkpt>
      <trkpt lat="44.8169" lon="6.19427">
        <ele>1091</ele>
        <time>2016-09-02T17:45:58+02:00</time>
      </trkpt>
      <trkpt lat="44.81711" lon="6.1941">
        <ele>1090</ele>
        <time>2016-09-02T17:46:57+02:00</time>
      </trkpt>
      <trkpt lat="44.81691" lon="6.19428">
        <ele>1091</ele>
        <time>2016-09-02T17:47:18+02:00</time>
      </trkpt>
      <trkpt lat="44.81678" lon="6.19453">
        <ele>1091</ele>
        <time>2016-09-02T17:47:37+02:00</time>
      </trkpt>
      <trkpt lat="44.81659" lon="6.19478">
        <ele>1092</ele>
        <time>2016-09-02T17:51:38+02:00</time>
      </trkpt>
    </trkseg>
  </trk>
</gpx>